﻿<?xml version="1.0" encoding="utf-8"?><gpx creator="Garmin Desktop App" version="1.1" xsi:schemaLocation="http://www.topografix.com/GPX/1/1 http://www.topografix.com/GPX/1/1/gpx.xsd http://www.garmin.com/xmlschemas/WaypointExtension/v1 http://www8.garmin.com/xmlschemas/WaypointExtensionv1.xsd http://www.garmin.com/xmlschemas/TrackPointExtension/v1 http://www.garmin.com/xmlschemas/TrackPointExtensionv1.xsd http://www.garmin.com/xmlschemas/GpxExtensions/v3 http://www8.garmin.com/xmlschemas/GpxExtensionsv3.xsd http://www.garmin.com/xmlschemas/ActivityExtension/v1 http://www8.garmin.com/xmlschemas/ActivityExtensionv1.xsd http://www.garmin.com/xmlschemas/AdventuresExtensions/v1 http://www8.garmin.com/xmlschemas/AdventuresExtensionv1.xsd http://www.garmin.com/xmlschemas/PressureExtension/v1 http://www.garmin.com/xmlschemas/PressureExtensionv1.xsd http://www.garmin.com/xmlschemas/TripExtensions/v1 http://www.garmin.com/xmlschemas/TripExtensionsv1.xsd http://www.garmin.com/xmlschemas/TripMetaDataExtensions/v1 http://www.garmin.com/xmlschemas/TripMetaDataExtensionsv1.xsd http://www.garmin.com/xmlschemas/ViaPointTransportationModeExtensions/v1 http://www.garmin.com/xmlschemas/ViaPointTransportationModeExtensionsv1.xsd http://www.garmin.com/xmlschemas/CreationTimeExtension/v1 http://www.garmin.com/xmlschemas/CreationTimeExtensionsv1.xsd http://www.garmin.com/xmlschemas/AccelerationExtension/v1 http://www.garmin.com/xmlschemas/AccelerationExtensionv1.xsd http://www.garmin.com/xmlschemas/PowerExtension/v1 http://www.garmin.com/xmlschemas/PowerExtensionv1.xsd http://www.garmin.com/xmlschemas/VideoExtension/v1 http://www.garmin.com/xmlschemas/VideoExtensionv1.xsd" xmlns="http://www.topografix.com/GPX/1/1" xmlns:xsi="http://www.w3.org/2001/XMLSchema-instance" xmlns:wptx1="http://www.garmin.com/xmlschemas/WaypointExtension/v1" xmlns:gpxtrx="http://www.garmin.com/xmlschemas/GpxExtensions/v3" xmlns:gpxtpx="http://www.garmin.com/xmlschemas/TrackPointExtension/v1" xmlns:gpxx="http://www.garmin.com/xmlschemas/GpxExtensions/v3" xmlns:trp="http://www.garmin.com/xmlschemas/TripExtensions/v1" xmlns:adv="http://www.garmin.com/xmlschemas/AdventuresExtensions/v1" xmlns:prs="http://www.garmin.com/xmlschemas/PressureExtension/v1" xmlns:tmd="http://www.garmin.com/xmlschemas/TripMetaDataExtensions/v1" xmlns:vptm="http://www.garmin.com/xmlschemas/ViaPointTransportationModeExtensions/v1" xmlns:ctx="http://www.garmin.com/xmlschemas/CreationTimeExtension/v1" xmlns:gpxacc="http://www.garmin.com/xmlschemas/AccelerationExtension/v1" xmlns:gpxpx="http://www.garmin.com/xmlschemas/PowerExtension/v1" xmlns:vidx1="http://www.garmin.com/xmlschemas/VideoExtension/v1">

  <metadata>
    <link href="http://www.garmin.com">
      <text>Garmin International</text>
    </link>
    <time>2021-02-20T10:14:17Z</time>
    <bounds maxlat="46.062737144529819" maxlon="9.230091255158186" minlat="46.058442676439881" minlon="9.209458697587252" />
  </metadata>

  <trk>
    <name>ferrata grona03-MAG-12</name>
    <extensions>
      <gpxx:TrackExtension>
        <gpxx:DisplayColor>Yellow</gpxx:DisplayColor>
      </gpxx:TrackExtension>
    </extensions>
    <trkseg>
      <trkpt lat="46.059595188125968" lon="9.229561015963554">
        <ele>1093.1600000000001</ele>
        <time>2012-05-03T07:28:00Z</time>
      </trkpt>
      <trkpt lat="46.059601055458188" lon="9.229577779769898">
        <ele>1093.1600000000001</ele>
        <time>2012-05-03T07:28:15Z</time>
      </trkpt>
      <trkpt lat="46.05961631052196" lon="9.229591274634004">
        <ele>1093.1600000000001</ele>
        <time>2012-05-03T07:28:25Z</time>
      </trkpt>
      <trkpt lat="46.059684874489903" lon="9.229666292667389">
        <ele>1093.6400000000001</ele>
        <time>2012-05-03T07:28:36Z</time>
      </trkpt>
      <trkpt lat="46.059771124273539" lon="9.229746758937836">
        <ele>1094.1199999999999</ele>
        <time>2012-05-03T07:28:50Z</time>
      </trkpt>
      <trkpt lat="46.05977414175868" lon="9.229750530794263">
        <ele>1093.1600000000001</ele>
        <time>2012-05-03T07:28:54Z</time>
      </trkpt>
      <trkpt lat="46.059792246669531" lon="9.229770563542843">
        <ele>1093.6400000000001</ele>
        <time>2012-05-03T07:28:58Z</time>
      </trkpt>
      <trkpt lat="46.059870030730963" lon="9.229903584346175">
        <ele>1094.1199999999999</ele>
        <time>2012-05-03T07:29:11Z</time>
      </trkpt>
      <trkpt lat="46.059915376827121" lon="9.229942308738828">
        <ele>1093.6400000000001</ele>
        <time>2012-05-03T07:29:16Z</time>
      </trkpt>
      <trkpt lat="46.059959214180708" lon="9.22998396679759">
        <ele>1093.6400000000001</ele>
        <time>2012-05-03T07:29:22Z</time>
      </trkpt>
      <trkpt lat="46.059978995472193" lon="9.229986481368542">
        <ele>1094.1199999999999</ele>
        <time>2012-05-03T07:29:24Z</time>
      </trkpt>
      <trkpt lat="46.060019815340638" lon="9.230036186054349">
        <ele>1095.0799999999999</ele>
        <time>2012-05-03T07:29:30Z</time>
      </trkpt>
      <trkpt lat="46.060047475621104" lon="9.230059906840324">
        <ele>1095.0799999999999</ele>
        <time>2012-05-03T07:29:36Z</time>
      </trkpt>
      <trkpt lat="46.060073459520936" lon="9.23001715913415">
        <ele>1097.48</ele>
        <time>2012-05-03T07:29:49Z</time>
      </trkpt>
      <trkpt lat="46.06006239540875" lon="9.229941889643669">
        <ele>1098.9200000000001</ele>
        <time>2012-05-03T07:30:00Z</time>
      </trkpt>
      <trkpt lat="46.060128025710583" lon="9.229929819703102">
        <ele>1100.8499999999999</ele>
        <time>2012-05-03T07:30:14Z</time>
      </trkpt>
      <trkpt lat="46.06017136014998" lon="9.229937447234988">
        <ele>1102.29</ele>
        <time>2012-05-03T07:30:27Z</time>
      </trkpt>
      <trkpt lat="46.060243276879191" lon="9.229903416708112">
        <ele>1104.21</ele>
        <time>2012-05-03T07:30:40Z</time>
      </trkpt>
      <trkpt lat="46.060282420367002" lon="9.229889418929815">
        <ele>1106.1300000000001</ele>
        <time>2012-05-03T07:30:54Z</time>
      </trkpt>
      <trkpt lat="46.060320809483528" lon="9.229827392846346">
        <ele>1108.54</ele>
        <time>2012-05-03T07:31:06Z</time>
      </trkpt>
      <trkpt lat="46.060302034020424" lon="9.229772323742509">
        <ele>1109.98</ele>
        <time>2012-05-03T07:31:18Z</time>
      </trkpt>
      <trkpt lat="46.060249814763665" lon="9.229684732854366">
        <ele>1111.9000000000001</ele>
        <time>2012-05-03T07:31:33Z</time>
      </trkpt>
      <trkpt lat="46.060236822813749" lon="9.229595046490431">
        <ele>1113.8199999999999</ele>
        <time>2012-05-03T07:31:46Z</time>
      </trkpt>
      <trkpt lat="46.060211760923266" lon="9.229522794485092">
        <ele>1115.27</ele>
        <time>2012-05-03T07:31:56Z</time>
      </trkpt>
      <trkpt lat="46.060198517516255" lon="9.22942983917892">
        <ele>1117.1900000000001</ele>
        <time>2012-05-03T07:32:11Z</time>
      </trkpt>
      <trkpt lat="46.060180831700563" lon="9.229312911629677">
        <ele>1119.5899999999999</ele>
        <time>2012-05-03T07:32:26Z</time>
      </trkpt>
      <trkpt lat="46.060149818658829" lon="9.229226745665073">
        <ele>1121.52</ele>
        <time>2012-05-03T07:32:39Z</time>
      </trkpt>
      <trkpt lat="46.060105310752988" lon="9.229162037372589">
        <ele>1123.4400000000001</ele>
        <time>2012-05-03T07:32:52Z</time>
      </trkpt>
      <trkpt lat="46.060106148943305" lon="9.229087773710489">
        <ele>1125.3599999999999</ele>
        <time>2012-05-03T07:33:03Z</time>
      </trkpt>
      <trkpt lat="46.060076812282205" lon="9.229057431221008">
        <ele>1126.3199999999999</ele>
        <time>2012-05-03T07:33:09Z</time>
      </trkpt>
      <trkpt lat="46.060032807290554" lon="9.228975791484118">
        <ele>1127.76</ele>
        <time>2012-05-03T07:33:22Z</time>
      </trkpt>
      <trkpt lat="46.060018222779036" lon="9.228942347690463">
        <ele>1128.73</ele>
        <time>2012-05-03T07:33:41Z</time>
      </trkpt>
      <trkpt lat="46.059991316869855" lon="9.228841932490468">
        <ele>1130.1700000000001</ele>
        <time>2012-05-03T07:33:54Z</time>
      </trkpt>
      <trkpt lat="46.059979163110256" lon="9.228788204491139">
        <ele>1132.0899999999999</ele>
        <time>2012-05-03T07:34:05Z</time>
      </trkpt>
      <trkpt lat="46.060004225000739" lon="9.228682005777955">
        <ele>1134.49</ele>
        <time>2012-05-03T07:34:19Z</time>
      </trkpt>
      <trkpt lat="46.06000816449523" lon="9.2286192253232">
        <ele>1136.9000000000001</ele>
        <time>2012-05-03T07:34:32Z</time>
      </trkpt>
      <trkpt lat="46.060024676844478" lon="9.22857329249382">
        <ele>1138.3399999999999</ele>
        <time>2012-05-03T07:34:45Z</time>
      </trkpt>
      <trkpt lat="46.060060216113925" lon="9.228567089885473">
        <ele>1140.74</ele>
        <time>2012-05-03T07:34:57Z</time>
      </trkpt>
      <trkpt lat="46.060090307146311" lon="9.228509925305843">
        <ele>1142.6600000000001</ele>
        <time>2012-05-03T07:35:10Z</time>
      </trkpt>
      <trkpt lat="46.060107573866844" lon="9.228419484570622">
        <ele>1145.0699999999999</ele>
        <time>2012-05-03T07:35:24Z</time>
      </trkpt>
      <trkpt lat="46.060130791738629" lon="9.228296857327223">
        <ele>1147.47</ele>
        <time>2012-05-03T07:35:39Z</time>
      </trkpt>
      <trkpt lat="46.060117967426777" lon="9.22820046544075">
        <ele>1149.8699999999999</ele>
        <time>2012-05-03T07:35:54Z</time>
      </trkpt>
      <trkpt lat="46.06008293107152" lon="9.228120585903525">
        <ele>1151.8</ele>
        <time>2012-05-03T07:36:07Z</time>
      </trkpt>
      <trkpt lat="46.060051918029785" lon="9.228061828762293">
        <ele>1153.24</ele>
        <time>2012-05-03T07:36:18Z</time>
      </trkpt>
      <trkpt lat="46.060063820332289" lon="9.228005670011044">
        <ele>1155.6400000000001</ele>
        <time>2012-05-03T07:36:30Z</time>
      </trkpt>
      <trkpt lat="46.060038758441806" lon="9.227948170155287">
        <ele>1158.05</ele>
        <time>2012-05-03T07:36:44Z</time>
      </trkpt>
      <trkpt lat="46.060041440650821" lon="9.227932998910546">
        <ele>1158.53</ele>
        <time>2012-05-03T07:36:45Z</time>
      </trkpt>
      <trkpt lat="46.06002920307219" lon="9.227845827117562">
        <ele>1159.97</ele>
        <time>2012-05-03T07:36:56Z</time>
      </trkpt>
      <trkpt lat="46.060007745400071" lon="9.227773742750287">
        <ele>1161.4100000000001</ele>
        <time>2012-05-03T07:37:05Z</time>
      </trkpt>
      <trkpt lat="46.059985868632793" lon="9.227682799100876">
        <ele>1163.3299999999999</ele>
        <time>2012-05-03T07:37:19Z</time>
      </trkpt>
      <trkpt lat="46.059975894168019" lon="9.227609876543284">
        <ele>1165.26</ele>
        <time>2012-05-03T07:37:31Z</time>
      </trkpt>
      <trkpt lat="46.059957118704915" lon="9.227508455514908">
        <ele>1167.6600000000001</ele>
        <time>2012-05-03T07:37:45Z</time>
      </trkpt>
      <trkpt lat="46.059961896389723" lon="9.227506779134274">
        <ele>1167.1800000000001</ele>
        <time>2012-05-03T07:37:46Z</time>
      </trkpt>
      <trkpt lat="46.060031969100237" lon="9.227521866559982">
        <ele>1169.5799999999999</ele>
        <time>2012-05-03T07:37:57Z</time>
      </trkpt>
      <trkpt lat="46.060051331296563" lon="9.227474760264158">
        <ele>1171.02</ele>
        <time>2012-05-03T07:38:07Z</time>
      </trkpt>
      <trkpt lat="46.060036830604076" lon="9.227392030879855">
        <ele>1173.4300000000001</ele>
        <time>2012-05-03T07:38:20Z</time>
      </trkpt>
      <trkpt lat="46.060020485892892" lon="9.227308798581362">
        <ele>1174.8699999999999</ele>
        <time>2012-05-03T07:38:33Z</time>
      </trkpt>
      <trkpt lat="46.060026017948985" lon="9.227190027013421">
        <ele>1177.75</ele>
        <time>2012-05-03T07:38:47Z</time>
      </trkpt>
      <trkpt lat="46.060061557218432" lon="9.227144094184041">
        <ele>1179.6700000000001</ele>
        <time>2012-05-03T07:38:58Z</time>
      </trkpt>
      <trkpt lat="46.060060551390052" lon="9.227081146091223">
        <ele>1181.1199999999999</ele>
        <time>2012-05-03T07:39:08Z</time>
      </trkpt>
      <trkpt lat="46.060090558603406" lon="9.227014929056168">
        <ele>1182.0799999999999</ele>
        <time>2012-05-03T07:39:16Z</time>
      </trkpt>
      <trkpt lat="46.060103802010417" lon="9.226974947378039">
        <ele>1183.04</ele>
        <time>2012-05-03T07:39:20Z</time>
      </trkpt>
      <trkpt lat="46.060157027095556" lon="9.226992968469858">
        <ele>1184.96</ele>
        <time>2012-05-03T07:39:32Z</time>
      </trkpt>
      <trkpt lat="46.060169767588377" lon="9.227016353979707">
        <ele>1185.9200000000001</ele>
        <time>2012-05-03T07:39:39Z</time>
      </trkpt>
      <trkpt lat="46.060258531942964" lon="9.226986514404416">
        <ele>1188.8099999999999</ele>
        <time>2012-05-03T07:39:53Z</time>
      </trkpt>
      <trkpt lat="46.060307566076517" lon="9.226998500525951">
        <ele>1190.73</ele>
        <time>2012-05-03T07:40:00Z</time>
      </trkpt>
      <trkpt lat="46.06038493104279" lon="9.227030351758003">
        <ele>1192.1700000000001</ele>
        <time>2012-05-03T07:40:13Z</time>
      </trkpt>
      <trkpt lat="46.060388954356313" lon="9.227033453062177">
        <ele>1192.1700000000001</ele>
        <time>2012-05-03T07:40:14Z</time>
      </trkpt>
      <trkpt lat="46.060446370393038" lon="9.227052815258503">
        <ele>1194.5799999999999</ele>
        <time>2012-05-03T07:40:27Z</time>
      </trkpt>
      <trkpt lat="46.060503954067826" lon="9.22707418911159">
        <ele>1196.98</ele>
        <time>2012-05-03T07:40:40Z</time>
      </trkpt>
      <trkpt lat="46.060546366497874" lon="9.227093383669853">
        <ele>1198.4200000000001</ele>
        <time>2012-05-03T07:40:52Z</time>
      </trkpt>
      <trkpt lat="46.060603111982346" lon="9.227130096405745">
        <ele>1200.8199999999999</ele>
        <time>2012-05-03T07:41:05Z</time>
      </trkpt>
      <trkpt lat="46.06065415777266" lon="9.227150799706578">
        <ele>1203.23</ele>
        <time>2012-05-03T07:41:18Z</time>
      </trkpt>
      <trkpt lat="46.060679974034429" lon="9.227175358682871">
        <ele>1204.6700000000001</ele>
        <time>2012-05-03T07:41:31Z</time>
      </trkpt>
      <trkpt lat="46.060748035088181" lon="9.227185668423772">
        <ele>1206.5899999999999</ele>
        <time>2012-05-03T07:41:43Z</time>
      </trkpt>
      <trkpt lat="46.06077142059803" lon="9.227137723937631">
        <ele>1209</ele>
        <time>2012-05-03T07:41:56Z</time>
      </trkpt>
      <trkpt lat="46.060737054795027" lon="9.227035799995065">
        <ele>1210.4400000000001</ele>
        <time>2012-05-03T07:42:11Z</time>
      </trkpt>
      <trkpt lat="46.060741245746613" lon="9.227000679820776">
        <ele>1211.8800000000001</ele>
        <time>2012-05-03T07:42:16Z</time>
      </trkpt>
      <trkpt lat="46.060744849964976" lon="9.226946448907256">
        <ele>1213.3199999999999</ele>
        <time>2012-05-03T07:42:24Z</time>
      </trkpt>
      <trkpt lat="46.060729930177331" lon="9.226822229102254">
        <ele>1214.76</ele>
        <time>2012-05-03T07:42:40Z</time>
      </trkpt>
      <trkpt lat="46.060722805559635" lon="9.226788533851504">
        <ele>1216.6900000000001</ele>
        <time>2012-05-03T07:42:45Z</time>
      </trkpt>
      <trkpt lat="46.060726745054126" lon="9.226800855249167">
        <ele>1217.6500000000001</ele>
        <time>2012-05-03T07:42:50Z</time>
      </trkpt>
      <trkpt lat="46.060744849964976" lon="9.226819043979049">
        <ele>1218.1300000000001</ele>
        <time>2012-05-03T07:43:05Z</time>
      </trkpt>
      <trkpt lat="46.060790782794356" lon="9.226826336234808">
        <ele>1219.5699999999999</ele>
        <time>2012-05-03T07:43:15Z</time>
      </trkpt>
      <trkpt lat="46.060791704803705" lon="9.226824743673205">
        <ele>1220.05</ele>
        <time>2012-05-03T07:43:16Z</time>
      </trkpt>
      <trkpt lat="46.060839230194688" lon="9.226851565763354">
        <ele>1221.01</ele>
        <time>2012-05-03T07:43:24Z</time>
      </trkpt>
      <trkpt lat="46.060899244621396" lon="9.226865395903587">
        <ele>1223.4200000000001</ele>
        <time>2012-05-03T07:43:38Z</time>
      </trkpt>
      <trkpt lat="46.060945009812713" lon="9.226874113082886">
        <ele>1224.8599999999999</ele>
        <time>2012-05-03T07:43:48Z</time>
      </trkpt>
      <trkpt lat="46.061003347858787" lon="9.226884003728628">
        <ele>1226.78</ele>
        <time>2012-05-03T07:44:01Z</time>
      </trkpt>
      <trkpt lat="46.061067972332239" lon="9.226853409782052">
        <ele>1228.7</ele>
        <time>2012-05-03T07:44:14Z</time>
      </trkpt>
      <trkpt lat="46.061039557680488" lon="9.22676045447588">
        <ele>1231.5899999999999</ele>
        <time>2012-05-03T07:44:30Z</time>
      </trkpt>
      <trkpt lat="46.061051459982991" lon="9.226698344573379">
        <ele>1233.51</ele>
        <time>2012-05-03T07:44:48Z</time>
      </trkpt>
      <trkpt lat="46.061133854091167" lon="9.226731453090906">
        <ele>1235.4300000000001</ele>
        <time>2012-05-03T07:45:08Z</time>
      </trkpt>
      <trkpt lat="46.061240388080478" lon="9.226806974038482">
        <ele>1238.3199999999999</ele>
        <time>2012-05-03T07:45:28Z</time>
      </trkpt>
      <trkpt lat="46.061293864622712" lon="9.226837148889899">
        <ele>1239.28</ele>
        <time>2012-05-03T07:45:47Z</time>
      </trkpt>
      <trkpt lat="46.061343150213361" lon="9.226875118911266">
        <ele>1241.2</ele>
        <time>2012-05-03T07:46:06Z</time>
      </trkpt>
      <trkpt lat="46.061358992010355" lon="9.226904707029462">
        <ele>1243.1199999999999</ele>
        <time>2012-05-03T07:46:17Z</time>
      </trkpt>
      <trkpt lat="46.061355639249086" lon="9.226902779191732">
        <ele>1243.5999999999999</ele>
        <time>2012-05-03T07:46:25Z</time>
      </trkpt>
      <trkpt lat="46.061371900141239" lon="9.226908981800079">
        <ele>1243.1199999999999</ele>
        <time>2012-05-03T07:46:27Z</time>
      </trkpt>
      <trkpt lat="46.061470219865441" lon="9.226996824145317">
        <ele>1245.53</ele>
        <time>2012-05-03T07:46:40Z</time>
      </trkpt>
      <trkpt lat="46.061501987278461" lon="9.227041583508253">
        <ele>1247.45</ele>
        <time>2012-05-03T07:46:53Z</time>
      </trkpt>
      <trkpt lat="46.061553871259093" lon="9.227105369791389">
        <ele>1249.8499999999999</ele>
        <time>2012-05-03T07:47:03Z</time>
      </trkpt>
      <trkpt lat="46.061633164063096" lon="9.22720754519105">
        <ele>1252.25</ele>
        <time>2012-05-03T07:47:16Z</time>
      </trkpt>
      <trkpt lat="46.061697620898485" lon="9.227299075573683">
        <ele>1253.7</ele>
        <time>2012-05-03T07:47:28Z</time>
      </trkpt>
      <trkpt lat="46.06174380518496" lon="9.227388426661491">
        <ele>1255.6199999999999</ele>
        <time>2012-05-03T07:47:40Z</time>
      </trkpt>
      <trkpt lat="46.061787642538548" lon="9.227421283721924">
        <ele>1257.0599999999999</ele>
        <time>2012-05-03T07:47:51Z</time>
      </trkpt>
      <trkpt lat="46.061847656965256" lon="9.227447519078851">
        <ele>1258.98</ele>
        <time>2012-05-03T07:48:04Z</time>
      </trkpt>
      <trkpt lat="46.06188353151083" lon="9.227456152439117">
        <ele>1260.9100000000001</ele>
        <time>2012-05-03T07:48:14Z</time>
      </trkpt>
      <trkpt lat="46.06196609325707" lon="9.227463360875845">
        <ele>1262.3499999999999</ele>
        <time>2012-05-03T07:48:26Z</time>
      </trkpt>
      <trkpt lat="46.061957376077771" lon="9.22742547467351">
        <ele>1264.27</ele>
        <time>2012-05-03T07:48:37Z</time>
      </trkpt>
      <trkpt lat="46.061950922012329" lon="9.227346936240792">
        <ele>1266.1900000000001</ele>
        <time>2012-05-03T07:48:48Z</time>
      </trkpt>
      <trkpt lat="46.061924854293466" lon="9.227204024791718">
        <ele>1268.1199999999999</ele>
        <time>2012-05-03T07:49:03Z</time>
      </trkpt>
      <trkpt lat="46.061887890100479" lon="9.227079637348652">
        <ele>1268.1199999999999</ele>
        <time>2012-05-03T07:49:17Z</time>
      </trkpt>
      <trkpt lat="46.061888644471765" lon="9.227072931826115">
        <ele>1270.04</ele>
        <time>2012-05-03T07:49:19Z</time>
      </trkpt>
      <trkpt lat="46.061860229820013" lon="9.226952148601413">
        <ele>1271.96</ele>
        <time>2012-05-03T07:49:34Z</time>
      </trkpt>
      <trkpt lat="46.061841538175941" lon="9.226849470287561">
        <ele>1273.8800000000001</ele>
        <time>2012-05-03T07:49:47Z</time>
      </trkpt>
      <trkpt lat="46.061834748834372" lon="9.226818373426795">
        <ele>1274.8499999999999</ele>
        <time>2012-05-03T07:49:58Z</time>
      </trkpt>
      <trkpt lat="46.06183759868145" lon="9.226814433932304">
        <ele>1274.8499999999999</ele>
        <time>2012-05-03T07:50:08Z</time>
      </trkpt>
      <trkpt lat="46.061839191243052" lon="9.226735979318619">
        <ele>1276.29</ele>
        <time>2012-05-03T07:50:19Z</time>
      </trkpt>
      <trkpt lat="46.061860229820013" lon="9.226673617959023">
        <ele>1279.1700000000001</ele>
        <time>2012-05-03T07:50:30Z</time>
      </trkpt>
      <trkpt lat="46.061864839866757" lon="9.226588122546673">
        <ele>1280.6099999999999</ele>
        <time>2012-05-03T07:50:41Z</time>
      </trkpt>
      <trkpt lat="46.061854530125856" lon="9.226527437567711">
        <ele>1282.54</ele>
        <time>2012-05-03T07:50:54Z</time>
      </trkpt>
      <trkpt lat="46.061843046918511" lon="9.226424843072891">
        <ele>1283.02</ele>
        <time>2012-05-03T07:51:09Z</time>
      </trkpt>
      <trkpt lat="46.061810189858079" lon="9.226306993514299">
        <ele>1285.4200000000001</ele>
        <time>2012-05-03T07:51:22Z</time>
      </trkpt>
      <trkpt lat="46.061806250363588" lon="9.226287547498941">
        <ele>1285.9000000000001</ele>
        <time>2012-05-03T07:51:24Z</time>
      </trkpt>
      <trkpt lat="46.061811614781618" lon="9.226255193352699">
        <ele>1286.3800000000001</ele>
        <time>2012-05-03T07:51:27Z</time>
      </trkpt>
      <trkpt lat="46.061821924522519" lon="9.226143965497613">
        <ele>1288.3</ele>
        <time>2012-05-03T07:51:40Z</time>
      </trkpt>
      <trkpt lat="46.061836425215006" lon="9.226082609966397">
        <ele>1290.71</ele>
        <time>2012-05-03T07:51:52Z</time>
      </trkpt>
      <trkpt lat="46.061836257576942" lon="9.226044723764062">
        <ele>1293.1099999999999</ele>
        <time>2012-05-03T07:52:06Z</time>
      </trkpt>
      <trkpt lat="46.061850842088461" lon="9.225990576669574">
        <ele>1295.51</ele>
        <time>2012-05-03T07:52:19Z</time>
      </trkpt>
      <trkpt lat="46.061859056353569" lon="9.225832410156727">
        <ele>1297.9200000000001</ele>
        <time>2012-05-03T07:52:33Z</time>
      </trkpt>
      <trkpt lat="46.06188110075891" lon="9.225764432922006">
        <ele>1299.8399999999999</ele>
        <time>2012-05-03T07:52:46Z</time>
      </trkpt>
      <trkpt lat="46.061881855130196" lon="9.225765941664577">
        <ele>1302.24</ele>
        <time>2012-05-03T07:52:57Z</time>
      </trkpt>
      <trkpt lat="46.061912029981613" lon="9.225801648572087">
        <ele>1304.6500000000001</ele>
        <time>2012-05-03T07:53:09Z</time>
      </trkpt>
      <trkpt lat="46.061913119629025" lon="9.225802402943373">
        <ele>1304.6500000000001</ele>
        <time>2012-05-03T07:53:10Z</time>
      </trkpt>
      <trkpt lat="46.061930218711495" lon="9.225823609158397">
        <ele>1304.1700000000001</ele>
        <time>2012-05-03T07:53:27Z</time>
      </trkpt>
      <trkpt lat="46.061953436583281" lon="9.225834002718329">
        <ele>1304.6500000000001</ele>
        <time>2012-05-03T07:53:48Z</time>
      </trkpt>
      <trkpt lat="46.061957543715835" lon="9.225828135386109">
        <ele>1305.6099999999999</ele>
        <time>2012-05-03T07:53:51Z</time>
      </trkpt>
      <trkpt lat="46.062004985287786" lon="9.225694024935365">
        <ele>1308.01</ele>
        <time>2012-05-03T07:54:05Z</time>
      </trkpt>
      <trkpt lat="46.062027616426349" lon="9.225571397691965">
        <ele>1309.9300000000001</ele>
        <time>2012-05-03T07:54:18Z</time>
      </trkpt>
      <trkpt lat="46.062042284756899" lon="9.225483639165759">
        <ele>1311.3800000000001</ele>
        <time>2012-05-03T07:54:27Z</time>
      </trkpt>
      <trkpt lat="46.062106909230351" lon="9.22536201775074">
        <ele>1312.8199999999999</ele>
        <time>2012-05-03T07:54:41Z</time>
      </trkpt>
      <trkpt lat="46.06216256506741" lon="9.225226566195488">
        <ele>1314.74</ele>
        <time>2012-05-03T07:54:54Z</time>
      </trkpt>
      <trkpt lat="46.062160301953554" lon="9.225174011662602">
        <ele>1314.26</ele>
        <time>2012-05-03T07:55:08Z</time>
      </trkpt>
      <trkpt lat="46.062155859544873" lon="9.225103771314025">
        <ele>1314.74</ele>
        <time>2012-05-03T07:55:13Z</time>
      </trkpt>
      <trkpt lat="46.062161223962903" lon="9.225075021386147">
        <ele>1314.74</ele>
        <time>2012-05-03T07:55:15Z</time>
      </trkpt>
      <trkpt lat="46.062167007476091" lon="9.224889865145087">
        <ele>1315.22</ele>
        <time>2012-05-03T07:55:27Z</time>
      </trkpt>
      <trkpt lat="46.062179245054722" lon="9.224847033619881">
        <ele>1315.22</ele>
        <time>2012-05-03T07:55:30Z</time>
      </trkpt>
      <trkpt lat="46.062193661928177" lon="9.224800430238247">
        <ele>1315.7</ele>
        <time>2012-05-03T07:55:34Z</time>
      </trkpt>
      <trkpt lat="46.062202211469412" lon="9.224776374176145">
        <ele>1315.7</ele>
        <time>2012-05-03T07:55:36Z</time>
      </trkpt>
      <trkpt lat="46.062216544523835" lon="9.224730441346765">
        <ele>1315.7</ele>
        <time>2012-05-03T07:55:39Z</time>
      </trkpt>
      <trkpt lat="46.062229620292783" lon="9.224684005603194">
        <ele>1316.1800000000001</ele>
        <time>2012-05-03T07:55:42Z</time>
      </trkpt>
      <trkpt lat="46.062247222289443" lon="9.224630109965801">
        <ele>1316.6600000000001</ele>
        <time>2012-05-03T07:55:46Z</time>
      </trkpt>
      <trkpt lat="46.062254766002297" lon="9.224586943164468">
        <ele>1316.1800000000001</ele>
        <time>2012-05-03T07:55:49Z</time>
      </trkpt>
      <trkpt lat="46.062272284179926" lon="9.224520726129413">
        <ele>1316.6600000000001</ele>
        <time>2012-05-03T07:55:54Z</time>
      </trkpt>
      <trkpt lat="46.062282593920827" lon="9.224434224888682">
        <ele>1316.6600000000001</ele>
        <time>2012-05-03T07:56:00Z</time>
      </trkpt>
      <trkpt lat="46.062286701053381" lon="9.224400194361806">
        <ele>1317.1400000000001</ele>
        <time>2012-05-03T07:56:02Z</time>
      </trkpt>
      <trkpt lat="46.062298519536853" lon="9.224370019510388">
        <ele>1317.1400000000001</ele>
        <time>2012-05-03T07:56:04Z</time>
      </trkpt>
      <trkpt lat="46.062302123755217" lon="9.224176732823253">
        <ele>1318.5899999999999</ele>
        <time>2012-05-03T07:56:18Z</time>
      </trkpt>
      <trkpt lat="46.062300447374582" lon="9.224101966246963">
        <ele>1319.0699999999999</ele>
        <time>2012-05-03T07:56:23Z</time>
      </trkpt>
      <trkpt lat="46.06231058947742" lon="9.224074389785528">
        <ele>1319.0699999999999</ele>
        <time>2012-05-03T07:56:25Z</time>
      </trkpt>
      <trkpt lat="46.062327353283763" lon="9.224002389237285">
        <ele>1319.0699999999999</ele>
        <time>2012-05-03T07:56:30Z</time>
      </trkpt>
      <trkpt lat="46.062349649146199" lon="9.223959473893046">
        <ele>1320.03</ele>
        <time>2012-05-03T07:56:34Z</time>
      </trkpt>
      <trkpt lat="46.062389295548201" lon="9.223807090893388">
        <ele>1320.03</ele>
        <time>2012-05-03T07:56:44Z</time>
      </trkpt>
      <trkpt lat="46.062394827604294" lon="9.223776832222939">
        <ele>1320.03</ele>
        <time>2012-05-03T07:56:46Z</time>
      </trkpt>
      <trkpt lat="46.062454590573907" lon="9.223637944087386">
        <ele>1320.51</ele>
        <time>2012-05-03T07:56:55Z</time>
      </trkpt>
      <trkpt lat="46.062506893649697" lon="9.223565356805921">
        <ele>1321.95</ele>
        <time>2012-05-03T07:57:04Z</time>
      </trkpt>
      <trkpt lat="46.062532039359212" lon="9.223511712625623">
        <ele>1321.47</ele>
        <time>2012-05-03T07:57:09Z</time>
      </trkpt>
      <trkpt lat="46.062610661610961" lon="9.223437448963523">
        <ele>1322.4300000000001</ele>
        <time>2012-05-03T07:57:18Z</time>
      </trkpt>
      <trkpt lat="46.062643099576235" lon="9.223339883610606">
        <ele>1322.4300000000001</ele>
        <time>2012-05-03T07:57:25Z</time>
      </trkpt>
      <trkpt lat="46.062641171738505" lon="9.223305601626635">
        <ele>1322.9100000000001</ele>
        <time>2012-05-03T07:57:27Z</time>
      </trkpt>
      <trkpt lat="46.062637148424983" lon="9.223166210576892">
        <ele>1322.9100000000001</ele>
        <time>2012-05-03T07:57:40Z</time>
      </trkpt>
      <trkpt lat="46.062644775956869" lon="9.223082978278399">
        <ele>1322.4300000000001</ele>
        <time>2012-05-03T07:57:47Z</time>
      </trkpt>
      <trkpt lat="46.062648212537169" lon="9.222929589450359">
        <ele>1321.47</ele>
        <time>2012-05-03T07:57:59Z</time>
      </trkpt>
      <trkpt lat="46.062654415145516" lon="9.222869658842683">
        <ele>1321.47</ele>
        <time>2012-05-03T07:58:02Z</time>
      </trkpt>
      <trkpt lat="46.062652319669724" lon="9.222751054912806">
        <ele>1320.99</ele>
        <time>2012-05-03T07:58:08Z</time>
      </trkpt>
      <trkpt lat="46.062667910009623" lon="9.222682658582926">
        <ele>1320.51</ele>
        <time>2012-05-03T07:58:12Z</time>
      </trkpt>
      <trkpt lat="46.062675369903445" lon="9.222566401585937">
        <ele>1320.51</ele>
        <time>2012-05-03T07:58:21Z</time>
      </trkpt>
      <trkpt lat="46.062656007707119" lon="9.222510410472751">
        <ele>1321.47</ele>
        <time>2012-05-03T07:58:27Z</time>
      </trkpt>
      <trkpt lat="46.062629017978907" lon="9.222438661381602">
        <ele>1322.9100000000001</ele>
        <time>2012-05-03T07:58:38Z</time>
      </trkpt>
      <trkpt lat="46.062619043514132" lon="9.222422819584608">
        <ele>1323.8699999999999</ele>
        <time>2012-05-03T07:58:41Z</time>
      </trkpt>
      <trkpt lat="46.062542013823986" lon="9.22234277240932">
        <ele>1323.3900000000001</ele>
        <time>2012-05-03T07:58:55Z</time>
      </trkpt>
      <trkpt lat="46.062525166198611" lon="9.222323494032025">
        <ele>1323.3900000000001</ele>
        <time>2012-05-03T07:58:57Z</time>
      </trkpt>
      <trkpt lat="46.062469594180584" lon="9.2221106775105">
        <ele>1323.3900000000001</ele>
        <time>2012-05-03T07:59:11Z</time>
      </trkpt>
      <trkpt lat="46.062466828152537" lon="9.222015459090471">
        <ele>1323.8699999999999</ele>
        <time>2012-05-03T07:59:19Z</time>
      </trkpt>
      <trkpt lat="46.062464816495776" lon="9.221908086910844">
        <ele>1323.8699999999999</ele>
        <time>2012-05-03T07:59:26Z</time>
      </trkpt>
      <trkpt lat="46.062450734898448" lon="9.221776993945241">
        <ele>1324.3499999999999</ele>
        <time>2012-05-03T07:59:34Z</time>
      </trkpt>
      <trkpt lat="46.062439754605293" lon="9.221700383350253">
        <ele>1324.3499999999999</ele>
        <time>2012-05-03T07:59:39Z</time>
      </trkpt>
      <trkpt lat="46.062437826767564" lon="9.221668196842074">
        <ele>1325.3099999999999</ele>
        <time>2012-05-03T07:59:41Z</time>
      </trkpt>
      <trkpt lat="46.062423661351204" lon="9.221498044207692">
        <ele>1325.8</ele>
        <time>2012-05-03T07:59:54Z</time>
      </trkpt>
      <trkpt lat="46.062429109588265" lon="9.221404418349266">
        <ele>1325.8</ele>
        <time>2012-05-03T08:00:01Z</time>
      </trkpt>
      <trkpt lat="46.062429612502456" lon="9.221232840791345">
        <ele>1327.24</ele>
        <time>2012-05-03T08:00:12Z</time>
      </trkpt>
      <trkpt lat="46.06244201771915" lon="9.221015078946948">
        <ele>1328.2</ele>
        <time>2012-05-03T08:00:27Z</time>
      </trkpt>
      <trkpt lat="46.06244201771915" lon="9.220996219664812">
        <ele>1328.2</ele>
        <time>2012-05-03T08:00:28Z</time>
      </trkpt>
      <trkpt lat="46.062447214499116" lon="9.220965541899204">
        <ele>1328.6800000000001</ele>
        <time>2012-05-03T08:00:30Z</time>
      </trkpt>
      <trkpt lat="46.062466911971569" lon="9.220902007073164">
        <ele>1329.1600000000001</ele>
        <time>2012-05-03T08:00:36Z</time>
      </trkpt>
      <trkpt lat="46.062490213662386" lon="9.220780888572335">
        <ele>1330.5999999999999</ele>
        <time>2012-05-03T08:00:48Z</time>
      </trkpt>
      <trkpt lat="46.062452662736177" lon="9.220801256597042">
        <ele>1331.0799999999999</ele>
        <time>2012-05-03T08:00:56Z</time>
      </trkpt>
      <trkpt lat="46.062394743785262" lon="9.220773931592703">
        <ele>1330.5999999999999</ele>
        <time>2012-05-03T08:01:02Z</time>
      </trkpt>
      <trkpt lat="46.062292736023664" lon="9.220641665160656">
        <ele>1332.04</ele>
        <time>2012-05-03T08:01:16Z</time>
      </trkpt>
      <trkpt lat="46.062264321371913" lon="9.220613418146968">
        <ele>1332.52</ele>
        <time>2012-05-03T08:01:20Z</time>
      </trkpt>
      <trkpt lat="46.062254095450044" lon="9.220551978796721">
        <ele>1333.01</ele>
        <time>2012-05-03T08:01:24Z</time>
      </trkpt>
      <trkpt lat="46.062207827344537" lon="9.220496490597725">
        <ele>1334.45</ele>
        <time>2012-05-03T08:01:36Z</time>
      </trkpt>
      <trkpt lat="46.062156362459064" lon="9.220541836693883">
        <ele>1335.4100000000001</ele>
        <time>2012-05-03T08:01:44Z</time>
      </trkpt>
      <trkpt lat="46.062083272263408" lon="9.2205651383847">
        <ele>1337.3299999999999</ele>
        <time>2012-05-03T08:01:55Z</time>
      </trkpt>
      <trkpt lat="46.062016719952226" lon="9.220540076494217">
        <ele>1339.25</ele>
        <time>2012-05-03T08:02:06Z</time>
      </trkpt>
      <trkpt lat="46.062002051621675" lon="9.22052800655365">
        <ele>1339.73</ele>
        <time>2012-05-03T08:02:09Z</time>
      </trkpt>
      <trkpt lat="46.061964752152562" lon="9.22051090747118">
        <ele>1341.1800000000001</ele>
        <time>2012-05-03T08:02:15Z</time>
      </trkpt>
      <trkpt lat="46.061942540109158" lon="9.220497077330947">
        <ele>1341.6600000000001</ele>
        <time>2012-05-03T08:02:18Z</time>
      </trkpt>
      <trkpt lat="46.061907168477774" lon="9.220453323796392">
        <ele>1341.6600000000001</ele>
        <time>2012-05-03T08:02:24Z</time>
      </trkpt>
      <trkpt lat="46.061885543167591" lon="9.220374701544642">
        <ele>1342.6199999999999</ele>
        <time>2012-05-03T08:02:31Z</time>
      </trkpt>
      <trkpt lat="46.061866851523519" lon="9.220276130363345">
        <ele>1343.5799999999999</ele>
        <time>2012-05-03T08:02:41Z</time>
      </trkpt>
      <trkpt lat="46.061847321689129" lon="9.220131626352668">
        <ele>1345.02</ele>
        <time>2012-05-03T08:02:55Z</time>
      </trkpt>
      <trkpt lat="46.06184396892786" lon="9.220011932775378">
        <ele>1347.9100000000001</ele>
        <time>2012-05-03T08:03:09Z</time>
      </trkpt>
      <trkpt lat="46.061833407729864" lon="9.219880001619458">
        <ele>1350.3099999999999</ele>
        <time>2012-05-03T08:03:24Z</time>
      </trkpt>
      <trkpt lat="46.061794934794307" lon="9.219762654975057">
        <ele>1352.71</ele>
        <time>2012-05-03T08:03:39Z</time>
      </trkpt>
      <trkpt lat="46.061742966994643" lon="9.219684032723308">
        <ele>1354.1500000000001</ele>
        <time>2012-05-03T08:03:49Z</time>
      </trkpt>
      <trkpt lat="46.061693849042058" lon="9.219527877867222">
        <ele>1355.5999999999999</ele>
        <time>2012-05-03T08:04:01Z</time>
      </trkpt>
      <trkpt lat="46.061695273965597" lon="9.219490410760045">
        <ele>1355.5999999999999</ele>
        <time>2012-05-03T08:04:04Z</time>
      </trkpt>
      <trkpt lat="46.061699297279119" lon="9.21941245906055">
        <ele>1356.0799999999999</ele>
        <time>2012-05-03T08:04:11Z</time>
      </trkpt>
      <trkpt lat="46.061702147126198" lon="9.219387397170067">
        <ele>1356.5599999999999</ele>
        <time>2012-05-03T08:04:13Z</time>
      </trkpt>
      <trkpt lat="46.061704074963927" lon="9.21935822814703">
        <ele>1356.5599999999999</ele>
        <time>2012-05-03T08:04:15Z</time>
      </trkpt>
      <trkpt lat="46.061656968668103" lon="9.219201151281595">
        <ele>1358.48</ele>
        <time>2012-05-03T08:04:31Z</time>
      </trkpt>
      <trkpt lat="46.061608856543899" lon="9.219102747738361">
        <ele>1360.8800000000001</ele>
        <time>2012-05-03T08:04:43Z</time>
      </trkpt>
      <trkpt lat="46.061568288132548" lon="9.219004763290286">
        <ele>1362.3299999999999</ele>
        <time>2012-05-03T08:04:56Z</time>
      </trkpt>
      <trkpt lat="46.061555128544569" lon="9.218924883753061">
        <ele>1363.29</ele>
        <time>2012-05-03T08:05:04Z</time>
      </trkpt>
      <trkpt lat="46.061552027240396" lon="9.218785660341382">
        <ele>1365.21</ele>
        <time>2012-05-03T08:05:17Z</time>
      </trkpt>
      <trkpt lat="46.061553871259093" lon="9.218781972303987">
        <ele>1365.6900000000001</ele>
        <time>2012-05-03T08:05:19Z</time>
      </trkpt>
      <trkpt lat="46.061561498790979" lon="9.218692034482956">
        <ele>1368.0899999999999</ele>
        <time>2012-05-03T08:05:31Z</time>
      </trkpt>
      <trkpt lat="46.061527216807008" lon="9.21866437420249">
        <ele>1370.5</ele>
        <time>2012-05-03T08:05:46Z</time>
      </trkpt>
      <trkpt lat="46.061468627303839" lon="9.218636211007834">
        <ele>1372.9000000000001</ele>
        <time>2012-05-03T08:05:58Z</time>
      </trkpt>
      <trkpt lat="46.061433339491487" lon="9.218624979257584">
        <ele>1373.8599999999999</ele>
        <time>2012-05-03T08:06:11Z</time>
      </trkpt>
      <trkpt lat="46.061377432197332" lon="9.218605197966099">
        <ele>1375.78</ele>
        <time>2012-05-03T08:06:22Z</time>
      </trkpt>
      <trkpt lat="46.061321860179305" lon="9.218556918203831">
        <ele>1377.71</ele>
        <time>2012-05-03T08:06:35Z</time>
      </trkpt>
      <trkpt lat="46.061297720298171" lon="9.218488521873951">
        <ele>1380.1099999999999</ele>
        <time>2012-05-03T08:06:46Z</time>
      </trkpt>
      <trkpt lat="46.061243154108524" lon="9.218499334529042">
        <ele>1382.03</ele>
        <time>2012-05-03T08:06:57Z</time>
      </trkpt>
      <trkpt lat="46.061119437217712" lon="9.218506375327706">
        <ele>1383.96</ele>
        <time>2012-05-03T08:07:11Z</time>
      </trkpt>
      <trkpt lat="46.060970406979322" lon="9.218476368114352">
        <ele>1382.51</ele>
        <time>2012-05-03T08:07:27Z</time>
      </trkpt>
      <trkpt lat="46.060892958194017" lon="9.218500591814518">
        <ele>1381.0699999999999</ele>
        <time>2012-05-03T08:07:36Z</time>
      </trkpt>
      <trkpt lat="46.060742670670152" lon="9.218548117205501">
        <ele>1380.5899999999999</ele>
        <time>2012-05-03T08:07:50Z</time>
      </trkpt>
      <trkpt lat="46.060704449191689" lon="9.218559265136719">
        <ele>1380.1099999999999</ele>
        <time>2012-05-03T08:07:53Z</time>
      </trkpt>
      <trkpt lat="46.060655666515231" lon="9.218575609847903">
        <ele>1379.1500000000001</ele>
        <time>2012-05-03T08:08:10Z</time>
      </trkpt>
      <trkpt lat="46.060656923800707" lon="9.218580722808838">
        <ele>1379.1500000000001</ele>
        <time>2012-05-03T08:08:20Z</time>
      </trkpt>
      <trkpt lat="46.060487190261483" lon="9.218711480498314">
        <ele>1377.23</ele>
        <time>2012-05-03T08:08:36Z</time>
      </trkpt>
      <trkpt lat="46.060455087572336" lon="9.218714833259583">
        <ele>1376.75</ele>
        <time>2012-05-03T08:08:39Z</time>
      </trkpt>
      <trkpt lat="46.060325084254146" lon="9.218792617321014">
        <ele>1375.3</ele>
        <time>2012-05-03T08:08:52Z</time>
      </trkpt>
      <trkpt lat="46.060311086475849" lon="9.218806196004152">
        <ele>1374.8199999999999</ele>
        <time>2012-05-03T08:09:07Z</time>
      </trkpt>
      <trkpt lat="46.060290466994047" lon="9.218815919011831">
        <ele>1375.78</ele>
        <time>2012-05-03T08:09:25Z</time>
      </trkpt>
      <trkpt lat="46.06026372872293" lon="9.218853721395135">
        <ele>1374.3399999999999</ele>
        <time>2012-05-03T08:09:36Z</time>
      </trkpt>
      <trkpt lat="46.060194075107574" lon="9.218708127737045">
        <ele>1373.8599999999999</ele>
        <time>2012-05-03T08:09:47Z</time>
      </trkpt>
      <trkpt lat="46.060159709304571" lon="9.218604695051909">
        <ele>1373.3800000000001</ele>
        <time>2012-05-03T08:10:01Z</time>
      </trkpt>
      <trkpt lat="46.060155769810081" lon="9.218614837154746">
        <ele>1372.9000000000001</ele>
        <time>2012-05-03T08:10:19Z</time>
      </trkpt>
      <trkpt lat="46.060150237753987" lon="9.218612741678953">
        <ele>1372.9000000000001</ele>
        <time>2012-05-03T08:10:22Z</time>
      </trkpt>
      <trkpt lat="46.060149315744638" lon="9.218588517978787">
        <ele>1373.3800000000001</ele>
        <time>2012-05-03T08:10:35Z</time>
      </trkpt>
      <trkpt lat="46.060191476717591" lon="9.218585584312677">
        <ele>1375.78</ele>
        <time>2012-05-03T08:10:49Z</time>
      </trkpt>
      <trkpt lat="46.060196673497558" lon="9.218589020892978">
        <ele>1376.26</ele>
        <time>2012-05-03T08:11:00Z</time>
      </trkpt>
      <trkpt lat="46.060184352099895" lon="9.21857938170433">
        <ele>1376.26</ele>
        <time>2012-05-03T08:11:11Z</time>
      </trkpt>
      <trkpt lat="46.060175551101565" lon="9.218588937073946">
        <ele>1375.78</ele>
        <time>2012-05-03T08:11:25Z</time>
      </trkpt>
      <trkpt lat="46.060183765366673" lon="9.21859941445291">
        <ele>1375.78</ele>
        <time>2012-05-03T08:11:42Z</time>
      </trkpt>
      <trkpt lat="46.060206480324268" lon="9.218667140230537">
        <ele>1375.78</ele>
        <time>2012-05-03T08:11:47Z</time>
      </trkpt>
      <trkpt lat="46.060255514457822" lon="9.218745343387127">
        <ele>1374.8199999999999</ele>
        <time>2012-05-03T08:12:01Z</time>
      </trkpt>
      <trkpt lat="46.060285102576017" lon="9.218757497146726">
        <ele>1374.8199999999999</ele>
        <time>2012-05-03T08:12:07Z</time>
      </trkpt>
      <trkpt lat="46.060288706794381" lon="9.21876554377377">
        <ele>1374.3399999999999</ele>
        <time>2012-05-03T08:12:11Z</time>
      </trkpt>
      <trkpt lat="46.060306476429105" lon="9.218780882656574">
        <ele>1374.3399999999999</ele>
        <time>2012-05-03T08:12:13Z</time>
      </trkpt>
      <trkpt lat="46.060323072597384" lon="9.218749282881618">
        <ele>1374.3399999999999</ele>
        <time>2012-05-03T08:12:23Z</time>
      </trkpt>
      <trkpt lat="46.06032483279705" lon="9.218748025596142">
        <ele>1374.3399999999999</ele>
        <time>2012-05-03T08:12:48Z</time>
      </trkpt>
      <trkpt lat="46.060324916616082" lon="9.218746265396476">
        <ele>1374.3399999999999</ele>
        <time>2012-05-03T08:13:21Z</time>
      </trkpt>
      <trkpt lat="46.060322485864162" lon="9.218741487711668">
        <ele>1373.8599999999999</ele>
        <time>2012-05-03T08:13:51Z</time>
      </trkpt>
      <trkpt lat="46.060319468379021" lon="9.218742661178112">
        <ele>1373.8599999999999</ele>
        <time>2012-05-03T08:14:26Z</time>
      </trkpt>
      <trkpt lat="46.060319468379021" lon="9.218739476054907">
        <ele>1374.3399999999999</ele>
        <time>2012-05-03T08:14:58Z</time>
      </trkpt>
      <trkpt lat="46.060324413701892" lon="9.218739224597812">
        <ele>1373.8599999999999</ele>
        <time>2012-05-03T08:15:34Z</time>
      </trkpt>
      <trkpt lat="46.060321480035782" lon="9.21874257735908">
        <ele>1373.8599999999999</ele>
        <time>2012-05-03T08:16:04Z</time>
      </trkpt>
      <trkpt lat="46.060321480035782" lon="9.218744169920683">
        <ele>1373.3800000000001</ele>
        <time>2012-05-03T08:16:37Z</time>
      </trkpt>
      <trkpt lat="46.060323994606733" lon="9.218775266781449">
        <ele>1373.3800000000001</ele>
        <time>2012-05-03T08:17:01Z</time>
      </trkpt>
      <trkpt lat="46.060314606875181" lon="9.218800747767091">
        <ele>1373.3800000000001</ele>
        <time>2012-05-03T08:17:36Z</time>
      </trkpt>
      <trkpt lat="46.060318881645799" lon="9.21885590068996">
        <ele>1372.9000000000001</ele>
        <time>2012-05-03T08:18:10Z</time>
      </trkpt>
      <trkpt lat="46.06032483279705" lon="9.218976013362408">
        <ele>1372.9000000000001</ele>
        <time>2012-05-03T08:18:38Z</time>
      </trkpt>
      <trkpt lat="46.060319468379021" lon="9.218860259279609">
        <ele>1372.9000000000001</ele>
        <time>2012-05-03T08:18:51Z</time>
      </trkpt>
      <trkpt lat="46.060315864160657" lon="9.218798484653235">
        <ele>1373.8599999999999</ele>
        <time>2012-05-03T08:19:01Z</time>
      </trkpt>
      <trkpt lat="46.060318378731608" lon="9.218795467168093">
        <ele>1374.3399999999999</ele>
        <time>2012-05-03T08:19:14Z</time>
      </trkpt>
      <trkpt lat="46.06031603179872" lon="9.218796221539378">
        <ele>1373.8599999999999</ele>
        <time>2012-05-03T08:19:34Z</time>
      </trkpt>
      <trkpt lat="46.060343524441123" lon="9.218778535723686">
        <ele>1373.8599999999999</ele>
        <time>2012-05-03T08:19:50Z</time>
      </trkpt>
      <trkpt lat="46.060362635180354" lon="9.218775518238545">
        <ele>1373.8599999999999</ele>
        <time>2012-05-03T08:20:03Z</time>
      </trkpt>
      <trkpt lat="46.060423823073506" lon="9.218716761097312">
        <ele>1374.8199999999999</ele>
        <time>2012-05-03T08:20:14Z</time>
      </trkpt>
      <trkpt lat="46.06042692437768" lon="9.218708127737045">
        <ele>1373.8599999999999</ele>
        <time>2012-05-03T08:20:15Z</time>
      </trkpt>
      <trkpt lat="46.060429522767663" lon="9.218659177422524">
        <ele>1377.23</ele>
        <time>2012-05-03T08:20:25Z</time>
      </trkpt>
      <trkpt lat="46.060395492240787" lon="9.21859891153872">
        <ele>1379.6300000000001</ele>
        <time>2012-05-03T08:20:38Z</time>
      </trkpt>
      <trkpt lat="46.060373699292541" lon="9.218500256538391">
        <ele>1381.55</ele>
        <time>2012-05-03T08:20:49Z</time>
      </trkpt>
      <trkpt lat="46.060381243005395" lon="9.218439906835556">
        <ele>1383.96</ele>
        <time>2012-05-03T08:20:59Z</time>
      </trkpt>
      <trkpt lat="46.060376884415746" lon="9.218359356746078">
        <ele>1385.8800000000001</ele>
        <time>2012-05-03T08:21:11Z</time>
      </trkpt>
      <trkpt lat="46.060372022911906" lon="9.218314094468951">
        <ele>1387.3199999999999</ele>
        <time>2012-05-03T08:21:20Z</time>
      </trkpt>
      <trkpt lat="46.060339836403728" lon="9.21817772090435">
        <ele>1385.8800000000001</ele>
        <time>2012-05-03T08:21:34Z</time>
      </trkpt>
      <trkpt lat="46.060333549976349" lon="9.218172943219543">
        <ele>1385.4000000000001</ele>
        <time>2012-05-03T08:21:36Z</time>
      </trkpt>
      <trkpt lat="46.060255598276854" lon="9.21797588467598">
        <ele>1384.4400000000001</ele>
        <time>2012-05-03T08:21:51Z</time>
      </trkpt>
      <trkpt lat="46.060247384011745" lon="9.217943362891674">
        <ele>1384.4400000000001</ele>
        <time>2012-05-03T08:21:53Z</time>
      </trkpt>
      <trkpt lat="46.060223998501897" lon="9.217810090631247">
        <ele>1386.8399999999999</ele>
        <time>2012-05-03T08:22:07Z</time>
      </trkpt>
      <trkpt lat="46.060220897197723" lon="9.217767594382167">
        <ele>1387.3199999999999</ele>
        <time>2012-05-03T08:22:12Z</time>
      </trkpt>
      <trkpt lat="46.060217209160328" lon="9.217716800048947">
        <ele>1387.3199999999999</ele>
        <time>2012-05-03T08:22:15Z</time>
      </trkpt>
      <trkpt lat="46.060213185846806" lon="9.21766902320087">
        <ele>1387.8</ele>
        <time>2012-05-03T08:22:19Z</time>
      </trkpt>
      <trkpt lat="46.060205977410078" lon="9.21761185862124">
        <ele>1388.76</ele>
        <time>2012-05-03T08:22:25Z</time>
      </trkpt>
      <trkpt lat="46.060189297422767" lon="9.217540696263313">
        <ele>1391.1700000000001</ele>
        <time>2012-05-03T08:22:35Z</time>
      </trkpt>
      <trkpt lat="46.060195416212082" lon="9.217467103153467">
        <ele>1393.5699999999999</ele>
        <time>2012-05-03T08:22:45Z</time>
      </trkpt>
      <trkpt lat="46.060164989903569" lon="9.217407340183854">
        <ele>1391.6500000000001</ele>
        <time>2012-05-03T08:22:52Z</time>
      </trkpt>
      <trkpt lat="46.060095001012087" lon="9.217369873076677">
        <ele>1392.1300000000001</ele>
        <time>2012-05-03T08:23:05Z</time>
      </trkpt>
      <trkpt lat="46.060065664350986" lon="9.217326538637281">
        <ele>1393.5699999999999</ele>
        <time>2012-05-03T08:23:18Z</time>
      </trkpt>
      <trkpt lat="46.060001458972692" lon="9.217262668535113">
        <ele>1393.5699999999999</ele>
        <time>2012-05-03T08:23:33Z</time>
      </trkpt>
      <trkpt lat="46.059962986037135" lon="9.217206006869674">
        <ele>1394.05</ele>
        <time>2012-05-03T08:23:39Z</time>
      </trkpt>
      <trkpt lat="46.059951167553663" lon="9.217172395437956">
        <ele>1394.05</ele>
        <time>2012-05-03T08:23:42Z</time>
      </trkpt>
      <trkpt lat="46.059924094006419" lon="9.217109531164169">
        <ele>1394.05</ele>
        <time>2012-05-03T08:23:47Z</time>
      </trkpt>
      <trkpt lat="46.05985620059073" lon="9.217012636363506">
        <ele>1393.0899999999999</ele>
        <time>2012-05-03T08:24:00Z</time>
      </trkpt>
      <trkpt lat="46.059809681028128" lon="9.216951699927449">
        <ele>1392.6099999999999</ele>
        <time>2012-05-03T08:24:06Z</time>
      </trkpt>
      <trkpt lat="46.05978730134666" lon="9.216916915029287">
        <ele>1392.6099999999999</ele>
        <time>2012-05-03T08:24:09Z</time>
      </trkpt>
      <trkpt lat="46.059679510071874" lon="9.216772494837642">
        <ele>1393.0899999999999</ele>
        <time>2012-05-03T08:24:24Z</time>
      </trkpt>
      <trkpt lat="46.059655789285898" lon="9.216737374663353">
        <ele>1393.5699999999999</ele>
        <time>2012-05-03T08:24:35Z</time>
      </trkpt>
      <trkpt lat="46.059649083763361" lon="9.21672647818923">
        <ele>1394.05</ele>
        <time>2012-05-03T08:24:36Z</time>
      </trkpt>
      <trkpt lat="46.05962947010994" lon="9.216664200648665">
        <ele>1394.53</ele>
        <time>2012-05-03T08:24:44Z</time>
      </trkpt>
      <trkpt lat="46.059601977467537" lon="9.216582896187902">
        <ele>1394.05</ele>
        <time>2012-05-03T08:24:49Z</time>
      </trkpt>
      <trkpt lat="46.059579513967037" lon="9.216472255066037">
        <ele>1393.5699999999999</ele>
        <time>2012-05-03T08:25:00Z</time>
      </trkpt>
      <trkpt lat="46.059563420712948" lon="9.216426992788911">
        <ele>1393.0899999999999</ele>
        <time>2012-05-03T08:25:04Z</time>
      </trkpt>
      <trkpt lat="46.059508938342333" lon="9.216378126293421">
        <ele>1394.05</ele>
        <time>2012-05-03T08:25:14Z</time>
      </trkpt>
      <trkpt lat="46.059422772377729" lon="9.21628181822598">
        <ele>1395.01</ele>
        <time>2012-05-03T08:25:27Z</time>
      </trkpt>
      <trkpt lat="46.059380192309618" lon="9.21624124981463">
        <ele>1395.49</ele>
        <time>2012-05-03T08:25:32Z</time>
      </trkpt>
      <trkpt lat="46.059364266693592" lon="9.216229850426316">
        <ele>1395.49</ele>
        <time>2012-05-03T08:25:34Z</time>
      </trkpt>
      <trkpt lat="46.059287823736668" lon="9.21617335639894">
        <ele>1396.9300000000001</ele>
        <time>2012-05-03T08:25:44Z</time>
      </trkpt>
      <trkpt lat="46.059227809309959" lon="9.216085430234671">
        <ele>1398.3699999999999</ele>
        <time>2012-05-03T08:25:55Z</time>
      </trkpt>
      <trkpt lat="46.059205597266555" lon="9.216046873480082">
        <ele>1399.3399999999999</ele>
        <time>2012-05-03T08:25:59Z</time>
      </trkpt>
      <trkpt lat="46.059197215363383" lon="9.216012256219983">
        <ele>1399.3399999999999</ele>
        <time>2012-05-03T08:26:02Z</time>
      </trkpt>
      <trkpt lat="46.059175673872232" lon="9.215971352532506">
        <ele>1400.3</ele>
        <time>2012-05-03T08:26:07Z</time>
      </trkpt>
      <trkpt lat="46.059144409373403" lon="9.215928604826331">
        <ele>1399.8199999999999</ele>
        <time>2012-05-03T08:26:11Z</time>
      </trkpt>
      <trkpt lat="46.059134434908628" lon="9.215904884040356">
        <ele>1400.78</ele>
        <time>2012-05-03T08:26:13Z</time>
      </trkpt>
      <trkpt lat="46.05905924923718" lon="9.215845204889774">
        <ele>1402.22</ele>
        <time>2012-05-03T08:26:25Z</time>
      </trkpt>
      <trkpt lat="46.059033097699285" lon="9.215835230425">
        <ele>1402.7</ele>
        <time>2012-05-03T08:26:29Z</time>
      </trkpt>
      <trkpt lat="46.058948943391442" lon="9.215755769982934">
        <ele>1403.1800000000001</ele>
        <time>2012-05-03T08:26:40Z</time>
      </trkpt>
      <trkpt lat="46.058922624215484" lon="9.215745544061065">
        <ele>1403.1800000000001</ele>
        <time>2012-05-03T08:26:43Z</time>
      </trkpt>
      <trkpt lat="46.058837380260229" lon="9.2157281935215">
        <ele>1403.6600000000001</ele>
        <time>2012-05-03T08:26:53Z</time>
      </trkpt>
      <trkpt lat="46.058797650039196" lon="9.215679075568914">
        <ele>1404.1400000000001</ele>
        <time>2012-05-03T08:26:59Z</time>
      </trkpt>
      <trkpt lat="46.058765379711986" lon="9.215679662302136">
        <ele>1403.6600000000001</ele>
        <time>2012-05-03T08:27:02Z</time>
      </trkpt>
      <trkpt lat="46.058724978938699" lon="9.215659881010652">
        <ele>1405.0999999999999</ele>
        <time>2012-05-03T08:27:08Z</time>
      </trkpt>
      <trkpt lat="46.058676950633526" lon="9.215661054477096">
        <ele>1407.03</ele>
        <time>2012-05-03T08:27:19Z</time>
      </trkpt>
      <trkpt lat="46.058618612587452" lon="9.215673794969916">
        <ele>1407.51</ele>
        <time>2012-05-03T08:27:44Z</time>
      </trkpt>
      <trkpt lat="46.058593383058906" lon="9.215660635381937">
        <ele>1409.9100000000001</ele>
        <time>2012-05-03T08:27:53Z</time>
      </trkpt>
      <trkpt lat="46.0585867613554" lon="9.215656276792288">
        <ele>1409.4300000000001</ele>
        <time>2012-05-03T08:28:10Z</time>
      </trkpt>
      <trkpt lat="46.058550551533699" lon="9.215665077790618">
        <ele>1411.3499999999999</ele>
        <time>2012-05-03T08:28:27Z</time>
      </trkpt>
      <trkpt lat="46.058515934273601" lon="9.215660803020001">
        <ele>1412.79</ele>
        <time>2012-05-03T08:28:38Z</time>
      </trkpt>
      <trkpt lat="46.058497661724687" lon="9.215658623725176">
        <ele>1413.76</ele>
        <time>2012-05-03T08:28:55Z</time>
      </trkpt>
      <trkpt lat="46.058453237637877" lon="9.215606320649386">
        <ele>1415.2</ele>
        <time>2012-05-03T08:29:07Z</time>
      </trkpt>
      <trkpt lat="46.058443011716008" lon="9.215585784986615">
        <ele>1415.6800000000001</ele>
        <time>2012-05-03T08:29:20Z</time>
      </trkpt>
      <trkpt lat="46.058442676439881" lon="9.215581342577934">
        <ele>1415.2</ele>
        <time>2012-05-03T08:29:40Z</time>
      </trkpt>
      <trkpt lat="46.058448543772101" lon="9.215577989816666">
        <ele>1416.1600000000001</ele>
        <time>2012-05-03T08:29:58Z</time>
      </trkpt>
      <trkpt lat="46.058459356427193" lon="9.215565249323845">
        <ele>1417.1199999999999</ele>
        <time>2012-05-03T08:30:11Z</time>
      </trkpt>
      <trkpt lat="46.05846363119781" lon="9.215563656762242">
        <ele>1417.1199999999999</ele>
        <time>2012-05-03T08:30:37Z</time>
      </trkpt>
      <trkpt lat="46.058481065556407" lon="9.215537840500474">
        <ele>1417.5999999999999</ele>
        <time>2012-05-03T08:30:47Z</time>
      </trkpt>
      <trkpt lat="46.058531776070595" lon="9.215398700907826">
        <ele>1418.0799999999999</ele>
        <time>2012-05-03T08:31:00Z</time>
      </trkpt>
      <trkpt lat="46.058542253449559" lon="9.215388726443052">
        <ele>1418.0799999999999</ele>
        <time>2012-05-03T08:31:24Z</time>
      </trkpt>
      <trkpt lat="46.058547366410494" lon="9.215369448065758">
        <ele>1418.0799999999999</ele>
        <time>2012-05-03T08:31:28Z</time>
      </trkpt>
      <trkpt lat="46.058562118560076" lon="9.215278755873442">
        <ele>1418.5599999999999</ele>
        <time>2012-05-03T08:31:43Z</time>
      </trkpt>
      <trkpt lat="46.058591539040208" lon="9.215146405622363">
        <ele>1418.5599999999999</ele>
        <time>2012-05-03T08:31:52Z</time>
      </trkpt>
      <trkpt lat="46.058618947863579" lon="9.215135257691145">
        <ele>1418.5599999999999</ele>
        <time>2012-05-03T08:31:55Z</time>
      </trkpt>
      <trkpt lat="46.058694804087281" lon="9.215057892724872">
        <ele>1420</ele>
        <time>2012-05-03T08:32:05Z</time>
      </trkpt>
      <trkpt lat="46.058737551793456" lon="9.214967535808682">
        <ele>1421.45</ele>
        <time>2012-05-03T08:32:15Z</time>
      </trkpt>
      <trkpt lat="46.058762026950717" lon="9.214910287410021">
        <ele>1422.8900000000001</ele>
        <time>2012-05-03T08:32:22Z</time>
      </trkpt>
      <trkpt lat="46.058774683624506" lon="9.21483644284308">
        <ele>1424.8099999999999</ele>
        <time>2012-05-03T08:32:30Z</time>
      </trkpt>
      <trkpt lat="46.058796141296625" lon="9.214842477813363">
        <ele>1425.29</ele>
        <time>2012-05-03T08:32:46Z</time>
      </trkpt>
      <trkpt lat="46.058829752728343" lon="9.214765196666122">
        <ele>1425.77</ele>
        <time>2012-05-03T08:33:01Z</time>
      </trkpt>
      <trkpt lat="46.058864537626505" lon="9.214668972417712">
        <ele>1427.21</ele>
        <time>2012-05-03T08:33:13Z</time>
      </trkpt>
      <trkpt lat="46.058872416615486" lon="9.214682970196009">
        <ele>1427.21</ele>
        <time>2012-05-03T08:33:22Z</time>
      </trkpt>
      <trkpt lat="46.058864034712315" lon="9.214646760374308">
        <ele>1427.7</ele>
        <time>2012-05-03T08:33:26Z</time>
      </trkpt>
      <trkpt lat="46.058858670294285" lon="9.214584901928902">
        <ele>1430.5799999999999</ele>
        <time>2012-05-03T08:33:36Z</time>
      </trkpt>
      <trkpt lat="46.058861939236522" lon="9.214564952999353">
        <ele>1430.5799999999999</ele>
        <time>2012-05-03T08:33:39Z</time>
      </trkpt>
      <trkpt lat="46.058869566768408" lon="9.214538298547268">
        <ele>1430.5799999999999</ele>
        <time>2012-05-03T08:33:55Z</time>
      </trkpt>
      <trkpt lat="46.058873673900962" lon="9.214537125080824">
        <ele>1429.6199999999999</ele>
        <time>2012-05-03T08:34:14Z</time>
      </trkpt>
      <trkpt lat="46.058890521526337" lon="9.21446948312223">
        <ele>1427.7</ele>
        <time>2012-05-03T08:34:24Z</time>
      </trkpt>
      <trkpt lat="46.058902675285935" lon="9.214394045993686">
        <ele>1425.29</ele>
        <time>2012-05-03T08:34:35Z</time>
      </trkpt>
      <trkpt lat="46.058928910642862" lon="9.214351633563638">
        <ele>1423.8499999999999</ele>
        <time>2012-05-03T08:34:40Z</time>
      </trkpt>
      <trkpt lat="46.058943243697286" lon="9.21433168463409">
        <ele>1423.3699999999999</ele>
        <time>2012-05-03T08:34:42Z</time>
      </trkpt>
      <trkpt lat="46.058971406891942" lon="9.214317267760634">
        <ele>1422.4100000000001</ele>
        <time>2012-05-03T08:34:45Z</time>
      </trkpt>
      <trkpt lat="46.058998899534345" lon="9.214303102344275">
        <ele>1421.9300000000001</ele>
        <time>2012-05-03T08:34:48Z</time>
      </trkpt>
      <trkpt lat="46.059063272550702" lon="9.214214589446783">
        <ele>1420</ele>
        <time>2012-05-03T08:34:57Z</time>
      </trkpt>
      <trkpt lat="46.059107277542353" lon="9.214203106239438">
        <ele>1418.5599999999999</ele>
        <time>2012-05-03T08:35:02Z</time>
      </trkpt>
      <trkpt lat="46.05912328697741" lon="9.214197909459472">
        <ele>1417.5999999999999</ele>
        <time>2012-05-03T08:35:04Z</time>
      </trkpt>
      <trkpt lat="46.059164945036173" lon="9.214171674102545">
        <ele>1416.6400000000001</ele>
        <time>2012-05-03T08:35:09Z</time>
      </trkpt>
      <trkpt lat="46.059181960299611" lon="9.214130518957973">
        <ele>1415.2</ele>
        <time>2012-05-03T08:35:15Z</time>
      </trkpt>
      <trkpt lat="46.059109205380082" lon="9.214109228923917">
        <ele>1412.3099999999999</ele>
        <time>2012-05-03T08:35:27Z</time>
      </trkpt>
      <trkpt lat="46.059096129611135" lon="9.214102188125253">
        <ele>1411.8299999999999</ele>
        <time>2012-05-03T08:35:34Z</time>
      </trkpt>
      <trkpt lat="46.059121862053871" lon="9.214036222547293">
        <ele>1409.9100000000001</ele>
        <time>2012-05-03T08:35:44Z</time>
      </trkpt>
      <trkpt lat="46.059125298634171" lon="9.214028511196375">
        <ele>1409.9100000000001</ele>
        <time>2012-05-03T08:35:45Z</time>
      </trkpt>
      <trkpt lat="46.059157401323318" lon="9.214012920856476">
        <ele>1409.4300000000001</ele>
        <time>2012-05-03T08:35:48Z</time>
      </trkpt>
      <trkpt lat="46.059180367738008" lon="9.213999090716243">
        <ele>1408.47</ele>
        <time>2012-05-03T08:35:51Z</time>
      </trkpt>
      <trkpt lat="46.059188162907958" lon="9.213944189250469">
        <ele>1407.51</ele>
        <time>2012-05-03T08:35:55Z</time>
      </trkpt>
      <trkpt lat="46.059187324717641" lon="9.213808234781027">
        <ele>1406.0699999999999</ele>
        <time>2012-05-03T08:36:06Z</time>
      </trkpt>
      <trkpt lat="46.059189755469561" lon="9.213813347741962">
        <ele>1406.0699999999999</ele>
        <time>2012-05-03T08:36:10Z</time>
      </trkpt>
      <trkpt lat="46.059198472648859" lon="9.213784094899893">
        <ele>1405.5799999999999</ele>
        <time>2012-05-03T08:36:13Z</time>
      </trkpt>
      <trkpt lat="46.059209620580077" lon="9.213724667206407">
        <ele>1405.0999999999999</ele>
        <time>2012-05-03T08:36:17Z</time>
      </trkpt>
      <trkpt lat="46.059210710227489" lon="9.213620061054826">
        <ele>1403.6600000000001</ele>
        <time>2012-05-03T08:36:27Z</time>
      </trkpt>
      <trkpt lat="46.059196125715971" lon="9.21359290368855">
        <ele>1403.6600000000001</ele>
        <time>2012-05-03T08:36:39Z</time>
      </trkpt>
      <trkpt lat="46.059197299182415" lon="9.213602459058166">
        <ele>1403.6600000000001</ele>
        <time>2012-05-03T08:36:58Z</time>
      </trkpt>
      <trkpt lat="46.059195455163717" lon="9.213592316955328">
        <ele>1402.7</ele>
        <time>2012-05-03T08:37:07Z</time>
      </trkpt>
      <trkpt lat="46.059198388829827" lon="9.213595502078533">
        <ele>1402.7</ele>
        <time>2012-05-03T08:37:15Z</time>
      </trkpt>
      <trkpt lat="46.059199310839176" lon="9.213594160974026">
        <ele>1402.7</ele>
        <time>2012-05-03T08:37:34Z</time>
      </trkpt>
      <trkpt lat="46.059204339981079" lon="9.213587874546647">
        <ele>1402.22</ele>
        <time>2012-05-03T08:38:01Z</time>
      </trkpt>
      <trkpt lat="46.059208530932665" lon="9.213573792949319">
        <ele>1402.22</ele>
        <time>2012-05-03T08:38:30Z</time>
      </trkpt>
      <trkpt lat="46.059218840673566" lon="9.213584270328283">
        <ele>1402.7</ele>
        <time>2012-05-03T08:38:59Z</time>
      </trkpt>
      <trkpt lat="46.059230323880911" lon="9.213581252843142">
        <ele>1402.7</ele>
        <time>2012-05-03T08:39:30Z</time>
      </trkpt>
      <trkpt lat="46.059228563681245" lon="9.213571529835463">
        <ele>1402.7</ele>
        <time>2012-05-03T08:40:02Z</time>
      </trkpt>
      <trkpt lat="46.059229904785752" lon="9.213566835969687">
        <ele>1402.7</ele>
        <time>2012-05-03T08:40:31Z</time>
      </trkpt>
      <trkpt lat="46.059228396043181" lon="9.213571446016431">
        <ele>1402.7</ele>
        <time>2012-05-03T08:41:02Z</time>
      </trkpt>
      <trkpt lat="46.059229234233499" lon="9.213565411046147">
        <ele>1403.1800000000001</ele>
        <time>2012-05-03T08:41:30Z</time>
      </trkpt>
      <trkpt lat="46.059229485690594" lon="9.21356356702745">
        <ele>1403.1800000000001</ele>
        <time>2012-05-03T08:41:58Z</time>
      </trkpt>
      <trkpt lat="46.059228898957372" lon="9.213566835969687">
        <ele>1403.6600000000001</ele>
        <time>2012-05-03T08:42:13Z</time>
      </trkpt>
      <trkpt lat="46.059240382164717" lon="9.213547557592392">
        <ele>1403.6600000000001</ele>
        <time>2012-05-03T08:42:21Z</time>
      </trkpt>
      <trkpt lat="46.059225630015135" lon="9.213549485430121">
        <ele>1404.1400000000001</ele>
        <time>2012-05-03T08:42:39Z</time>
      </trkpt>
      <trkpt lat="46.059228731319308" lon="9.213550072163343">
        <ele>1404.1400000000001</ele>
        <time>2012-05-03T08:42:55Z</time>
      </trkpt>
      <trkpt lat="46.059224288910627" lon="9.213573709130287">
        <ele>1403.1800000000001</ele>
        <time>2012-05-03T08:43:05Z</time>
      </trkpt>
      <trkpt lat="46.059213476255536" lon="9.213558789342642">
        <ele>1403.1800000000001</ele>
        <time>2012-05-03T08:43:31Z</time>
      </trkpt>
      <trkpt lat="46.059205094352365" lon="9.213573625311256">
        <ele>1402.7</ele>
        <time>2012-05-03T08:44:04Z</time>
      </trkpt>
      <trkpt lat="46.059207106009126" lon="9.213573122397065">
        <ele>1402.22</ele>
        <time>2012-05-03T08:44:05Z</time>
      </trkpt>
      <trkpt lat="46.059216158464551" lon="9.213561723008752">
        <ele>1403.6600000000001</ele>
        <time>2012-05-03T08:44:15Z</time>
      </trkpt>
      <trkpt lat="46.05921808630228" lon="9.213577061891556">
        <ele>1403.6600000000001</ele>
        <time>2012-05-03T08:44:32Z</time>
      </trkpt>
      <trkpt lat="46.059215739369392" lon="9.213593574240804">
        <ele>1403.6600000000001</ele>
        <time>2012-05-03T08:45:03Z</time>
      </trkpt>
      <trkpt lat="46.059214230626822" lon="9.213590724393725">
        <ele>1404.1400000000001</ele>
        <time>2012-05-03T08:45:20Z</time>
      </trkpt>
      <trkpt lat="46.059197634458542" lon="9.213595250621438">
        <ele>1404.1400000000001</ele>
        <time>2012-05-03T08:45:41Z</time>
      </trkpt>
      <trkpt lat="46.059199646115303" lon="9.213591730222106">
        <ele>1404.1400000000001</ele>
        <time>2012-05-03T08:46:01Z</time>
      </trkpt>
      <trkpt lat="46.059193862602115" lon="9.213583348318934">
        <ele>1403.1800000000001</ele>
        <time>2012-05-03T08:46:24Z</time>
      </trkpt>
      <trkpt lat="46.059190426021814" lon="9.213576558977366">
        <ele>1403.1800000000001</ele>
        <time>2012-05-03T08:46:43Z</time>
      </trkpt>
      <trkpt lat="46.059188330546021" lon="9.213577564805746">
        <ele>1402.7</ele>
        <time>2012-05-03T08:47:06Z</time>
      </trkpt>
      <trkpt lat="46.059202076867223" lon="9.213569266721606">
        <ele>1403.6600000000001</ele>
        <time>2012-05-03T08:47:22Z</time>
      </trkpt>
      <trkpt lat="46.059191599488258" lon="9.21356356702745">
        <ele>1402.7</ele>
        <time>2012-05-03T08:47:38Z</time>
      </trkpt>
      <trkpt lat="46.05919947847724" lon="9.213563231751323">
        <ele>1403.6600000000001</ele>
        <time>2012-05-03T08:47:58Z</time>
      </trkpt>
      <trkpt lat="46.059201909229159" lon="9.213558034971356">
        <ele>1403.6600000000001</ele>
        <time>2012-05-03T08:48:14Z</time>
      </trkpt>
      <trkpt lat="46.05921657755971" lon="9.213545965030789">
        <ele>1404.1400000000001</ele>
        <time>2012-05-03T08:48:25Z</time>
      </trkpt>
      <trkpt lat="46.059228228405118" lon="9.213545881211758">
        <ele>1404.6199999999999</ele>
        <time>2012-05-03T08:48:35Z</time>
      </trkpt>
      <trkpt lat="46.059239963069558" lon="9.213529955595732">
        <ele>1406.0699999999999</ele>
        <time>2012-05-03T08:48:46Z</time>
      </trkpt>
      <trkpt lat="46.059242645278573" lon="9.213514951989055">
        <ele>1407.03</ele>
        <time>2012-05-03T08:48:59Z</time>
      </trkpt>
      <trkpt lat="46.059233173727989" lon="9.213508078828454">
        <ele>1407.03</ele>
        <time>2012-05-03T08:49:16Z</time>
      </trkpt>
      <trkpt lat="46.05923518538475" lon="9.213500367477536">
        <ele>1407.99</ele>
        <time>2012-05-03T08:49:28Z</time>
      </trkpt>
      <trkpt lat="46.059230323880911" lon="9.213497685268521">
        <ele>1407.51</ele>
        <time>2012-05-03T08:49:43Z</time>
      </trkpt>
      <trkpt lat="46.059232754632831" lon="9.213498439639807">
        <ele>1407.99</ele>
        <time>2012-05-03T08:50:02Z</time>
      </trkpt>
      <trkpt lat="46.059234095737338" lon="9.213526267558336">
        <ele>1407.99</ele>
        <time>2012-05-03T08:50:22Z</time>
      </trkpt>
      <trkpt lat="46.059232670813799" lon="9.213521825149655">
        <ele>1407.99</ele>
        <time>2012-05-03T08:50:39Z</time>
      </trkpt>
      <trkpt lat="46.059223618358374" lon="9.21352744102478">
        <ele>1407.99</ele>
        <time>2012-05-03T08:50:57Z</time>
      </trkpt>
      <trkpt lat="46.059225713834167" lon="9.213525177910924">
        <ele>1407.99</ele>
        <time>2012-05-03T08:51:17Z</time>
      </trkpt>
      <trkpt lat="46.059224456548691" lon="9.213526099920273">
        <ele>1407.99</ele>
        <time>2012-05-03T08:51:38Z</time>
      </trkpt>
      <trkpt lat="46.059222277253866" lon="9.213510761037469">
        <ele>1407.51</ele>
        <time>2012-05-03T08:52:00Z</time>
      </trkpt>
      <trkpt lat="46.059215404093266" lon="9.213524758815765">
        <ele>1407.03</ele>
        <time>2012-05-03T08:52:16Z</time>
      </trkpt>
      <trkpt lat="46.059221774339676" lon="9.213507156819105">
        <ele>1407.99</ele>
        <time>2012-05-03T08:52:37Z</time>
      </trkpt>
      <trkpt lat="46.05921464972198" lon="9.213504558429122">
        <ele>1408.95</ele>
        <time>2012-05-03T08:52:53Z</time>
      </trkpt>
      <trkpt lat="46.059215320274234" lon="9.213493326678872">
        <ele>1408.95</ele>
        <time>2012-05-03T08:53:10Z</time>
      </trkpt>
      <trkpt lat="46.059218421578407" lon="9.213487291708589">
        <ele>1410.3900000000001</ele>
        <time>2012-05-03T08:53:23Z</time>
      </trkpt>
      <trkpt lat="46.059223031625152" lon="9.213477652519941">
        <ele>1410.8699999999999</ele>
        <time>2012-05-03T08:53:38Z</time>
      </trkpt>
      <trkpt lat="46.059233509004116" lon="9.213474383577704">
        <ele>1411.3499999999999</ele>
        <time>2012-05-03T08:53:58Z</time>
      </trkpt>
      <trkpt lat="46.059230491518974" lon="9.213475221768022">
        <ele>1412.3099999999999</ele>
        <time>2012-05-03T08:54:14Z</time>
      </trkpt>
      <trkpt lat="46.05922588147223" lon="9.213486453518271">
        <ele>1413.28</ele>
        <time>2012-05-03T08:54:29Z</time>
      </trkpt>
      <trkpt lat="46.059222863987088" lon="9.213483771309257">
        <ele>1414.72</ele>
        <time>2012-05-03T08:54:50Z</time>
      </trkpt>
      <trkpt lat="46.059224540367723" lon="9.213484860956669">
        <ele>1414.24</ele>
        <time>2012-05-03T08:55:08Z</time>
      </trkpt>
      <trkpt lat="46.059229066595435" lon="9.213479412719607">
        <ele>1415.6800000000001</ele>
        <time>2012-05-03T08:55:24Z</time>
      </trkpt>
      <trkpt lat="46.059233006089926" lon="9.213478658348322">
        <ele>1415.2</ele>
        <time>2012-05-03T08:55:41Z</time>
      </trkpt>
      <trkpt lat="46.059233341366053" lon="9.213470863178372">
        <ele>1416.6400000000001</ele>
        <time>2012-05-03T08:55:56Z</time>
      </trkpt>
      <trkpt lat="46.059234431013465" lon="9.213470695540309">
        <ele>1418.0799999999999</ele>
        <time>2012-05-03T08:56:13Z</time>
      </trkpt>
      <trkpt lat="46.059239627793431" lon="9.21345753595233">
        <ele>1418.0799999999999</ele>
        <time>2012-05-03T08:56:29Z</time>
      </trkpt>
      <trkpt lat="46.059238705784082" lon="9.213457452133298">
        <ele>1419.04</ele>
        <time>2012-05-03T08:56:48Z</time>
      </trkpt>
      <trkpt lat="46.059242142364383" lon="9.213459463790059">
        <ele>1419.04</ele>
        <time>2012-05-03T08:57:05Z</time>
      </trkpt>
      <trkpt lat="46.059241807088256" lon="9.213450578972697">
        <ele>1420.49</ele>
        <time>2012-05-03T08:57:19Z</time>
      </trkpt>
      <trkpt lat="46.059256978332996" lon="9.213455272838473">
        <ele>1421.45</ele>
        <time>2012-05-03T08:57:34Z</time>
      </trkpt>
      <trkpt lat="46.059273155406117" lon="9.213442699983716">
        <ele>1421.9300000000001</ele>
        <time>2012-05-03T08:57:48Z</time>
      </trkpt>
      <trkpt lat="46.059291427955031" lon="9.213446388021112">
        <ele>1421.9300000000001</ele>
        <time>2012-05-03T08:58:03Z</time>
      </trkpt>
      <trkpt lat="46.059275418519974" lon="9.213442029431462">
        <ele>1421.9300000000001</ele>
        <time>2012-05-03T08:58:16Z</time>
      </trkpt>
      <trkpt lat="46.059275837615132" lon="9.213423673063517">
        <ele>1423.8499999999999</ele>
        <time>2012-05-03T08:58:27Z</time>
      </trkpt>
      <trkpt lat="46.05927525088191" lon="9.213397270068526">
        <ele>1424.8099999999999</ele>
        <time>2012-05-03T08:58:47Z</time>
      </trkpt>
      <trkpt lat="46.059246417135" lon="9.213397856801748">
        <ele>1425.29</ele>
        <time>2012-05-03T08:59:01Z</time>
      </trkpt>
      <trkpt lat="46.059236023575068" lon="9.213390899822116">
        <ele>1426.25</ele>
        <time>2012-05-03T08:59:15Z</time>
      </trkpt>
      <trkpt lat="46.059233509004116" lon="9.213384948670864">
        <ele>1426.73</ele>
        <time>2012-05-03T08:59:40Z</time>
      </trkpt>
      <trkpt lat="46.05923417955637" lon="9.213385535404086">
        <ele>1428.1800000000001</ele>
        <time>2012-05-03T08:59:53Z</time>
      </trkpt>
      <trkpt lat="46.059238538146019" lon="9.213411100208759">
        <ele>1428.6600000000001</ele>
        <time>2012-05-03T09:00:07Z</time>
      </trkpt>
      <trkpt lat="46.05923711322248" lon="9.213410597294569">
        <ele>1429.1400000000001</ele>
        <time>2012-05-03T09:00:23Z</time>
      </trkpt>
      <trkpt lat="46.059235436841846" lon="9.213413195684552">
        <ele>1429.1400000000001</ele>
        <time>2012-05-03T09:00:45Z</time>
      </trkpt>
      <trkpt lat="46.059234933927655" lon="9.213417218998075">
        <ele>1430.5799999999999</ele>
        <time>2012-05-03T09:01:00Z</time>
      </trkpt>
      <trkpt lat="46.059234514832497" lon="9.213425349444151">
        <ele>1430.5799999999999</ele>
        <time>2012-05-03T09:01:17Z</time>
      </trkpt>
      <trkpt lat="46.059242393821478" lon="9.213428031653166">
        <ele>1432.02</ele>
        <time>2012-05-03T09:01:37Z</time>
      </trkpt>
      <trkpt lat="46.059244908392429" lon="9.213422164320946">
        <ele>1432.5</ele>
        <time>2012-05-03T09:01:53Z</time>
      </trkpt>
      <trkpt lat="46.059257313609123" lon="9.213416296988726">
        <ele>1432.98</ele>
        <time>2012-05-03T09:02:11Z</time>
      </trkpt>
      <trkpt lat="46.059260163456202" lon="9.213416464626789">
        <ele>1433.46</ele>
        <time>2012-05-03T09:02:29Z</time>
      </trkpt>
      <trkpt lat="46.059244824573398" lon="9.213419230654836">
        <ele>1432.5</ele>
        <time>2012-05-03T09:02:52Z</time>
      </trkpt>
      <trkpt lat="46.059240214526653" lon="9.213416213169694">
        <ele>1433.46</ele>
        <time>2012-05-03T09:03:09Z</time>
      </trkpt>
      <trkpt lat="46.059245243668556" lon="9.213407495990396">
        <ele>1433.46</ele>
        <time>2012-05-03T09:03:26Z</time>
      </trkpt>
      <trkpt lat="46.059238957241178" lon="9.213401041924954">
        <ele>1433.46</ele>
        <time>2012-05-03T09:03:46Z</time>
      </trkpt>
      <trkpt lat="46.059236107394099" lon="9.213396767154336">
        <ele>1433.46</ele>
        <time>2012-05-03T09:04:00Z</time>
      </trkpt>
      <trkpt lat="46.059239879250526" lon="9.213399197906256">
        <ele>1433.46</ele>
        <time>2012-05-03T09:04:23Z</time>
      </trkpt>
      <trkpt lat="46.059244237840176" lon="9.213406154885888">
        <ele>1433.46</ele>
        <time>2012-05-03T09:04:44Z</time>
      </trkpt>
      <trkpt lat="46.059245998039842" lon="9.213408501818776">
        <ele>1433.46</ele>
        <time>2012-05-03T09:05:08Z</time>
      </trkpt>
      <trkpt lat="46.059249015524983" lon="9.213410764932632">
        <ele>1433.46</ele>
        <time>2012-05-03T09:05:25Z</time>
      </trkpt>
      <trkpt lat="46.059242812916636" lon="9.213418895378709">
        <ele>1433.9400000000001</ele>
        <time>2012-05-03T09:05:42Z</time>
      </trkpt>
      <trkpt lat="46.059240885078907" lon="9.213417051360011">
        <ele>1433.9400000000001</ele>
        <time>2012-05-03T09:06:00Z</time>
      </trkpt>
      <trkpt lat="46.059243148192763" lon="9.213417051360011">
        <ele>1434.4200000000001</ele>
        <time>2012-05-03T09:06:17Z</time>
      </trkpt>
      <trkpt lat="46.059247674420476" lon="9.213423589244485">
        <ele>1434.4200000000001</ele>
        <time>2012-05-03T09:06:35Z</time>
      </trkpt>
      <trkpt lat="46.059245746582747" lon="9.213420739397407">
        <ele>1434.4200000000001</ele>
        <time>2012-05-03T09:06:51Z</time>
      </trkpt>
      <trkpt lat="46.05925471521914" lon="9.21340431086719">
        <ele>1435.3900000000001</ele>
        <time>2012-05-03T09:07:04Z</time>
      </trkpt>
      <trkpt lat="46.059257900342345" lon="9.213387966156006">
        <ele>1437.3099999999999</ele>
        <time>2012-05-03T09:07:17Z</time>
      </trkpt>
      <trkpt lat="46.059273239225149" lon="9.213385619223118">
        <ele>1438.27</ele>
        <time>2012-05-03T09:07:34Z</time>
      </trkpt>
      <trkpt lat="46.059287739917636" lon="9.213381931185722">
        <ele>1441.1500000000001</ele>
        <time>2012-05-03T09:07:49Z</time>
      </trkpt>
      <trkpt lat="46.05930115096271" lon="9.213378997519612">
        <ele>1440.1900000000001</ele>
        <time>2012-05-03T09:08:03Z</time>
      </trkpt>
      <trkpt lat="46.059305341914296" lon="9.213383020833135">
        <ele>1441.6300000000001</ele>
        <time>2012-05-03T09:08:18Z</time>
      </trkpt>
      <trkpt lat="46.059326715767384" lon="9.21338327229023">
        <ele>1442.1099999999999</ele>
        <time>2012-05-03T09:08:27Z</time>
      </trkpt>
      <trkpt lat="46.059337696060538" lon="9.213375560939312">
        <ele>1442.5999999999999</ele>
        <time>2012-05-03T09:08:39Z</time>
      </trkpt>
      <trkpt lat="46.059348676353693" lon="9.213369777426124">
        <ele>1443.5599999999999</ele>
        <time>2012-05-03T09:08:56Z</time>
      </trkpt>
      <trkpt lat="46.059333505108953" lon="9.213363323360682">
        <ele>1443.5599999999999</ele>
        <time>2012-05-03T09:09:11Z</time>
      </trkpt>
      <trkpt lat="46.059336103498936" lon="9.213355109095573">
        <ele>1443.5599999999999</ele>
        <time>2012-05-03T09:09:28Z</time>
      </trkpt>
      <trkpt lat="46.05933777987957" lon="9.213338177651167">
        <ele>1443.5599999999999</ele>
        <time>2012-05-03T09:09:49Z</time>
      </trkpt>
      <trkpt lat="46.059333002194762" lon="9.213339434936643">
        <ele>1443.0799999999999</ele>
        <time>2012-05-03T09:10:10Z</time>
      </trkpt>
      <trkpt lat="46.059337360784411" lon="9.213346894830465">
        <ele>1442.5999999999999</ele>
        <time>2012-05-03T09:10:24Z</time>
      </trkpt>
      <trkpt lat="46.059350604191422" lon="9.213341195136309">
        <ele>1441.6300000000001</ele>
        <time>2012-05-03T09:10:36Z</time>
      </trkpt>
      <trkpt lat="46.059355130419135" lon="9.213340608403087">
        <ele>1441.6300000000001</ele>
        <time>2012-05-03T09:10:47Z</time>
      </trkpt>
      <trkpt lat="46.059363596141338" lon="9.213347313925624">
        <ele>1441.1500000000001</ele>
        <time>2012-05-03T09:10:59Z</time>
      </trkpt>
      <trkpt lat="46.059368625283241" lon="9.213356198742986">
        <ele>1440.6700000000001</ele>
        <time>2012-05-03T09:11:16Z</time>
      </trkpt>
      <trkpt lat="46.059370972216129" lon="9.213345469906926">
        <ele>1440.6700000000001</ele>
        <time>2012-05-03T09:11:35Z</time>
      </trkpt>
      <trkpt lat="46.059370301663876" lon="9.21335494145751">
        <ele>1438.75</ele>
        <time>2012-05-03T09:11:48Z</time>
      </trkpt>
      <trkpt lat="46.059372564777732" lon="9.213347313925624">
        <ele>1438.27</ele>
        <time>2012-05-03T09:12:02Z</time>
      </trkpt>
      <trkpt lat="46.059382036328316" lon="9.21333541162312">
        <ele>1436.8299999999999</ele>
        <time>2012-05-03T09:12:16Z</time>
      </trkpt>
      <trkpt lat="46.059403913095593" lon="9.213307835161686">
        <ele>1437.3099999999999</ele>
        <time>2012-05-03T09:12:31Z</time>
      </trkpt>
      <trkpt lat="46.059412462636828" lon="9.21327724121511">
        <ele>1436.8299999999999</ele>
        <time>2012-05-03T09:12:33Z</time>
      </trkpt>
      <trkpt lat="46.059432495385408" lon="9.213234577327967">
        <ele>1435.8699999999999</ele>
        <time>2012-05-03T09:12:36Z</time>
      </trkpt>
      <trkpt lat="46.059456132352352" lon="9.2130739800632">
        <ele>1435.8699999999999</ele>
        <time>2012-05-03T09:12:47Z</time>
      </trkpt>
      <trkpt lat="46.0594501812011" lon="9.21301974914968">
        <ele>1436.8299999999999</ele>
        <time>2012-05-03T09:12:51Z</time>
      </trkpt>
      <trkpt lat="46.059450348839164" lon="9.212986137717962">
        <ele>1436.8299999999999</ele>
        <time>2012-05-03T09:12:53Z</time>
      </trkpt>
      <trkpt lat="46.059449007734656" lon="9.21295621432364">
        <ele>1436.8299999999999</ele>
        <time>2012-05-03T09:12:55Z</time>
      </trkpt>
      <trkpt lat="46.059432663023472" lon="9.212889159098268">
        <ele>1435.8699999999999</ele>
        <time>2012-05-03T09:13:06Z</time>
      </trkpt>
      <trkpt lat="46.059436770156026" lon="9.21284381300211">
        <ele>1435.3900000000001</ele>
        <time>2012-05-03T09:13:21Z</time>
      </trkpt>
      <trkpt lat="46.059435093775392" lon="9.21283895149827">
        <ele>1434.9100000000001</ele>
        <time>2012-05-03T09:13:33Z</time>
      </trkpt>
      <trkpt lat="46.05943157337606" lon="9.212829563766718">
        <ele>1434.9100000000001</ele>
        <time>2012-05-03T09:13:39Z</time>
      </trkpt>
      <trkpt lat="46.059435931965709" lon="9.212770890444517">
        <ele>1435.8699999999999</ele>
        <time>2012-05-03T09:13:50Z</time>
      </trkpt>
      <trkpt lat="46.059422940015793" lon="9.212758485227823">
        <ele>1435.8699999999999</ele>
        <time>2012-05-03T09:14:07Z</time>
      </trkpt>
      <trkpt lat="46.059434339404106" lon="9.212768794968724">
        <ele>1435.8699999999999</ele>
        <time>2012-05-03T09:14:30Z</time>
      </trkpt>
      <trkpt lat="46.059455377981067" lon="9.212742308154702">
        <ele>1438.27</ele>
        <time>2012-05-03T09:14:41Z</time>
      </trkpt>
      <trkpt lat="46.05945210903883" lon="9.212754210457206">
        <ele>1437.79</ele>
        <time>2012-05-03T09:15:03Z</time>
      </trkpt>
      <trkpt lat="46.059448337182403" lon="9.212761335074902">
        <ele>1437.79</ele>
        <time>2012-05-03T09:15:27Z</time>
      </trkpt>
      <trkpt lat="46.059455126523972" lon="9.212755551561713">
        <ele>1437.79</ele>
        <time>2012-05-03T09:15:49Z</time>
      </trkpt>
      <trkpt lat="46.059444649145007" lon="9.21274708583951">
        <ele>1437.79</ele>
        <time>2012-05-03T09:16:14Z</time>
      </trkpt>
      <trkpt lat="46.0594467446208" lon="9.212754042819142">
        <ele>1437.79</ele>
        <time>2012-05-03T09:16:31Z</time>
      </trkpt>
      <trkpt lat="46.05944917537272" lon="9.212763095274568">
        <ele>1437.3099999999999</ele>
        <time>2012-05-03T09:16:50Z</time>
      </trkpt>
      <trkpt lat="46.059448840096593" lon="9.21276762150228">
        <ele>1437.79</ele>
        <time>2012-05-03T09:17:09Z</time>
      </trkpt>
      <trkpt lat="46.059449510648847" lon="9.212771477177739">
        <ele>1437.3099999999999</ele>
        <time>2012-05-03T09:17:27Z</time>
      </trkpt>
      <trkpt lat="46.059447079896927" lon="9.212780026718974">
        <ele>1437.79</ele>
        <time>2012-05-03T09:17:41Z</time>
      </trkpt>
      <trkpt lat="46.059447331354022" lon="9.212793437764049">
        <ele>1436.8299999999999</ele>
        <time>2012-05-03T09:17:57Z</time>
      </trkpt>
      <trkpt lat="46.059448337182403" lon="9.212798718363047">
        <ele>1436.8299999999999</ele>
        <time>2012-05-03T09:18:19Z</time>
      </trkpt>
      <trkpt lat="46.059454875066876" lon="9.212807267904282">
        <ele>1437.79</ele>
        <time>2012-05-03T09:18:36Z</time>
      </trkpt>
      <trkpt lat="46.059456970542669" lon="9.212809028103948">
        <ele>1439.71</ele>
        <time>2012-05-03T09:18:49Z</time>
      </trkpt>
      <trkpt lat="46.05945554561913" lon="9.212812045589089">
        <ele>1439.23</ele>
        <time>2012-05-03T09:19:10Z</time>
      </trkpt>
      <trkpt lat="46.059454372152686" lon="9.212815146893263">
        <ele>1439.71</ele>
        <time>2012-05-03T09:19:29Z</time>
      </trkpt>
      <trkpt lat="46.059456299990416" lon="9.212820008397102">
        <ele>1439.71</ele>
        <time>2012-05-03T09:19:56Z</time>
      </trkpt>
      <trkpt lat="46.059458898380399" lon="9.212817242369056">
        <ele>1439.71</ele>
        <time>2012-05-03T09:20:18Z</time>
      </trkpt>
      <trkpt lat="46.059457808732986" lon="9.212814560160041">
        <ele>1440.6700000000001</ele>
        <time>2012-05-03T09:20:45Z</time>
      </trkpt>
      <trkpt lat="46.059454791247845" lon="9.212818332016468">
        <ele>1440.6700000000001</ele>
        <time>2012-05-03T09:21:02Z</time>
      </trkpt>
      <trkpt lat="46.059466609731317" lon="9.212825540453196">
        <ele>1443.0799999999999</ele>
        <time>2012-05-03T09:21:16Z</time>
      </trkpt>
      <trkpt lat="46.059484882280231" lon="9.212835095822811">
        <ele>1444.52</ele>
        <time>2012-05-03T09:21:25Z</time>
      </trkpt>
      <trkpt lat="46.059485552832484" lon="9.212835682556033">
        <ele>1446.4400000000001</ele>
        <time>2012-05-03T09:21:37Z</time>
      </trkpt>
      <trkpt lat="46.059472896158695" lon="9.212830485776067">
        <ele>1445.48</ele>
        <time>2012-05-03T09:21:53Z</time>
      </trkpt>
      <trkpt lat="46.059476416558027" lon="9.212832245975733">
        <ele>1445.96</ele>
        <time>2012-05-03T09:22:13Z</time>
      </trkpt>
      <trkpt lat="46.059475746005774" lon="9.212830485776067">
        <ele>1446.4400000000001</ele>
        <time>2012-05-03T09:22:27Z</time>
      </trkpt>
      <trkpt lat="46.059479936957359" lon="9.212829228490591">
        <ele>1447.8800000000001</ele>
        <time>2012-05-03T09:22:38Z</time>
      </trkpt>
      <trkpt lat="46.059489408507943" lon="9.212838197126985">
        <ele>1447.8800000000001</ele>
        <time>2012-05-03T09:22:54Z</time>
      </trkpt>
      <trkpt lat="46.059489827603102" lon="9.21284532174468">
        <ele>1447.8800000000001</ele>
        <time>2012-05-03T09:23:12Z</time>
      </trkpt>
      <trkpt lat="46.059495778754354" lon="9.212843393906951">
        <ele>1447.8800000000001</ele>
        <time>2012-05-03T09:23:28Z</time>
      </trkpt>
      <trkpt lat="46.059490330517292" lon="9.212850853800774">
        <ele>1447.8800000000001</ele>
        <time>2012-05-03T09:23:50Z</time>
      </trkpt>
      <trkpt lat="46.059491168707609" lon="9.212849009782076">
        <ele>1447.8800000000001</ele>
        <time>2012-05-03T09:24:06Z</time>
      </trkpt>
      <trkpt lat="46.059497455134988" lon="9.212849093601108">
        <ele>1447.8800000000001</ele>
        <time>2012-05-03T09:24:28Z</time>
      </trkpt>
      <trkpt lat="46.05949460528791" lon="9.212843561545014">
        <ele>1448.3599999999999</ele>
        <time>2012-05-03T09:24:47Z</time>
      </trkpt>
      <trkpt lat="46.059508100152016" lon="9.212854038923979">
        <ele>1448.8399999999999</ele>
        <time>2012-05-03T09:24:58Z</time>
      </trkpt>
      <trkpt lat="46.059517068788409" lon="9.212858397513628">
        <ele>1449.3199999999999</ele>
        <time>2012-05-03T09:25:12Z</time>
      </trkpt>
      <trkpt lat="46.059515811502934" lon="9.21285848133266">
        <ele>1450.29</ele>
        <time>2012-05-03T09:25:27Z</time>
      </trkpt>
      <trkpt lat="46.059508938342333" lon="9.212867366150022">
        <ele>1450.77</ele>
        <time>2012-05-03T09:25:46Z</time>
      </trkpt>
      <trkpt lat="46.059496952220798" lon="9.212881615385413">
        <ele>1452.6900000000001</ele>
        <time>2012-05-03T09:26:06Z</time>
      </trkpt>
      <trkpt lat="46.059508603066206" lon="9.212882788851857">
        <ele>1453.1700000000001</ele>
        <time>2012-05-03T09:26:20Z</time>
      </trkpt>
      <trkpt lat="46.059522097930312" lon="9.212894188240171">
        <ele>1453.6500000000001</ele>
        <time>2012-05-03T09:26:35Z</time>
      </trkpt>
      <trkpt lat="46.059530982747674" lon="9.212883459404111">
        <ele>1453.1700000000001</ele>
        <time>2012-05-03T09:26:48Z</time>
      </trkpt>
      <trkpt lat="46.059529222548008" lon="9.212883627042174">
        <ele>1453.6500000000001</ele>
        <time>2012-05-03T09:27:06Z</time>
      </trkpt>
      <trkpt lat="46.059535341337323" lon="9.212897876277566">
        <ele>1455.0899999999999</ele>
        <time>2012-05-03T09:27:21Z</time>
      </trkpt>
      <trkpt lat="46.059536095708609" lon="9.212892930954695">
        <ele>1455.0899999999999</ele>
        <time>2012-05-03T09:27:35Z</time>
      </trkpt>
      <trkpt lat="46.05954053811729" lon="9.212894104421139">
        <ele>1454.6099999999999</ele>
        <time>2012-05-03T09:27:57Z</time>
      </trkpt>
      <trkpt lat="46.059540202841163" lon="9.212888991460204">
        <ele>1455.0899999999999</ele>
        <time>2012-05-03T09:28:17Z</time>
      </trkpt>
      <trkpt lat="46.059540873393416" lon="9.212889159098268">
        <ele>1454.6099999999999</ele>
        <time>2012-05-03T09:28:37Z</time>
      </trkpt>
      <trkpt lat="46.059538861736655" lon="9.21288832090795">
        <ele>1454.6099999999999</ele>
        <time>2012-05-03T09:28:56Z</time>
      </trkpt>
      <trkpt lat="46.05953861027956" lon="9.212887985631824">
        <ele>1455.0899999999999</ele>
        <time>2012-05-03T09:29:13Z</time>
      </trkpt>
      <trkpt lat="46.059538861736655" lon="9.212889913469553">
        <ele>1455.0899999999999</ele>
        <time>2012-05-03T09:29:30Z</time>
      </trkpt>
      <trkpt lat="46.05952980928123" lon="9.212896283715963">
        <ele>1455.0899999999999</ele>
        <time>2012-05-03T09:29:55Z</time>
      </trkpt>
      <trkpt lat="46.059537017717957" lon="9.212859990075231">
        <ele>1455.0899999999999</ele>
        <time>2012-05-03T09:30:11Z</time>
      </trkpt>
      <trkpt lat="46.059532826766372" lon="9.212831407785416">
        <ele>1456.05</ele>
        <time>2012-05-03T09:30:28Z</time>
      </trkpt>
      <trkpt lat="46.059531150385737" lon="9.212861834093928">
        <ele>1457.02</ele>
        <time>2012-05-03T09:30:44Z</time>
      </trkpt>
      <trkpt lat="46.059538694098592" lon="9.212893433868885">
        <ele>1456.53</ele>
        <time>2012-05-03T09:31:03Z</time>
      </trkpt>
      <trkpt lat="46.059547076001763" lon="9.212894858792424">
        <ele>1457.5</ele>
        <time>2012-05-03T09:31:16Z</time>
      </trkpt>
      <trkpt lat="46.059538861736655" lon="9.212902989238501">
        <ele>1457.98</ele>
        <time>2012-05-03T09:31:33Z</time>
      </trkpt>
      <trkpt lat="46.059536850079894" lon="9.212905922904611">
        <ele>1457.98</ele>
        <time>2012-05-03T09:31:53Z</time>
      </trkpt>
      <trkpt lat="46.059549506753683" lon="9.212910197675228">
        <ele>1457.5</ele>
        <time>2012-05-03T09:32:14Z</time>
      </trkpt>
      <trkpt lat="46.059544393792748" lon="9.212901648133993">
        <ele>1457.98</ele>
        <time>2012-05-03T09:32:33Z</time>
      </trkpt>
      <trkpt lat="46.059546070173383" lon="9.212914556264877">
        <ele>1458.9400000000001</ele>
        <time>2012-05-03T09:32:48Z</time>
      </trkpt>
      <trkpt lat="46.059543387964368" lon="9.212905503809452">
        <ele>1459.4200000000001</ele>
        <time>2012-05-03T09:33:01Z</time>
      </trkpt>
      <trkpt lat="46.059544226154685" lon="9.212903073057532">
        <ele>1459.4200000000001</ele>
        <time>2012-05-03T09:33:25Z</time>
      </trkpt>
      <trkpt lat="46.0595469083637" lon="9.212905503809452">
        <ele>1460.3800000000001</ele>
        <time>2012-05-03T09:33:49Z</time>
      </trkpt>
      <trkpt lat="46.059544393792748" lon="9.212897541001439">
        <ele>1461.3399999999999</ele>
        <time>2012-05-03T09:34:03Z</time>
      </trkpt>
      <trkpt lat="46.059542801231146" lon="9.212902067229152">
        <ele>1460.8599999999999</ele>
        <time>2012-05-03T09:34:19Z</time>
      </trkpt>
      <trkpt lat="46.059539197012782" lon="9.212906174361706">
        <ele>1461.3399999999999</ele>
        <time>2012-05-03T09:34:32Z</time>
      </trkpt>
      <trkpt lat="46.059541208669543" lon="9.212916316464543">
        <ele>1463.26</ele>
        <time>2012-05-03T09:34:45Z</time>
      </trkpt>
      <trkpt lat="46.059542801231146" lon="9.212921932339668">
        <ele>1462.78</ele>
        <time>2012-05-03T09:35:06Z</time>
      </trkpt>
      <trkpt lat="46.059545567259192" lon="9.212936768308282">
        <ele>1464.23</ele>
        <time>2012-05-03T09:35:20Z</time>
      </trkpt>
      <trkpt lat="46.059564426541328" lon="9.21292687766254">
        <ele>1466.1500000000001</ele>
        <time>2012-05-03T09:35:34Z</time>
      </trkpt>
      <trkpt lat="46.05956744402647" lon="9.21292981132865">
        <ele>1466.6300000000001</ele>
        <time>2012-05-03T09:35:50Z</time>
      </trkpt>
      <trkpt lat="46.059558223932981" lon="9.212933164089918">
        <ele>1466.6300000000001</ele>
        <time>2012-05-03T09:36:01Z</time>
      </trkpt>
      <trkpt lat="46.059562582522631" lon="9.212931403890252">
        <ele>1467.1099999999999</ele>
        <time>2012-05-03T09:36:21Z</time>
      </trkpt>
      <trkpt lat="46.059570629149675" lon="9.212936600670219">
        <ele>1466.6300000000001</ele>
        <time>2012-05-03T09:36:34Z</time>
      </trkpt>
      <trkpt lat="46.059572137892246" lon="9.212928134948015">
        <ele>1466.6300000000001</ele>
        <time>2012-05-03T09:36:56Z</time>
      </trkpt>
      <trkpt lat="46.05957817286253" lon="9.212930230423808">
        <ele>1466.6300000000001</ele>
        <time>2012-05-03T09:37:08Z</time>
      </trkpt>
      <trkpt lat="46.059582363814116" lon="9.212931739166379">
        <ele>1468.0699999999999</ele>
        <time>2012-05-03T09:37:24Z</time>
      </trkpt>
      <trkpt lat="46.059583369642496" lon="9.21293031424284">
        <ele>1468.0699999999999</ele>
        <time>2012-05-03T09:37:39Z</time>
      </trkpt>
      <trkpt lat="46.059581274166703" lon="9.212920507416129">
        <ele>1469.03</ele>
        <time>2012-05-03T09:37:56Z</time>
      </trkpt>
      <trkpt lat="46.059584794566035" lon="9.212932493537664">
        <ele>1469.51</ele>
        <time>2012-05-03T09:38:08Z</time>
      </trkpt>
      <trkpt lat="46.059578089043498" lon="9.212937606498599">
        <ele>1469.51</ele>
        <time>2012-05-03T09:38:20Z</time>
      </trkpt>
      <trkpt lat="46.059584962204099" lon="9.212940456345677">
        <ele>1470.47</ele>
        <time>2012-05-03T09:38:35Z</time>
      </trkpt>
      <trkpt lat="46.059597618877888" lon="9.212929643690586">
        <ele>1472.4000000000001</ele>
        <time>2012-05-03T09:38:48Z</time>
      </trkpt>
      <trkpt lat="46.059602648019791" lon="9.212923776358366">
        <ele>1472.8800000000001</ele>
        <time>2012-05-03T09:39:06Z</time>
      </trkpt>
      <trkpt lat="46.059610778465867" lon="9.212920591235161">
        <ele>1473.3599999999999</ele>
        <time>2012-05-03T09:39:26Z</time>
      </trkpt>
      <trkpt lat="46.059621255844831" lon="9.212913969531655">
        <ele>1474.8</ele>
        <time>2012-05-03T09:39:38Z</time>
      </trkpt>
      <trkpt lat="46.059634666889906" lon="9.212907264009118">
        <ele>1475.76</ele>
        <time>2012-05-03T09:39:53Z</time>
      </trkpt>
      <trkpt lat="46.05963927693665" lon="9.212911454960704">
        <ele>1475.76</ele>
        <time>2012-05-03T09:40:10Z</time>
      </trkpt>
      <trkpt lat="46.059653526172042" lon="9.212902151048183">
        <ele>1476.24</ele>
        <time>2012-05-03T09:40:23Z</time>
      </trkpt>
      <trkpt lat="46.059659058228135" lon="9.21289318241179">
        <ele>1477.6800000000001</ele>
        <time>2012-05-03T09:40:37Z</time>
      </trkpt>
      <trkpt lat="46.059658890590072" lon="9.212873904034495">
        <ele>1477.6800000000001</ele>
        <time>2012-05-03T09:40:49Z</time>
      </trkpt>
      <trkpt lat="46.059671547263861" lon="9.212870467454195">
        <ele>1478.6500000000001</ele>
        <time>2012-05-03T09:41:00Z</time>
      </trkpt>
      <trkpt lat="46.059674983844161" lon="9.212861247360706">
        <ele>1479.1300000000001</ele>
        <time>2012-05-03T09:41:12Z</time>
      </trkpt>
      <trkpt lat="46.059677414596081" lon="9.212853033095598">
        <ele>1479.1300000000001</ele>
        <time>2012-05-03T09:41:33Z</time>
      </trkpt>
      <trkpt lat="46.059679258614779" lon="9.212850769981742">
        <ele>1479.6099999999999</ele>
        <time>2012-05-03T09:41:54Z</time>
      </trkpt>
      <trkpt lat="46.05968227609992" lon="9.212847165763378">
        <ele>1480.0899999999999</ele>
        <time>2012-05-03T09:42:10Z</time>
      </trkpt>
      <trkpt lat="46.059691915288568" lon="9.212850015610457">
        <ele>1480.5699999999999</ele>
        <time>2012-05-03T09:42:27Z</time>
      </trkpt>
      <trkpt lat="46.059695770964026" lon="9.212852697819471">
        <ele>1481.05</ele>
        <time>2012-05-03T09:42:43Z</time>
      </trkpt>
      <trkpt lat="46.059697531163692" lon="9.21284532174468">
        <ele>1482.49</ele>
        <time>2012-05-03T09:42:59Z</time>
      </trkpt>
      <trkpt lat="46.059696273878217" lon="9.212837191298604">
        <ele>1482.49</ele>
        <time>2012-05-03T09:43:16Z</time>
      </trkpt>
      <trkpt lat="46.059701470658183" lon="9.212831910699606">
        <ele>1483.45</ele>
        <time>2012-05-03T09:43:36Z</time>
      </trkpt>
      <trkpt lat="46.059702476486564" lon="9.212833251804113">
        <ele>1484.4100000000001</ele>
        <time>2012-05-03T09:43:54Z</time>
      </trkpt>
      <trkpt lat="46.059714546427131" lon="9.212834425270557">
        <ele>1485.8499999999999</ele>
        <time>2012-05-03T09:44:10Z</time>
      </trkpt>
      <trkpt lat="46.059723598882556" lon="9.212828138843179">
        <ele>1487.3</ele>
        <time>2012-05-03T09:44:24Z</time>
      </trkpt>
      <trkpt lat="46.059732232242823" lon="9.212820678949356">
        <ele>1487.3</ele>
        <time>2012-05-03T09:44:42Z</time>
      </trkpt>
      <trkpt lat="46.059750085696578" lon="9.212813135236502">
        <ele>1489.22</ele>
        <time>2012-05-03T09:44:55Z</time>
      </trkpt>
      <trkpt lat="46.059751091524959" lon="9.212826881557703">
        <ele>1490.1800000000001</ele>
        <time>2012-05-03T09:45:11Z</time>
      </trkpt>
      <trkpt lat="46.059759892523289" lon="9.212815146893263">
        <ele>1491.1400000000001</ele>
        <time>2012-05-03T09:45:24Z</time>
      </trkpt>
      <trkpt lat="46.059762574732304" lon="9.212808106094599">
        <ele>1491.6199999999999</ele>
        <time>2012-05-03T09:45:39Z</time>
      </trkpt>
      <trkpt lat="46.059781098738313" lon="9.212811207398772">
        <ele>1492.5799999999999</ele>
        <time>2012-05-03T09:45:54Z</time>
      </trkpt>
      <trkpt lat="46.059797275811434" lon="9.212805591523647">
        <ele>1493.55</ele>
        <time>2012-05-03T09:46:05Z</time>
      </trkpt>
      <trkpt lat="46.059798365458846" lon="9.212803579866886">
        <ele>1494.03</ele>
        <time>2012-05-03T09:46:20Z</time>
      </trkpt>
      <trkpt lat="46.059806831181049" lon="9.212802993133664">
        <ele>1495.47</ele>
        <time>2012-05-03T09:46:35Z</time>
      </trkpt>
      <trkpt lat="46.059814542531967" lon="9.212803412228823">
        <ele>1496.4300000000001</ele>
        <time>2012-05-03T09:46:52Z</time>
      </trkpt>
      <trkpt lat="46.059823259711266" lon="9.212799891829491">
        <ele>1497.8699999999999</ele>
        <time>2012-05-03T09:47:10Z</time>
      </trkpt>
      <trkpt lat="46.059828707948327" lon="9.21279494650662">
        <ele>1498.8299999999999</ele>
        <time>2012-05-03T09:47:29Z</time>
      </trkpt>
      <trkpt lat="46.059838095679879" lon="9.212788576260209">
        <ele>1499.79</ele>
        <time>2012-05-03T09:47:41Z</time>
      </trkpt>
      <trkpt lat="46.059849075973034" lon="9.212794527411461">
        <ele>1502.2</ele>
        <time>2012-05-03T09:47:55Z</time>
      </trkpt>
      <trkpt lat="46.059855697676539" lon="9.212787067517638">
        <ele>1502.6800000000001</ele>
        <time>2012-05-03T09:48:11Z</time>
      </trkpt>
      <trkpt lat="46.05986894108355" lon="9.212747924029827">
        <ele>1502.6800000000001</ele>
        <time>2012-05-03T09:48:24Z</time>
      </trkpt>
      <trkpt lat="46.059869611635804" lon="9.212745744735003">
        <ele>1502.6800000000001</ele>
        <time>2012-05-03T09:48:42Z</time>
      </trkpt>
      <trkpt lat="46.059874640777707" lon="9.212745744735003">
        <ele>1502.6800000000001</ele>
        <time>2012-05-03T09:48:56Z</time>
      </trkpt>
      <trkpt lat="46.059874389320612" lon="9.212756892666221">
        <ele>1502.6800000000001</ele>
        <time>2012-05-03T09:49:23Z</time>
      </trkpt>
      <trkpt lat="46.059873718768358" lon="9.212750354781747">
        <ele>1503.1600000000001</ele>
        <time>2012-05-03T09:49:45Z</time>
      </trkpt>
      <trkpt lat="46.059873048216105" lon="9.212737614288926">
        <ele>1503.1600000000001</ele>
        <time>2012-05-03T09:49:56Z</time>
      </trkpt>
      <trkpt lat="46.059878412634134" lon="9.21272655017674">
        <ele>1502.6800000000001</ele>
        <time>2012-05-03T09:50:08Z</time>
      </trkpt>
      <trkpt lat="46.05987623333931" lon="9.212712468579412">
        <ele>1502.2</ele>
        <time>2012-05-03T09:50:22Z</time>
      </trkpt>
      <trkpt lat="46.059876400977373" lon="9.21270702034235">
        <ele>1502.6800000000001</ele>
        <time>2012-05-03T09:50:38Z</time>
      </trkpt>
      <trkpt lat="46.059880927205086" lon="9.212687741965056">
        <ele>1502.6800000000001</ele>
        <time>2012-05-03T09:51:00Z</time>
      </trkpt>
      <trkpt lat="46.059886375442147" lon="9.21267475001514">
        <ele>1502.6800000000001</ele>
        <time>2012-05-03T09:51:15Z</time>
      </trkpt>
      <trkpt lat="46.059881262481213" lon="9.212678773328662">
        <ele>1502.2</ele>
        <time>2012-05-03T09:51:43Z</time>
      </trkpt>
      <trkpt lat="46.05989039875567" lon="9.212670223787427">
        <ele>1502.6800000000001</ele>
        <time>2012-05-03T09:52:14Z</time>
      </trkpt>
      <trkpt lat="46.059886123985052" lon="9.212667960673571">
        <ele>1502.6800000000001</ele>
        <time>2012-05-03T09:52:32Z</time>
      </trkpt>
      <trkpt lat="46.059886291623116" lon="9.21267768368125">
        <ele>1502.6800000000001</ele>
        <time>2012-05-03T09:52:51Z</time>
      </trkpt>
      <trkpt lat="46.059885704889894" lon="9.212679276242852">
        <ele>1502.6800000000001</ele>
        <time>2012-05-03T09:53:08Z</time>
      </trkpt>
      <trkpt lat="46.059886543080211" lon="9.21265522018075">
        <ele>1501.72</ele>
        <time>2012-05-03T09:53:23Z</time>
      </trkpt>
      <trkpt lat="46.05989333242178" lon="9.212645078077912">
        <ele>1502.2</ele>
        <time>2012-05-03T09:53:38Z</time>
      </trkpt>
      <trkpt lat="46.05989190749824" lon="9.212645580992103">
        <ele>1501.24</ele>
        <time>2012-05-03T09:53:52Z</time>
      </trkpt>
      <trkpt lat="46.059894924983382" lon="9.212636696174741">
        <ele>1501.72</ele>
        <time>2012-05-03T09:54:15Z</time>
      </trkpt>
      <trkpt lat="46.05991043150425" lon="9.212634097784758">
        <ele>1501.72</ele>
        <time>2012-05-03T09:54:28Z</time>
      </trkpt>
      <trkpt lat="46.059924010187387" lon="9.212611634284258">
        <ele>1502.2</ele>
        <time>2012-05-03T09:54:47Z</time>
      </trkpt>
      <trkpt lat="46.059927279129624" lon="9.212591182440519">
        <ele>1502.2</ele>
        <time>2012-05-03T09:54:54Z</time>
      </trkpt>
      <trkpt lat="46.05993683449924" lon="9.212581627070904">
        <ele>1500.27</ele>
        <time>2012-05-03T09:55:04Z</time>
      </trkpt>
      <trkpt lat="46.059984695166349" lon="9.212595038115978">
        <ele>1502.2</ele>
        <time>2012-05-03T09:55:17Z</time>
      </trkpt>
      <trkpt lat="46.060061892494559" lon="9.212507111951709">
        <ele>1502.2</ele>
        <time>2012-05-03T09:55:30Z</time>
      </trkpt>
      <trkpt lat="46.06007220223546" lon="9.212428741157055">
        <ele>1501.72</ele>
        <time>2012-05-03T09:55:43Z</time>
      </trkpt>
      <trkpt lat="46.060077315196395" lon="9.212392866611481">
        <ele>1501.24</ele>
        <time>2012-05-03T09:55:56Z</time>
      </trkpt>
      <trkpt lat="46.060078404843807" lon="9.212374342605472">
        <ele>1501.24</ele>
        <time>2012-05-03T09:56:07Z</time>
      </trkpt>
      <trkpt lat="46.060079913586378" lon="9.21237233094871">
        <ele>1500.76</ele>
        <time>2012-05-03T09:56:13Z</time>
      </trkpt>
      <trkpt lat="46.060073794797063" lon="9.212358333170414">
        <ele>1500.27</ele>
        <time>2012-05-03T09:56:25Z</time>
      </trkpt>
      <trkpt lat="46.060076979920268" lon="9.212345257401466">
        <ele>1500.76</ele>
        <time>2012-05-03T09:56:53Z</time>
      </trkpt>
      <trkpt lat="46.060073878616095" lon="9.212342659011483">
        <ele>1500.27</ele>
        <time>2012-05-03T09:57:10Z</time>
      </trkpt>
      <trkpt lat="46.060077734291553" lon="9.212326733395457">
        <ele>1501.24</ele>
        <time>2012-05-03T09:57:25Z</time>
      </trkpt>
      <trkpt lat="46.060077399015427" lon="9.212318770587444">
        <ele>1501.72</ele>
        <time>2012-05-03T09:57:39Z</time>
      </trkpt>
      <trkpt lat="46.060077901929617" lon="9.212309047579765">
        <ele>1501.72</ele>
        <time>2012-05-03T09:57:55Z</time>
      </trkpt>
      <trkpt lat="46.060079829767346" lon="9.212306700646877">
        <ele>1501.24</ele>
        <time>2012-05-03T09:58:20Z</time>
      </trkpt>
      <trkpt lat="46.060078572481871" lon="9.212301336228848">
        <ele>1501.72</ele>
        <time>2012-05-03T09:58:47Z</time>
      </trkpt>
      <trkpt lat="46.060072705149651" lon="9.21230192296207">
        <ele>1502.2</ele>
        <time>2012-05-03T09:59:07Z</time>
      </trkpt>
      <trkpt lat="46.060071866959333" lon="9.212304269894958">
        <ele>1501.72</ele>
        <time>2012-05-03T09:59:29Z</time>
      </trkpt>
      <trkpt lat="46.060078153386712" lon="9.212299240753055">
        <ele>1502.6800000000001</ele>
        <time>2012-05-03T09:59:44Z</time>
      </trkpt>
      <trkpt lat="46.060085194185376" lon="9.212297480553389">
        <ele>1503.1600000000001</ele>
        <time>2012-05-03T10:00:03Z</time>
      </trkpt>
      <trkpt lat="46.06008536182344" lon="9.212297145277262">
        <ele>1502.6800000000001</ele>
        <time>2012-05-03T10:00:20Z</time>
      </trkpt>
      <trkpt lat="46.060086619108915" lon="9.21230049803853">
        <ele>1503.1600000000001</ele>
        <time>2012-05-03T10:00:40Z</time>
      </trkpt>
      <trkpt lat="46.060084104537964" lon="9.212306030094624">
        <ele>1502.6800000000001</ele>
        <time>2012-05-03T10:00:57Z</time>
      </trkpt>
      <trkpt lat="46.060090474784374" lon="9.212300665676594">
        <ele>1502.6800000000001</ele>
        <time>2012-05-03T10:01:10Z</time>
      </trkpt>
      <trkpt lat="46.060090893879533" lon="9.212299073114991">
        <ele>1504.1199999999999</ele>
        <time>2012-05-03T10:01:14Z</time>
      </trkpt>
      <trkpt lat="46.060091480612755" lon="9.212301587685943">
        <ele>1503.6400000000001</ele>
        <time>2012-05-03T10:01:27Z</time>
      </trkpt>
      <trkpt lat="46.060095503926277" lon="9.212310807779431">
        <ele>1504.1199999999999</ele>
        <time>2012-05-03T10:01:42Z</time>
      </trkpt>
      <trkpt lat="46.060097515583038" lon="9.212303515523672">
        <ele>1503.1600000000001</ele>
        <time>2012-05-03T10:02:00Z</time>
      </trkpt>
      <trkpt lat="46.06009466573596" lon="9.21229898929596">
        <ele>1502.2</ele>
        <time>2012-05-03T10:02:19Z</time>
      </trkpt>
      <trkpt lat="46.060101538896561" lon="9.212296977639198">
        <ele>1502.2</ele>
        <time>2012-05-03T10:02:44Z</time>
      </trkpt>
      <trkpt lat="46.060092989355326" lon="9.212304186075926">
        <ele>1502.6800000000001</ele>
        <time>2012-05-03T10:03:01Z</time>
      </trkpt>
      <trkpt lat="46.060089133679867" lon="9.212307957932353">
        <ele>1503.1600000000001</ele>
        <time>2012-05-03T10:03:17Z</time>
      </trkpt>
      <trkpt lat="46.060090474784374" lon="9.212311394512653">
        <ele>1504.5999999999999</ele>
        <time>2012-05-03T10:03:32Z</time>
      </trkpt>
      <trkpt lat="46.060093408450484" lon="9.212312819436193">
        <ele>1505.0799999999999</ele>
        <time>2012-05-03T10:03:53Z</time>
      </trkpt>
      <trkpt lat="46.060096509754658" lon="9.212317010387778">
        <ele>1506.04</ele>
        <time>2012-05-03T10:04:10Z</time>
      </trkpt>
      <trkpt lat="46.060095923021436" lon="9.212313741445541">
        <ele>1505.5599999999999</ele>
        <time>2012-05-03T10:04:26Z</time>
      </trkpt>
      <trkpt lat="46.060093911364675" lon="9.21232245862484">
        <ele>1506.04</ele>
        <time>2012-05-03T10:04:46Z</time>
      </trkpt>
      <trkpt lat="46.060093659907579" lon="9.212319189682603">
        <ele>1506.52</ele>
        <time>2012-05-03T10:05:02Z</time>
      </trkpt>
      <trkpt lat="46.060093240812421" lon="9.21231902204454">
        <ele>1507</ele>
        <time>2012-05-03T10:05:22Z</time>
      </trkpt>
      <trkpt lat="46.060094414278865" lon="9.212321788072586">
        <ele>1507.97</ele>
        <time>2012-05-03T10:05:40Z</time>
      </trkpt>
      <trkpt lat="46.060093156993389" lon="9.21232933178544">
        <ele>1508.9300000000001</ele>
        <time>2012-05-03T10:05:56Z</time>
      </trkpt>
      <trkpt lat="46.060094414278865" lon="9.212309047579765">
        <ele>1509.4100000000001</ele>
        <time>2012-05-03T10:06:13Z</time>
      </trkpt>
      <trkpt lat="46.060100197792053" lon="9.212309382855892">
        <ele>1509.4100000000001</ele>
        <time>2012-05-03T10:06:32Z</time>
      </trkpt>
      <trkpt lat="46.060092067345977" lon="9.212312651798129">
        <ele>1509.4100000000001</ele>
        <time>2012-05-03T10:06:53Z</time>
      </trkpt>
      <trkpt lat="46.060088630765676" lon="9.212321871891618">
        <ele>1509.4100000000001</ele>
        <time>2012-05-03T10:07:14Z</time>
      </trkpt>
      <trkpt lat="46.060090307146311" lon="9.212322290986776">
        <ele>1508.9300000000001</ele>
        <time>2012-05-03T10:07:34Z</time>
      </trkpt>
      <trkpt lat="46.060089971870184" lon="9.212320195510984">
        <ele>1509.4100000000001</ele>
        <time>2012-05-03T10:07:55Z</time>
      </trkpt>
      <trkpt lat="46.060090390965343" lon="9.212319357320666">
        <ele>1510.3699999999999</ele>
        <time>2012-05-03T10:08:08Z</time>
      </trkpt>
      <trkpt lat="46.060091815888882" lon="9.212317429482937">
        <ele>1511.3299999999999</ele>
        <time>2012-05-03T10:08:24Z</time>
      </trkpt>
      <trkpt lat="46.060099778696895" lon="9.212309382855892">
        <ele>1512.29</ele>
        <time>2012-05-03T10:08:44Z</time>
      </trkpt>
      <trkpt lat="46.060102712363005" lon="9.212305527180433">
        <ele>1512.77</ele>
        <time>2012-05-03T10:09:02Z</time>
      </trkpt>
      <trkpt lat="46.060103382915258" lon="9.212302258238196">
        <ele>1513.25</ele>
        <time>2012-05-03T10:09:19Z</time>
      </trkpt>
      <trkpt lat="46.060107406228781" lon="9.212300917133689">
        <ele>1514.21</ele>
        <time>2012-05-03T10:09:35Z</time>
      </trkpt>
      <trkpt lat="46.060107992962003" lon="9.212311310693622">
        <ele>1515.1800000000001</ele>
        <time>2012-05-03T10:09:53Z</time>
      </trkpt>
      <trkpt lat="46.060113608837128" lon="9.21231466345489">
        <ele>1515.6600000000001</ele>
        <time>2012-05-03T10:10:08Z</time>
      </trkpt>
      <trkpt lat="46.060124337673187" lon="9.212308460846543">
        <ele>1516.6199999999999</ele>
        <time>2012-05-03T10:10:28Z</time>
      </trkpt>
      <trkpt lat="46.060126349329948" lon="9.212300246581435">
        <ele>1517.0999999999999</ele>
        <time>2012-05-03T10:10:42Z</time>
      </trkpt>
      <trkpt lat="46.060132551938295" lon="9.21230049803853">
        <ele>1517.5799999999999</ele>
        <time>2012-05-03T10:10:58Z</time>
      </trkpt>
      <trkpt lat="46.060139006003737" lon="9.212288428097963">
        <ele>1518.54</ele>
        <time>2012-05-03T10:11:11Z</time>
      </trkpt>
      <trkpt lat="46.060137413442135" lon="9.212288847193122">
        <ele>1519.02</ele>
        <time>2012-05-03T10:11:30Z</time>
      </trkpt>
      <trkpt lat="46.060140682384372" lon="9.212287422269583">
        <ele>1519.98</ele>
        <time>2012-05-03T10:11:47Z</time>
      </trkpt>
      <trkpt lat="46.060141436755657" lon="9.212289601564407">
        <ele>1519.98</ele>
        <time>2012-05-03T10:12:04Z</time>
      </trkpt>
      <trkpt lat="46.060143867507577" lon="9.212291026487947">
        <ele>1520.9400000000001</ele>
        <time>2012-05-03T10:12:21Z</time>
      </trkpt>
      <trkpt lat="46.060145627707243" lon="9.212292870506644">
        <ele>1521.9000000000001</ele>
        <time>2012-05-03T10:12:39Z</time>
      </trkpt>
      <trkpt lat="46.060152417048812" lon="9.212289014831185">
        <ele>1522.8699999999999</ele>
        <time>2012-05-03T10:12:57Z</time>
      </trkpt>
      <trkpt lat="46.06016306206584" lon="9.212284320965409">
        <ele>1524.79</ele>
        <time>2012-05-03T10:13:11Z</time>
      </trkpt>
      <trkpt lat="46.060169851407409" lon="9.212285913527012">
        <ele>1525.75</ele>
        <time>2012-05-03T10:13:24Z</time>
      </trkpt>
      <trkpt lat="46.060179239138961" lon="9.212289266288281">
        <ele>1526.71</ele>
        <time>2012-05-03T10:13:36Z</time>
      </trkpt>
      <trkpt lat="46.060180747881532" lon="9.212301168590784">
        <ele>1526.71</ele>
        <time>2012-05-03T10:13:52Z</time>
      </trkpt>
      <trkpt lat="46.060182759538293" lon="9.212306700646877">
        <ele>1527.6700000000001</ele>
        <time>2012-05-03T10:14:09Z</time>
      </trkpt>
      <trkpt lat="46.060193991288543" lon="9.212302593514323">
        <ele>1528.1500000000001</ele>
        <time>2012-05-03T10:14:23Z</time>
      </trkpt>
      <trkpt lat="46.060206228867173" lon="9.212300414219499">
        <ele>1530.0799999999999</ele>
        <time>2012-05-03T10:14:39Z</time>
      </trkpt>
      <trkpt lat="46.060208240523934" lon="9.212289014831185">
        <ele>1530.0799999999999</ele>
        <time>2012-05-03T10:14:52Z</time>
      </trkpt>
      <trkpt lat="46.060208324342966" lon="9.212292199954391">
        <ele>1530.0799999999999</ele>
        <time>2012-05-03T10:15:08Z</time>
      </trkpt>
      <trkpt lat="46.060215448960662" lon="9.212297480553389">
        <ele>1530.0799999999999</ele>
        <time>2012-05-03T10:15:30Z</time>
      </trkpt>
      <trkpt lat="46.060216790065169" lon="9.212293792515993">
        <ele>1528.1500000000001</ele>
        <time>2012-05-03T10:15:43Z</time>
      </trkpt>
      <trkpt lat="46.060219053179026" lon="9.212284153327346">
        <ele>1528.1500000000001</ele>
        <time>2012-05-03T10:15:59Z</time>
      </trkpt>
      <trkpt lat="46.060225004330277" lon="9.212271999567747">
        <ele>1527.6700000000001</ele>
        <time>2012-05-03T10:16:14Z</time>
      </trkpt>
      <trkpt lat="46.060235733166337" lon="9.212261019274592">
        <ele>1528.1500000000001</ele>
        <time>2012-05-03T10:16:27Z</time>
      </trkpt>
      <trkpt lat="46.060236319899559" lon="9.212263198569417">
        <ele>1527.1900000000001</ele>
        <time>2012-05-03T10:16:42Z</time>
      </trkpt>
      <trkpt lat="46.060230284929276" lon="9.212261103093624">
        <ele>1527.1900000000001</ele>
        <time>2012-05-03T10:16:57Z</time>
      </trkpt>
      <trkpt lat="46.060237074270844" lon="9.212258420884609">
        <ele>1527.1900000000001</ele>
        <time>2012-05-03T10:17:12Z</time>
      </trkpt>
      <trkpt lat="46.060240175575018" lon="9.212262276560068">
        <ele>1527.1900000000001</ele>
        <time>2012-05-03T10:17:27Z</time>
      </trkpt>
      <trkpt lat="46.060240175575018" lon="9.21227996237576">
        <ele>1527.6700000000001</ele>
        <time>2012-05-03T10:17:43Z</time>
      </trkpt>
      <trkpt lat="46.060239337384701" lon="9.212287925183773">
        <ele>1527.6700000000001</ele>
        <time>2012-05-03T10:17:59Z</time>
      </trkpt>
      <trkpt lat="46.060249479487538" lon="9.212274262681603">
        <ele>1527.6700000000001</ele>
        <time>2012-05-03T10:18:15Z</time>
      </trkpt>
      <trkpt lat="46.060247467830777" lon="9.212281722575426">
        <ele>1527.6700000000001</ele>
        <time>2012-05-03T10:18:29Z</time>
      </trkpt>
      <trkpt lat="46.060249730944633" lon="9.212274681776762">
        <ele>1527.6700000000001</ele>
        <time>2012-05-03T10:18:49Z</time>
      </trkpt>
      <trkpt lat="46.060243612155318" lon="9.212269065901637">
        <ele>1527.1900000000001</ele>
        <time>2012-05-03T10:19:18Z</time>
      </trkpt>
      <trkpt lat="46.060257023200393" lon="9.212275017052889">
        <ele>1529.1099999999999</ele>
        <time>2012-05-03T10:19:32Z</time>
      </trkpt>
      <trkpt lat="46.060260459780693" lon="9.212269820272923">
        <ele>1528.6300000000001</ele>
        <time>2012-05-03T10:19:48Z</time>
      </trkpt>
      <trkpt lat="46.060265824198723" lon="9.212251296266913">
        <ele>1528.6300000000001</ele>
        <time>2012-05-03T10:20:07Z</time>
      </trkpt>
      <trkpt lat="46.060267835855484" lon="9.212243836373091">
        <ele>1529.1099999999999</ele>
        <time>2012-05-03T10:20:25Z</time>
      </trkpt>
      <trkpt lat="46.060267584398389" lon="9.212241908535361">
        <ele>1528.6300000000001</ele>
        <time>2012-05-03T10:20:44Z</time>
      </trkpt>
      <trkpt lat="46.060269344598055" lon="9.21224182471633">
        <ele>1528.1500000000001</ele>
        <time>2012-05-03T10:21:04Z</time>
      </trkpt>
      <trkpt lat="46.060265908017755" lon="9.212245512753725">
        <ele>1528.6300000000001</ele>
        <time>2012-05-03T10:21:26Z</time>
      </trkpt>
      <trkpt lat="46.060263980180025" lon="9.212252469733357">
        <ele>1528.6300000000001</ele>
        <time>2012-05-03T10:21:39Z</time>
      </trkpt>
      <trkpt lat="46.060257442295551" lon="9.212258253246546">
        <ele>1528.6300000000001</ele>
        <time>2012-05-03T10:21:56Z</time>
      </trkpt>
      <trkpt lat="46.060259789228439" lon="9.21225163154304">
        <ele>1528.6300000000001</ele>
        <time>2012-05-03T10:22:12Z</time>
      </trkpt>
      <trkpt lat="46.060262052342296" lon="9.212232436984778">
        <ele>1529.5899999999999</ele>
        <time>2012-05-03T10:22:30Z</time>
      </trkpt>
      <trkpt lat="46.060257609933615" lon="9.212215756997466">
        <ele>1531.04</ele>
        <time>2012-05-03T10:22:47Z</time>
      </trkpt>
      <trkpt lat="46.060260208323598" lon="9.212224222719669">
        <ele>1530.5599999999999</ele>
        <time>2012-05-03T10:22:57Z</time>
      </trkpt>
      <trkpt lat="46.060253838077188" lon="9.212231934070587">
        <ele>1531.52</ele>
        <time>2012-05-03T10:23:13Z</time>
      </trkpt>
      <trkpt lat="46.060248808935285" lon="9.21222472563386">
        <ele>1531.04</ele>
        <time>2012-05-03T10:23:27Z</time>
      </trkpt>
      <trkpt lat="46.060262052342296" lon="9.212214415892959">
        <ele>1532.48</ele>
        <time>2012-05-03T10:23:41Z</time>
      </trkpt>
      <trkpt lat="46.060266830027103" lon="9.212217852473259">
        <ele>1533.4400000000001</ele>
        <time>2012-05-03T10:24:01Z</time>
      </trkpt>
      <trkpt lat="46.060269763693213" lon="9.212212823331356">
        <ele>1532.96</ele>
        <time>2012-05-03T10:24:15Z</time>
      </trkpt>
      <trkpt lat="46.060269260779023" lon="9.212210057303309">
        <ele>1533.4400000000001</ele>
        <time>2012-05-03T10:24:33Z</time>
      </trkpt>
      <trkpt lat="46.060285605490208" lon="9.212208967655897">
        <ele>1534.8800000000001</ele>
        <time>2012-05-03T10:24:47Z</time>
      </trkpt>
      <trkpt lat="46.060282252728939" lon="9.212209386751056">
        <ele>1535.8399999999999</ele>
        <time>2012-05-03T10:25:04Z</time>
      </trkpt>
      <trkpt lat="46.060281665995717" lon="9.212210476398468">
        <ele>1535.3599999999999</ele>
        <time>2012-05-03T10:25:23Z</time>
      </trkpt>
      <trkpt lat="46.060283510014415" lon="9.212211901322007">
        <ele>1535.3599999999999</ele>
        <time>2012-05-03T10:25:46Z</time>
      </trkpt>
      <trkpt lat="46.060287868604064" lon="9.212210979312658">
        <ele>1535.8399999999999</ele>
        <time>2012-05-03T10:26:11Z</time>
      </trkpt>
      <trkpt lat="46.060292981564999" lon="9.212213158607483">
        <ele>1537.29</ele>
        <time>2012-05-03T10:26:25Z</time>
      </trkpt>
      <trkpt lat="46.060291975736618" lon="9.212211398407817">
        <ele>1536.3199999999999</ele>
        <time>2012-05-03T10:26:44Z</time>
      </trkpt>
      <trkpt lat="46.060294238850474" lon="9.2122105602175">
        <ele>1537.29</ele>
        <time>2012-05-03T10:27:00Z</time>
      </trkpt>
      <trkpt lat="46.060299938544631" lon="9.21221936121583">
        <ele>1538.73</ele>
        <time>2012-05-03T10:27:15Z</time>
      </trkpt>
      <trkpt lat="46.060293987393379" lon="9.21222279779613">
        <ele>1539.21</ele>
        <time>2012-05-03T10:27:32Z</time>
      </trkpt>
      <trkpt lat="46.060290969908237" lon="9.212225144729018">
        <ele>1539.21</ele>
        <time>2012-05-03T10:27:55Z</time>
      </trkpt>
      <trkpt lat="46.060293903574347" lon="9.212226988747716">
        <ele>1541.1300000000001</ele>
        <time>2012-05-03T10:28:13Z</time>
      </trkpt>
      <trkpt lat="46.060297256335616" lon="9.21222522854805">
        <ele>1541.1300000000001</ele>
        <time>2012-05-03T10:28:30Z</time>
      </trkpt>
      <trkpt lat="46.060303207486868" lon="9.212240315973759">
        <ele>1541.6099999999999</ele>
        <time>2012-05-03T10:28:47Z</time>
      </trkpt>
      <trkpt lat="46.060308907181025" lon="9.212236795574427">
        <ele>1542.5699999999999</ele>
        <time>2012-05-03T10:28:58Z</time>
      </trkpt>
      <trkpt lat="46.060311254113913" lon="9.212233442813158">
        <ele>1538.73</ele>
        <time>2012-05-03T10:29:06Z</time>
      </trkpt>
      <trkpt lat="46.060311505571008" lon="9.212233778089285">
        <ele>1538.73</ele>
        <time>2012-05-03T10:29:07Z</time>
      </trkpt>
      <trkpt lat="46.060315612703562" lon="9.212233191356063">
        <ele>1542.5699999999999</ele>
        <time>2012-05-03T10:29:11Z</time>
      </trkpt>
      <trkpt lat="46.060325168073177" lon="9.212233945727348">
        <ele>1544.01</ele>
        <time>2012-05-03T10:29:27Z</time>
      </trkpt>
      <trkpt lat="46.060327850282192" lon="9.212238807231188">
        <ele>1544.5</ele>
        <time>2012-05-03T10:29:40Z</time>
      </trkpt>
      <trkpt lat="46.060328604653478" lon="9.212244171649218">
        <ele>1544.01</ele>
        <time>2012-05-03T10:29:56Z</time>
      </trkpt>
      <trkpt lat="46.060353331267834" lon="9.21224526129663">
        <ele>1544.5</ele>
        <time>2012-05-03T10:30:09Z</time>
      </trkpt>
      <trkpt lat="46.060360372066498" lon="9.212256241589785">
        <ele>1544.5</ele>
        <time>2012-05-03T10:30:21Z</time>
      </trkpt>
      <trkpt lat="46.060348888859153" lon="9.21225112862885">
        <ele>1544.5</ele>
        <time>2012-05-03T10:30:37Z</time>
      </trkpt>
      <trkpt lat="46.060334639623761" lon="9.21225599013269">
        <ele>1543.53</ele>
        <time>2012-05-03T10:30:52Z</time>
      </trkpt>
      <trkpt lat="46.060336316004395" lon="9.212262025102973">
        <ele>1543.53</ele>
        <time>2012-05-03T10:31:16Z</time>
      </trkpt>
      <trkpt lat="46.060330532491207" lon="9.212259678170085">
        <ele>1543.53</ele>
        <time>2012-05-03T10:31:33Z</time>
      </trkpt>
      <trkpt lat="46.060333047062159" lon="9.212252721190453">
        <ele>1544.01</ele>
        <time>2012-05-03T10:31:53Z</time>
      </trkpt>
      <trkpt lat="46.060363221913576" lon="9.212275184690952">
        <ele>1544.5</ele>
        <time>2012-05-03T10:32:05Z</time>
      </trkpt>
      <trkpt lat="46.060374202206731" lon="9.212270742282271">
        <ele>1545.9400000000001</ele>
        <time>2012-05-03T10:32:23Z</time>
      </trkpt>
      <trkpt lat="46.060383338481188" lon="9.21225699596107">
        <ele>1546.9000000000001</ele>
        <time>2012-05-03T10:32:42Z</time>
      </trkpt>
      <trkpt lat="46.060392139479518" lon="9.212234700098634">
        <ele>1548.3399999999999</ele>
        <time>2012-05-03T10:32:56Z</time>
      </trkpt>
      <trkpt lat="46.060388954356313" lon="9.212236795574427">
        <ele>1547.8599999999999</ele>
        <time>2012-05-03T10:33:20Z</time>
      </trkpt>
      <trkpt lat="46.060401862487197" lon="9.212235705927014">
        <ele>1547.8599999999999</ele>
        <time>2012-05-03T10:33:42Z</time>
      </trkpt>
      <trkpt lat="46.060416279360652" lon="9.212215337902308">
        <ele>1548.3399999999999</ele>
        <time>2012-05-03T10:33:58Z</time>
      </trkpt>
      <trkpt lat="46.060417620465159" lon="9.212210476398468">
        <ele>1548.8199999999999</ele>
        <time>2012-05-03T10:34:18Z</time>
      </trkpt>
      <trkpt lat="46.060420218855143" lon="9.212208548560739">
        <ele>1549.3</ele>
        <time>2012-05-03T10:34:33Z</time>
      </trkpt>
      <trkpt lat="46.060423823073506" lon="9.212196981534362">
        <ele>1550.74</ele>
        <time>2012-05-03T10:34:47Z</time>
      </trkpt>
      <trkpt lat="46.06042985804379" lon="9.212193628773093">
        <ele>1551.22</ele>
        <time>2012-05-03T10:35:01Z</time>
      </trkpt>
      <trkpt lat="46.060426840558648" lon="9.212203603237867">
        <ele>1551.22</ele>
        <time>2012-05-03T10:35:19Z</time>
      </trkpt>
      <trkpt lat="46.060433881357312" lon="9.212204441428185">
        <ele>1552.1900000000001</ele>
        <time>2012-05-03T10:35:33Z</time>
      </trkpt>
      <trkpt lat="46.060430696234107" lon="9.212208297103643">
        <ele>1553.1500000000001</ele>
        <time>2012-05-03T10:35:50Z</time>
      </trkpt>
      <trkpt lat="46.06041812337935" lon="9.212217768654227">
        <ele>1554.1099999999999</ele>
        <time>2012-05-03T10:36:02Z</time>
      </trkpt>
      <trkpt lat="46.060417871922255" lon="9.21221349388361">
        <ele>1554.1099999999999</ele>
        <time>2012-05-03T10:36:19Z</time>
      </trkpt>
      <trkpt lat="46.060419715940952" lon="9.212210057303309">
        <ele>1554.1099999999999</ele>
        <time>2012-05-03T10:36:40Z</time>
      </trkpt>
      <trkpt lat="46.06041912920773" lon="9.21221156604588">
        <ele>1553.6300000000001</ele>
        <time>2012-05-03T10:37:03Z</time>
      </trkpt>
      <trkpt lat="46.060422146692872" lon="9.212218187749386">
        <ele>1553.1500000000001</ele>
        <time>2012-05-03T10:37:19Z</time>
      </trkpt>
      <trkpt lat="46.060412088409066" lon="9.212221289053559">
        <ele>1554.5899999999999</ele>
        <time>2012-05-03T10:37:43Z</time>
      </trkpt>
      <trkpt lat="46.060407059267163" lon="9.212233778089285">
        <ele>1554.5899999999999</ele>
        <time>2012-05-03T10:38:12Z</time>
      </trkpt>
      <trkpt lat="46.060413178056479" lon="9.212220953777432">
        <ele>1555.0699999999999</ele>
        <time>2012-05-03T10:38:39Z</time>
      </trkpt>
      <trkpt lat="46.060406304895878" lon="9.212236627936363">
        <ele>1555.0699999999999</ele>
        <time>2012-05-03T10:38:55Z</time>
      </trkpt>
      <trkpt lat="46.060414016246796" lon="9.212228413671255">
        <ele>1555.55</ele>
        <time>2012-05-03T10:39:10Z</time>
      </trkpt>
      <trkpt lat="46.060413429513574" lon="9.212220031768084">
        <ele>1556.03</ele>
        <time>2012-05-03T10:39:24Z</time>
      </trkpt>
      <trkpt lat="46.060418710112572" lon="9.212215254083276">
        <ele>1556.51</ele>
        <time>2012-05-03T10:39:37Z</time>
      </trkpt>
      <trkpt lat="46.060410244390368" lon="9.212225899100304">
        <ele>1556.99</ele>
        <time>2012-05-03T10:39:53Z</time>
      </trkpt>
      <trkpt lat="46.060415776446462" lon="9.212219025939703">
        <ele>1558.9200000000001</ele>
        <time>2012-05-03T10:40:07Z</time>
      </trkpt>
      <trkpt lat="46.060411753132939" lon="9.2122105602175">
        <ele>1558.9200000000001</ele>
        <time>2012-05-03T10:40:18Z</time>
      </trkpt>
      <trkpt lat="46.060414602980018" lon="9.212207878008485">
        <ele>1559.4000000000001</ele>
        <time>2012-05-03T10:40:30Z</time>
      </trkpt>
      <trkpt lat="46.060401778668165" lon="9.212196981534362">
        <ele>1559.4000000000001</ele>
        <time>2012-05-03T10:40:50Z</time>
      </trkpt>
      <trkpt lat="46.060388367623091" lon="9.212174937129021">
        <ele>1562.28</ele>
        <time>2012-05-03T10:41:04Z</time>
      </trkpt>
      <trkpt lat="46.060344446450472" lon="9.212148701772094">
        <ele>1562.28</ele>
        <time>2012-05-03T10:41:24Z</time>
      </trkpt>
      <trkpt lat="46.060307817533612" lon="9.212125483900309">
        <ele>1563.24</ele>
        <time>2012-05-03T10:41:40Z</time>
      </trkpt>
      <trkpt lat="46.060302704572678" lon="9.212105786427856">
        <ele>1564.2</ele>
        <time>2012-05-03T10:41:56Z</time>
      </trkpt>
      <trkpt lat="46.06032432988286" lon="9.212080137804151">
        <ele>1563.72</ele>
        <time>2012-05-03T10:42:14Z</time>
      </trkpt>
      <trkpt lat="46.060319049283862" lon="9.212098075076938">
        <ele>1563.72</ele>
        <time>2012-05-03T10:42:38Z</time>
      </trkpt>
      <trkpt lat="46.06030966155231" lon="9.212088938802481">
        <ele>1565.1600000000001</ele>
        <time>2012-05-03T10:42:52Z</time>
      </trkpt>
      <trkpt lat="46.060309326276183" lon="9.212087597697973">
        <ele>1565.1600000000001</ele>
        <time>2012-05-03T10:43:16Z</time>
      </trkpt>
      <trkpt lat="46.060330867767334" lon="9.212096147239208">
        <ele>1566.1199999999999</ele>
        <time>2012-05-03T10:43:37Z</time>
      </trkpt>
      <trkpt lat="46.060365568846464" lon="9.212100254371762">
        <ele>1567.5699999999999</ele>
        <time>2012-05-03T10:43:51Z</time>
      </trkpt>
      <trkpt lat="46.060379566624761" lon="9.212099332362413">
        <ele>1567.0899999999999</ele>
        <time>2012-05-03T10:44:11Z</time>
      </trkpt>
      <trkpt lat="46.060383757576346" lon="9.212106037884951">
        <ele>1567.5699999999999</ele>
        <time>2012-05-03T10:44:30Z</time>
      </trkpt>
      <trkpt lat="46.060386607423425" lon="9.212105199694634">
        <ele>1568.05</ele>
        <time>2012-05-03T10:44:45Z</time>
      </trkpt>
      <trkpt lat="46.060388870537281" lon="9.212108133360744">
        <ele>1567.5699999999999</ele>
        <time>2012-05-03T10:45:03Z</time>
      </trkpt>
      <trkpt lat="46.060397084802389" lon="9.212100254371762">
        <ele>1568.53</ele>
        <time>2012-05-03T10:45:18Z</time>
      </trkpt>
      <trkpt lat="46.060397755354643" lon="9.212101427838206">
        <ele>1569.01</ele>
        <time>2012-05-03T10:45:37Z</time>
      </trkpt>
      <trkpt lat="46.060400437563658" lon="9.212092375382781">
        <ele>1570.45</ele>
        <time>2012-05-03T10:45:59Z</time>
      </trkpt>
      <trkpt lat="46.060399264097214" lon="9.212092375382781">
        <ele>1571.4100000000001</ele>
        <time>2012-05-03T10:46:17Z</time>
      </trkpt>
      <trkpt lat="46.060392893850803" lon="9.212089525535703">
        <ele>1571.4100000000001</ele>
        <time>2012-05-03T10:46:35Z</time>
      </trkpt>
      <trkpt lat="46.060390882194042" lon="9.21207033097744">
        <ele>1571.4100000000001</ele>
        <time>2012-05-03T10:46:55Z</time>
      </trkpt>
      <trkpt lat="46.060408065095544" lon="9.212085753679276">
        <ele>1572.8499999999999</ele>
        <time>2012-05-03T10:47:11Z</time>
      </trkpt>
      <trkpt lat="46.06041083112359" lon="9.212096314877272">
        <ele>1573.8199999999999</ele>
        <time>2012-05-03T10:47:26Z</time>
      </trkpt>
      <trkpt lat="46.060413010418415" lon="9.212092878296971">
        <ele>1573.8199999999999</ele>
        <time>2012-05-03T10:47:52Z</time>
      </trkpt>
      <trkpt lat="46.060403119772673" lon="9.21208156272769">
        <ele>1574.78</ele>
        <time>2012-05-03T10:48:09Z</time>
      </trkpt>
      <trkpt lat="46.06040789745748" lon="9.212102433666587">
        <ele>1576.22</ele>
        <time>2012-05-03T10:48:25Z</time>
      </trkpt>
      <trkpt lat="46.060413597151637" lon="9.212108720093966">
        <ele>1577.1800000000001</ele>
        <time>2012-05-03T10:48:42Z</time>
      </trkpt>
      <trkpt lat="46.060418458655477" lon="9.2121103964746">
        <ele>1577.6600000000001</ele>
        <time>2012-05-03T10:48:57Z</time>
      </trkpt>
      <trkpt lat="46.060427343472838" lon="9.212130177766085">
        <ele>1579.0999999999999</ele>
        <time>2012-05-03T10:49:18Z</time>
      </trkpt>
      <trkpt lat="46.060433881357312" lon="9.21213436871767">
        <ele>1580.54</ele>
        <time>2012-05-03T10:49:32Z</time>
      </trkpt>
      <trkpt lat="46.060439329594374" lon="9.212140990421176">
        <ele>1581.51</ele>
        <time>2012-05-03T10:49:54Z</time>
      </trkpt>
      <trkpt lat="46.060449806973338" lon="9.21216169372201">
        <ele>1583.9100000000001</ele>
        <time>2012-05-03T10:50:07Z</time>
      </trkpt>
      <trkpt lat="46.060463134199381" lon="9.212165046483278">
        <ele>1584.8699999999999</ele>
        <time>2012-05-03T10:50:20Z</time>
      </trkpt>
      <trkpt lat="46.060474952682853" lon="9.212170159444213">
        <ele>1586.3099999999999</ele>
        <time>2012-05-03T10:50:37Z</time>
      </trkpt>
      <trkpt lat="46.060486854985356" lon="9.212178122252226">
        <ele>1587.75</ele>
        <time>2012-05-03T10:50:51Z</time>
      </trkpt>
      <trkpt lat="46.060491800308228" lon="9.212186755612493">
        <ele>1588.72</ele>
        <time>2012-05-03T10:51:06Z</time>
      </trkpt>
      <trkpt lat="46.060503115877509" lon="9.212200166657567">
        <ele>1590.6400000000001</ele>
        <time>2012-05-03T10:51:18Z</time>
      </trkpt>
      <trkpt lat="46.060509150847793" lon="9.212202932685614">
        <ele>1591.1199999999999</ele>
        <time>2012-05-03T10:51:33Z</time>
      </trkpt>
      <trkpt lat="46.060514347627759" lon="9.212212068960071">
        <ele>1591.5999999999999</ele>
        <time>2012-05-03T10:51:49Z</time>
      </trkpt>
      <trkpt lat="46.060509402304888" lon="9.212218690663576">
        <ele>1590.6400000000001</ele>
        <time>2012-05-03T10:52:03Z</time>
      </trkpt>
      <trkpt lat="46.06051535345614" lon="9.212222713977099">
        <ele>1590.6400000000001</ele>
        <time>2012-05-03T10:52:19Z</time>
      </trkpt>
      <trkpt lat="46.060520466417074" lon="9.212225480005145">
        <ele>1591.5999999999999</ele>
        <time>2012-05-03T10:52:36Z</time>
      </trkpt>
      <trkpt lat="46.060528010129929" lon="9.212228581309319">
        <ele>1593.52</ele>
        <time>2012-05-03T10:52:52Z</time>
      </trkpt>
      <trkpt lat="46.060539660975337" lon="9.212240735068917">
        <ele>1594</ele>
        <time>2012-05-03T10:53:08Z</time>
      </trkpt>
      <trkpt lat="46.060563800856471" lon="9.212231347337365">
        <ele>1593.52</ele>
        <time>2012-05-03T10:53:21Z</time>
      </trkpt>
      <trkpt lat="46.060564387589693" lon="9.212229335680604">
        <ele>1593.52</ele>
        <time>2012-05-03T10:53:23Z</time>
      </trkpt>
      <trkpt lat="46.060587102547288" lon="9.212201340124011">
        <ele>1592.5599999999999</ele>
        <time>2012-05-03T10:53:29Z</time>
      </trkpt>
      <trkpt lat="46.060595400631428" lon="9.21219295822084">
        <ele>1591.5999999999999</ele>
        <time>2012-05-03T10:53:40Z</time>
      </trkpt>
      <trkpt lat="46.060601603239775" lon="9.212171584367752">
        <ele>1590.1600000000001</ele>
        <time>2012-05-03T10:53:52Z</time>
      </trkpt>
      <trkpt lat="46.060609566047788" lon="9.212152725085616">
        <ele>1589.2</ele>
        <time>2012-05-03T10:54:03Z</time>
      </trkpt>
      <trkpt lat="46.060621300712228" lon="9.212138392031193">
        <ele>1589.2</ele>
        <time>2012-05-03T10:54:22Z</time>
      </trkpt>
      <trkpt lat="46.060629431158304" lon="9.212132357060909">
        <ele>1589.6800000000001</ele>
        <time>2012-05-03T10:54:35Z</time>
      </trkpt>
      <trkpt lat="46.060631023719907" lon="9.212116179987788">
        <ele>1590.6400000000001</ele>
        <time>2012-05-03T10:54:48Z</time>
      </trkpt>
      <trkpt lat="46.060627000406384" lon="9.212108720093966">
        <ele>1588.72</ele>
        <time>2012-05-03T10:54:55Z</time>
      </trkpt>
      <trkpt lat="46.060639908537269" lon="9.212089441716671">
        <ele>1590.6400000000001</ele>
        <time>2012-05-03T10:55:08Z</time>
      </trkpt>
      <trkpt lat="46.060629431158304" lon="9.212077204138041">
        <ele>1589.6800000000001</ele>
        <time>2012-05-03T10:55:24Z</time>
      </trkpt>
      <trkpt lat="46.060630604624748" lon="9.212083322927356">
        <ele>1591.1199999999999</ele>
        <time>2012-05-03T10:55:26Z</time>
      </trkpt>
      <trkpt lat="46.060638315975666" lon="9.212082149460912">
        <ele>1588.72</ele>
        <time>2012-05-03T10:55:42Z</time>
      </trkpt>
      <trkpt lat="46.060643596574664" lon="9.212064547464252">
        <ele>1587.75</ele>
        <time>2012-05-03T10:55:53Z</time>
      </trkpt>
      <trkpt lat="46.060645440593362" lon="9.212062703445554">
        <ele>1589.6800000000001</ele>
        <time>2012-05-03T10:55:56Z</time>
      </trkpt>
      <trkpt lat="46.060648877173662" lon="9.212044849991798">
        <ele>1590.1600000000001</ele>
        <time>2012-05-03T10:56:14Z</time>
      </trkpt>
      <trkpt lat="46.060656839981675" lon="9.212033534422517">
        <ele>1590.6400000000001</ele>
        <time>2012-05-03T10:56:29Z</time>
      </trkpt>
      <trkpt lat="46.060664048418403" lon="9.212041581049562">
        <ele>1589.6800000000001</ele>
        <time>2012-05-03T10:56:47Z</time>
      </trkpt>
      <trkpt lat="46.060670418664813" lon="9.212020877748728">
        <ele>1590.1600000000001</ele>
        <time>2012-05-03T10:57:03Z</time>
      </trkpt>
      <trkpt lat="46.060667233541608" lon="9.211993720382452">
        <ele>1592.0799999999999</ele>
        <time>2012-05-03T10:57:17Z</time>
      </trkpt>
      <trkpt lat="46.060671340674162" lon="9.211983243003488">
        <ele>1593.04</ele>
        <time>2012-05-03T10:57:31Z</time>
      </trkpt>
      <trkpt lat="46.060683326795697" lon="9.211933622136712">
        <ele>1594.48</ele>
        <time>2012-05-03T10:57:44Z</time>
      </trkpt>
      <trkpt lat="46.060692211613059" lon="9.211925575509667">
        <ele>1595.9300000000001</ele>
        <time>2012-05-03T10:57:54Z</time>
      </trkpt>
      <trkpt lat="46.060686931014061" lon="9.21190177090466">
        <ele>1596.8900000000001</ele>
        <time>2012-05-03T10:58:06Z</time>
      </trkpt>
      <trkpt lat="46.060694726184011" lon="9.211886515840888">
        <ele>1598.3299999999999</ele>
        <time>2012-05-03T10:58:19Z</time>
      </trkpt>
      <trkpt lat="46.060693468898535" lon="9.211890287697315">
        <ele>1598.8099999999999</ele>
        <time>2012-05-03T10:58:34Z</time>
      </trkpt>
      <trkpt lat="46.060687433928251" lon="9.211891461163759">
        <ele>1600.25</ele>
        <time>2012-05-03T10:58:48Z</time>
      </trkpt>
      <trkpt lat="46.060684667900205" lon="9.211883833631873">
        <ele>1600.73</ele>
        <time>2012-05-03T10:59:04Z</time>
      </trkpt>
      <trkpt lat="46.060685170814395" lon="9.211850641295314">
        <ele>1602.6600000000001</ele>
        <time>2012-05-03T10:59:19Z</time>
      </trkpt>
      <trkpt lat="46.060673519968987" lon="9.211834296584129">
        <ele>1604.5799999999999</ele>
        <time>2012-05-03T10:59:34Z</time>
      </trkpt>
      <trkpt lat="46.060705706477165" lon="9.211771516129375">
        <ele>1605.0599999999999</ele>
        <time>2012-05-03T10:59:48Z</time>
      </trkpt>
      <trkpt lat="46.060710232704878" lon="9.2117581050843">
        <ele>1605.0599999999999</ele>
        <time>2012-05-03T11:00:03Z</time>
      </trkpt>
      <trkpt lat="46.060714507475495" lon="9.211744945496321">
        <ele>1604.5799999999999</ele>
        <time>2012-05-03T11:00:15Z</time>
      </trkpt>
      <trkpt lat="46.060716351494193" lon="9.211735306307674">
        <ele>1604.0999999999999</ele>
        <time>2012-05-03T11:00:30Z</time>
      </trkpt>
      <trkpt lat="46.060708556324244" lon="9.211730109527707">
        <ele>1604.0999999999999</ele>
        <time>2012-05-03T11:00:51Z</time>
      </trkpt>
      <trkpt lat="46.060709981247783" lon="9.211729606613517">
        <ele>1603.1400000000001</ele>
        <time>2012-05-03T11:01:10Z</time>
      </trkpt>
      <trkpt lat="46.060714004561305" lon="9.211730193346739">
        <ele>1602.1700000000001</ele>
        <time>2012-05-03T11:01:31Z</time>
      </trkpt>
      <trkpt lat="46.060717692598701" lon="9.211731953546405">
        <ele>1601.21</ele>
        <time>2012-05-03T11:01:46Z</time>
      </trkpt>
      <trkpt lat="46.060750633478165" lon="9.211742682382464">
        <ele>1600.25</ele>
        <time>2012-05-03T11:01:57Z</time>
      </trkpt>
      <trkpt lat="46.060784244909883" lon="9.211729103699327">
        <ele>1600.73</ele>
        <time>2012-05-03T11:02:08Z</time>
      </trkpt>
      <trkpt lat="46.060808887705207" lon="9.211739497259259">
        <ele>1602.1700000000001</ele>
        <time>2012-05-03T11:02:21Z</time>
      </trkpt>
      <trkpt lat="46.060829674825072" lon="9.211770091205835">
        <ele>1603.1400000000001</ele>
        <time>2012-05-03T11:02:36Z</time>
      </trkpt>
      <trkpt lat="46.060832105576992" lon="9.211767241358757">
        <ele>1603.1400000000001</ele>
        <time>2012-05-03T11:02:58Z</time>
      </trkpt>
      <trkpt lat="46.060836045071483" lon="9.211762547492981">
        <ele>1604.0999999999999</ele>
        <time>2012-05-03T11:03:13Z</time>
      </trkpt>
      <trkpt lat="46.060836045071483" lon="9.211772438138723">
        <ele>1605.0599999999999</ele>
        <time>2012-05-03T11:03:27Z</time>
      </trkpt>
      <trkpt lat="46.060839146375656" lon="9.211757685989142">
        <ele>1605.54</ele>
        <time>2012-05-03T11:03:43Z</time>
      </trkpt>
      <trkpt lat="46.0608437564224" lon="9.211769672110677">
        <ele>1606.02</ele>
        <time>2012-05-03T11:04:00Z</time>
      </trkpt>
      <trkpt lat="46.060849875211716" lon="9.211769755929709">
        <ele>1606.02</ele>
        <time>2012-05-03T11:04:14Z</time>
      </trkpt>
      <trkpt lat="46.060853647068143" lon="9.211782328784466">
        <ele>1606.98</ele>
        <time>2012-05-03T11:04:29Z</time>
      </trkpt>
      <trkpt lat="46.060856077820063" lon="9.211796075105667">
        <ele>1607.9400000000001</ele>
        <time>2012-05-03T11:04:45Z</time>
      </trkpt>
      <trkpt lat="46.060867728665471" lon="9.211818287149072">
        <ele>1608.9000000000001</ele>
        <time>2012-05-03T11:04:59Z</time>
      </trkpt>
      <trkpt lat="46.060872338712215" lon="9.211816946044564">
        <ele>1608.9000000000001</ele>
        <time>2012-05-03T11:05:16Z</time>
      </trkpt>
      <trkpt lat="46.060879044234753" lon="9.211819209158421">
        <ele>1610.3499999999999</ele>
        <time>2012-05-03T11:05:31Z</time>
      </trkpt>
      <trkpt lat="46.060887677595019" lon="9.211824154481292">
        <ele>1611.3099999999999</ele>
        <time>2012-05-03T11:05:49Z</time>
      </trkpt>
      <trkpt lat="46.060905531048775" lon="9.211814850568771">
        <ele>1612.27</ele>
        <time>2012-05-03T11:05:54Z</time>
      </trkpt>
      <trkpt lat="46.060911985114217" lon="9.211793476715684">
        <ele>1612.27</ele>
        <time>2012-05-03T11:06:11Z</time>
      </trkpt>
      <trkpt lat="46.060924641788006" lon="9.211793141439557">
        <ele>1612.75</ele>
        <time>2012-05-03T11:06:26Z</time>
      </trkpt>
      <trkpt lat="46.060923049226403" lon="9.211791213601828">
        <ele>1615.1500000000001</ele>
        <time>2012-05-03T11:06:40Z</time>
      </trkpt>
      <trkpt lat="46.060924641788006" lon="9.211792973801494">
        <ele>1615.1500000000001</ele>
        <time>2012-05-03T11:06:58Z</time>
      </trkpt>
      <trkpt lat="46.060934951528907" lon="9.211782412603498">
        <ele>1616.1099999999999</ele>
        <time>2012-05-03T11:07:15Z</time>
      </trkpt>
      <trkpt lat="46.060947859659791" lon="9.211772102862597">
        <ele>1617.5599999999999</ele>
        <time>2012-05-03T11:07:28Z</time>
      </trkpt>
      <trkpt lat="46.060965294018388" lon="9.21177470125258">
        <ele>1617.0699999999999</ele>
        <time>2012-05-03T11:07:45Z</time>
      </trkpt>
      <trkpt lat="46.060971915721893" lon="9.211761625483632">
        <ele>1618.52</ele>
        <time>2012-05-03T11:07:52Z</time>
      </trkpt>
      <trkpt lat="46.060986164957285" lon="9.211753495037556">
        <ele>1618.04</ele>
        <time>2012-05-03T11:08:05Z</time>
      </trkpt>
      <trkpt lat="46.06098297983408" lon="9.21175223775208">
        <ele>1618.04</ele>
        <time>2012-05-03T11:08:24Z</time>
      </trkpt>
      <trkpt lat="46.060983147472143" lon="9.211747795343399">
        <ele>1618.04</ele>
        <time>2012-05-03T11:08:40Z</time>
      </trkpt>
      <trkpt lat="46.060982141643763" lon="9.211744694039226">
        <ele>1618.52</ele>
        <time>2012-05-03T11:09:04Z</time>
      </trkpt>
      <trkpt lat="46.060983147472143" lon="9.211739413440228">
        <ele>1618.52</ele>
        <time>2012-05-03T11:09:19Z</time>
      </trkpt>
      <trkpt lat="46.060987673699856" lon="9.211744358763099">
        <ele>1618.52</ele>
        <time>2012-05-03T11:09:38Z</time>
      </trkpt>
      <trkpt lat="46.060985997319221" lon="9.211743101477623">
        <ele>1618.04</ele>
        <time>2012-05-03T11:10:02Z</time>
      </trkpt>
      <trkpt lat="46.060990188270807" lon="9.211742179468274">
        <ele>1618.04</ele>
        <time>2012-05-03T11:10:22Z</time>
      </trkpt>
      <trkpt lat="46.060993038117886" lon="9.211740167811513">
        <ele>1618.52</ele>
        <time>2012-05-03T11:10:49Z</time>
      </trkpt>
      <trkpt lat="46.060994463041425" lon="9.211737317964435">
        <ele>1618.52</ele>
        <time>2012-05-03T11:11:03Z</time>
      </trkpt>
      <trkpt lat="46.060999324545264" lon="9.211726170033217">
        <ele>1619</ele>
        <time>2012-05-03T11:11:20Z</time>
      </trkpt>
      <trkpt lat="46.061004856601357" lon="9.211721559986472">
        <ele>1619.96</ele>
        <time>2012-05-03T11:11:22Z</time>
      </trkpt>
      <trkpt lat="46.060992619022727" lon="9.211742682382464">
        <ele>1618.04</ele>
        <time>2012-05-03T11:11:35Z</time>
      </trkpt>
      <trkpt lat="46.060997061431408" lon="9.211741844192147">
        <ele>1618.52</ele>
        <time>2012-05-03T11:11:48Z</time>
      </trkpt>
      <trkpt lat="46.060998653993011" lon="9.211738659068942">
        <ele>1618.52</ele>
        <time>2012-05-03T11:12:10Z</time>
      </trkpt>
      <trkpt lat="46.060994965955615" lon="9.211747124791145">
        <ele>1619</ele>
        <time>2012-05-03T11:12:30Z</time>
      </trkpt>
      <trkpt lat="46.060991445556283" lon="9.21175517141819">
        <ele>1618.04</ele>
        <time>2012-05-03T11:12:42Z</time>
      </trkpt>
      <trkpt lat="46.060990188270807" lon="9.211747627705336">
        <ele>1619</ele>
        <time>2012-05-03T11:13:07Z</time>
      </trkpt>
      <trkpt lat="46.060990523546934" lon="9.211748884990811">
        <ele>1619.96</ele>
        <time>2012-05-03T11:13:28Z</time>
      </trkpt>
      <trkpt lat="46.060991445556283" lon="9.211750561371446">
        <ele>1620.4400000000001</ele>
        <time>2012-05-03T11:13:33Z</time>
      </trkpt>
      <trkpt lat="46.060992702841759" lon="9.211745616048574">
        <ele>1620.9200000000001</ele>
        <time>2012-05-03T11:13:48Z</time>
      </trkpt>
      <trkpt lat="46.060993289574981" lon="9.211742850020528">
        <ele>1622.3599999999999</ele>
        <time>2012-05-03T11:14:08Z</time>
      </trkpt>
      <trkpt lat="46.060987003147602" lon="9.211759194731712">
        <ele>1623.3199999999999</ele>
        <time>2012-05-03T11:14:26Z</time>
      </trkpt>
      <trkpt lat="46.060987925156951" lon="9.211772186681628">
        <ele>1625.25</ele>
        <time>2012-05-03T11:14:41Z</time>
      </trkpt>
      <trkpt lat="46.061001587659121" lon="9.211773779243231">
        <ele>1625.25</ele>
        <time>2012-05-03T11:14:59Z</time>
      </trkpt>
      <trkpt lat="46.061006030067801" lon="9.211771683767438">
        <ele>1626.6900000000001</ele>
        <time>2012-05-03T11:15:12Z</time>
      </trkpt>
      <trkpt lat="46.06100837700069" lon="9.211767157539725">
        <ele>1627.6500000000001</ele>
        <time>2012-05-03T11:15:26Z</time>
      </trkpt>
      <trkpt lat="46.061014411970973" lon="9.211761876940727">
        <ele>1628.6099999999999</ele>
        <time>2012-05-03T11:15:40Z</time>
      </trkpt>
      <trkpt lat="46.061025643721223" lon="9.211770510300994">
        <ele>1628.6099999999999</ele>
        <time>2012-05-03T11:15:57Z</time>
      </trkpt>
      <trkpt lat="46.061044922098517" lon="9.211772857233882">
        <ele>1627.6500000000001</ele>
        <time>2012-05-03T11:16:10Z</time>
      </trkpt>
      <trkpt lat="46.061042323708534" lon="9.211762128397822">
        <ele>1627.1700000000001</ele>
        <time>2012-05-03T11:16:26Z</time>
      </trkpt>
      <trkpt lat="46.061036456376314" lon="9.21175760217011">
        <ele>1627.1700000000001</ele>
        <time>2012-05-03T11:16:40Z</time>
      </trkpt>
      <trkpt lat="46.06103771366179" lon="9.211745448410511">
        <ele>1627.6500000000001</ele>
        <time>2012-05-03T11:16:59Z</time>
      </trkpt>
      <trkpt lat="46.061034444719553" lon="9.211742598563433">
        <ele>1627.1700000000001</ele>
        <time>2012-05-03T11:17:14Z</time>
      </trkpt>
      <trkpt lat="46.061034947633743" lon="9.211735222488642">
        <ele>1627.1700000000001</ele>
        <time>2012-05-03T11:17:36Z</time>
      </trkpt>
      <trkpt lat="46.0610406473279" lon="9.211742011830211">
        <ele>1627.6500000000001</ele>
        <time>2012-05-03T11:17:52Z</time>
      </trkpt>
      <trkpt lat="46.061042575165629" lon="9.21174150891602">
        <ele>1627.1700000000001</ele>
        <time>2012-05-03T11:18:16Z</time>
      </trkpt>
      <trkpt lat="46.061041820794344" lon="9.211713429540396">
        <ele>1627.6500000000001</ele>
        <time>2012-05-03T11:18:37Z</time>
      </trkpt>
      <trkpt lat="46.061043497174978" lon="9.211721057072282">
        <ele>1627.6500000000001</ele>
        <time>2012-05-03T11:18:54Z</time>
      </trkpt>
      <trkpt lat="46.061051040887833" lon="9.211724577471614">
        <ele>1627.6500000000001</ele>
        <time>2012-05-03T11:19:15Z</time>
      </trkpt>
      <trkpt lat="46.061047604307532" lon="9.211724577471614">
        <ele>1627.1700000000001</ele>
        <time>2012-05-03T11:19:32Z</time>
      </trkpt>
      <trkpt lat="46.061045760288835" lon="9.211722817271948">
        <ele>1627.6500000000001</ele>
        <time>2012-05-03T11:19:54Z</time>
      </trkpt>
      <trkpt lat="46.061045425012708" lon="9.21171854250133">
        <ele>1628.1300000000001</ele>
        <time>2012-05-03T11:20:14Z</time>
      </trkpt>
      <trkpt lat="46.06104358099401" lon="9.211710831150413">
        <ele>1628.1300000000001</ele>
        <time>2012-05-03T11:20:32Z</time>
      </trkpt>
      <trkpt lat="46.061048191040754" lon="9.211713764816523">
        <ele>1629.5699999999999</ele>
        <time>2012-05-03T11:20:46Z</time>
      </trkpt>
      <trkpt lat="46.061046263203025" lon="9.211700605228543">
        <ele>1631.01</ele>
        <time>2012-05-03T11:21:02Z</time>
      </trkpt>
      <trkpt lat="46.06104944832623" lon="9.211691049858928">
        <ele>1631.49</ele>
        <time>2012-05-03T11:21:19Z</time>
      </trkpt>
      <trkpt lat="46.061050202697515" lon="9.211685433983803">
        <ele>1631.49</ele>
        <time>2012-05-03T11:21:37Z</time>
      </trkpt>
      <trkpt lat="46.061039725318551" lon="9.211668921634555">
        <ele>1631.01</ele>
        <time>2012-05-03T11:22:01Z</time>
      </trkpt>
      <trkpt lat="46.061046933755279" lon="9.211671855300665">
        <ele>1632.46</ele>
        <time>2012-05-03T11:22:14Z</time>
      </trkpt>
      <trkpt lat="46.061033606529236" lon="9.21164327301085">
        <ele>1631.98</ele>
        <time>2012-05-03T11:22:32Z</time>
      </trkpt>
      <trkpt lat="46.061028745025396" lon="9.211641848087311">
        <ele>1632.46</ele>
        <time>2012-05-03T11:22:53Z</time>
      </trkpt>
      <trkpt lat="46.061024554073811" lon="9.211633466184139">
        <ele>1632.9400000000001</ele>
        <time>2012-05-03T11:23:09Z</time>
      </trkpt>
      <trkpt lat="46.061021788045764" lon="9.211633717641234">
        <ele>1632.9400000000001</ele>
        <time>2012-05-03T11:23:28Z</time>
      </trkpt>
      <trkpt lat="46.061024218797684" lon="9.211621647700667">
        <ele>1632.9400000000001</ele>
        <time>2012-05-03T11:23:55Z</time>
      </trkpt>
      <trkpt lat="46.061023883521557" lon="9.211621312424541">
        <ele>1632.9400000000001</ele>
        <time>2012-05-03T11:24:15Z</time>
      </trkpt>
      <trkpt lat="46.061024805530906" lon="9.211619636043906">
        <ele>1634.3800000000001</ele>
        <time>2012-05-03T11:24:42Z</time>
      </trkpt>
      <trkpt lat="46.061028493568301" lon="9.211616953834891">
        <ele>1635.3399999999999</ele>
        <time>2012-05-03T11:24:58Z</time>
      </trkpt>
      <trkpt lat="46.061028325930238" lon="9.211621982976794">
        <ele>1635.8199999999999</ele>
        <time>2012-05-03T11:25:17Z</time>
      </trkpt>
      <trkpt lat="46.061036456376314" lon="9.211630867794156">
        <ele>1635.3399999999999</ele>
        <time>2012-05-03T11:25:47Z</time>
      </trkpt>
      <trkpt lat="46.0610372107476" lon="9.211629023775458">
        <ele>1635.8199999999999</ele>
        <time>2012-05-03T11:26:09Z</time>
      </trkpt>
      <trkpt lat="46.061035618185997" lon="9.211629442870617">
        <ele>1636.3</ele>
        <time>2012-05-03T11:26:32Z</time>
      </trkpt>
      <trkpt lat="46.061036875471473" lon="9.211629526689649">
        <ele>1636.3</ele>
        <time>2012-05-03T11:26:55Z</time>
      </trkpt>
      <trkpt lat="46.061035702005029" lon="9.211630700156093">
        <ele>1636.78</ele>
        <time>2012-05-03T11:27:18Z</time>
      </trkpt>
      <trkpt lat="46.061035869643092" lon="9.2116320412606">
        <ele>1637.26</ele>
        <time>2012-05-03T11:27:34Z</time>
      </trkpt>
      <trkpt lat="46.061033857986331" lon="9.211630281060934">
        <ele>1637.74</ele>
        <time>2012-05-03T11:27:50Z</time>
      </trkpt>
      <trkpt lat="46.061034193262458" lon="9.211632879450917">
        <ele>1636.3</ele>
        <time>2012-05-03T11:28:05Z</time>
      </trkpt>
      <trkpt lat="46.061032768338919" lon="9.211630867794156">
        <ele>1636.78</ele>
        <time>2012-05-03T11:28:20Z</time>
      </trkpt>
      <trkpt lat="46.061020949855447" lon="9.211602285504341">
        <ele>1635.8199999999999</ele>
        <time>2012-05-03T11:28:35Z</time>
      </trkpt>
      <trkpt lat="46.061015333980322" lon="9.211582420393825">
        <ele>1635.8199999999999</ele>
        <time>2012-05-03T11:28:51Z</time>
      </trkpt>
      <trkpt lat="46.061009299010038" lon="9.211580911651254">
        <ele>1635.3399999999999</ele>
        <time>2012-05-03T11:29:07Z</time>
      </trkpt>
      <trkpt lat="46.061009215191007" lon="9.211582923308015">
        <ele>1638.22</ele>
        <time>2012-05-03T11:29:17Z</time>
      </trkpt>
      <trkpt lat="46.060932017862797" lon="9.211593735963106">
        <ele>1634.8599999999999</ele>
        <time>2012-05-03T11:29:35Z</time>
      </trkpt>
      <trkpt lat="46.06099521741271" lon="9.211584180593491">
        <ele>1635.3399999999999</ele>
        <time>2012-05-03T11:29:45Z</time>
      </trkpt>
      <trkpt lat="46.06099764816463" lon="9.21157244592905">
        <ele>1635.3399999999999</ele>
        <time>2012-05-03T11:29:49Z</time>
      </trkpt>
      <trkpt lat="46.060996809974313" lon="9.211582504212856">
        <ele>1636.78</ele>
        <time>2012-05-03T11:30:04Z</time>
      </trkpt>
      <trkpt lat="46.060999659821391" lon="9.211593819782138">
        <ele>1636.3</ele>
        <time>2012-05-03T11:30:16Z</time>
      </trkpt>
      <trkpt lat="46.060993205755949" lon="9.21158954501152">
        <ele>1638.22</ele>
        <time>2012-05-03T11:30:32Z</time>
      </trkpt>
      <trkpt lat="46.061002677306533" lon="9.211598010733724">
        <ele>1638.7</ele>
        <time>2012-05-03T11:30:47Z</time>
      </trkpt>
      <trkpt lat="46.06100988574326" lon="9.211614606902003">
        <ele>1638.7</ele>
        <time>2012-05-03T11:31:04Z</time>
      </trkpt>
      <trkpt lat="46.061010723933578" lon="9.211616450920701">
        <ele>1639.1900000000001</ele>
        <time>2012-05-03T11:31:28Z</time>
      </trkpt>
      <trkpt lat="46.061009969562292" lon="9.21161544509232">
        <ele>1639.6700000000001</ele>
        <time>2012-05-03T11:31:47Z</time>
      </trkpt>
      <trkpt lat="46.061012903228402" lon="9.211616786196828">
        <ele>1639.1900000000001</ele>
        <time>2012-05-03T11:32:05Z</time>
      </trkpt>
      <trkpt lat="46.061022458598018" lon="9.211617708206177">
        <ele>1638.7</ele>
        <time>2012-05-03T11:32:24Z</time>
      </trkpt>
      <trkpt lat="46.061027571558952" lon="9.211626509204507">
        <ele>1639.6700000000001</ele>
        <time>2012-05-03T11:32:48Z</time>
      </trkpt>
      <trkpt lat="46.061025643721223" lon="9.211618714034557">
        <ele>1639.6700000000001</ele>
        <time>2012-05-03T11:33:07Z</time>
      </trkpt>
      <trkpt lat="46.06102991849184" lon="9.211622402071953">
        <ele>1639.6700000000001</ele>
        <time>2012-05-03T11:33:26Z</time>
      </trkpt>
      <trkpt lat="46.061031259596348" lon="9.211619719862938">
        <ele>1640.1500000000001</ele>
        <time>2012-05-03T11:33:50Z</time>
      </trkpt>
      <trkpt lat="46.061035953462124" lon="9.211625168099999">
        <ele>1639.6700000000001</ele>
        <time>2012-05-03T11:34:15Z</time>
      </trkpt>
      <trkpt lat="46.061033690348268" lon="9.211639082059264">
        <ele>1639.6700000000001</ele>
        <time>2012-05-03T11:34:33Z</time>
      </trkpt>
      <trkpt lat="46.061030589044094" lon="9.211639082059264">
        <ele>1640.1500000000001</ele>
        <time>2012-05-03T11:34:54Z</time>
      </trkpt>
      <trkpt lat="46.061033774167299" lon="9.21163497492671">
        <ele>1640.1500000000001</ele>
        <time>2012-05-03T11:35:14Z</time>
      </trkpt>
      <trkpt lat="46.061042575165629" lon="9.211645619943738">
        <ele>1640.1500000000001</ele>
        <time>2012-05-03T11:35:35Z</time>
      </trkpt>
      <trkpt lat="46.061034193262458" lon="9.211639249697328">
        <ele>1639.6700000000001</ele>
        <time>2012-05-03T11:35:56Z</time>
      </trkpt>
      <trkpt lat="46.061035869643092" lon="9.211620977148414">
        <ele>1639.1900000000001</ele>
        <time>2012-05-03T11:36:13Z</time>
      </trkpt>
      <trkpt lat="46.061046430841088" lon="9.211624581366777">
        <ele>1639.6700000000001</ele>
        <time>2012-05-03T11:36:33Z</time>
      </trkpt>
      <trkpt lat="46.061052465811372" lon="9.211658863350749">
        <ele>1641.5899999999999</ele>
        <time>2012-05-03T11:36:50Z</time>
      </trkpt>
      <trkpt lat="46.06104944832623" lon="9.211648302152753">
        <ele>1642.0699999999999</ele>
        <time>2012-05-03T11:37:01Z</time>
      </trkpt>
      <trkpt lat="46.061039306223392" lon="9.211652241647244">
        <ele>1642.0699999999999</ele>
        <time>2012-05-03T11:37:21Z</time>
      </trkpt>
      <trkpt lat="46.061038048937917" lon="9.211648805066943">
        <ele>1641.5899999999999</ele>
        <time>2012-05-03T11:37:39Z</time>
      </trkpt>
      <trkpt lat="46.061033438891172" lon="9.211641764268279">
        <ele>1643.03</ele>
        <time>2012-05-03T11:37:47Z</time>
      </trkpt>
      <trkpt lat="46.061035031452775" lon="9.211644614115357">
        <ele>1644.47</ele>
        <time>2012-05-03T11:38:03Z</time>
      </trkpt>
      <trkpt lat="46.061040228232741" lon="9.211654253304005">
        <ele>1644.47</ele>
        <time>2012-05-03T11:38:28Z</time>
      </trkpt>
      <trkpt lat="46.061046682298183" lon="9.211659030988812">
        <ele>1644.95</ele>
        <time>2012-05-03T11:38:46Z</time>
      </trkpt>
      <trkpt lat="46.061050705611706" lon="9.211660707369447">
        <ele>1645.4300000000001</ele>
        <time>2012-05-03T11:39:08Z</time>
      </trkpt>
      <trkpt lat="46.061052633449435" lon="9.211663054302335">
        <ele>1645.9100000000001</ele>
        <time>2012-05-03T11:39:30Z</time>
      </trkpt>
      <trkpt lat="46.061053136363626" lon="9.211664814502001">
        <ele>1645.4300000000001</ele>
        <time>2012-05-03T11:39:50Z</time>
      </trkpt>
      <trkpt lat="46.061054728925228" lon="9.211664982140064">
        <ele>1645.4300000000001</ele>
        <time>2012-05-03T11:40:12Z</time>
      </trkpt>
      <trkpt lat="46.061060931533575" lon="9.211672358214855">
        <ele>1646.4000000000001</ele>
        <time>2012-05-03T11:40:26Z</time>
      </trkpt>
      <trkpt lat="46.061057159677148" lon="9.211677890270948">
        <ele>1646.4000000000001</ele>
        <time>2012-05-03T11:40:47Z</time>
      </trkpt>
      <trkpt lat="46.061057997867465" lon="9.211674788966775">
        <ele>1646.8800000000001</ele>
        <time>2012-05-03T11:41:04Z</time>
      </trkpt>
      <trkpt lat="46.061059338971972" lon="9.211678644642234">
        <ele>1646.8800000000001</ele>
        <time>2012-05-03T11:41:17Z</time>
      </trkpt>
      <trkpt lat="46.061058668419719" lon="9.211683757603169">
        <ele>1646.4000000000001</ele>
        <time>2012-05-03T11:41:37Z</time>
      </trkpt>
      <trkpt lat="46.061059171333909" lon="9.211682332679629">
        <ele>1645.9100000000001</ele>
        <time>2012-05-03T11:41:53Z</time>
      </trkpt>
      <trkpt lat="46.061056321486831" lon="9.211675962433219">
        <ele>1646.4000000000001</ele>
        <time>2012-05-03T11:42:21Z</time>
      </trkpt>
      <trkpt lat="46.061056740581989" lon="9.211669927462935">
        <ele>1645.9100000000001</ele>
        <time>2012-05-03T11:42:38Z</time>
      </trkpt>
      <trkpt lat="46.061054142192006" lon="9.211667831987143">
        <ele>1646.4000000000001</ele>
        <time>2012-05-03T11:43:01Z</time>
      </trkpt>
      <trkpt lat="46.06104995124042" lon="9.211665987968445">
        <ele>1646.4000000000001</ele>
        <time>2012-05-03T11:43:16Z</time>
      </trkpt>
      <trkpt lat="46.061053890734911" lon="9.211666993796825">
        <ele>1645.9100000000001</ele>
        <time>2012-05-03T11:43:33Z</time>
      </trkpt>
      <trkpt lat="46.061053806915879" lon="9.211665317416191">
        <ele>1645.9100000000001</ele>
        <time>2012-05-03T11:43:52Z</time>
      </trkpt>
      <trkpt lat="46.061054896563292" lon="9.211658947169781">
        <ele>1646.4000000000001</ele>
        <time>2012-05-03T11:44:14Z</time>
      </trkpt>
      <trkpt lat="46.061052801087499" lon="9.211659366264939">
        <ele>1646.8800000000001</ele>
        <time>2012-05-03T11:44:35Z</time>
      </trkpt>
      <trkpt lat="46.061054142192006" lon="9.211653079837561">
        <ele>1647.3599999999999</ele>
        <time>2012-05-03T11:44:49Z</time>
      </trkpt>
      <trkpt lat="46.06105430983007" lon="9.2116579413414">
        <ele>1647.3599999999999</ele>
        <time>2012-05-03T11:45:03Z</time>
      </trkpt>
      <trkpt lat="46.061057997867465" lon="9.211657773703337">
        <ele>1646.8800000000001</ele>
        <time>2012-05-03T11:45:22Z</time>
      </trkpt>
      <trkpt lat="46.061060093343258" lon="9.211656097322702">
        <ele>1646.8800000000001</ele>
        <time>2012-05-03T11:45:39Z</time>
      </trkpt>
      <trkpt lat="46.061064954847097" lon="9.21165157109499">
        <ele>1647.3599999999999</ele>
        <time>2012-05-03T11:46:01Z</time>
      </trkpt>
      <trkpt lat="46.061068056151271" lon="9.211645117029548">
        <ele>1647.3599999999999</ele>
        <time>2012-05-03T11:46:30Z</time>
      </trkpt>
      <trkpt lat="46.061070486903191" lon="9.211639501154423">
        <ele>1646.8800000000001</ele>
        <time>2012-05-03T11:46:50Z</time>
      </trkpt>
      <trkpt lat="46.061067804694176" lon="9.211637824773789">
        <ele>1646.8800000000001</ele>
        <time>2012-05-03T11:47:12Z</time>
      </trkpt>
      <trkpt lat="46.061062943190336" lon="9.211631622165442">
        <ele>1646.8800000000001</ele>
        <time>2012-05-03T11:47:32Z</time>
      </trkpt>
      <trkpt lat="46.061062524095178" lon="9.21162961050868">
        <ele>1646.4000000000001</ele>
        <time>2012-05-03T11:47:50Z</time>
      </trkpt>
      <trkpt lat="46.061067217960954" lon="9.211628939956427">
        <ele>1646.4000000000001</ele>
        <time>2012-05-03T11:48:11Z</time>
      </trkpt>
      <trkpt lat="46.061068726703525" lon="9.211629275232554">
        <ele>1646.4000000000001</ele>
        <time>2012-05-03T11:48:30Z</time>
      </trkpt>
      <trkpt lat="46.061069816350937" lon="9.211628856137395">
        <ele>1647.3599999999999</ele>
        <time>2012-05-03T11:48:54Z</time>
      </trkpt>
      <trkpt lat="46.061074677854776" lon="9.211632292717695">
        <ele>1647.3599999999999</ele>
        <time>2012-05-03T11:49:15Z</time>
      </trkpt>
      <trkpt lat="46.061079539358616" lon="9.211624916642904">
        <ele>1646.8800000000001</ele>
        <time>2012-05-03T11:49:32Z</time>
      </trkpt>
      <trkpt lat="46.061080964282155" lon="9.211621228605509">
        <ele>1648.3199999999999</ele>
        <time>2012-05-03T11:49:45Z</time>
      </trkpt>
      <trkpt lat="46.061086999252439" lon="9.211615109816194">
        <ele>1648.8</ele>
        <time>2012-05-03T11:50:00Z</time>
      </trkpt>
      <trkpt lat="46.061088675633073" lon="9.211615612730384">
        <ele>1649.28</ele>
        <time>2012-05-03T11:50:19Z</time>
      </trkpt>
      <trkpt lat="46.061092279851437" lon="9.211624246090651">
        <ele>1650.72</ele>
        <time>2012-05-03T11:50:36Z</time>
      </trkpt>
      <trkpt lat="46.061091441661119" lon="9.211629191413522">
        <ele>1650.24</ele>
        <time>2012-05-03T11:50:51Z</time>
      </trkpt>
      <trkpt lat="46.061091190204024" lon="9.211632460355759">
        <ele>1651.2</ele>
        <time>2012-05-03T11:51:07Z</time>
      </trkpt>
      <trkpt lat="46.06109487824142" lon="9.211633550003171">
        <ele>1651.6800000000001</ele>
        <time>2012-05-03T11:51:28Z</time>
      </trkpt>
      <trkpt lat="46.061098733916879" lon="9.211647212505341">
        <ele>1652.1600000000001</ele>
        <time>2012-05-03T11:51:45Z</time>
      </trkpt>
      <trkpt lat="46.061104768887162" lon="9.211656516417861">
        <ele>1653.1199999999999</ele>
        <time>2012-05-03T11:51:59Z</time>
      </trkpt>
      <trkpt lat="46.061112312600017" lon="9.21167110092938">
        <ele>1654.0899999999999</ele>
        <time>2012-05-03T11:52:17Z</time>
      </trkpt>
      <trkpt lat="46.061114072799683" lon="9.211677387356758">
        <ele>1654.0899999999999</ele>
        <time>2012-05-03T11:52:32Z</time>
      </trkpt>
      <trkpt lat="46.061122119426727" lon="9.211687948554754">
        <ele>1655.05</ele>
        <time>2012-05-03T11:52:47Z</time>
      </trkpt>
      <trkpt lat="46.061127400025725" lon="9.211702365428209">
        <ele>1655.05</ele>
        <time>2012-05-03T11:53:04Z</time>
      </trkpt>
      <trkpt lat="46.061126226559281" lon="9.211716698482633">
        <ele>1655.05</ele>
        <time>2012-05-03T11:53:17Z</time>
      </trkpt>
      <trkpt lat="46.061121616512537" lon="9.211712507531047">
        <ele>1655.05</ele>
        <time>2012-05-03T11:53:39Z</time>
      </trkpt>
      <trkpt lat="46.061117677018046" lon="9.21170387417078">
        <ele>1655.05</ele>
        <time>2012-05-03T11:54:01Z</time>
      </trkpt>
      <trkpt lat="46.061117760837078" lon="9.211703790351749">
        <ele>1655.05</ele>
        <time>2012-05-03T11:54:22Z</time>
      </trkpt>
      <trkpt lat="46.061115581542253" lon="9.211700521409512">
        <ele>1654.5699999999999</ele>
        <time>2012-05-03T11:54:34Z</time>
      </trkpt>
      <trkpt lat="46.061119018122554" lon="9.211676465347409">
        <ele>1654.0899999999999</ele>
        <time>2012-05-03T11:54:40Z</time>
      </trkpt>
      <trkpt lat="46.061119856312871" lon="9.211695240810514">
        <ele>1653.5999999999999</ele>
        <time>2012-05-03T11:54:54Z</time>
      </trkpt>
      <trkpt lat="46.061123460531235" lon="9.211700856685638">
        <ele>1654.0899999999999</ele>
        <time>2012-05-03T11:55:21Z</time>
      </trkpt>
      <trkpt lat="46.061122873798013" lon="9.211702197790146">
        <ele>1654.0899999999999</ele>
        <time>2012-05-03T11:55:52Z</time>
      </trkpt>
      <trkpt lat="46.061127567663789" lon="9.211699264124036">
        <ele>1654.0899999999999</ele>
        <time>2012-05-03T11:56:14Z</time>
      </trkpt>
      <trkpt lat="46.061131674796343" lon="9.211701611056924">
        <ele>1655.05</ele>
        <time>2012-05-03T11:56:22Z</time>
      </trkpt>
      <trkpt lat="46.061154389753938" lon="9.211747627705336">
        <ele>1653.5999999999999</ele>
        <time>2012-05-03T11:56:32Z</time>
      </trkpt>
      <trkpt lat="46.061214152723551" lon="9.211744274944067">
        <ele>1651.2</ele>
        <time>2012-05-03T11:56:43Z</time>
      </trkpt>
      <trkpt lat="46.061247680336237" lon="9.211765984073281">
        <ele>1649.28</ele>
        <time>2012-05-03T11:56:51Z</time>
      </trkpt>
      <trkpt lat="46.061264276504517" lon="9.21177277341485">
        <ele>1648.8</ele>
        <time>2012-05-03T11:57:01Z</time>
      </trkpt>
      <trkpt lat="46.061275508254766" lon="9.211785010993481">
        <ele>1647.8399999999999</ele>
        <time>2012-05-03T11:57:11Z</time>
      </trkpt>
      <trkpt lat="46.061270395293832" lon="9.211791297420859">
        <ele>1648.3199999999999</ele>
        <time>2012-05-03T11:57:33Z</time>
      </trkpt>
      <trkpt lat="46.061281710863113" lon="9.211795404553413">
        <ele>1646.8800000000001</ele>
        <time>2012-05-03T11:57:43Z</time>
      </trkpt>
      <trkpt lat="46.061289589852095" lon="9.211793560534716">
        <ele>1648.3199999999999</ele>
        <time>2012-05-03T11:57:48Z</time>
      </trkpt>
      <trkpt lat="46.061288751661777" lon="9.211764140054584">
        <ele>1647.8399999999999</ele>
        <time>2012-05-03T11:58:00Z</time>
      </trkpt>
      <trkpt lat="46.061301743611693" lon="9.21174000017345">
        <ele>1646.4000000000001</ele>
        <time>2012-05-03T11:58:03Z</time>
      </trkpt>
      <trkpt lat="46.061336193233728" lon="9.211684428155422">
        <ele>1643.99</ele>
        <time>2012-05-03T11:58:07Z</time>
      </trkpt>
      <trkpt lat="46.061372486874461" lon="9.211651403456926">
        <ele>1644.95</ele>
        <time>2012-05-03T11:58:20Z</time>
      </trkpt>
      <trkpt lat="46.061398554593325" lon="9.211607398465276">
        <ele>1646.4000000000001</ele>
        <time>2012-05-03T11:58:37Z</time>
      </trkpt>
      <trkpt lat="46.061410373076797" lon="9.211599687114358">
        <ele>1647.8399999999999</ele>
        <time>2012-05-03T11:58:52Z</time>
      </trkpt>
      <trkpt lat="46.061413306742907" lon="9.211607482284308">
        <ele>1649.76</ele>
        <time>2012-05-03T11:59:08Z</time>
      </trkpt>
      <trkpt lat="46.061429902911186" lon="9.211606811732054">
        <ele>1649.76</ele>
        <time>2012-05-03T11:59:24Z</time>
      </trkpt>
      <trkpt lat="46.061432417482138" lon="9.2116095777601">
        <ele>1650.72</ele>
        <time>2012-05-03T11:59:42Z</time>
      </trkpt>
      <trkpt lat="46.061450187116861" lon="9.211591640487313">
        <ele>1651.6800000000001</ele>
        <time>2012-05-03T11:59:56Z</time>
      </trkpt>
      <trkpt lat="46.061450019478798" lon="9.211600944399834">
        <ele>1651.6800000000001</ele>
        <time>2012-05-03T12:00:12Z</time>
      </trkpt>
      <trkpt lat="46.061455635353923" lon="9.211618043482304">
        <ele>1653.1199999999999</ele>
        <time>2012-05-03T12:00:25Z</time>
      </trkpt>
      <trkpt lat="46.061457479372621" lon="9.21162567101419">
        <ele>1653.5999999999999</ele>
        <time>2012-05-03T12:00:48Z</time>
      </trkpt>
      <trkpt lat="46.061463765799999" lon="9.211638076230884">
        <ele>1654.0899999999999</ele>
        <time>2012-05-03T12:01:03Z</time>
      </trkpt>
      <trkpt lat="46.061463681980968" lon="9.211646961048245">
        <ele>1655.05</ele>
        <time>2012-05-03T12:01:15Z</time>
      </trkpt>
      <trkpt lat="46.061467370018363" lon="9.211656767874956">
        <ele>1656.49</ele>
        <time>2012-05-03T12:01:30Z</time>
      </trkpt>
      <trkpt lat="46.061477176845074" lon="9.211673196405172">
        <ele>1656.97</ele>
        <time>2012-05-03T12:01:44Z</time>
      </trkpt>
      <trkpt lat="46.061486983671784" lon="9.211688619107008">
        <ele>1658.4100000000001</ele>
        <time>2012-05-03T12:02:00Z</time>
      </trkpt>
      <trkpt lat="46.061493521556258" lon="9.211681745946407">
        <ele>1658.8900000000001</ele>
        <time>2012-05-03T12:02:17Z</time>
      </trkpt>
      <trkpt lat="46.061490587890148" lon="9.211691301316023">
        <ele>1660.3299999999999</ele>
        <time>2012-05-03T12:02:28Z</time>
      </trkpt>
      <trkpt lat="46.061495784670115" lon="9.211700605228543">
        <ele>1660.8099999999999</ele>
        <time>2012-05-03T12:02:48Z</time>
      </trkpt>
      <trkpt lat="46.061497628688812" lon="9.211699599400163">
        <ele>1662.26</ele>
        <time>2012-05-03T12:03:05Z</time>
      </trkpt>
      <trkpt lat="46.061502741649747" lon="9.211696079000831">
        <ele>1662.26</ele>
        <time>2012-05-03T12:03:22Z</time>
      </trkpt>
      <trkpt lat="46.061512129381299" lon="9.211683925241232">
        <ele>1663.22</ele>
        <time>2012-05-03T12:03:38Z</time>
      </trkpt>
      <trkpt lat="46.061524534597993" lon="9.211676046252251">
        <ele>1663.7</ele>
        <time>2012-05-03T12:03:54Z</time>
      </trkpt>
      <trkpt lat="46.061531407758594" lon="9.21166917309165">
        <ele>1664.6600000000001</ele>
        <time>2012-05-03T12:04:08Z</time>
      </trkpt>
      <trkpt lat="46.06153316795826" lon="9.211665401235223">
        <ele>1666.0999999999999</ele>
        <time>2012-05-03T12:04:28Z</time>
      </trkpt>
      <trkpt lat="46.061530318111181" lon="9.21166573651135">
        <ele>1667.0599999999999</ele>
        <time>2012-05-03T12:04:43Z</time>
      </trkpt>
      <trkpt lat="46.061536017805338" lon="9.21165743842721">
        <ele>1667.54</ele>
        <time>2012-05-03T12:04:57Z</time>
      </trkpt>
      <trkpt lat="46.061531156301498" lon="9.211657103151083">
        <ele>1669.47</ele>
        <time>2012-05-03T12:05:16Z</time>
      </trkpt>
      <trkpt lat="46.06153610162437" lon="9.211615864187479">
        <ele>1670.9100000000001</ele>
        <time>2012-05-03T12:05:28Z</time>
      </trkpt>
      <trkpt lat="46.06153953820467" lon="9.211620055139065">
        <ele>1671.8699999999999</ele>
        <time>2012-05-03T12:05:45Z</time>
      </trkpt>
      <trkpt lat="46.06153660453856" lon="9.211611086502671">
        <ele>1672.8299999999999</ele>
        <time>2012-05-03T12:05:56Z</time>
      </trkpt>
      <trkpt lat="46.06154783628881" lon="9.211594657972455">
        <ele>1673.79</ele>
        <time>2012-05-03T12:06:08Z</time>
      </trkpt>
      <trkpt lat="46.061550183221698" lon="9.211594993248582">
        <ele>1676.2</ele>
        <time>2012-05-03T12:06:22Z</time>
      </trkpt>
      <trkpt lat="46.061553452163935" lon="9.211591053754091">
        <ele>1676.6800000000001</ele>
        <time>2012-05-03T12:06:35Z</time>
      </trkpt>
      <trkpt lat="46.061552530154586" lon="9.21159784309566">
        <ele>1677.1600000000001</ele>
        <time>2012-05-03T12:06:50Z</time>
      </trkpt>
      <trkpt lat="46.061560828238726" lon="9.211596082895994">
        <ele>1677.6400000000001</ele>
        <time>2012-05-03T12:06:55Z</time>
      </trkpt>
      <trkpt lat="46.061573820188642" lon="9.211562471464276">
        <ele>1679.0799999999999</ele>
        <time>2012-05-03T12:07:05Z</time>
      </trkpt>
      <trkpt lat="46.061569629237056" lon="9.211525255814195">
        <ele>1680.52</ele>
        <time>2012-05-03T12:07:15Z</time>
      </trkpt>
      <trkpt lat="46.061570215970278" lon="9.211504552513361">
        <ele>1681</ele>
        <time>2012-05-03T12:07:28Z</time>
      </trkpt>
      <trkpt lat="46.061574993655086" lon="9.211499020457268">
        <ele>1682.4400000000001</ele>
        <time>2012-05-03T12:07:41Z</time>
      </trkpt>
      <trkpt lat="46.061584297567606" lon="9.211492482572794">
        <ele>1683.4100000000001</ele>
        <time>2012-05-03T12:07:53Z</time>
      </trkpt>
      <trkpt lat="46.061587315052748" lon="9.211477311328054">
        <ele>1684.8499999999999</ele>
        <time>2012-05-03T12:08:09Z</time>
      </trkpt>
      <trkpt lat="46.061593350023031" lon="9.211467085406184">
        <ele>1684.8499999999999</ele>
        <time>2012-05-03T12:08:29Z</time>
      </trkpt>
      <trkpt lat="46.061593852937222" lon="9.211470019072294">
        <ele>1685.3299999999999</ele>
        <time>2012-05-03T12:08:42Z</time>
      </trkpt>
      <trkpt lat="46.061593852937222" lon="9.211463313549757">
        <ele>1686.29</ele>
        <time>2012-05-03T12:08:59Z</time>
      </trkpt>
      <trkpt lat="46.061592511832714" lon="9.211469516158104">
        <ele>1685.8099999999999</ele>
        <time>2012-05-03T12:09:17Z</time>
      </trkpt>
      <trkpt lat="46.061590164899826" lon="9.211477898061276">
        <ele>1687.73</ele>
        <time>2012-05-03T12:09:27Z</time>
      </trkpt>
      <trkpt lat="46.061588320881128" lon="9.211481083184481">
        <ele>1688.6900000000001</ele>
        <time>2012-05-03T12:09:46Z</time>
      </trkpt>
      <trkpt lat="46.061590667814016" lon="9.211480747908354">
        <ele>1689.1700000000001</ele>
        <time>2012-05-03T12:10:10Z</time>
      </trkpt>
      <trkpt lat="46.061588572338223" lon="9.211480999365449">
        <ele>1689.1700000000001</ele>
        <time>2012-05-03T12:10:35Z</time>
      </trkpt>
      <trkpt lat="46.06158790178597" lon="9.211483094841242">
        <ele>1689.1700000000001</ele>
        <time>2012-05-03T12:11:00Z</time>
      </trkpt>
      <trkpt lat="46.061584297567606" lon="9.211472366005182">
        <ele>1691.5799999999999</ele>
        <time>2012-05-03T12:11:08Z</time>
      </trkpt>
      <trkpt lat="46.061588153243065" lon="9.21146591193974">
        <ele>1692.0599999999999</ele>
        <time>2012-05-03T12:11:16Z</time>
      </trkpt>
      <trkpt lat="46.061593350023031" lon="9.211456691846252">
        <ele>1692.54</ele>
        <time>2012-05-03T12:11:29Z</time>
      </trkpt>
      <trkpt lat="46.061594942584634" lon="9.211454512551427">
        <ele>1693.98</ele>
        <time>2012-05-03T12:11:43Z</time>
      </trkpt>
      <trkpt lat="46.061595445498824" lon="9.211454344913364">
        <ele>1695.9000000000001</ele>
        <time>2012-05-03T12:11:56Z</time>
      </trkpt>
      <trkpt lat="46.0615967027843" lon="9.211459206417203">
        <ele>1696.8599999999999</ele>
        <time>2012-05-03T12:12:08Z</time>
      </trkpt>
      <trkpt lat="46.06162209995091" lon="9.211421739310026">
        <ele>1697.8299999999999</ele>
        <time>2012-05-03T12:12:24Z</time>
      </trkpt>
      <trkpt lat="46.061631068587303" lon="9.211426684632897">
        <ele>1699.27</ele>
        <time>2012-05-03T12:12:36Z</time>
      </trkpt>
      <trkpt lat="46.061629140749574" lon="9.211379662156105">
        <ele>1698.3099999999999</ele>
        <time>2012-05-03T12:12:50Z</time>
      </trkpt>
      <trkpt lat="46.061626458540559" lon="9.21133691444993">
        <ele>1696.3800000000001</ele>
        <time>2012-05-03T12:13:00Z</time>
      </trkpt>
      <trkpt lat="46.061632744967937" lon="9.211330376565456">
        <ele>1695.9000000000001</ele>
        <time>2012-05-03T12:13:15Z</time>
      </trkpt>
      <trkpt lat="46.061668284237385" lon="9.211309086531401">
        <ele>1695.9000000000001</ele>
        <time>2012-05-03T12:13:28Z</time>
      </trkpt>
      <trkpt lat="46.061678174883127" lon="9.211303135380149">
        <ele>1696.3800000000001</ele>
        <time>2012-05-03T12:13:44Z</time>
      </trkpt>
      <trkpt lat="46.061680186539888" lon="9.211298944428563">
        <ele>1696.3800000000001</ele>
        <time>2012-05-03T12:14:01Z</time>
      </trkpt>
      <trkpt lat="46.061684042215347" lon="9.211295172572136">
        <ele>1696.8599999999999</ele>
        <time>2012-05-03T12:14:20Z</time>
      </trkpt>
      <trkpt lat="46.061696195974946" lon="9.211286539211869">
        <ele>1698.79</ele>
        <time>2012-05-03T12:14:36Z</time>
      </trkpt>
      <trkpt lat="46.061705751344562" lon="9.211269021034241">
        <ele>1699.27</ele>
        <time>2012-05-03T12:14:51Z</time>
      </trkpt>
      <trkpt lat="46.061714217066765" lon="9.211261812597513">
        <ele>1699.27</ele>
        <time>2012-05-03T12:15:06Z</time>
      </trkpt>
      <trkpt lat="46.061711953952909" lon="9.211257873103023">
        <ele>1699.75</ele>
        <time>2012-05-03T12:15:22Z</time>
      </trkpt>
      <trkpt lat="46.06171689927578" lon="9.211253263056278">
        <ele>1701.1900000000001</ele>
        <time>2012-05-03T12:15:37Z</time>
      </trkpt>
      <trkpt lat="46.061727711930871" lon="9.21123918145895">
        <ele>1702.1500000000001</ele>
        <time>2012-05-03T12:15:47Z</time>
      </trkpt>
      <trkpt lat="46.061757132411003" lon="9.211264327168465">
        <ele>1703.1099999999999</ele>
        <time>2012-05-03T12:15:57Z</time>
      </trkpt>
      <trkpt lat="46.061752354726195" lon="9.211260555312038">
        <ele>1703.5899999999999</ele>
        <time>2012-05-03T12:16:12Z</time>
      </trkpt>
      <trkpt lat="46.061755372211337" lon="9.211235996335745">
        <ele>1704.55</ele>
        <time>2012-05-03T12:16:24Z</time>
      </trkpt>
      <trkpt lat="46.061750007793307" lon="9.211246557533741">
        <ele>1706</ele>
        <time>2012-05-03T12:16:41Z</time>
      </trkpt>
      <trkpt lat="46.061747660860419" lon="9.211243623867631">
        <ele>1706.96</ele>
        <time>2012-05-03T12:16:53Z</time>
      </trkpt>
      <trkpt lat="46.061744894832373" lon="9.211214622482657">
        <ele>1707.4400000000001</ele>
        <time>2012-05-03T12:17:05Z</time>
      </trkpt>
      <trkpt lat="46.061741039156914" lon="9.211210096254945">
        <ele>1708.8800000000001</ele>
        <time>2012-05-03T12:17:17Z</time>
      </trkpt>
      <trkpt lat="46.061739949509501" lon="9.211213532835245">
        <ele>1709.8399999999999</ele>
        <time>2012-05-03T12:17:35Z</time>
      </trkpt>
      <trkpt lat="46.061744811013341" lon="9.211214957758784">
        <ele>1711.28</ele>
        <time>2012-05-03T12:17:47Z</time>
      </trkpt>
      <trkpt lat="46.061742044985294" lon="9.211235409602523">
        <ele>1712.25</ele>
        <time>2012-05-03T12:18:03Z</time>
      </trkpt>
      <trkpt lat="46.061741122975945" lon="9.211245467886329">
        <ele>1714.1700000000001</ele>
        <time>2012-05-03T12:18:16Z</time>
      </trkpt>
      <trkpt lat="46.06174330227077" lon="9.21124454587698">
        <ele>1715.1300000000001</ele>
        <time>2012-05-03T12:18:34Z</time>
      </trkpt>
      <trkpt lat="46.061747157946229" lon="9.211241947486997">
        <ele>1715.6099999999999</ele>
        <time>2012-05-03T12:18:45Z</time>
      </trkpt>
      <trkpt lat="46.061748331412673" lon="9.211242701858282">
        <ele>1715.6099999999999</ele>
        <time>2012-05-03T12:19:01Z</time>
      </trkpt>
      <trkpt lat="46.06175260618329" lon="9.211242953315377">
        <ele>1718.49</ele>
        <time>2012-05-03T12:19:16Z</time>
      </trkpt>
      <trkpt lat="46.061756126582623" lon="9.211248736828566">
        <ele>1719.46</ele>
        <time>2012-05-03T12:19:28Z</time>
      </trkpt>
      <trkpt lat="46.061764927580953" lon="9.211257118731737">
        <ele>1721.3800000000001</ele>
        <time>2012-05-03T12:19:41Z</time>
      </trkpt>
      <trkpt lat="46.06177213601768" lon="9.211247898638248">
        <ele>1723.3</ele>
        <time>2012-05-03T12:19:53Z</time>
      </trkpt>
      <trkpt lat="46.061805244535208" lon="9.211212527006865">
        <ele>1724.26</ele>
        <time>2012-05-03T12:19:59Z</time>
      </trkpt>
      <trkpt lat="46.06186400167644" lon="9.211194254457951">
        <ele>1726.6700000000001</ele>
        <time>2012-05-03T12:20:11Z</time>
      </trkpt>
      <trkpt lat="46.061871461570263" lon="9.211196852847934">
        <ele>1726.1800000000001</ele>
        <time>2012-05-03T12:20:18Z</time>
      </trkpt>
      <trkpt lat="46.061880178749561" lon="9.211201630532742">
        <ele>1725.7</ele>
        <time>2012-05-03T12:20:30Z</time>
      </trkpt>
      <trkpt lat="46.061883363872766" lon="9.211210515350103">
        <ele>1725.22</ele>
        <time>2012-05-03T12:21:07Z</time>
      </trkpt>
      <trkpt lat="46.061893925070763" lon="9.21123038046062">
        <ele>1725.22</ele>
        <time>2012-05-03T12:21:35Z</time>
      </trkpt>
      <trkpt lat="46.061895182356238" lon="9.211235493421555">
        <ele>1725.22</ele>
        <time>2012-05-03T12:22:09Z</time>
      </trkpt>
      <trkpt lat="46.061898032203317" lon="9.21123867854476">
        <ele>1725.7</ele>
        <time>2012-05-03T12:22:37Z</time>
      </trkpt>
      <trkpt lat="46.061902055516839" lon="9.211237169802189">
        <ele>1725.7</ele>
        <time>2012-05-03T12:22:55Z</time>
      </trkpt>
      <trkpt lat="46.061903480440378" lon="9.211238343268633">
        <ele>1725.7</ele>
        <time>2012-05-03T12:23:13Z</time>
      </trkpt>
      <trkpt lat="46.061902306973934" lon="9.211231386289001">
        <ele>1725.7</ele>
        <time>2012-05-03T12:23:41Z</time>
      </trkpt>
      <trkpt lat="46.061898618936539" lon="9.211222752928734">
        <ele>1725.7</ele>
        <time>2012-05-03T12:24:13Z</time>
      </trkpt>
      <trkpt lat="46.061902223154902" lon="9.21121328137815">
        <ele>1726.1800000000001</ele>
        <time>2012-05-03T12:24:35Z</time>
      </trkpt>
      <trkpt lat="46.061900965869427" lon="9.211209006607533">
        <ele>1725.7</ele>
        <time>2012-05-03T12:24:52Z</time>
      </trkpt>
      <trkpt lat="46.061898870393634" lon="9.211205234751105">
        <ele>1726.1800000000001</ele>
        <time>2012-05-03T12:25:22Z</time>
      </trkpt>
      <trkpt lat="46.061897194013" lon="9.211200959980488">
        <ele>1726.1800000000001</ele>
        <time>2012-05-03T12:25:56Z</time>
      </trkpt>
      <trkpt lat="46.061895433813334" lon="9.211198780685663">
        <ele>1726.1800000000001</ele>
        <time>2012-05-03T12:26:28Z</time>
      </trkpt>
      <trkpt lat="46.061894008889794" lon="9.211196769028902">
        <ele>1726.6700000000001</ele>
        <time>2012-05-03T12:27:02Z</time>
      </trkpt>
      <trkpt lat="46.061893086880445" lon="9.211196349933744">
        <ele>1726.1800000000001</ele>
        <time>2012-05-03T12:27:38Z</time>
      </trkpt>
      <trkpt lat="46.061890739947557" lon="9.211194757372141">
        <ele>1726.6700000000001</ele>
        <time>2012-05-03T12:28:13Z</time>
      </trkpt>
      <trkpt lat="46.061892500147223" lon="9.211195260286331">
        <ele>1726.1800000000001</ele>
        <time>2012-05-03T12:28:49Z</time>
      </trkpt>
      <trkpt lat="46.061893505975604" lon="9.211195847019553">
        <ele>1726.1800000000001</ele>
        <time>2012-05-03T12:29:12Z</time>
      </trkpt>
      <trkpt lat="46.06188990175724" lon="9.211197104305029">
        <ele>1726.6700000000001</ele>
        <time>2012-05-03T12:29:53Z</time>
      </trkpt>
      <trkpt lat="46.061889063566923" lon="9.211195427924395">
        <ele>1726.6700000000001</ele>
        <time>2012-05-03T12:30:27Z</time>
      </trkpt>
      <trkpt lat="46.061890907585621" lon="9.211195427924395">
        <ele>1726.6700000000001</ele>
        <time>2012-05-03T12:30:59Z</time>
      </trkpt>
      <trkpt lat="46.061889482662082" lon="9.211195427924395">
        <ele>1727.1500000000001</ele>
        <time>2012-05-03T12:31:29Z</time>
      </trkpt>
      <trkpt lat="46.061890069395304" lon="9.211199786514044">
        <ele>1728.5899999999999</ele>
        <time>2012-05-03T12:31:51Z</time>
      </trkpt>
      <trkpt lat="46.061892667785287" lon="9.211217556148768">
        <ele>1727.6300000000001</ele>
        <time>2012-05-03T12:32:01Z</time>
      </trkpt>
      <trkpt lat="46.061891578137875" lon="9.211211018264294">
        <ele>1727.1500000000001</ele>
        <time>2012-05-03T12:32:33Z</time>
      </trkpt>
      <trkpt lat="46.061892751604319" lon="9.211208922788501">
        <ele>1727.1500000000001</ele>
        <time>2012-05-03T12:33:13Z</time>
      </trkpt>
      <trkpt lat="46.061892583966255" lon="9.211208168417215">
        <ele>1727.1500000000001</ele>
        <time>2012-05-03T12:33:53Z</time>
      </trkpt>
      <trkpt lat="46.061901720240712" lon="9.211213029921055">
        <ele>1727.1500000000001</ele>
        <time>2012-05-03T12:34:13Z</time>
      </trkpt>
      <trkpt lat="46.061892667785287" lon="9.211217891424894">
        <ele>1727.1500000000001</ele>
        <time>2012-05-03T12:34:30Z</time>
      </trkpt>
      <trkpt lat="46.061889985576272" lon="9.21120397746563">
        <ele>1727.6300000000001</ele>
        <time>2012-05-03T12:34:39Z</time>
      </trkpt>
      <trkpt lat="46.06192016042769" lon="9.211166342720389">
        <ele>1728.1099999999999</ele>
        <time>2012-05-03T12:34:44Z</time>
      </trkpt>
      <trkpt lat="46.061962656676769" lon="9.211162738502026">
        <ele>1727.6300000000001</ele>
        <time>2012-05-03T12:34:48Z</time>
      </trkpt>
      <trkpt lat="46.062006410211325" lon="9.211186543107033">
        <ele>1727.6300000000001</ele>
        <time>2012-05-03T12:34:53Z</time>
      </trkpt>
      <trkpt lat="46.062054857611656" lon="9.211165755987167">
        <ele>1727.1500000000001</ele>
        <time>2012-05-03T12:35:04Z</time>
      </trkpt>
      <trkpt lat="46.062071621417999" lon="9.211157541722059">
        <ele>1725.7</ele>
        <time>2012-05-03T12:35:14Z</time>
      </trkpt>
      <trkpt lat="46.062092492356896" lon="9.211155446246266">
        <ele>1724.26</ele>
        <time>2012-05-03T12:35:30Z</time>
      </trkpt>
      <trkpt lat="46.062116045504808" lon="9.211147483438253">
        <ele>1722.8199999999999</ele>
        <time>2012-05-03T12:35:39Z</time>
      </trkpt>
      <trkpt lat="46.062118392437696" lon="9.211134575307369">
        <ele>1721.3800000000001</ele>
        <time>2012-05-03T12:35:51Z</time>
      </trkpt>
      <trkpt lat="46.062120152637362" lon="9.21113021671772">
        <ele>1721.3800000000001</ele>
        <time>2012-05-03T12:36:02Z</time>
      </trkpt>
      <trkpt lat="46.062106573954225" lon="9.211111776530743">
        <ele>1719.46</ele>
        <time>2012-05-03T12:36:16Z</time>
      </trkpt>
      <trkpt lat="46.062132557854056" lon="9.211096353828907">
        <ele>1718.01</ele>
        <time>2012-05-03T12:36:29Z</time>
      </trkpt>
      <trkpt lat="46.062142951413989" lon="9.211101215332747">
        <ele>1717.05</ele>
        <time>2012-05-03T12:36:38Z</time>
      </trkpt>
      <trkpt lat="46.06214739382267" lon="9.211091659963131">
        <ele>1717.05</ele>
        <time>2012-05-03T12:36:39Z</time>
      </trkpt>
      <trkpt lat="46.062193159013987" lon="9.211077829822898">
        <ele>1714.6500000000001</ele>
        <time>2012-05-03T12:36:44Z</time>
      </trkpt>
      <trkpt lat="46.062199361622334" lon="9.211086044088006">
        <ele>1714.1700000000001</ele>
        <time>2012-05-03T12:36:45Z</time>
      </trkpt>
      <trkpt lat="46.062243701890111" lon="9.21109308488667">
        <ele>1713.6900000000001</ele>
        <time>2012-05-03T12:36:49Z</time>
      </trkpt>
      <trkpt lat="46.062267422676086" lon="9.211116805672646">
        <ele>1712.25</ele>
        <time>2012-05-03T12:36:51Z</time>
      </trkpt>
      <trkpt lat="46.062333974987268" lon="9.21115511097014">
        <ele>1711.28</ele>
        <time>2012-05-03T12:36:59Z</time>
      </trkpt>
      <trkpt lat="46.062367586418986" lon="9.211191153153777">
        <ele>1710.8</ele>
        <time>2012-05-03T12:37:05Z</time>
      </trkpt>
      <trkpt lat="46.062374543398619" lon="9.211186207830906">
        <ele>1709.8399999999999</ele>
        <time>2012-05-03T12:37:16Z</time>
      </trkpt>
      <trkpt lat="46.062376303598285" lon="9.211197188124061">
        <ele>1709.8399999999999</ele>
        <time>2012-05-03T12:37:17Z</time>
      </trkpt>
      <trkpt lat="46.062391893938184" lon="9.211316714063287">
        <ele>1706.96</ele>
        <time>2012-05-03T12:37:29Z</time>
      </trkpt>
      <trkpt lat="46.062365742400289" lon="9.211343619972467">
        <ele>1706</ele>
        <time>2012-05-03T12:37:35Z</time>
      </trkpt>
      <trkpt lat="46.062342189252377" lon="9.211463565006852">
        <ele>1701.6700000000001</ele>
        <time>2012-05-03T12:37:45Z</time>
      </trkpt>
      <trkpt lat="46.062305308878422" lon="9.211555849760771">
        <ele>1698.79</ele>
        <time>2012-05-03T12:37:57Z</time>
      </trkpt>
      <trkpt lat="46.062281671911478" lon="9.211632125079632">
        <ele>1695.9000000000001</ele>
        <time>2012-05-03T12:38:08Z</time>
      </trkpt>
      <trkpt lat="46.062283515930176" lon="9.21165743842721">
        <ele>1694.46</ele>
        <time>2012-05-03T12:38:20Z</time>
      </trkpt>
      <trkpt lat="46.062275134027004" lon="9.211693312972784">
        <ele>1693.02</ele>
        <time>2012-05-03T12:38:31Z</time>
      </trkpt>
      <trkpt lat="46.062257699668407" lon="9.211689541116357">
        <ele>1693.5</ele>
        <time>2012-05-03T12:38:44Z</time>
      </trkpt>
      <trkpt lat="46.062243618071079" lon="9.211669927462935">
        <ele>1692.54</ele>
        <time>2012-05-03T12:39:00Z</time>
      </trkpt>
      <trkpt lat="46.062239427119493" lon="9.211674453690648">
        <ele>1691.0999999999999</ele>
        <time>2012-05-03T12:39:15Z</time>
      </trkpt>
      <trkpt lat="46.062234649434686" lon="9.211710495874286">
        <ele>1689.6500000000001</ele>
        <time>2012-05-03T12:39:28Z</time>
      </trkpt>
      <trkpt lat="46.06221386231482" lon="9.211731282994151">
        <ele>1689.1700000000001</ele>
        <time>2012-05-03T12:39:43Z</time>
      </trkpt>
      <trkpt lat="46.062205228954554" lon="9.211743101477623">
        <ele>1687.73</ele>
        <time>2012-05-03T12:39:57Z</time>
      </trkpt>
      <trkpt lat="46.062192907556891" lon="9.211793141439557">
        <ele>1685.8099999999999</ele>
        <time>2012-05-03T12:40:10Z</time>
      </trkpt>
      <trkpt lat="46.062155608087778" lon="9.21187587082386">
        <ele>1685.3299999999999</ele>
        <time>2012-05-03T12:40:21Z</time>
      </trkpt>
      <trkpt lat="46.062144711613655" lon="9.211890622973442">
        <ele>1684.8499999999999</ele>
        <time>2012-05-03T12:40:24Z</time>
      </trkpt>
      <trkpt lat="46.062082014977932" lon="9.212030181661248">
        <ele>1680.52</ele>
        <time>2012-05-03T12:40:35Z</time>
      </trkpt>
      <trkpt lat="46.062086625024676" lon="9.212066726759076">
        <ele>1679.5599999999999</ele>
        <time>2012-05-03T12:40:42Z</time>
      </trkpt>
      <trkpt lat="46.06208486482501" lon="9.21212213113904">
        <ele>1677.6400000000001</ele>
        <time>2012-05-03T12:40:47Z</time>
      </trkpt>
      <trkpt lat="46.062092408537865" lon="9.212165297940373">
        <ele>1676.6800000000001</ele>
        <time>2012-05-03T12:40:50Z</time>
      </trkpt>
      <trkpt lat="46.062106993049383" lon="9.212238639593124">
        <ele>1673.3099999999999</ele>
        <time>2012-05-03T12:41:04Z</time>
      </trkpt>
      <trkpt lat="46.062107160687447" lon="9.212238723412156">
        <ele>1673.3099999999999</ele>
        <time>2012-05-03T12:41:07Z</time>
      </trkpt>
      <trkpt lat="46.062113614752889" lon="9.212271999567747">
        <ele>1671.8699999999999</ele>
        <time>2012-05-03T12:41:12Z</time>
      </trkpt>
      <trkpt lat="46.062092827633023" lon="9.212277280166745">
        <ele>1671.3900000000001</ele>
        <time>2012-05-03T12:41:16Z</time>
      </trkpt>
      <trkpt lat="46.062057623639703" lon="9.212252805009484">
        <ele>1668.99</ele>
        <time>2012-05-03T12:41:27Z</time>
      </trkpt>
      <trkpt lat="46.062058210372925" lon="9.212260683998466">
        <ele>1668.51</ele>
        <time>2012-05-03T12:41:28Z</time>
      </trkpt>
      <trkpt lat="46.062038764357567" lon="9.212291026487947">
        <ele>1665.6199999999999</ele>
        <time>2012-05-03T12:41:39Z</time>
      </trkpt>
      <trkpt lat="46.062038764357567" lon="9.212283231317997">
        <ele>1665.6199999999999</ele>
        <time>2012-05-03T12:41:42Z</time>
      </trkpt>
      <trkpt lat="46.062024598941207" lon="9.21229898929596">
        <ele>1665.1400000000001</ele>
        <time>2012-05-03T12:41:45Z</time>
      </trkpt>
      <trkpt lat="46.061991490423679" lon="9.212359087541699">
        <ele>1662.74</ele>
        <time>2012-05-03T12:41:52Z</time>
      </trkpt>
      <trkpt lat="46.061965422704816" lon="9.212331008166075">
        <ele>1660.8099999999999</ele>
        <time>2012-05-03T12:42:02Z</time>
      </trkpt>
      <trkpt lat="46.061951844021678" lon="9.212283650413156">
        <ele>1659.3699999999999</ele>
        <time>2012-05-03T12:42:06Z</time>
      </trkpt>
      <trkpt lat="46.061927285045385" lon="9.212246099486947">
        <ele>1656.97</ele>
        <time>2012-05-03T12:42:14Z</time>
      </trkpt>
      <trkpt lat="46.061900462955236" lon="9.212217517197132">
        <ele>1655.53</ele>
        <time>2012-05-03T12:42:21Z</time>
      </trkpt>
      <trkpt lat="46.061875568702817" lon="9.212149791419506">
        <ele>1652.6400000000001</ele>
        <time>2012-05-03T12:42:32Z</time>
      </trkpt>
      <trkpt lat="46.061858721077442" lon="9.212157586589456">
        <ele>1650.72</ele>
        <time>2012-05-03T12:42:42Z</time>
      </trkpt>
      <trkpt lat="46.061842795461416" lon="9.212207375094295">
        <ele>1648.3199999999999</ele>
        <time>2012-05-03T12:42:49Z</time>
      </trkpt>
      <trkpt lat="46.061818152666092" lon="9.212264707311988">
        <ele>1646.4000000000001</ele>
        <time>2012-05-03T12:43:01Z</time>
      </trkpt>
      <trkpt lat="46.061812872067094" lon="9.212266551330686">
        <ele>1644.95</ele>
        <time>2012-05-03T12:43:13Z</time>
      </trkpt>
      <trkpt lat="46.0617780033499" lon="9.212193209677935">
        <ele>1642.55</ele>
        <time>2012-05-03T12:43:27Z</time>
      </trkpt>
      <trkpt lat="46.061758557334542" lon="9.212178541347385">
        <ele>1641.1099999999999</ele>
        <time>2012-05-03T12:43:34Z</time>
      </trkpt>
      <trkpt lat="46.061736010015011" lon="9.212144343182445">
        <ele>1639.6700000000001</ele>
        <time>2012-05-03T12:43:38Z</time>
      </trkpt>
      <trkpt lat="46.061709271743894" lon="9.212151383981109">
        <ele>1638.22</ele>
        <time>2012-05-03T12:43:41Z</time>
      </trkpt>
      <trkpt lat="46.061696531251073" lon="9.21214560046792">
        <ele>1637.74</ele>
        <time>2012-05-03T12:43:44Z</time>
      </trkpt>
      <trkpt lat="46.061704158782959" lon="9.212186336517334">
        <ele>1637.26</ele>
        <time>2012-05-03T12:43:47Z</time>
      </trkpt>
      <trkpt lat="46.061705416068435" lon="9.212284656241536">
        <ele>1634.3800000000001</ele>
        <time>2012-05-03T12:43:57Z</time>
      </trkpt>
      <trkpt lat="46.06168219819665" lon="9.212323883548379">
        <ele>1633.4200000000001</ele>
        <time>2012-05-03T12:44:04Z</time>
      </trkpt>
      <trkpt lat="46.061660321429372" lon="9.212343245744705">
        <ele>1631.98</ele>
        <time>2012-05-03T12:44:10Z</time>
      </trkpt>
      <trkpt lat="46.061636433005333" lon="9.212350202724338">
        <ele>1631.01</ele>
        <time>2012-05-03T12:44:14Z</time>
      </trkpt>
      <trkpt lat="46.061610700562596" lon="9.212249787524343">
        <ele>1627.1700000000001</ele>
        <time>2012-05-03T12:44:25Z</time>
      </trkpt>
      <trkpt lat="46.061572059988976" lon="9.212189940735698">
        <ele>1624.77</ele>
        <time>2012-05-03T12:44:36Z</time>
      </trkpt>
      <trkpt lat="46.061564264819026" lon="9.212228832766414">
        <ele>1621.4000000000001</ele>
        <time>2012-05-03T12:44:48Z</time>
      </trkpt>
      <trkpt lat="46.061531826853752" lon="9.21230535954237">
        <ele>1619</ele>
        <time>2012-05-03T12:44:58Z</time>
      </trkpt>
      <trkpt lat="46.061526462435722" lon="9.212300246581435">
        <ele>1618.04</ele>
        <time>2012-05-03T12:45:00Z</time>
      </trkpt>
      <trkpt lat="46.061491509899497" lon="9.212348526343703">
        <ele>1616.1099999999999</ele>
        <time>2012-05-03T12:45:09Z</time>
      </trkpt>
      <trkpt lat="46.061478434130549" lon="9.212344754487276">
        <ele>1615.1500000000001</ele>
        <time>2012-05-03T12:45:12Z</time>
      </trkpt>
      <trkpt lat="46.061477763578296" lon="9.21247685328126">
        <ele>1611.79</ele>
        <time>2012-05-03T12:45:22Z</time>
      </trkpt>
      <trkpt lat="46.061446918174624" lon="9.212460592389107">
        <ele>1610.8299999999999</ele>
        <time>2012-05-03T12:45:26Z</time>
      </trkpt>
      <trkpt lat="46.061424119397998" lon="9.212437039241195">
        <ele>1609.8599999999999</ele>
        <time>2012-05-03T12:45:29Z</time>
      </trkpt>
      <trkpt lat="46.061386317014694" lon="9.212393034249544">
        <ele>1608.4200000000001</ele>
        <time>2012-05-03T12:45:33Z</time>
      </trkpt>
      <trkpt lat="46.061366200447083" lon="9.212348526343703">
        <ele>1607.46</ele>
        <time>2012-05-03T12:45:47Z</time>
      </trkpt>
      <trkpt lat="46.061338288709521" lon="9.212355818599463">
        <ele>1606.5</ele>
        <time>2012-05-03T12:45:58Z</time>
      </trkpt>
      <trkpt lat="46.061357483267784" lon="9.212462520226836">
        <ele>1603.1400000000001</ele>
        <time>2012-05-03T12:46:09Z</time>
      </trkpt>
      <trkpt lat="46.061354214325547" lon="9.212480457499623">
        <ele>1603.1400000000001</ele>
        <time>2012-05-03T12:46:11Z</time>
      </trkpt>
      <trkpt lat="46.061341557651758" lon="9.212499484419823">
        <ele>1602.1700000000001</ele>
        <time>2012-05-03T12:46:14Z</time>
      </trkpt>
      <trkpt lat="46.061326134949923" lon="9.212569557130337">
        <ele>1599.29</ele>
        <time>2012-05-03T12:46:25Z</time>
      </trkpt>
      <trkpt lat="46.061324290931225" lon="9.212571317330003">
        <ele>1598.8099999999999</ele>
        <time>2012-05-03T12:46:26Z</time>
      </trkpt>
      <trkpt lat="46.061308616772294" lon="9.212610544636846">
        <ele>1596.8900000000001</ele>
        <time>2012-05-03T12:46:34Z</time>
      </trkpt>
      <trkpt lat="46.061315825209022" lon="9.212668798863888">
        <ele>1594.96</ele>
        <time>2012-05-03T12:46:41Z</time>
      </trkpt>
      <trkpt lat="46.061304593458772" lon="9.212682126089931">
        <ele>1594</ele>
        <time>2012-05-03T12:46:53Z</time>
      </trkpt>
      <trkpt lat="46.061303922906518" lon="9.212681706994772">
        <ele>1593.52</ele>
        <time>2012-05-03T12:46:54Z</time>
      </trkpt>
      <trkpt lat="46.061295457184315" lon="9.212703164666891">
        <ele>1593.52</ele>
        <time>2012-05-03T12:46:58Z</time>
      </trkpt>
      <trkpt lat="46.061274334788322" lon="9.212745660915971">
        <ele>1591.1199999999999</ele>
        <time>2012-05-03T12:47:09Z</time>
      </trkpt>
      <trkpt lat="46.061233514919877" lon="9.212782122194767">
        <ele>1588.72</ele>
        <time>2012-05-03T12:47:19Z</time>
      </trkpt>
      <trkpt lat="46.061234772205353" lon="9.212785726413131">
        <ele>1588.24</ele>
        <time>2012-05-03T12:47:20Z</time>
      </trkpt>
      <trkpt lat="46.061225300654769" lon="9.212785642594099">
        <ele>1588.72</ele>
        <time>2012-05-03T12:47:22Z</time>
      </trkpt>
      <trkpt lat="46.061177188530564" lon="9.212822606787086">
        <ele>1586.79</ele>
        <time>2012-05-03T12:47:33Z</time>
      </trkpt>
      <trkpt lat="46.0611632745713" lon="9.212840460240841">
        <ele>1585.3499999999999</ele>
        <time>2012-05-03T12:47:44Z</time>
      </trkpt>
      <trkpt lat="46.061150617897511" lon="9.212852949276567">
        <ele>1584.8699999999999</ele>
        <time>2012-05-03T12:47:46Z</time>
      </trkpt>
      <trkpt lat="46.061143493279815" lon="9.212895948439837">
        <ele>1581.99</ele>
        <time>2012-05-03T12:47:57Z</time>
      </trkpt>
      <trkpt lat="46.061096386983991" lon="9.212946323677898">
        <ele>1579.0999999999999</ele>
        <time>2012-05-03T12:48:09Z</time>
      </trkpt>
      <trkpt lat="46.061082640662789" lon="9.212936433032155">
        <ele>1577.6600000000001</ele>
        <time>2012-05-03T12:48:17Z</time>
      </trkpt>
      <trkpt lat="46.061081299558282" lon="9.212936349213123">
        <ele>1577.1800000000001</ele>
        <time>2012-05-03T12:48:18Z</time>
      </trkpt>
      <trkpt lat="46.061045257374644" lon="9.212992256507278">
        <ele>1575.26</ele>
        <time>2012-05-03T12:48:22Z</time>
      </trkpt>
      <trkpt lat="46.060993289574981" lon="9.213039614260197">
        <ele>1574.3</ele>
        <time>2012-05-03T12:48:26Z</time>
      </trkpt>
      <trkpt lat="46.060910224914551" lon="9.213112955912948">
        <ele>1572.3699999999999</ele>
        <time>2012-05-03T12:48:36Z</time>
      </trkpt>
      <trkpt lat="46.060866471379995" lon="9.213161738589406">
        <ele>1570.45</ele>
        <time>2012-05-03T12:48:46Z</time>
      </trkpt>
      <trkpt lat="46.060843504965305" lon="9.213185962289572">
        <ele>1568.05</ele>
        <time>2012-05-03T12:48:58Z</time>
      </trkpt>
      <trkpt lat="46.060832105576992" lon="9.213214879855514">
        <ele>1567.5699999999999</ele>
        <time>2012-05-03T12:49:01Z</time>
      </trkpt>
      <trkpt lat="46.060776868835092" lon="9.213264752179384">
        <ele>1564.6800000000001</ele>
        <time>2012-05-03T12:49:12Z</time>
      </trkpt>
      <trkpt lat="46.06076211668551" lon="9.213311355561018">
        <ele>1562.76</ele>
        <time>2012-05-03T12:49:21Z</time>
      </trkpt>
      <trkpt lat="46.060745101422071" lon="9.213314289227128">
        <ele>1560.8399999999999</ele>
        <time>2012-05-03T12:49:30Z</time>
      </trkpt>
      <trkpt lat="46.06073479168117" lon="9.213382434099913">
        <ele>1558.4300000000001</ele>
        <time>2012-05-03T12:49:41Z</time>
      </trkpt>
      <trkpt lat="46.060733115300536" lon="9.213403640314937">
        <ele>1557.47</ele>
        <time>2012-05-03T12:49:43Z</time>
      </trkpt>
      <trkpt lat="46.060713417828083" lon="9.213451417163014">
        <ele>1556.03</ele>
        <time>2012-05-03T12:49:48Z</time>
      </trkpt>
      <trkpt lat="46.060664718970656" lon="9.213538253679872">
        <ele>1553.1500000000001</ele>
        <time>2012-05-03T12:49:58Z</time>
      </trkpt>
      <trkpt lat="46.060644015669823" lon="9.213593490421772">
        <ele>1551.22</ele>
        <time>2012-05-03T12:50:03Z</time>
      </trkpt>
      <trkpt lat="46.060623731464148" lon="9.213649900630117">
        <ele>1550.74</ele>
        <time>2012-05-03T12:50:07Z</time>
      </trkpt>
      <trkpt lat="46.06058182194829" lon="9.213684182614088">
        <ele>1549.78</ele>
        <time>2012-05-03T12:50:11Z</time>
      </trkpt>
      <trkpt lat="46.060576289892197" lon="9.213689211755991">
        <ele>1548.8199999999999</ele>
        <time>2012-05-03T12:50:16Z</time>
      </trkpt>
      <trkpt lat="46.060570422559977" lon="9.21369549818337">
        <ele>1548.3399999999999</ele>
        <time>2012-05-03T12:50:18Z</time>
      </trkpt>
      <trkpt lat="46.060568578541279" lon="9.213715698570013">
        <ele>1547.8599999999999</ele>
        <time>2012-05-03T12:50:20Z</time>
      </trkpt>
      <trkpt lat="46.0605881921947" lon="9.213744113221765">
        <ele>1545.9400000000001</ele>
        <time>2012-05-03T12:50:30Z</time>
      </trkpt>
      <trkpt lat="46.060577379539609" lon="9.213752830401063">
        <ele>1543.53</ele>
        <time>2012-05-03T12:50:40Z</time>
      </trkpt>
      <trkpt lat="46.06057109311223" lon="9.213760541751981">
        <ele>1542.5699999999999</ele>
        <time>2012-05-03T12:50:42Z</time>
      </trkpt>
      <trkpt lat="46.060574529692531" lon="9.213842181488872">
        <ele>1541.1300000000001</ele>
        <time>2012-05-03T12:50:50Z</time>
      </trkpt>
      <trkpt lat="46.060564974322915" lon="9.213852323591709">
        <ele>1540.6500000000001</ele>
        <time>2012-05-03T12:50:52Z</time>
      </trkpt>
      <trkpt lat="46.06052809394896" lon="9.213907727971673">
        <ele>1537.77</ele>
        <time>2012-05-03T12:50:59Z</time>
      </trkpt>
      <trkpt lat="46.06047285720706" lon="9.213971849530935">
        <ele>1536.3199999999999</ele>
        <time>2012-05-03T12:51:06Z</time>
      </trkpt>
      <trkpt lat="46.060374034568667" lon="9.213973022997379">
        <ele>1534.4000000000001</ele>
        <time>2012-05-03T12:51:13Z</time>
      </trkpt>
      <trkpt lat="46.060332879424095" lon="9.214060446247459">
        <ele>1532.96</ele>
        <time>2012-05-03T12:51:23Z</time>
      </trkpt>
      <trkpt lat="46.060308488085866" lon="9.214095817878842">
        <ele>1532</ele>
        <time>2012-05-03T12:51:34Z</time>
      </trkpt>
      <trkpt lat="46.060296837240458" lon="9.214124651625752">
        <ele>1529.5899999999999</ele>
        <time>2012-05-03T12:51:44Z</time>
      </trkpt>
      <trkpt lat="46.06029449030757" lon="9.214138314127922">
        <ele>1528.6300000000001</ele>
        <time>2012-05-03T12:51:51Z</time>
      </trkpt>
      <trkpt lat="46.060272194445133" lon="9.214187767356634">
        <ele>1527.1900000000001</ele>
        <time>2012-05-03T12:51:55Z</time>
      </trkpt>
      <trkpt lat="46.060244366526604" lon="9.214225569739938">
        <ele>1526.23</ele>
        <time>2012-05-03T12:51:58Z</time>
      </trkpt>
      <trkpt lat="46.060232631862164" lon="9.214255996048451">
        <ele>1526.71</ele>
        <time>2012-05-03T12:52:07Z</time>
      </trkpt>
      <trkpt lat="46.060202037915587" lon="9.214293798431754">
        <ele>1526.23</ele>
        <time>2012-05-03T12:52:20Z</time>
      </trkpt>
      <trkpt lat="46.06017186306417" lon="9.214322799816728">
        <ele>1524.3099999999999</ele>
        <time>2012-05-03T12:52:31Z</time>
      </trkpt>
      <trkpt lat="46.060156524181366" lon="9.214372672140598">
        <ele>1522.8699999999999</ele>
        <time>2012-05-03T12:52:42Z</time>
      </trkpt>
      <trkpt lat="46.060111429542303" lon="9.21438449062407">
        <ele>1521.4200000000001</ele>
        <time>2012-05-03T12:52:52Z</time>
      </trkpt>
      <trkpt lat="46.060064993798733" lon="9.21437862329185">
        <ele>1519.02</ele>
        <time>2012-05-03T12:53:03Z</time>
      </trkpt>
      <trkpt lat="46.060036830604076" lon="9.214346436783671">
        <ele>1517.0999999999999</ele>
        <time>2012-05-03T12:53:15Z</time>
      </trkpt>
      <trkpt lat="46.060020066797733" lon="9.214352639392018">
        <ele>1515.6600000000001</ele>
        <time>2012-05-03T12:53:26Z</time>
      </trkpt>
      <trkpt lat="46.060004308819771" lon="9.214365547522903">
        <ele>1515.6600000000001</ele>
        <time>2012-05-03T12:53:42Z</time>
      </trkpt>
      <trkpt lat="46.060014702379704" lon="9.214399494230747">
        <ele>1513.73</ele>
        <time>2012-05-03T12:53:52Z</time>
      </trkpt>
      <trkpt lat="46.060000956058502" lon="9.214450707659125">
        <ele>1511.3299999999999</ele>
        <time>2012-05-03T12:54:01Z</time>
      </trkpt>
      <trkpt lat="46.059968015179038" lon="9.21458775177598">
        <ele>1509.4100000000001</ele>
        <time>2012-05-03T12:54:15Z</time>
      </trkpt>
      <trkpt lat="46.059964578598738" lon="9.214613903313875">
        <ele>1507.48</ele>
        <time>2012-05-03T12:54:25Z</time>
      </trkpt>
      <trkpt lat="46.059958292171359" lon="9.214618010446429">
        <ele>1507.48</ele>
        <time>2012-05-03T12:54:26Z</time>
      </trkpt>
      <trkpt lat="46.05991437099874" lon="9.214630080386996">
        <ele>1505.5599999999999</ele>
        <time>2012-05-03T12:54:38Z</time>
      </trkpt>
      <trkpt lat="46.059914538636804" lon="9.214706355705857">
        <ele>1503.6400000000001</ele>
        <time>2012-05-03T12:54:46Z</time>
      </trkpt>
      <trkpt lat="46.059924345463514" lon="9.214784055948257">
        <ele>1502.2</ele>
        <time>2012-05-03T12:54:51Z</time>
      </trkpt>
      <trkpt lat="46.059914622455835" lon="9.214863432571292">
        <ele>1500.27</ele>
        <time>2012-05-03T12:54:56Z</time>
      </trkpt>
      <trkpt lat="46.059895008802414" lon="9.214894864708185">
        <ele>1499.3099999999999</ele>
        <time>2012-05-03T12:55:07Z</time>
      </trkpt>
      <trkpt lat="46.059872545301914" lon="9.214904922991991">
        <ele>1497.8699999999999</ele>
        <time>2012-05-03T12:55:17Z</time>
      </trkpt>
      <trkpt lat="46.059865336865187" lon="9.214914562180638">
        <ele>1496.4300000000001</ele>
        <time>2012-05-03T12:55:21Z</time>
      </trkpt>
      <trkpt lat="46.059794258326292" lon="9.215030232444406">
        <ele>1494.51</ele>
        <time>2012-05-03T12:55:33Z</time>
      </trkpt>
      <trkpt lat="46.059762742370367" lon="9.215031573548913">
        <ele>1493.0599999999999</ele>
        <time>2012-05-03T12:55:42Z</time>
      </trkpt>
      <trkpt lat="46.059741452336311" lon="9.215066777542234">
        <ele>1490.6600000000001</ele>
        <time>2012-05-03T12:55:53Z</time>
      </trkpt>
      <trkpt lat="46.059748828411102" lon="9.215091587975621">
        <ele>1489.7</ele>
        <time>2012-05-03T12:56:03Z</time>
      </trkpt>
      <trkpt lat="46.059730807319283" lon="9.215084463357925">
        <ele>1489.22</ele>
        <time>2012-05-03T12:56:06Z</time>
      </trkpt>
      <trkpt lat="46.059693759307265" lon="9.215091252699494">
        <ele>1486.8199999999999</ele>
        <time>2012-05-03T12:56:18Z</time>
      </trkpt>
      <trkpt lat="46.059697195887566" lon="9.215094689279795">
        <ele>1486.3399999999999</ele>
        <time>2012-05-03T12:56:30Z</time>
      </trkpt>
      <trkpt lat="46.059713792055845" lon="9.215119248256087">
        <ele>1485.3699999999999</ele>
        <time>2012-05-03T12:56:38Z</time>
      </trkpt>
      <trkpt lat="46.059725861996412" lon="9.215131821110845">
        <ele>1484.8900000000001</ele>
        <time>2012-05-03T12:56:40Z</time>
      </trkpt>
      <trkpt lat="46.059761485084891" lon="9.215168030932546">
        <ele>1483.45</ele>
        <time>2012-05-03T12:56:46Z</time>
      </trkpt>
      <trkpt lat="46.059771794825792" lon="9.215224692597985">
        <ele>1482.01</ele>
        <time>2012-05-03T12:56:59Z</time>
      </trkpt>
      <trkpt lat="46.059788726270199" lon="9.215255035087466">
        <ele>1480.5699999999999</ele>
        <time>2012-05-03T12:57:10Z</time>
      </trkpt>
      <trkpt lat="46.059817057102919" lon="9.21530406922102">
        <ele>1479.6099999999999</ele>
        <time>2012-05-03T12:57:23Z</time>
      </trkpt>
      <trkpt lat="46.059823594987392" lon="9.215329047292471">
        <ele>1479.1300000000001</ele>
        <time>2012-05-03T12:57:25Z</time>
      </trkpt>
      <trkpt lat="46.059839520603418" lon="9.215382691472769">
        <ele>1477.6800000000001</ele>
        <time>2012-05-03T12:57:29Z</time>
      </trkpt>
      <trkpt lat="46.059853015467525" lon="9.215417141094804">
        <ele>1476.72</ele>
        <time>2012-05-03T12:57:32Z</time>
      </trkpt>
      <trkpt lat="46.05984253808856" lon="9.215465420857072">
        <ele>1475.28</ele>
        <time>2012-05-03T12:57:35Z</time>
      </trkpt>
      <trkpt lat="46.059842454269528" lon="9.215520322322846">
        <ele>1473.3599999999999</ele>
        <time>2012-05-03T12:57:42Z</time>
      </trkpt>
      <trkpt lat="46.059846142306924" lon="9.21558452770114">
        <ele>1471.9200000000001</ele>
        <time>2012-05-03T12:57:54Z</time>
      </trkpt>
      <trkpt lat="46.059840610250831" lon="9.215619564056397">
        <ele>1470.47</ele>
        <time>2012-05-03T12:58:04Z</time>
      </trkpt>
      <trkpt lat="46.059814793989062" lon="9.21561487019062">
        <ele>1468.0699999999999</ele>
        <time>2012-05-03T12:58:14Z</time>
      </trkpt>
      <trkpt lat="46.059784619137645" lon="9.215590311214328">
        <ele>1466.1500000000001</ele>
        <time>2012-05-03T12:58:24Z</time>
      </trkpt>
      <trkpt lat="46.059787720441818" lon="9.215601794421673">
        <ele>1465.6700000000001</ele>
        <time>2012-05-03T12:58:26Z</time>
      </trkpt>
      <trkpt lat="46.059779422357678" lon="9.215642949566245">
        <ele>1464.23</ele>
        <time>2012-05-03T12:58:29Z</time>
      </trkpt>
      <trkpt lat="46.0597765725106" lon="9.215686284005642">
        <ele>1462.3</ele>
        <time>2012-05-03T12:58:39Z</time>
      </trkpt>
      <trkpt lat="46.059845052659512" lon="9.21573942527175">
        <ele>1458.9400000000001</ele>
        <time>2012-05-03T12:58:52Z</time>
      </trkpt>
      <trkpt lat="46.059900624677539" lon="9.215770857408643">
        <ele>1456.05</ele>
        <time>2012-05-03T12:59:03Z</time>
      </trkpt>
      <trkpt lat="46.059925518929958" lon="9.215785022825003">
        <ele>1454.6099999999999</ele>
        <time>2012-05-03T12:59:07Z</time>
      </trkpt>
      <trkpt lat="46.059978576377034" lon="9.215874541550875">
        <ele>1453.1700000000001</ele>
        <time>2012-05-03T12:59:17Z</time>
      </trkpt>
      <trkpt lat="46.059988215565681" lon="9.215883426368237">
        <ele>1453.1700000000001</ele>
        <time>2012-05-03T12:59:26Z</time>
      </trkpt>
      <trkpt lat="46.06001109816134" lon="9.215896250680089">
        <ele>1452.6900000000001</ele>
        <time>2012-05-03T12:59:30Z</time>
      </trkpt>
      <trkpt lat="46.060051582753658" lon="9.215913014486432">
        <ele>1452.21</ele>
        <time>2012-05-03T12:59:35Z</time>
      </trkpt>
      <trkpt lat="46.060070944949985" lon="9.215901782736182">
        <ele>1452.21</ele>
        <time>2012-05-03T12:59:38Z</time>
      </trkpt>
      <trkpt lat="46.060103634372354" lon="9.215898597612977">
        <ele>1451.25</ele>
        <time>2012-05-03T12:59:41Z</time>
      </trkpt>
      <trkpt lat="46.06012349948287" lon="9.215921312570572">
        <ele>1450.29</ele>
        <time>2012-05-03T12:59:46Z</time>
      </trkpt>
      <trkpt lat="46.060126684606075" lon="9.215979482978582">
        <ele>1449.8099999999999</ele>
        <time>2012-05-03T12:59:50Z</time>
      </trkpt>
      <trkpt lat="46.06012693606317" lon="9.216022063046694">
        <ele>1449.3199999999999</ele>
        <time>2012-05-03T13:00:02Z</time>
      </trkpt>
      <trkpt lat="46.060130456462502" lon="9.216027427464724">
        <ele>1449.3199999999999</ele>
        <time>2012-05-03T13:00:09Z</time>
      </trkpt>
      <trkpt lat="46.060121236369014" lon="9.216067744418979">
        <ele>1448.3599999999999</ele>
        <time>2012-05-03T13:00:13Z</time>
      </trkpt>
      <trkpt lat="46.060110926628113" lon="9.216099763289094">
        <ele>1448.3599999999999</ele>
        <time>2012-05-03T13:00:15Z</time>
      </trkpt>
      <trkpt lat="46.060099024325609" lon="9.216289948672056">
        <ele>1446.4400000000001</ele>
        <time>2012-05-03T13:00:28Z</time>
      </trkpt>
      <trkpt lat="46.060126852244139" lon="9.216388016939163">
        <ele>1445</ele>
        <time>2012-05-03T13:00:37Z</time>
      </trkpt>
      <trkpt lat="46.0602100007236" lon="9.216558169573546">
        <ele>1442.1099999999999</ele>
        <time>2012-05-03T13:00:47Z</time>
      </trkpt>
      <trkpt lat="46.060247886925936" lon="9.21665464527905">
        <ele>1440.1900000000001</ele>
        <time>2012-05-03T13:00:54Z</time>
      </trkpt>
      <trkpt lat="46.060248641297221" lon="9.21671818010509">
        <ele>1440.1900000000001</ele>
        <time>2012-05-03T13:01:10Z</time>
      </trkpt>
      <trkpt lat="46.060256268829107" lon="9.216751372441649">
        <ele>1440.1900000000001</ele>
        <time>2012-05-03T13:01:15Z</time>
      </trkpt>
      <trkpt lat="46.060282085090876" lon="9.216805100440979">
        <ele>1438.75</ele>
        <time>2012-05-03T13:01:20Z</time>
      </trkpt>
      <trkpt lat="46.060376297682524" lon="9.216909287497401">
        <ele>1436.8299999999999</ele>
        <time>2012-05-03T13:01:32Z</time>
      </trkpt>
      <trkpt lat="46.060451986268163" lon="9.216993944719434">
        <ele>1436.3499999999999</ele>
        <time>2012-05-03T13:01:43Z</time>
      </trkpt>
      <trkpt lat="46.060499595478177" lon="9.217011379078031">
        <ele>1433.46</ele>
        <time>2012-05-03T13:01:53Z</time>
      </trkpt>
      <trkpt lat="46.060508480295539" lon="9.217080613598228">
        <ele>1432.02</ele>
        <time>2012-05-03T13:01:59Z</time>
      </trkpt>
      <trkpt lat="46.060520047321916" lon="9.217156386002898">
        <ele>1429.6199999999999</ele>
        <time>2012-05-03T13:02:06Z</time>
      </trkpt>
      <trkpt lat="46.060530692338943" lon="9.217204498127103">
        <ele>1428.6600000000001</ele>
        <time>2012-05-03T13:02:09Z</time>
      </trkpt>
      <trkpt lat="46.060529854148626" lon="9.217255711555481">
        <ele>1427.7</ele>
        <time>2012-05-03T13:02:13Z</time>
      </trkpt>
      <trkpt lat="46.060555251315236" lon="9.217298375442624">
        <ele>1426.73</ele>
        <time>2012-05-03T13:02:18Z</time>
      </trkpt>
      <trkpt lat="46.060627419501543" lon="9.217381356284022">
        <ele>1423.3699999999999</ele>
        <time>2012-05-03T13:02:29Z</time>
      </trkpt>
      <trkpt lat="46.060640579089522" lon="9.217404909431934">
        <ele>1421.9300000000001</ele>
        <time>2012-05-03T13:02:34Z</time>
      </trkpt>
      <trkpt lat="46.060631275177002" lon="9.217408765107393">
        <ele>1418.5599999999999</ele>
        <time>2012-05-03T13:02:44Z</time>
      </trkpt>
      <trkpt lat="46.060622557997704" lon="9.217515718191862">
        <ele>1415.6800000000001</ele>
        <time>2012-05-03T13:02:54Z</time>
      </trkpt>
      <trkpt lat="46.060634041205049" lon="9.217548323795199">
        <ele>1415.2</ele>
        <time>2012-05-03T13:02:57Z</time>
      </trkpt>
      <trkpt lat="46.060632113367319" lon="9.217596016824246">
        <ele>1414.24</ele>
        <time>2012-05-03T13:03:01Z</time>
      </trkpt>
      <trkpt lat="46.060595819726586" lon="9.217689307406545">
        <ele>1411.3499999999999</ele>
        <time>2012-05-03T13:03:07Z</time>
      </trkpt>
      <trkpt lat="46.060624485835433" lon="9.21776139177382">
        <ele>1409.9100000000001</ele>
        <time>2012-05-03T13:03:13Z</time>
      </trkpt>
      <trkpt lat="46.060649799183011" lon="9.217771450057626">
        <ele>1409.4300000000001</ele>
        <time>2012-05-03T13:03:16Z</time>
      </trkpt>
      <trkpt lat="46.060665808618069" lon="9.217866249382496">
        <ele>1407.51</ele>
        <time>2012-05-03T13:03:21Z</time>
      </trkpt>
      <trkpt lat="46.060658264905214" lon="9.217973789200187">
        <ele>1404.6199999999999</ele>
        <time>2012-05-03T13:03:31Z</time>
      </trkpt>
      <trkpt lat="46.060649799183011" lon="9.217998767271638">
        <ele>1403.6600000000001</ele>
        <time>2012-05-03T13:03:33Z</time>
      </trkpt>
      <trkpt lat="46.060625743120909" lon="9.218073030933738">
        <ele>1401.74</ele>
        <time>2012-05-03T13:03:39Z</time>
      </trkpt>
      <trkpt lat="46.060622222721577" lon="9.218105217441917">
        <ele>1400.78</ele>
        <time>2012-05-03T13:03:42Z</time>
      </trkpt>
      <trkpt lat="46.06059012003243" lon="9.218145785853267">
        <ele>1399.3399999999999</ele>
        <time>2012-05-03T13:03:46Z</time>
      </trkpt>
      <trkpt lat="46.060580061748624" lon="9.218152575194836">
        <ele>1399.3399999999999</ele>
        <time>2012-05-03T13:03:48Z</time>
      </trkpt>
      <trkpt lat="46.060546869412065" lon="9.218176882714033">
        <ele>1396.9300000000001</ele>
        <time>2012-05-03T13:03:55Z</time>
      </trkpt>
      <trkpt lat="46.060512755066156" lon="9.2182597797364">
        <ele>1395.49</ele>
        <time>2012-05-03T13:04:08Z</time>
      </trkpt>
      <trkpt lat="46.060499846935272" lon="9.218287691473961">
        <ele>1394.53</ele>
        <time>2012-05-03T13:04:11Z</time>
      </trkpt>
      <trkpt lat="46.060479059815407" lon="9.218293642625213">
        <ele>1394.05</ele>
        <time>2012-05-03T13:04:14Z</time>
      </trkpt>
      <trkpt lat="46.060431282967329" lon="9.218298085033894">
        <ele>1392.1300000000001</ele>
        <time>2012-05-03T13:04:23Z</time>
      </trkpt>
      <trkpt lat="46.060409490019083" lon="9.218373103067279">
        <ele>1389.24</ele>
        <time>2012-05-03T13:04:33Z</time>
      </trkpt>
      <trkpt lat="46.060405634343624" lon="9.218432195484638">
        <ele>1387.3199999999999</ele>
        <time>2012-05-03T13:04:40Z</time>
      </trkpt>
      <trkpt lat="46.060412423685193" lon="9.218452982604504">
        <ele>1386.8399999999999</ele>
        <time>2012-05-03T13:04:42Z</time>
      </trkpt>
      <trkpt lat="46.060388619080186" lon="9.218494640663266">
        <ele>1385.4000000000001</ele>
        <time>2012-05-03T13:04:51Z</time>
      </trkpt>
      <trkpt lat="46.060415524989367" lon="9.218584913760424">
        <ele>1382.51</ele>
        <time>2012-05-03T13:05:04Z</time>
      </trkpt>
      <trkpt lat="46.060432540252805" lon="9.218619363382459">
        <ele>1380.5899999999999</ele>
        <time>2012-05-03T13:05:10Z</time>
      </trkpt>
      <trkpt lat="46.060474030673504" lon="9.218644509091973">
        <ele>1379.6300000000001</ele>
        <time>2012-05-03T13:05:16Z</time>
      </trkpt>
      <trkpt lat="46.060449974611402" lon="9.218716342002153">
        <ele>1378.1900000000001</ele>
        <time>2012-05-03T13:05:22Z</time>
      </trkpt>
      <trkpt lat="46.060425164178014" lon="9.218774428591132">
        <ele>1376.75</ele>
        <time>2012-05-03T13:05:31Z</time>
      </trkpt>
      <trkpt lat="46.060420051217079" lon="9.218769986182451">
        <ele>1375.78</ele>
        <time>2012-05-03T13:05:39Z</time>
      </trkpt>
      <trkpt lat="46.060422565788031" lon="9.218786163255572">
        <ele>1375.78</ele>
        <time>2012-05-03T13:05:52Z</time>
      </trkpt>
      <trkpt lat="46.060416698455811" lon="9.218794545158744">
        <ele>1375.78</ele>
        <time>2012-05-03T13:06:22Z</time>
      </trkpt>
      <trkpt lat="46.060423655435443" lon="9.218797814100981">
        <ele>1375.3</ele>
        <time>2012-05-03T13:06:54Z</time>
      </trkpt>
      <trkpt lat="46.060423487797379" lon="9.218797227367759">
        <ele>1375.78</ele>
        <time>2012-05-03T13:06:57Z</time>
      </trkpt>
      <trkpt lat="46.060434635728598" lon="9.218796221539378">
        <ele>1375.78</ele>
        <time>2012-05-03T13:07:12Z</time>
      </trkpt>
      <trkpt lat="46.060435893014073" lon="9.218798484653235">
        <ele>1375.3</ele>
        <time>2012-05-03T13:07:40Z</time>
      </trkpt>
      <trkpt lat="46.060428265482187" lon="9.218813320621848">
        <ele>1375.78</ele>
        <time>2012-05-03T13:08:13Z</time>
      </trkpt>
      <trkpt lat="46.060422901064157" lon="9.218807285651565">
        <ele>1375.3</ele>
        <time>2012-05-03T13:08:48Z</time>
      </trkpt>
      <trkpt lat="46.060425247997046" lon="9.218801250681281">
        <ele>1375.3</ele>
        <time>2012-05-03T13:09:26Z</time>
      </trkpt>
      <trkpt lat="46.060431618243456" lon="9.218787923455238">
        <ele>1374.8199999999999</ele>
        <time>2012-05-03T13:10:02Z</time>
      </trkpt>
      <trkpt lat="46.060431618243456" lon="9.218791024759412">
        <ele>1374.8199999999999</ele>
        <time>2012-05-03T13:10:38Z</time>
      </trkpt>
      <trkpt lat="46.060433378443122" lon="9.218795886263251">
        <ele>1374.3399999999999</ele>
        <time>2012-05-03T13:11:18Z</time>
      </trkpt>
      <trkpt lat="46.0604293551296" lon="9.218803429976106">
        <ele>1373.8599999999999</ele>
        <time>2012-05-03T13:11:53Z</time>
      </trkpt>
      <trkpt lat="46.060425583273172" lon="9.218817008659244">
        <ele>1373.8599999999999</ele>
        <time>2012-05-03T13:12:27Z</time>
      </trkpt>
      <trkpt lat="46.060421643778682" lon="9.218820277601481">
        <ele>1373.8599999999999</ele>
        <time>2012-05-03T13:13:03Z</time>
      </trkpt>
      <trkpt lat="46.060424577444792" lon="9.218819187954068">
        <ele>1373.8599999999999</ele>
        <time>2012-05-03T13:13:37Z</time>
      </trkpt>
      <trkpt lat="46.060431282967329" lon="9.218819690868259">
        <ele>1373.3800000000001</ele>
        <time>2012-05-03T13:14:12Z</time>
      </trkpt>
      <trkpt lat="46.060437653213739" lon="9.218821115791798">
        <ele>1373.8599999999999</ele>
        <time>2012-05-03T13:14:41Z</time>
      </trkpt>
      <trkpt lat="46.06044108979404" lon="9.218820529058576">
        <ele>1373.3800000000001</ele>
        <time>2012-05-03T13:15:12Z</time>
      </trkpt>
      <trkpt lat="46.060440419241786" lon="9.218822121620178">
        <ele>1373.3800000000001</ele>
        <time>2012-05-03T13:15:41Z</time>
      </trkpt>
      <trkpt lat="46.060440251603723" lon="9.218820026144385">
        <ele>1372.9000000000001</ele>
        <time>2012-05-03T13:16:07Z</time>
      </trkpt>
      <trkpt lat="46.060435557737947" lon="9.218817595392466">
        <ele>1373.8599999999999</ele>
        <time>2012-05-03T13:16:37Z</time>
      </trkpt>
      <trkpt lat="46.06043036095798" lon="9.218815499916673">
        <ele>1373.3800000000001</ele>
        <time>2012-05-03T13:17:08Z</time>
      </trkpt>
      <trkpt lat="46.060427175834775" lon="9.218799155205488">
        <ele>1373.3800000000001</ele>
        <time>2012-05-03T13:17:38Z</time>
      </trkpt>
      <trkpt lat="46.060425164178014" lon="9.218794964253902">
        <ele>1373.3800000000001</ele>
        <time>2012-05-03T13:18:12Z</time>
      </trkpt>
      <trkpt lat="46.060424242168665" lon="9.218792617321014">
        <ele>1373.3800000000001</ele>
        <time>2012-05-03T13:18:40Z</time>
      </trkpt>
      <trkpt lat="46.060420218855143" lon="9.218788761645556">
        <ele>1372.4200000000001</ele>
        <time>2012-05-03T13:19:08Z</time>
      </trkpt>
      <trkpt lat="46.060419045388699" lon="9.218783900141716">
        <ele>1373.3800000000001</ele>
        <time>2012-05-03T13:19:36Z</time>
      </trkpt>
      <trkpt lat="46.060424828901887" lon="9.218782307580113">
        <ele>1373.3800000000001</ele>
        <time>2012-05-03T13:20:06Z</time>
      </trkpt>
      <trkpt lat="46.060421643778682" lon="9.218791276216507">
        <ele>1372.9000000000001</ele>
        <time>2012-05-03T13:20:36Z</time>
      </trkpt>
      <trkpt lat="46.060419045388699" lon="9.218799071386457">
        <ele>1372.9000000000001</ele>
        <time>2012-05-03T13:21:04Z</time>
      </trkpt>
      <trkpt lat="46.060408903285861" lon="9.218760011717677">
        <ele>1373.8599999999999</ele>
        <time>2012-05-03T13:21:13Z</time>
      </trkpt>
      <trkpt lat="46.060452740639448" lon="9.218721203505993">
        <ele>1374.3399999999999</ele>
        <time>2012-05-03T13:21:19Z</time>
      </trkpt>
      <trkpt lat="46.06053002178669" lon="9.218654232099652">
        <ele>1375.3</ele>
        <time>2012-05-03T13:21:28Z</time>
      </trkpt>
      <trkpt lat="46.060589952394366" lon="9.21861500479281">
        <ele>1374.3399999999999</ele>
        <time>2012-05-03T13:21:33Z</time>
      </trkpt>
      <trkpt lat="46.060673519968987" lon="9.218575777485967">
        <ele>1378.1900000000001</ele>
        <time>2012-05-03T13:21:44Z</time>
      </trkpt>
      <trkpt lat="46.060781311243773" lon="9.218540405854583">
        <ele>1377.23</ele>
        <time>2012-05-03T13:21:56Z</time>
      </trkpt>
      <trkpt lat="46.060878708958626" lon="9.21848651021719">
        <ele>1378.1900000000001</ele>
        <time>2012-05-03T13:22:06Z</time>
      </trkpt>
      <trkpt lat="46.060978956520557" lon="9.218452228233218">
        <ele>1380.5899999999999</ele>
        <time>2012-05-03T13:22:18Z</time>
      </trkpt>
      <trkpt lat="46.061081467196345" lon="9.21848994679749">
        <ele>1381.55</ele>
        <time>2012-05-03T13:22:27Z</time>
      </trkpt>
      <trkpt lat="46.061251368373632" lon="9.218469159677625">
        <ele>1380.5899999999999</ele>
        <time>2012-05-03T13:22:41Z</time>
      </trkpt>
      <trkpt lat="46.061253799125552" lon="9.218471925705671">
        <ele>1380.1099999999999</ele>
        <time>2012-05-03T13:22:42Z</time>
      </trkpt>
      <trkpt lat="46.061330242082477" lon="9.21853831037879">
        <ele>1377.23</ele>
        <time>2012-05-03T13:22:54Z</time>
      </trkpt>
      <trkpt lat="46.061357147991657" lon="9.218590278178453">
        <ele>1373.8599999999999</ele>
        <time>2012-05-03T13:23:04Z</time>
      </trkpt>
      <trkpt lat="46.061423197388649" lon="9.218605281785131">
        <ele>1370.98</ele>
        <time>2012-05-03T13:23:15Z</time>
      </trkpt>
      <trkpt lat="46.061433758586645" lon="9.218605533242226">
        <ele>1370.02</ele>
        <time>2012-05-03T13:23:16Z</time>
      </trkpt>
      <trkpt lat="46.061494527384639" lon="9.218621626496315">
        <ele>1368.5699999999999</ele>
        <time>2012-05-03T13:23:26Z</time>
      </trkpt>
      <trkpt lat="46.061572227627039" lon="9.218687256798148">
        <ele>1366.1700000000001</ele>
        <time>2012-05-03T13:23:38Z</time>
      </trkpt>
      <trkpt lat="46.061556972563267" lon="9.218781469389796">
        <ele>1363.77</ele>
        <time>2012-05-03T13:23:46Z</time>
      </trkpt>
      <trkpt lat="46.061574323102832" lon="9.218949610367417">
        <ele>1359.9200000000001</ele>
        <time>2012-05-03T13:23:55Z</time>
      </trkpt>
      <trkpt lat="46.061582118272781" lon="9.219018258154392">
        <ele>1359.4400000000001</ele>
        <time>2012-05-03T13:23:59Z</time>
      </trkpt>
      <trkpt lat="46.061674738302827" lon="9.219194781035185">
        <ele>1356.0799999999999</ele>
        <time>2012-05-03T13:24:13Z</time>
      </trkpt>
      <trkpt lat="46.061682868748903" lon="9.219201318919659">
        <ele>1356.0799999999999</ele>
        <time>2012-05-03T13:24:14Z</time>
      </trkpt>
      <trkpt lat="46.061712205410004" lon="9.219377422705293">
        <ele>1354.1500000000001</ele>
        <time>2012-05-03T13:24:23Z</time>
      </trkpt>
      <trkpt lat="46.061712289229035" lon="9.219562076032162">
        <ele>1352.23</ele>
        <time>2012-05-03T13:24:32Z</time>
      </trkpt>
      <trkpt lat="46.061726370826364" lon="9.219624102115631">
        <ele>1352.23</ele>
        <time>2012-05-03T13:24:36Z</time>
      </trkpt>
      <trkpt lat="46.061802143231034" lon="9.219753853976727">
        <ele>1350.3099999999999</ele>
        <time>2012-05-03T13:24:45Z</time>
      </trkpt>
      <trkpt lat="46.061824690550566" lon="9.219823591411114">
        <ele>1349.3499999999999</ele>
        <time>2012-05-03T13:24:49Z</time>
      </trkpt>
      <trkpt lat="46.061844136565924" lon="9.219888132065535">
        <ele>1347.9100000000001</ele>
        <time>2012-05-03T13:24:54Z</time>
      </trkpt>
      <trkpt lat="46.061839777976274" lon="9.219972621649504">
        <ele>1345.5</ele>
        <time>2012-05-03T13:25:00Z</time>
      </trkpt>
      <trkpt lat="46.061856625601649" lon="9.220100864768028">
        <ele>1343.5799999999999</ele>
        <time>2012-05-03T13:25:14Z</time>
      </trkpt>
      <trkpt lat="46.061868444085121" lon="9.220204465091229">
        <ele>1341.6600000000001</ele>
        <time>2012-05-03T13:25:20Z</time>
      </trkpt>
      <trkpt lat="46.061895852908492" lon="9.220320722088218">
        <ele>1340.22</ele>
        <time>2012-05-03T13:25:27Z</time>
      </trkpt>
      <trkpt lat="46.061908844858408" lon="9.220463968813419">
        <ele>1338.77</ele>
        <time>2012-05-03T13:25:35Z</time>
      </trkpt>
      <trkpt lat="46.061946228146553" lon="9.220522977411747">
        <ele>1337.8099999999999</ele>
        <time>2012-05-03T13:25:40Z</time>
      </trkpt>
      <trkpt lat="46.062027616426349" lon="9.220558181405067">
        <ele>1334.9300000000001</ele>
        <time>2012-05-03T13:25:53Z</time>
      </trkpt>
      <trkpt lat="46.062140185385942" lon="9.220527252182365">
        <ele>1332.04</ele>
        <time>2012-05-03T13:26:04Z</time>
      </trkpt>
      <trkpt lat="46.062242612242699" lon="9.220485342666507">
        <ele>1330.5999999999999</ele>
        <time>2012-05-03T13:26:14Z</time>
      </trkpt>
      <trkpt lat="46.062286533415318" lon="9.220594558864832">
        <ele>1328.6800000000001</ele>
        <time>2012-05-03T13:26:23Z</time>
      </trkpt>
      <trkpt lat="46.06231402605772" lon="9.220647616311908">
        <ele>1328.2</ele>
        <time>2012-05-03T13:26:27Z</time>
      </trkpt>
      <trkpt lat="46.062369598075747" lon="9.22071123495698">
        <ele>1327.24</ele>
        <time>2012-05-03T13:26:33Z</time>
      </trkpt>
      <trkpt lat="46.06243128888309" lon="9.220775775611401">
        <ele>1326.76</ele>
        <time>2012-05-03T13:26:39Z</time>
      </trkpt>
      <trkpt lat="46.062507899478078" lon="9.220767728984356">
        <ele>1326.76</ele>
        <time>2012-05-03T13:26:48Z</time>
      </trkpt>
      <trkpt lat="46.062514185905457" lon="9.220869904384017">
        <ele>1325.8</ele>
        <time>2012-05-03T13:26:55Z</time>
      </trkpt>
      <trkpt lat="46.06251485645771" lon="9.22090376727283">
        <ele>1325.8</ele>
        <time>2012-05-03T13:26:57Z</time>
      </trkpt>
      <trkpt lat="46.062524160370231" lon="9.22092916443944">
        <ele>1325.3099999999999</ele>
        <time>2012-05-03T13:26:59Z</time>
      </trkpt>
      <trkpt lat="46.062511755153537" lon="9.220953388139606">
        <ele>1324.8299999999999</ele>
        <time>2012-05-03T13:27:01Z</time>
      </trkpt>
      <trkpt lat="46.062491554766893" lon="9.220991944894195">
        <ele>1324.8299999999999</ele>
        <time>2012-05-03T13:27:04Z</time>
      </trkpt>
      <trkpt lat="46.062474623322487" lon="9.221183639019728">
        <ele>1323.8699999999999</ele>
        <time>2012-05-03T13:27:15Z</time>
      </trkpt>
      <trkpt lat="46.062469175085425" lon="9.221295034512878">
        <ele>1322.9100000000001</ele>
        <time>2012-05-03T13:27:21Z</time>
      </trkpt>
      <trkpt lat="46.062460374087095" lon="9.221411207690835">
        <ele>1322.4300000000001</ele>
        <time>2012-05-03T13:27:27Z</time>
      </trkpt>
      <trkpt lat="46.062471941113472" lon="9.221493769437075">
        <ele>1321.95</ele>
        <time>2012-05-03T13:27:32Z</time>
      </trkpt>
      <trkpt lat="46.062479736283422" lon="9.221538109704852">
        <ele>1321.95</ele>
        <time>2012-05-03T13:27:35Z</time>
      </trkpt>
      <trkpt lat="46.062486357986927" lon="9.221683284267783">
        <ele>1320.99</ele>
        <time>2012-05-03T13:27:43Z</time>
      </trkpt>
      <trkpt lat="46.0624825861305" lon="9.221970029175282">
        <ele>1319.0699999999999</ele>
        <time>2012-05-03T13:27:58Z</time>
      </trkpt>
      <trkpt lat="46.062485687434673" lon="9.222013866528869">
        <ele>1319.0699999999999</ele>
        <time>2012-05-03T13:28:00Z</time>
      </trkpt>
      <trkpt lat="46.062500355765224" lon="9.222141522914171">
        <ele>1318.5899999999999</ele>
        <time>2012-05-03T13:28:08Z</time>
      </trkpt>
      <trkpt lat="46.06256322003901" lon="9.222327265888453">
        <ele>1318.0999999999999</ele>
        <time>2012-05-03T13:28:22Z</time>
      </trkpt>
      <trkpt lat="46.062583588063717" lon="9.222342185676098">
        <ele>1318.0999999999999</ele>
        <time>2012-05-03T13:28:26Z</time>
      </trkpt>
      <trkpt lat="46.062642177566886" lon="9.222404966130853">
        <ele>1319.0699999999999</ele>
        <time>2012-05-03T13:28:37Z</time>
      </trkpt>
      <trkpt lat="46.062640501186252" lon="9.222402619197965">
        <ele>1319.0699999999999</ele>
        <time>2012-05-03T13:28:39Z</time>
      </trkpt>
      <trkpt lat="46.062650643289089" lon="9.222433380782604">
        <ele>1319.0699999999999</ele>
        <time>2012-05-03T13:28:43Z</time>
      </trkpt>
      <trkpt lat="46.062727924436331" lon="9.222535723820329">
        <ele>1316.1800000000001</ele>
        <time>2012-05-03T13:28:52Z</time>
      </trkpt>
      <trkpt lat="46.062737144529819" lon="9.222607556730509">
        <ele>1316.1800000000001</ele>
        <time>2012-05-03T13:28:57Z</time>
      </trkpt>
      <trkpt lat="46.062706047669053" lon="9.222740493714809">
        <ele>1316.1800000000001</ele>
        <time>2012-05-03T13:29:06Z</time>
      </trkpt>
      <trkpt lat="46.062692468985915" lon="9.222801262512803">
        <ele>1316.6600000000001</ele>
        <time>2012-05-03T13:29:10Z</time>
      </trkpt>
      <trkpt lat="46.06268685311079" lon="9.222920536994934">
        <ele>1317.1400000000001</ele>
        <time>2012-05-03T13:29:18Z</time>
      </trkpt>
      <trkpt lat="46.062701353803277" lon="9.223030591383576">
        <ele>1318.0999999999999</ele>
        <time>2012-05-03T13:29:27Z</time>
      </trkpt>
      <trkpt lat="46.062699845060706" lon="9.223110470920801">
        <ele>1318.0999999999999</ele>
        <time>2012-05-03T13:29:32Z</time>
      </trkpt>
      <trkpt lat="46.062707053497434" lon="9.22322329133749">
        <ele>1319.55</ele>
        <time>2012-05-03T13:29:43Z</time>
      </trkpt>
      <trkpt lat="46.062707640230656" lon="9.223232427611947">
        <ele>1319.55</ele>
        <time>2012-05-03T13:29:44Z</time>
      </trkpt>
      <trkpt lat="46.062710573896766" lon="9.223385397344828">
        <ele>1318.0999999999999</ele>
        <time>2012-05-03T13:29:53Z</time>
      </trkpt>
      <trkpt lat="46.06267218478024" lon="9.223451362922788">
        <ele>1318.0999999999999</ele>
        <time>2012-05-03T13:29:58Z</time>
      </trkpt>
      <trkpt lat="46.062633208930492" lon="9.223483633249998">
        <ele>1317.6199999999999</ele>
        <time>2012-05-03T13:30:02Z</time>
      </trkpt>
      <trkpt lat="46.062604878097773" lon="9.223533840849996">
        <ele>1316.6600000000001</ele>
        <time>2012-05-03T13:30:06Z</time>
      </trkpt>
      <trkpt lat="46.062562549486756" lon="9.223625790327787">
        <ele>1316.6600000000001</ele>
        <time>2012-05-03T13:30:17Z</time>
      </trkpt>
      <trkpt lat="46.062549725174904" lon="9.223634842783213">
        <ele>1316.6600000000001</ele>
        <time>2012-05-03T13:30:18Z</time>
      </trkpt>
      <trkpt lat="46.062499098479748" lon="9.223682284355164">
        <ele>1315.22</ele>
        <time>2012-05-03T13:30:23Z</time>
      </trkpt>
      <trkpt lat="46.06247085146606" lon="9.223729558289051">
        <ele>1315.22</ele>
        <time>2012-05-03T13:30:28Z</time>
      </trkpt>
      <trkpt lat="46.062449896708131" lon="9.223804995417595">
        <ele>1315.22</ele>
        <time>2012-05-03T13:30:33Z</time>
      </trkpt>
      <trkpt lat="46.062389379367232" lon="9.223987888544798">
        <ele>1315.22</ele>
        <time>2012-05-03T13:30:46Z</time>
      </trkpt>
      <trkpt lat="46.062383931130171" lon="9.224001551046968">
        <ele>1315.22</ele>
        <time>2012-05-03T13:30:47Z</time>
      </trkpt>
      <trkpt lat="46.062352498993278" lon="9.224245045334101">
        <ele>1313.3</ele>
        <time>2012-05-03T13:31:03Z</time>
      </trkpt>
      <trkpt lat="46.062345374375582" lon="9.224302042275667">
        <ele>1313.3</ele>
        <time>2012-05-03T13:31:07Z</time>
      </trkpt>
      <trkpt lat="46.062336154282093" lon="9.224371528252959">
        <ele>1312.3399999999999</ele>
        <time>2012-05-03T13:31:11Z</time>
      </trkpt>
      <trkpt lat="46.062298100441694" lon="9.224531371146441">
        <ele>1310.9000000000001</ele>
        <time>2012-05-03T13:31:22Z</time>
      </trkpt>
      <trkpt lat="46.062274295836687" lon="9.224635558202863">
        <ele>1310.9000000000001</ele>
        <time>2012-05-03T13:31:29Z</time>
      </trkpt>
      <trkpt lat="46.062257364392281" lon="9.224700434133411">
        <ele>1310.9000000000001</ele>
        <time>2012-05-03T13:31:33Z</time>
      </trkpt>
      <trkpt lat="46.062245294451714" lon="9.224729351699352">
        <ele>1310.4100000000001</ele>
        <time>2012-05-03T13:31:35Z</time>
      </trkpt>
      <trkpt lat="46.062226099893451" lon="9.224805794656277">
        <ele>1310.9000000000001</ele>
        <time>2012-05-03T13:31:40Z</time>
      </trkpt>
      <trkpt lat="46.062228279188275" lon="9.224855750799179">
        <ele>1310.4100000000001</ele>
        <time>2012-05-03T13:31:43Z</time>
      </trkpt>
      <trkpt lat="46.062211515381932" lon="9.225021880120039">
        <ele>1309.9300000000001</ele>
        <time>2012-05-03T13:31:52Z</time>
      </trkpt>
      <trkpt lat="46.062204223126173" lon="9.225083319470286">
        <ele>1310.4100000000001</ele>
        <time>2012-05-03T13:31:56Z</time>
      </trkpt>
      <trkpt lat="46.062204642221332" lon="9.225138053297997">
        <ele>1309.9300000000001</ele>
        <time>2012-05-03T13:31:59Z</time>
      </trkpt>
      <trkpt lat="46.0621855314821" lon="9.225291442126036">
        <ele>1309.45</ele>
        <time>2012-05-03T13:32:11Z</time>
      </trkpt>
      <trkpt lat="46.062102047726512" lon="9.225454218685627">
        <ele>1306.5699999999999</ele>
        <time>2012-05-03T13:32:25Z</time>
      </trkpt>
      <trkpt lat="46.06206969358027" lon="9.225502414628863">
        <ele>1306.0899999999999</ele>
        <time>2012-05-03T13:32:31Z</time>
      </trkpt>
      <trkpt lat="46.062054941430688" lon="9.225540049374104">
        <ele>1305.6099999999999</ele>
        <time>2012-05-03T13:32:34Z</time>
      </trkpt>
      <trkpt lat="46.062047649174929" lon="9.225670220330358">
        <ele>1303.2</ele>
        <time>2012-05-03T13:32:47Z</time>
      </trkpt>
      <trkpt lat="46.062035914510489" lon="9.225674998015165">
        <ele>1302.72</ele>
        <time>2012-05-03T13:32:49Z</time>
      </trkpt>
      <trkpt lat="46.062022922560573" lon="9.225760074332357">
        <ele>1301.28</ele>
        <time>2012-05-03T13:32:54Z</time>
      </trkpt>
      <trkpt lat="46.062028286978602" lon="9.225803157314658">
        <ele>1300.3199999999999</ele>
        <time>2012-05-03T13:32:57Z</time>
      </trkpt>
      <trkpt lat="46.061954358592629" lon="9.225799134001136">
        <ele>1298.8800000000001</ele>
        <time>2012-05-03T13:33:08Z</time>
      </trkpt>
      <trkpt lat="46.06191772967577" lon="9.225777257233858">
        <ele>1297.4400000000001</ele>
        <time>2012-05-03T13:33:16Z</time>
      </trkpt>
      <trkpt lat="46.061851847916842" lon="9.22574263997376">
        <ele>1294.55</ele>
        <time>2012-05-03T13:33:28Z</time>
      </trkpt>
      <trkpt lat="46.061837431043386" lon="9.225823441520333">
        <ele>1292.6300000000001</ele>
        <time>2012-05-03T13:33:34Z</time>
      </trkpt>
      <trkpt lat="46.06186299584806" lon="9.225926287472248">
        <ele>1289.75</ele>
        <time>2012-05-03T13:33:43Z</time>
      </trkpt>
      <trkpt lat="46.061858301982284" lon="9.22598697245121">
        <ele>1288.3</ele>
        <time>2012-05-03T13:33:50Z</time>
      </trkpt>
      <trkpt lat="46.061856122687459" lon="9.226008849218488">
        <ele>1287.8199999999999</ele>
        <time>2012-05-03T13:33:53Z</time>
      </trkpt>
      <trkpt lat="46.061829384416342" lon="9.226132985204458">
        <ele>1284.46</ele>
        <time>2012-05-03T13:34:04Z</time>
      </trkpt>
      <trkpt lat="46.061830641701818" lon="9.226262234151363">
        <ele>1281.0899999999999</ele>
        <time>2012-05-03T13:34:16Z</time>
      </trkpt>
      <trkpt lat="46.061826199293137" lon="9.226412605494261">
        <ele>1278.6900000000001</ele>
        <time>2012-05-03T13:34:31Z</time>
      </trkpt>
      <trkpt lat="46.061832485720515" lon="9.226439846679568">
        <ele>1277.73</ele>
        <time>2012-05-03T13:34:34Z</time>
      </trkpt>
      <trkpt lat="46.061861151829362" lon="9.226604048162699">
        <ele>1274.8499999999999</ele>
        <time>2012-05-03T13:34:47Z</time>
      </trkpt>
      <trkpt lat="46.061850339174271" lon="9.2266954947263">
        <ele>1272.4400000000001</ele>
        <time>2012-05-03T13:34:59Z</time>
      </trkpt>
      <trkpt lat="46.061850171536207" lon="9.226697171106935">
        <ele>1271.96</ele>
        <time>2012-05-03T13:35:00Z</time>
      </trkpt>
      <trkpt lat="46.061830557882786" lon="9.226793814450502">
        <ele>1270.04</ele>
        <time>2012-05-03T13:35:08Z</time>
      </trkpt>
      <trkpt lat="46.061837347224355" lon="9.226855002343655">
        <ele>1269.0799999999999</ele>
        <time>2012-05-03T13:35:12Z</time>
      </trkpt>
      <trkpt lat="46.061857715249062" lon="9.226987520232797">
        <ele>1266.1900000000001</ele>
        <time>2012-05-03T13:35:23Z</time>
      </trkpt>
      <trkpt lat="46.061896523460746" lon="9.227147111669183">
        <ele>1263.79</ele>
        <time>2012-05-03T13:35:36Z</time>
      </trkpt>
      <trkpt lat="46.061948072165251" lon="9.227299829944968">
        <ele>1261.8699999999999</ele>
        <time>2012-05-03T13:35:49Z</time>
      </trkpt>
      <trkpt lat="46.061970451846719" lon="9.227381134405732">
        <ele>1260.4300000000001</ele>
        <time>2012-05-03T13:35:56Z</time>
      </trkpt>
      <trkpt lat="46.061998195946217" lon="9.227481633424759">
        <ele>1257.54</ele>
        <time>2012-05-03T13:36:06Z</time>
      </trkpt>
      <trkpt lat="46.061969948932528" lon="9.227493284270167">
        <ele>1257.0599999999999</ele>
        <time>2012-05-03T13:36:09Z</time>
      </trkpt>
      <trkpt lat="46.061927452683449" lon="9.227486914023757">
        <ele>1256.5799999999999</ele>
        <time>2012-05-03T13:36:13Z</time>
      </trkpt>
      <trkpt lat="46.061885207891464" lon="9.227493871003389">
        <ele>1255.1400000000001</ele>
        <time>2012-05-03T13:36:17Z</time>
      </trkpt>
      <trkpt lat="46.061856122687459" lon="9.227482890710235">
        <ele>1254.1800000000001</ele>
        <time>2012-05-03T13:36:21Z</time>
      </trkpt>
      <trkpt lat="46.061812872067094" lon="9.227478783577681">
        <ele>1253.22</ele>
        <time>2012-05-03T13:36:25Z</time>
      </trkpt>
      <trkpt lat="46.061724275350571" lon="9.227402927353978">
        <ele>1249.8499999999999</ele>
        <time>2012-05-03T13:36:39Z</time>
      </trkpt>
      <trkpt lat="46.061639282852411" lon="9.227287843823433">
        <ele>1247.45</ele>
        <time>2012-05-03T13:36:52Z</time>
      </trkpt>
      <trkpt lat="46.061585722491145" lon="9.227220537140966">
        <ele>1246.01</ele>
        <time>2012-05-03T13:37:00Z</time>
      </trkpt>
      <trkpt lat="46.061528557911515" lon="9.227119032293558">
        <ele>1243.1199999999999</ele>
        <time>2012-05-03T13:37:13Z</time>
      </trkpt>
      <trkpt lat="46.061496119946241" lon="9.227085337042809">
        <ele>1242.1600000000001</ele>
        <time>2012-05-03T13:37:19Z</time>
      </trkpt>
      <trkpt lat="46.06141691096127" lon="9.227030351758003">
        <ele>1239.76</ele>
        <time>2012-05-03T13:37:31Z</time>
      </trkpt>
      <trkpt lat="46.061407187953591" lon="9.227024735882878">
        <ele>1239.28</ele>
        <time>2012-05-03T13:37:32Z</time>
      </trkpt>
      <trkpt lat="46.061338791623712" lon="9.22695592045784">
        <ele>1237.3499999999999</ele>
        <time>2012-05-03T13:37:42Z</time>
      </trkpt>
      <trkpt lat="46.061258241534233" lon="9.226887943223119">
        <ele>1233.99</ele>
        <time>2012-05-03T13:37:54Z</time>
      </trkpt>
      <trkpt lat="46.061220020055771" lon="9.226871933788061">
        <ele>1232.55</ele>
        <time>2012-05-03T13:38:00Z</time>
      </trkpt>
      <trkpt lat="46.061156736686826" lon="9.22679515555501">
        <ele>1230.1400000000001</ele>
        <time>2012-05-03T13:38:10Z</time>
      </trkpt>
      <trkpt lat="46.061119018122554" lon="9.226780319586396">
        <ele>1229.1800000000001</ele>
        <time>2012-05-03T13:38:14Z</time>
      </trkpt>
      <trkpt lat="46.061072079464793" lon="9.226738158613443">
        <ele>1228.22</ele>
        <time>2012-05-03T13:38:23Z</time>
      </trkpt>
      <trkpt lat="46.061057830229402" lon="9.226786270737648">
        <ele>1224.8599999999999</ele>
        <time>2012-05-03T13:38:36Z</time>
      </trkpt>
      <trkpt lat="46.061061937361956" lon="9.226871682330966">
        <ele>1222.9300000000001</ele>
        <time>2012-05-03T13:38:47Z</time>
      </trkpt>
      <trkpt lat="46.06104894541204" lon="9.226899761706591">
        <ele>1221.49</ele>
        <time>2012-05-03T13:38:52Z</time>
      </trkpt>
      <trkpt lat="46.060966048389673" lon="9.226899091154337">
        <ele>1218.6099999999999</ele>
        <time>2012-05-03T13:39:05Z</time>
      </trkpt>
      <trkpt lat="46.060892539098859" lon="9.226880231872201">
        <ele>1215.72</ele>
        <time>2012-05-03T13:39:18Z</time>
      </trkpt>
      <trkpt lat="46.060804780572653" lon="9.226858858019114">
        <ele>1212.8399999999999</ele>
        <time>2012-05-03T13:39:30Z</time>
      </trkpt>
      <trkpt lat="46.060764715075493" lon="9.226843435317278">
        <ele>1211.4000000000001</ele>
        <time>2012-05-03T13:39:35Z</time>
      </trkpt>
      <trkpt lat="46.060719955712557" lon="9.226831281557679">
        <ele>1209</ele>
        <time>2012-05-03T13:39:42Z</time>
      </trkpt>
      <trkpt lat="46.0607332829386" lon="9.226940665394068">
        <ele>1207.0699999999999</ele>
        <time>2012-05-03T13:39:53Z</time>
      </trkpt>
      <trkpt lat="46.060739234089851" lon="9.227056838572025">
        <ele>1203.71</ele>
        <time>2012-05-03T13:40:04Z</time>
      </trkpt>
      <trkpt lat="46.060767816379666" lon="9.227100340649486">
        <ele>1202.75</ele>
        <time>2012-05-03T13:40:10Z</time>
      </trkpt>
      <trkpt lat="46.060796482488513" lon="9.227172425016761">
        <ele>1201.3</ele>
        <time>2012-05-03T13:40:18Z</time>
      </trkpt>
      <trkpt lat="46.060723559930921" lon="9.227210227400065">
        <ele>1198.4200000000001</ele>
        <time>2012-05-03T13:40:30Z</time>
      </trkpt>
      <trkpt lat="46.06066832318902" lon="9.227192206308246">
        <ele>1196.02</ele>
        <time>2012-05-03T13:40:41Z</time>
      </trkpt>
      <trkpt lat="46.060597831383348" lon="9.227137304842472">
        <ele>1193.1300000000001</ele>
        <time>2012-05-03T13:40:54Z</time>
      </trkpt>
      <trkpt lat="46.060557849705219" lon="9.227140657603741">
        <ele>1191.6900000000001</ele>
        <time>2012-05-03T13:41:02Z</time>
      </trkpt>
      <trkpt lat="46.060487190261483" lon="9.22711668536067">
        <ele>1189.77</ele>
        <time>2012-05-03T13:41:14Z</time>
      </trkpt>
      <trkpt lat="46.060428181663156" lon="9.227105872705579">
        <ele>1186.8800000000001</ele>
        <time>2012-05-03T13:41:26Z</time>
      </trkpt>
      <trkpt lat="46.060397252440453" lon="9.227110985666513">
        <ele>1185.9200000000001</ele>
        <time>2012-05-03T13:41:29Z</time>
      </trkpt>
      <trkpt lat="46.06033556163311" lon="9.227058179676533">
        <ele>1184</ele>
        <time>2012-05-03T13:41:39Z</time>
      </trkpt>
      <trkpt lat="46.060259453952312" lon="9.227012498304248">
        <ele>1181.5999999999999</ele>
        <time>2012-05-03T13:41:51Z</time>
      </trkpt>
      <trkpt lat="46.060234224423766" lon="9.227025406435132">
        <ele>1180.1600000000001</ele>
        <time>2012-05-03T13:41:55Z</time>
      </trkpt>
      <trkpt lat="46.060220645740628" lon="9.227043595165014">
        <ele>1179.6700000000001</ele>
        <time>2012-05-03T13:41:58Z</time>
      </trkpt>
      <trkpt lat="46.060145795345306" lon="9.227022640407085">
        <ele>1177.27</ele>
        <time>2012-05-03T13:42:12Z</time>
      </trkpt>
      <trkpt lat="46.060089217498899" lon="9.227024232968688">
        <ele>1174.3900000000001</ele>
        <time>2012-05-03T13:42:25Z</time>
      </trkpt>
      <trkpt lat="46.060083182528615" lon="9.227073770016432">
        <ele>1173.9100000000001</ele>
        <time>2012-05-03T13:42:30Z</time>
      </trkpt>
      <trkpt lat="46.060099359601736" lon="9.227174855768681">
        <ele>1171.98</ele>
        <time>2012-05-03T13:42:40Z</time>
      </trkpt>
      <trkpt lat="46.060099527239799" lon="9.22718558460474">
        <ele>1171.5</ele>
        <time>2012-05-03T13:42:41Z</time>
      </trkpt>
      <trkpt lat="46.060050996020436" lon="9.227215591818094">
        <ele>1169.0999999999999</ele>
        <time>2012-05-03T13:42:50Z</time>
      </trkpt>
      <trkpt lat="46.06004336848855" lon="9.227328663691878">
        <ele>1167.1800000000001</ele>
        <time>2012-05-03T13:43:02Z</time>
      </trkpt>
      <trkpt lat="46.060044290497899" lon="9.227344756945968">
        <ele>1166.7</ele>
        <time>2012-05-03T13:43:04Z</time>
      </trkpt>
      <trkpt lat="46.060078572481871" lon="9.227481381967664">
        <ele>1164.29</ele>
        <time>2012-05-03T13:43:17Z</time>
      </trkpt>
      <trkpt lat="46.060038590803742" lon="9.2275295779109">
        <ele>1161.8900000000001</ele>
        <time>2012-05-03T13:43:29Z</time>
      </trkpt>
      <trkpt lat="46.059975977987051" lon="9.227497726678848">
        <ele>1159.97</ele>
        <time>2012-05-03T13:43:40Z</time>
      </trkpt>
      <trkpt lat="46.059997268021107" lon="9.227595292031765">
        <ele>1157.0799999999999</ele>
        <time>2012-05-03T13:43:52Z</time>
      </trkpt>
      <trkpt lat="46.060013025999069" lon="9.227726049721241">
        <ele>1154.6800000000001</ele>
        <time>2012-05-03T13:44:03Z</time>
      </trkpt>
      <trkpt lat="46.060024341568351" lon="9.22776116989553">
        <ele>1154.2</ele>
        <time>2012-05-03T13:44:06Z</time>
      </trkpt>
      <trkpt lat="46.060053175315261" lon="9.227886646986008">
        <ele>1151.3199999999999</ele>
        <time>2012-05-03T13:44:18Z</time>
      </trkpt>
      <trkpt lat="46.060083769261837" lon="9.227942051365972">
        <ele>1148.9100000000001</ele>
        <time>2012-05-03T13:44:30Z</time>
      </trkpt>
      <trkpt lat="46.060083685442805" lon="9.227974992245436">
        <ele>1147.47</ele>
        <time>2012-05-03T13:44:35Z</time>
      </trkpt>
      <trkpt lat="46.060086786746979" lon="9.228097284212709">
        <ele>1144.1099999999999</ele>
        <time>2012-05-03T13:44:45Z</time>
      </trkpt>
      <trkpt lat="46.060161385685205" lon="9.228188395500183">
        <ele>1142.1800000000001</ele>
        <time>2012-05-03T13:44:56Z</time>
      </trkpt>
      <trkpt lat="46.060159625485539" lon="9.228318566456437">
        <ele>1139.78</ele>
        <time>2012-05-03T13:45:09Z</time>
      </trkpt>
      <trkpt lat="46.060127774253488" lon="9.228422166779637">
        <ele>1136.9000000000001</ele>
        <time>2012-05-03T13:45:22Z</time>
      </trkpt>
      <trkpt lat="46.060117213055491" lon="9.228529958054423">
        <ele>1134.97</ele>
        <time>2012-05-03T13:45:34Z</time>
      </trkpt>
      <trkpt lat="46.060113357380033" lon="9.228593576699495">
        <ele>1133.05</ele>
        <time>2012-05-03T13:45:40Z</time>
      </trkpt>
      <trkpt lat="46.06003750115633" lon="9.228566335514188">
        <ele>1131.1300000000001</ele>
        <time>2012-05-03T13:45:53Z</time>
      </trkpt>
      <trkpt lat="46.059968182817101" lon="9.228537837043405">
        <ele>1128.24</ele>
        <time>2012-05-03T13:46:05Z</time>
      </trkpt>
      <trkpt lat="46.05996223166585" lon="9.228540016338229">
        <ele>1128.24</ele>
        <time>2012-05-03T13:46:28Z</time>
      </trkpt>
      <trkpt lat="46.059993244707584" lon="9.228630624711514">
        <ele>1127.76</ele>
        <time>2012-05-03T13:46:48Z</time>
      </trkpt>
      <trkpt lat="46.059975475072861" lon="9.228709079325199">
        <ele>1125.8399999999999</ele>
        <time>2012-05-03T13:47:03Z</time>
      </trkpt>
      <trkpt lat="46.059975726529956" lon="9.228762639686465">
        <ele>1124.8800000000001</ele>
        <time>2012-05-03T13:47:08Z</time>
      </trkpt>
      <trkpt lat="46.059972960501909" lon="9.228789713233709">
        <ele>1123.9200000000001</ele>
        <time>2012-05-03T13:47:10Z</time>
      </trkpt>
      <trkpt lat="46.059997184202075" lon="9.228911753743887">
        <ele>1120.55</ele>
        <time>2012-05-03T13:47:20Z</time>
      </trkpt>
      <trkpt lat="46.059996262192726" lon="9.228924410417676">
        <ele>1120.0699999999999</ele>
        <time>2012-05-03T13:47:21Z</time>
      </trkpt>
      <trkpt lat="46.060036160051823" lon="9.229030525311828">
        <ele>1118.1500000000001</ele>
        <time>2012-05-03T13:47:30Z</time>
      </trkpt>
      <trkpt lat="46.060076309368014" lon="9.229095317423344">
        <ele>1116.71</ele>
        <time>2012-05-03T13:47:36Z</time>
      </trkpt>
      <trkpt lat="46.060096761211753" lon="9.229186680167913">
        <ele>1114.3099999999999</ele>
        <time>2012-05-03T13:47:45Z</time>
      </trkpt>
      <trkpt lat="46.060181083157659" lon="9.229252226650715">
        <ele>1111.9000000000001</ele>
        <time>2012-05-03T13:47:55Z</time>
      </trkpt>
      <trkpt lat="46.060197344049811" lon="9.22934333793819">
        <ele>1109.98</ele>
        <time>2012-05-03T13:48:03Z</time>
      </trkpt>
      <trkpt lat="46.060205055400729" lon="9.229495888575912">
        <ele>1106.6099999999999</ele>
        <time>2012-05-03T13:48:14Z</time>
      </trkpt>
      <trkpt lat="46.060219891369343" lon="9.229585407301784">
        <ele>1104.21</ele>
        <time>2012-05-03T13:48:24Z</time>
      </trkpt>
      <trkpt lat="46.060256771743298" lon="9.22970493324101">
        <ele>1100.8499999999999</ele>
        <time>2012-05-03T13:48:35Z</time>
      </trkpt>
      <trkpt lat="46.060304464772344" lon="9.229789758101106">
        <ele>1098.9200000000001</ele>
        <time>2012-05-03T13:48:41Z</time>
      </trkpt>
      <trkpt lat="46.060330700129271" lon="9.229865949600935">
        <ele>1097.48</ele>
        <time>2012-05-03T13:48:46Z</time>
      </trkpt>
      <trkpt lat="46.060325335711241" lon="9.229914313182235">
        <ele>1096.04</ele>
        <time>2012-05-03T13:48:50Z</time>
      </trkpt>
      <trkpt lat="46.06022953055799" lon="9.229947589337826">
        <ele>1092.6800000000001</ele>
        <time>2012-05-03T13:49:01Z</time>
      </trkpt>
      <trkpt lat="46.060222908854485" lon="9.229953708127141">
        <ele>1093.1600000000001</ele>
        <time>2012-05-03T13:49:02Z</time>
      </trkpt>
      <trkpt lat="46.060140011832118" lon="9.229968041181564">
        <ele>1089.79</ele>
        <time>2012-05-03T13:49:12Z</time>
      </trkpt>
      <trkpt lat="46.060109669342637" lon="9.229966113343835">
        <ele>1088.8299999999999</ele>
        <time>2012-05-03T13:49:16Z</time>
      </trkpt>
      <trkpt lat="46.060085780918598" lon="9.229974243789911">
        <ele>1087.3900000000001</ele>
        <time>2012-05-03T13:49:23Z</time>
      </trkpt>
      <trkpt lat="46.060086200013757" lon="9.230042053386569">
        <ele>1085.47</ele>
        <time>2012-05-03T13:49:31Z</time>
      </trkpt>
      <trkpt lat="46.059941612184048" lon="9.229957144707441">
        <ele>1082.5799999999999</ele>
        <time>2012-05-03T13:49:44Z</time>
      </trkpt>
      <trkpt lat="46.05990900658071" lon="9.229917330667377">
        <ele>1082.5799999999999</ele>
        <time>2012-05-03T13:49:48Z</time>
      </trkpt>
      <trkpt lat="46.059853686019778" lon="9.229827057570219">
        <ele>1082.5799999999999</ele>
        <time>2012-05-03T13:49:57Z</time>
      </trkpt>
      <trkpt lat="46.059798616915941" lon="9.229764947667718">
        <ele>1082.0999999999999</ele>
        <time>2012-05-03T13:50:03Z</time>
      </trkpt>
      <trkpt lat="46.059759389609098" lon="9.229736616834998">
        <ele>1081.6199999999999</ele>
        <time>2012-05-03T13:50:07Z</time>
      </trkpt>
      <trkpt lat="46.059728041291237" lon="9.229704095050693">
        <ele>1081.6199999999999</ele>
        <time>2012-05-03T13:50:10Z</time>
      </trkpt>
      <trkpt lat="46.059600887820125" lon="9.229611223563552">
        <ele>1081.6199999999999</ele>
        <time>2012-05-03T13:50:24Z</time>
      </trkpt>
      <trkpt lat="46.059585465118289" lon="9.229602422565222">
        <ele>1081.6199999999999</ele>
        <time>2012-05-03T13:50:27Z</time>
      </trkpt>
      <trkpt lat="46.059570210054517" lon="9.229594543576241">
        <ele>1080.1800000000001</ele>
        <time>2012-05-03T13:50:36Z</time>
      </trkpt>
    </trkseg>
  </trk>

  <trk>
    <name>monte-grona2015-11-08</name>
    <extensions>
      <gpxx:TrackExtension>
        <gpxx:DisplayColor>Yellow</gpxx:DisplayColor>
      </gpxx:TrackExtension>
      <gpxtrkx:TrackStatsExtension xmlns:gpxtrkx="http://www.garmin.com/xmlschemas/TrackStatsExtension/v1">
        <gpxtrkx:Distance>7804</gpxtrkx:Distance>
        <gpxtrkx:TotalElapsedTime>21672</gpxtrkx:TotalElapsedTime>
        <gpxtrkx:MovingTime>10328</gpxtrkx:MovingTime>
        <gpxtrkx:StoppedTime>11335</gpxtrkx:StoppedTime>
        <gpxtrkx:MovingSpeed>1</gpxtrkx:MovingSpeed>
        <gpxtrkx:MaxSpeed>2</gpxtrkx:MaxSpeed>
        <gpxtrkx:MaxElevation>1735</gpxtrkx:MaxElevation>
        <gpxtrkx:MinElevation>1088</gpxtrkx:MinElevation>
        <gpxtrkx:Ascent>714</gpxtrkx:Ascent>
        <gpxtrkx:Descent>716</gpxtrkx:Descent>
        <gpxtrkx:AvgAscentRate>0</gpxtrkx:AvgAscentRate>
        <gpxtrkx:MaxAscentRate>0</gpxtrkx:MaxAscentRate>
        <gpxtrkx:AvgDescentRate>0</gpxtrkx:AvgDescentRate>
        <gpxtrkx:MaxDescentRate>-0</gpxtrkx:MaxDescentRate>
      </gpxtrkx:TrackStatsExtension>
    </extensions>
    <trkseg>
      <trkpt lat="46.060077482834458" lon="9.230063762515783">
        <ele>1092.6800000000001</ele>
        <time>2015-11-08T09:16:38Z</time>
      </trkpt>
      <trkpt lat="46.060086116194725" lon="9.230041466653347">
        <ele>1087.8699999999999</ele>
        <time>2015-11-08T09:16:43Z</time>
      </trkpt>
      <trkpt lat="46.060084188356996" lon="9.230031408369541">
        <ele>1087.8699999999999</ele>
        <time>2015-11-08T09:16:44Z</time>
      </trkpt>
      <trkpt lat="46.060077231377363" lon="9.230008609592915">
        <ele>1090.75</ele>
        <time>2015-11-08T09:16:46Z</time>
      </trkpt>
      <trkpt lat="46.060069520026445" lon="9.229997545480728">
        <ele>1091.23</ele>
        <time>2015-11-08T09:16:47Z</time>
      </trkpt>
      <trkpt lat="46.060066586360335" lon="9.22994825989008">
        <ele>1092.2</ele>
        <time>2015-11-08T09:16:56Z</time>
      </trkpt>
      <trkpt lat="46.060155937448144" lon="9.229956641793251">
        <ele>1094.5999999999999</ele>
        <time>2015-11-08T09:17:08Z</time>
      </trkpt>
      <trkpt lat="46.060227686539292" lon="9.229944488033652">
        <ele>1096.04</ele>
        <time>2015-11-08T09:17:20Z</time>
      </trkpt>
      <trkpt lat="46.060309577733278" lon="9.229926131665707">
        <ele>1098.4400000000001</ele>
        <time>2015-11-08T09:17:33Z</time>
      </trkpt>
      <trkpt lat="46.060351235792041" lon="9.229913977906108">
        <ele>1100.3699999999999</ele>
        <time>2015-11-08T09:17:44Z</time>
      </trkpt>
      <trkpt lat="46.060307146981359" lon="9.229851113632321">
        <ele>1101.8099999999999</ele>
        <time>2015-11-08T09:17:54Z</time>
      </trkpt>
      <trkpt lat="46.060250736773014" lon="9.229753548279405">
        <ele>1104.21</ele>
        <time>2015-11-08T09:18:08Z</time>
      </trkpt>
      <trkpt lat="46.060227602720261" lon="9.229695964604616">
        <ele>1105.6500000000001</ele>
        <time>2015-11-08T09:18:17Z</time>
      </trkpt>
      <trkpt lat="46.060203379020095" lon="9.229587502777576">
        <ele>1108.0599999999999</ele>
        <time>2015-11-08T09:18:30Z</time>
      </trkpt>
      <trkpt lat="46.060185022652149" lon="9.229494547471404">
        <ele>1109.98</ele>
        <time>2015-11-08T09:18:42Z</time>
      </trkpt>
      <trkpt lat="46.060193153098226" lon="9.229375440627337">
        <ele>1111.9000000000001</ele>
        <time>2015-11-08T09:18:53Z</time>
      </trkpt>
      <trkpt lat="46.060162642970681" lon="9.22927251085639">
        <ele>1114.3099999999999</ele>
        <time>2015-11-08T09:19:06Z</time>
      </trkpt>
      <trkpt lat="46.060110339894891" lon="9.229219788685441">
        <ele>1116.23</ele>
        <time>2015-11-08T09:19:17Z</time>
      </trkpt>
      <trkpt lat="46.060078153386712" lon="9.229165809229016">
        <ele>1118.1500000000001</ele>
        <time>2015-11-08T09:19:28Z</time>
      </trkpt>
      <trkpt lat="46.060064742341638" lon="9.229099508374929">
        <ele>1119.5899999999999</ele>
        <time>2015-11-08T09:19:38Z</time>
      </trkpt>
      <trkpt lat="46.060038171708584" lon="9.229060783982277">
        <ele>1120.55</ele>
        <time>2015-11-08T09:19:47Z</time>
      </trkpt>
      <trkpt lat="46.06000087223947" lon="9.228992974385619">
        <ele>1121.52</ele>
        <time>2015-11-08T09:19:59Z</time>
      </trkpt>
      <trkpt lat="46.059996765106916" lon="9.228902198374271">
        <ele>1123.4400000000001</ele>
        <time>2015-11-08T09:20:11Z</time>
      </trkpt>
      <trkpt lat="46.059986455366015" lon="9.228840759024024">
        <ele>1124.4000000000001</ele>
        <time>2015-11-08T09:20:23Z</time>
      </trkpt>
      <trkpt lat="46.059961980208755" lon="9.228731794282794">
        <ele>1126.8</ele>
        <time>2015-11-08T09:20:36Z</time>
      </trkpt>
      <trkpt lat="46.059997687116265" lon="9.228646047413349">
        <ele>1129.6900000000001</ele>
        <time>2015-11-08T09:20:46Z</time>
      </trkpt>
      <trkpt lat="46.05998570099473" lon="9.228570191189647">
        <ele>1130.6500000000001</ele>
        <time>2015-11-08T09:20:56Z</time>
      </trkpt>
      <trkpt lat="46.060059126466513" lon="9.228549571707845">
        <ele>1132.5699999999999</ele>
        <time>2015-11-08T09:21:08Z</time>
      </trkpt>
      <trkpt lat="46.060116374865174" lon="9.228583266958594">
        <ele>1134.97</ele>
        <time>2015-11-08T09:21:21Z</time>
      </trkpt>
      <trkpt lat="46.060117715969682" lon="9.228491820394993">
        <ele>1136.9000000000001</ele>
        <time>2015-11-08T09:21:33Z</time>
      </trkpt>
      <trkpt lat="46.060132132843137" lon="9.228375228121877">
        <ele>1139.3</ele>
        <time>2015-11-08T09:21:45Z</time>
      </trkpt>
      <trkpt lat="46.060159038752317" lon="9.228259222581983">
        <ele>1141.22</ele>
        <time>2015-11-08T09:21:57Z</time>
      </trkpt>
      <trkpt lat="46.060142023488879" lon="9.228188060224056">
        <ele>1143.1400000000001</ele>
        <time>2015-11-08T09:22:08Z</time>
      </trkpt>
      <trkpt lat="46.060087624937296" lon="9.228135757148266">
        <ele>1145.55</ele>
        <time>2015-11-08T09:22:18Z</time>
      </trkpt>
      <trkpt lat="46.060044877231121" lon="9.228051602840424">
        <ele>1147.47</ele>
        <time>2015-11-08T09:22:30Z</time>
      </trkpt>
      <trkpt lat="46.060064407065511" lon="9.227952277287841">
        <ele>1149.8699999999999</ele>
        <time>2015-11-08T09:22:43Z</time>
      </trkpt>
      <trkpt lat="46.060034735128284" lon="9.227886060252786">
        <ele>1152.28</ele>
        <time>2015-11-08T09:22:54Z</time>
      </trkpt>
      <trkpt lat="46.060004057362676" lon="9.22779344022274">
        <ele>1154.6800000000001</ele>
        <time>2015-11-08T09:23:06Z</time>
      </trkpt>
      <trkpt lat="46.059986287727952" lon="9.227673746645451">
        <ele>1156.5999999999999</ele>
        <time>2015-11-08T09:23:19Z</time>
      </trkpt>
      <trkpt lat="46.059982515871525" lon="9.227565452456474">
        <ele>1158.53</ele>
        <time>2015-11-08T09:23:31Z</time>
      </trkpt>
      <trkpt lat="46.059970948845148" lon="9.227489596232772">
        <ele>1160.9300000000001</ele>
        <time>2015-11-08T09:23:43Z</time>
      </trkpt>
      <trkpt lat="46.060046805068851" lon="9.227539636194706">
        <ele>1162.8499999999999</ele>
        <time>2015-11-08T09:23:54Z</time>
      </trkpt>
      <trkpt lat="46.060052504763007" lon="9.22747534699738">
        <ele>1164.29</ele>
        <time>2015-11-08T09:24:04Z</time>
      </trkpt>
      <trkpt lat="46.060046553611755" lon="9.227383146062493">
        <ele>1166.7</ele>
        <time>2015-11-08T09:24:15Z</time>
      </trkpt>
      <trkpt lat="46.060038842260838" lon="9.227288011461496">
        <ele>1168.6199999999999</ele>
        <time>2015-11-08T09:24:27Z</time>
      </trkpt>
      <trkpt lat="46.060049571096897" lon="9.227197403088212">
        <ele>1170.54</ele>
        <time>2015-11-08T09:24:39Z</time>
      </trkpt>
      <trkpt lat="46.060091480612755" lon="9.227161277085543">
        <ele>1171.98</ele>
        <time>2015-11-08T09:24:50Z</time>
      </trkpt>
      <trkpt lat="46.060092402622104" lon="9.22705365344882">
        <ele>1174.3900000000001</ele>
        <time>2015-11-08T09:25:03Z</time>
      </trkpt>
      <trkpt lat="46.060126349329948" lon="9.226937144994736">
        <ele>1176.3099999999999</ele>
        <time>2015-11-08T09:25:15Z</time>
      </trkpt>
      <trkpt lat="46.060159793123603" lon="9.226989280432463">
        <ele>1177.75</ele>
        <time>2015-11-08T09:25:25Z</time>
      </trkpt>
      <trkpt lat="46.060240594670177" lon="9.227054743096232">
        <ele>1180.1600000000001</ele>
        <time>2015-11-08T09:25:39Z</time>
      </trkpt>
      <trkpt lat="46.060266830027103" lon="9.226974528282881">
        <ele>1182.0799999999999</ele>
        <time>2015-11-08T09:25:50Z</time>
      </trkpt>
      <trkpt lat="46.060325503349304" lon="9.227026244625449">
        <ele>1184</ele>
        <time>2015-11-08T09:26:01Z</time>
      </trkpt>
      <trkpt lat="46.060385601595044" lon="9.227066980674863">
        <ele>1185.9200000000001</ele>
        <time>2015-11-08T09:26:13Z</time>
      </trkpt>
      <trkpt lat="46.060440503060818" lon="9.227068657055497">
        <ele>1187.8499999999999</ele>
        <time>2015-11-08T09:26:24Z</time>
      </trkpt>
      <trkpt lat="46.060506887733936" lon="9.227093383669853">
        <ele>1189.77</ele>
        <time>2015-11-08T09:26:36Z</time>
      </trkpt>
      <trkpt lat="46.060570757836103" lon="9.22713864594698">
        <ele>1192.6500000000001</ele>
        <time>2015-11-08T09:26:48Z</time>
      </trkpt>
      <trkpt lat="46.060631442815065" lon="9.227149123325944">
        <ele>1194.0899999999999</ele>
        <time>2015-11-08T09:27:03Z</time>
      </trkpt>
      <trkpt lat="46.060665305703878" lon="9.227189188823104">
        <ele>1195.54</ele>
        <time>2015-11-08T09:27:10Z</time>
      </trkpt>
      <trkpt lat="46.060714339837432" lon="9.22720855101943">
        <ele>1196.98</ele>
        <time>2015-11-08T09:27:20Z</time>
      </trkpt>
      <trkpt lat="46.060753734782338" lon="9.227182986214757">
        <ele>1198.9000000000001</ele>
        <time>2015-11-08T09:27:30Z</time>
      </trkpt>
      <trkpt lat="46.060777120292187" lon="9.227167228236795">
        <ele>1201.3</ele>
        <time>2015-11-08T09:27:41Z</time>
      </trkpt>
      <trkpt lat="46.060751555487514" lon="9.22709422186017">
        <ele>1202.75</ele>
        <time>2015-11-08T09:27:52Z</time>
      </trkpt>
      <trkpt lat="46.060722805559635" lon="9.226999757811427">
        <ele>1205.1500000000001</ele>
        <time>2015-11-08T09:28:05Z</time>
      </trkpt>
      <trkpt lat="46.060717441141605" lon="9.226915016770363">
        <ele>1207.0699999999999</ele>
        <time>2015-11-08T09:28:15Z</time>
      </trkpt>
      <trkpt lat="46.060727164149284" lon="9.226804962381721">
        <ele>1209</ele>
        <time>2015-11-08T09:28:27Z</time>
      </trkpt>
      <trkpt lat="46.060810312628746" lon="9.226831030100584">
        <ele>1211.4000000000001</ele>
        <time>2015-11-08T09:28:40Z</time>
      </trkpt>
      <trkpt lat="46.060875188559294" lon="9.226861288771033">
        <ele>1213.8</ele>
        <time>2015-11-08T09:28:52Z</time>
      </trkpt>
      <trkpt lat="46.060932688415051" lon="9.226873191073537">
        <ele>1215.72</ele>
        <time>2015-11-08T09:29:05Z</time>
      </trkpt>
      <trkpt lat="46.061002509668469" lon="9.226920967921615">
        <ele>1218.1300000000001</ele>
        <time>2015-11-08T09:29:18Z</time>
      </trkpt>
      <trkpt lat="46.0610665474087" lon="9.22690998762846">
        <ele>1220.05</ele>
        <time>2015-11-08T09:29:30Z</time>
      </trkpt>
      <trkpt lat="46.061054980382323" lon="9.226905796676874">
        <ele>1220.53</ele>
        <time>2015-11-08T09:29:46Z</time>
      </trkpt>
      <trkpt lat="46.061059925705194" lon="9.22690068371594">
        <ele>1220.53</ele>
        <time>2015-11-08T09:30:06Z</time>
      </trkpt>
      <trkpt lat="46.061055231839418" lon="9.226941168308258">
        <ele>1221.01</ele>
        <time>2015-11-08T09:30:21Z</time>
      </trkpt>
      <trkpt lat="46.06105187907815" lon="9.226961703971028">
        <ele>1221.01</ele>
        <time>2015-11-08T09:30:42Z</time>
      </trkpt>
      <trkpt lat="46.061042491346598" lon="9.226965727284551">
        <ele>1221.01</ele>
        <time>2015-11-08T09:31:01Z</time>
      </trkpt>
      <trkpt lat="46.061083059757948" lon="9.226935049518943">
        <ele>1221.01</ele>
        <time>2015-11-08T09:31:17Z</time>
      </trkpt>
      <trkpt lat="46.061096303164959" lon="9.226902611553669">
        <ele>1221.49</ele>
        <time>2015-11-08T09:31:35Z</time>
      </trkpt>
      <trkpt lat="46.061034696176648" lon="9.226856762543321">
        <ele>1222.45</ele>
        <time>2015-11-08T09:31:52Z</time>
      </trkpt>
      <trkpt lat="46.06102891266346" lon="9.226919878274202">
        <ele>1222.9300000000001</ele>
        <time>2015-11-08T09:32:07Z</time>
      </trkpt>
      <trkpt lat="46.061001336202025" lon="9.226897833868861">
        <ele>1224.3800000000001</ele>
        <time>2015-11-08T09:32:26Z</time>
      </trkpt>
      <trkpt lat="46.061002928763628" lon="9.22685282304883">
        <ele>1222.9300000000001</ele>
        <time>2015-11-08T09:32:40Z</time>
      </trkpt>
      <trkpt lat="46.061004856601357" lon="9.226753916591406">
        <ele>1224.8599999999999</ele>
        <time>2015-11-08T09:32:52Z</time>
      </trkpt>
      <trkpt lat="46.061051459982991" lon="9.226741930469871">
        <ele>1226.78</ele>
        <time>2015-11-08T09:33:04Z</time>
      </trkpt>
      <trkpt lat="46.061121029779315" lon="9.226765399798751">
        <ele>1228.7</ele>
        <time>2015-11-08T09:33:16Z</time>
      </trkpt>
      <trkpt lat="46.061205603182316" lon="9.226820887997747">
        <ele>1231.5899999999999</ele>
        <time>2015-11-08T09:33:32Z</time>
      </trkpt>
      <trkpt lat="46.061270479112864" lon="9.226865144446492">
        <ele>1234.47</ele>
        <time>2015-11-08T09:33:47Z</time>
      </trkpt>
      <trkpt lat="46.06132747605443" lon="9.226927673444152">
        <ele>1235.9100000000001</ele>
        <time>2015-11-08T09:33:59Z</time>
      </trkpt>
      <trkpt lat="46.061395537108183" lon="9.226960530504584">
        <ele>1237.3499999999999</ele>
        <time>2015-11-08T09:34:10Z</time>
      </trkpt>
      <trkpt lat="46.061450690031052" lon="9.227016353979707">
        <ele>1239.76</ele>
        <time>2015-11-08T09:34:23Z</time>
      </trkpt>
      <trkpt lat="46.061521181836724" lon="9.227066645398736">
        <ele>1241.6800000000001</ele>
        <time>2015-11-08T09:34:35Z</time>
      </trkpt>
      <trkpt lat="46.061572814360261" lon="9.227122468873859">
        <ele>1243.5999999999999</ele>
        <time>2015-11-08T09:34:46Z</time>
      </trkpt>
      <trkpt lat="46.061609946191311" lon="9.227211819961667">
        <ele>1245.04</ele>
        <time>2015-11-08T09:34:57Z</time>
      </trkpt>
      <trkpt lat="46.061666356399655" lon="9.2273033503443">
        <ele>1246.49</ele>
        <time>2015-11-08T09:35:10Z</time>
      </trkpt>
      <trkpt lat="46.061719413846731" lon="9.227364202961326">
        <ele>1248.4100000000001</ele>
        <time>2015-11-08T09:35:20Z</time>
      </trkpt>
      <trkpt lat="46.061782026663423" lon="9.227424887940288">
        <ele>1250.3299999999999</ele>
        <time>2015-11-08T09:35:32Z</time>
      </trkpt>
      <trkpt lat="46.061858553439379" lon="9.227450536563993">
        <ele>1252.74</ele>
        <time>2015-11-08T09:35:44Z</time>
      </trkpt>
      <trkpt lat="46.061920998618007" lon="9.227470736950636">
        <ele>1254.6600000000001</ele>
        <time>2015-11-08T09:35:56Z</time>
      </trkpt>
      <trkpt lat="46.061978498473763" lon="9.227451710030437">
        <ele>1256.0999999999999</ele>
        <time>2015-11-08T09:36:08Z</time>
      </trkpt>
      <trkpt lat="46.061953855678439" lon="9.227390941232443">
        <ele>1258.5</ele>
        <time>2015-11-08T09:36:21Z</time>
      </trkpt>
      <trkpt lat="46.061946395784616" lon="9.227326903492212">
        <ele>1260.4300000000001</ele>
        <time>2015-11-08T09:36:32Z</time>
      </trkpt>
      <trkpt lat="46.061909683048725" lon="9.227243419736624">
        <ele>1261.3900000000001</ele>
        <time>2015-11-08T09:36:43Z</time>
      </trkpt>
      <trkpt lat="46.061889315024018" lon="9.22714208252728">
        <ele>1262.8299999999999</ele>
        <time>2015-11-08T09:36:53Z</time>
      </trkpt>
      <trkpt lat="46.061874479055405" lon="9.227025071159005">
        <ele>1264.75</ele>
        <time>2015-11-08T09:37:05Z</time>
      </trkpt>
      <trkpt lat="46.061848159879446" lon="9.226916190236807">
        <ele>1265.23</ele>
        <time>2015-11-08T09:37:17Z</time>
      </trkpt>
      <trkpt lat="46.061847908422351" lon="9.22683522105217">
        <ele>1267.1600000000001</ele>
        <time>2015-11-08T09:37:26Z</time>
      </trkpt>
      <trkpt lat="46.061858218163252" lon="9.226765483617783">
        <ele>1268.5999999999999</ele>
        <time>2015-11-08T09:37:36Z</time>
      </trkpt>
      <trkpt lat="46.061863582581282" lon="9.226719047874212">
        <ele>1270.04</ele>
        <time>2015-11-08T09:37:46Z</time>
      </trkpt>
      <trkpt lat="46.061864420771599" lon="9.22665836289525">
        <ele>1271.48</ele>
        <time>2015-11-08T09:37:56Z</time>
      </trkpt>
      <trkpt lat="46.061868108808994" lon="9.226642269641161">
        <ele>1272.4400000000001</ele>
        <time>2015-11-08T09:38:17Z</time>
      </trkpt>
      <trkpt lat="46.061833659186959" lon="9.226574460044503">
        <ele>1274.3599999999999</ele>
        <time>2015-11-08T09:38:29Z</time>
      </trkpt>
      <trkpt lat="46.061824355274439" lon="9.226519642397761">
        <ele>1275.3299999999999</ele>
        <time>2015-11-08T09:38:39Z</time>
      </trkpt>
      <trkpt lat="46.061814548447728" lon="9.226471027359366">
        <ele>1275.8099999999999</ele>
        <time>2015-11-08T09:38:53Z</time>
      </trkpt>
      <trkpt lat="46.061803987249732" lon="9.226453173905611">
        <ele>1276.29</ele>
        <time>2015-11-08T09:39:01Z</time>
      </trkpt>
      <trkpt lat="46.061801221221685" lon="9.226439259946346">
        <ele>1276.29</ele>
        <time>2015-11-08T09:39:17Z</time>
      </trkpt>
      <trkpt lat="46.061791833490133" lon="9.226464908570051">
        <ele>1276.29</ele>
        <time>2015-11-08T09:39:37Z</time>
      </trkpt>
      <trkpt lat="46.061804154887795" lon="9.226431548595429">
        <ele>1276.77</ele>
        <time>2015-11-08T09:39:52Z</time>
      </trkpt>
      <trkpt lat="46.061779763549566" lon="9.226387459784746">
        <ele>1277.25</ele>
        <time>2015-11-08T09:40:06Z</time>
      </trkpt>
      <trkpt lat="46.061753863468766" lon="9.226415622979403">
        <ele>1277.73</ele>
        <time>2015-11-08T09:40:23Z</time>
      </trkpt>
      <trkpt lat="46.061750343069434" lon="9.226402966305614">
        <ele>1277.73</ele>
        <time>2015-11-08T09:40:33Z</time>
      </trkpt>
      <trkpt lat="46.061758389696479" lon="9.22640573233366">
        <ele>1278.21</ele>
        <time>2015-11-08T09:40:50Z</time>
      </trkpt>
      <trkpt lat="46.061785463243723" lon="9.22642475925386">
        <ele>1278.21</ele>
        <time>2015-11-08T09:41:04Z</time>
      </trkpt>
      <trkpt lat="46.061796024441719" lon="9.226400787010789">
        <ele>1278.21</ele>
        <time>2015-11-08T09:41:20Z</time>
      </trkpt>
      <trkpt lat="46.061800047755241" lon="9.226381089538336">
        <ele>1278.21</ele>
        <time>2015-11-08T09:41:39Z</time>
      </trkpt>
      <trkpt lat="46.061793006956577" lon="9.226347059011459">
        <ele>1278.21</ele>
        <time>2015-11-08T09:41:53Z</time>
      </trkpt>
      <trkpt lat="46.061796275898814" lon="9.226343538612127">
        <ele>1278.21</ele>
        <time>2015-11-08T09:42:11Z</time>
      </trkpt>
      <trkpt lat="46.061793090775609" lon="9.226301377639175">
        <ele>1278.6900000000001</ele>
        <time>2015-11-08T09:42:32Z</time>
      </trkpt>
      <trkpt lat="46.061803819611669" lon="9.226228119805455">
        <ele>1280.1300000000001</ele>
        <time>2015-11-08T09:42:43Z</time>
      </trkpt>
      <trkpt lat="46.061814716085792" lon="9.226144216954708">
        <ele>1282.0599999999999</ele>
        <time>2015-11-08T09:42:54Z</time>
      </trkpt>
      <trkpt lat="46.061842124909163" lon="9.226062912493944">
        <ele>1284.46</ele>
        <time>2015-11-08T09:43:05Z</time>
      </trkpt>
      <trkpt lat="46.061816560104489" lon="9.225977500900626">
        <ele>1285.9000000000001</ele>
        <time>2015-11-08T09:43:16Z</time>
      </trkpt>
      <trkpt lat="46.06183122843504" lon="9.225952606648207">
        <ele>1286.3800000000001</ele>
        <time>2015-11-08T09:43:19Z</time>
      </trkpt>
      <trkpt lat="46.061840448528528" lon="9.225901309400797">
        <ele>1288.78</ele>
        <time>2015-11-08T09:43:29Z</time>
      </trkpt>
      <trkpt lat="46.06184053234756" lon="9.225835930556059">
        <ele>1290.71</ele>
        <time>2015-11-08T09:43:38Z</time>
      </trkpt>
      <trkpt lat="46.061845729127526" lon="9.225762588903308">
        <ele>1292.1500000000001</ele>
        <time>2015-11-08T09:43:47Z</time>
      </trkpt>
      <trkpt lat="46.061862325295806" lon="9.225682793185115">
        <ele>1293.5899999999999</ele>
        <time>2015-11-08T09:43:56Z</time>
      </trkpt>
      <trkpt lat="46.061863331124187" lon="9.225678015500307">
        <ele>1293.5899999999999</ele>
        <time>2015-11-08T09:44:11Z</time>
      </trkpt>
      <trkpt lat="46.061899289488792" lon="9.22575244680047">
        <ele>1294.0699999999999</ele>
        <time>2015-11-08T09:44:20Z</time>
      </trkpt>
      <trkpt lat="46.061951173469424" lon="9.225796451792121">
        <ele>1296.48</ele>
        <time>2015-11-08T09:44:31Z</time>
      </trkpt>
      <trkpt lat="46.062010517343879" lon="9.225829225033522">
        <ele>1298.4000000000001</ele>
        <time>2015-11-08T09:44:42Z</time>
      </trkpt>
      <trkpt lat="46.062004901468754" lon="9.225815562531352">
        <ele>1298.4000000000001</ele>
        <time>2015-11-08T09:44:57Z</time>
      </trkpt>
      <trkpt lat="46.061997693032026" lon="9.225786812603474">
        <ele>1298.4000000000001</ele>
        <time>2015-11-08T09:45:17Z</time>
      </trkpt>
      <trkpt lat="46.062008673325181" lon="9.225807348266244">
        <ele>1298.4000000000001</ele>
        <time>2015-11-08T09:45:31Z</time>
      </trkpt>
      <trkpt lat="46.062006577849388" lon="9.225803660228849">
        <ele>1298.4000000000001</ele>
        <time>2015-11-08T09:45:32Z</time>
      </trkpt>
      <trkpt lat="46.062024431303144" lon="9.22568840906024">
        <ele>1300.8</ele>
        <time>2015-11-08T09:45:43Z</time>
      </trkpt>
      <trkpt lat="46.062037339434028" lon="9.225593693554401">
        <ele>1303.2</ele>
        <time>2015-11-08T09:45:53Z</time>
      </trkpt>
      <trkpt lat="46.062074638903141" lon="9.225475005805492">
        <ele>1304.6500000000001</ele>
        <time>2015-11-08T09:46:06Z</time>
      </trkpt>
      <trkpt lat="46.062130462378263" lon="9.225366711616516">
        <ele>1306.0899999999999</ele>
        <time>2015-11-08T09:46:17Z</time>
      </trkpt>
      <trkpt lat="46.062184358015656" lon="9.225262021645904">
        <ele>1308.01</ele>
        <time>2015-11-08T09:46:28Z</time>
      </trkpt>
      <trkpt lat="46.062189638614655" lon="9.225176693871617">
        <ele>1308.49</ele>
        <time>2015-11-08T09:46:38Z</time>
      </trkpt>
      <trkpt lat="46.062200535088778" lon="9.225123384967446">
        <ele>1308.97</ele>
        <time>2015-11-08T09:46:41Z</time>
      </trkpt>
      <trkpt lat="46.062207575887442" lon="9.224972175434232">
        <ele>1309.45</ele>
        <time>2015-11-08T09:46:54Z</time>
      </trkpt>
      <trkpt lat="46.062219394370914" lon="9.224867066368461">
        <ele>1308.97</ele>
        <time>2015-11-08T09:47:03Z</time>
      </trkpt>
      <trkpt lat="46.062247306108475" lon="9.224749803543091">
        <ele>1309.9300000000001</ele>
        <time>2015-11-08T09:47:12Z</time>
      </trkpt>
      <trkpt lat="46.062284857034683" lon="9.224629439413548">
        <ele>1310.4100000000001</ele>
        <time>2015-11-08T09:47:22Z</time>
      </trkpt>
      <trkpt lat="46.062311511486769" lon="9.224539836868644">
        <ele>1310.9000000000001</ele>
        <time>2015-11-08T09:47:30Z</time>
      </trkpt>
      <trkpt lat="46.062306230887771" lon="9.224545368924737">
        <ele>1310.9000000000001</ele>
        <time>2015-11-08T09:47:39Z</time>
      </trkpt>
      <trkpt lat="46.062327101826668" lon="9.224440762773156">
        <ele>1310.9000000000001</ele>
        <time>2015-11-08T09:47:47Z</time>
      </trkpt>
      <trkpt lat="46.062337998300791" lon="9.224316710606217">
        <ele>1312.3399999999999</ele>
        <time>2015-11-08T09:47:58Z</time>
      </trkpt>
      <trkpt lat="46.062322910875082" lon="9.224262144416571">
        <ele>1312.3399999999999</ele>
        <time>2015-11-08T09:48:09Z</time>
      </trkpt>
      <trkpt lat="46.062316037714481" lon="9.224260970950127">
        <ele>1312.3399999999999</ele>
        <time>2015-11-08T09:48:19Z</time>
      </trkpt>
      <trkpt lat="46.062297178432345" lon="9.224277315661311">
        <ele>1312.3399999999999</ele>
        <time>2015-11-08T09:48:38Z</time>
      </trkpt>
      <trkpt lat="46.062299190089107" lon="9.224279411137104">
        <ele>1312.3399999999999</ele>
        <time>2015-11-08T09:48:56Z</time>
      </trkpt>
      <trkpt lat="46.062304889783263" lon="9.224184947088361">
        <ele>1312.8199999999999</ele>
        <time>2015-11-08T09:49:04Z</time>
      </trkpt>
      <trkpt lat="46.06231645680964" lon="9.224123256281018">
        <ele>1312.8199999999999</ele>
        <time>2015-11-08T09:49:07Z</time>
      </trkpt>
      <trkpt lat="46.06233011931181" lon="9.224062068387866">
        <ele>1313.3</ele>
        <time>2015-11-08T09:49:11Z</time>
      </trkpt>
      <trkpt lat="46.062413183972239" lon="9.223827207461">
        <ele>1313.78</ele>
        <time>2015-11-08T09:49:27Z</time>
      </trkpt>
      <trkpt lat="46.062461463734508" lon="9.223695024847984">
        <ele>1314.26</ele>
        <time>2015-11-08T09:49:36Z</time>
      </trkpt>
      <trkpt lat="46.062558945268393" lon="9.223550856113434">
        <ele>1315.7</ele>
        <time>2015-11-08T09:49:50Z</time>
      </trkpt>
      <trkpt lat="46.062588449567556" lon="9.223510706797242">
        <ele>1314.26</ele>
        <time>2015-11-08T09:49:53Z</time>
      </trkpt>
      <trkpt lat="46.062678806483746" lon="9.223395539447665">
        <ele>1314.26</ele>
        <time>2015-11-08T09:50:05Z</time>
      </trkpt>
      <trkpt lat="46.0626897867769" lon="9.223346589133143">
        <ele>1314.26</ele>
        <time>2015-11-08T09:50:09Z</time>
      </trkpt>
      <trkpt lat="46.062686182558537" lon="9.223272828385234">
        <ele>1316.6600000000001</ele>
        <time>2015-11-08T09:50:14Z</time>
      </trkpt>
      <trkpt lat="46.062650475651026" lon="9.223176604136825">
        <ele>1317.1400000000001</ele>
        <time>2015-11-08T09:50:26Z</time>
      </trkpt>
      <trkpt lat="46.06263698078692" lon="9.223163612186909">
        <ele>1317.1400000000001</ele>
        <time>2015-11-08T09:50:38Z</time>
      </trkpt>
      <trkpt lat="46.062640249729156" lon="9.22315925359726">
        <ele>1316.6600000000001</ele>
        <time>2015-11-08T09:50:59Z</time>
      </trkpt>
      <trkpt lat="46.062675705179572" lon="9.223107369616628">
        <ele>1316.6600000000001</ele>
        <time>2015-11-08T09:51:11Z</time>
      </trkpt>
      <trkpt lat="46.062681069597602" lon="9.22315145842731">
        <ele>1316.6600000000001</ele>
        <time>2015-11-08T09:51:28Z</time>
      </trkpt>
      <trkpt lat="46.062684254720807" lon="9.222952555865049">
        <ele>1316.1800000000001</ele>
        <time>2015-11-08T09:51:39Z</time>
      </trkpt>
      <trkpt lat="46.062702527269721" lon="9.222860522568226">
        <ele>1315.7</ele>
        <time>2015-11-08T09:51:48Z</time>
      </trkpt>
      <trkpt lat="46.062702862545848" lon="9.222857505083084">
        <ele>1315.22</ele>
        <time>2015-11-08T09:51:49Z</time>
      </trkpt>
      <trkpt lat="46.06270445510745" lon="9.222814589738846">
        <ele>1315.22</ele>
        <time>2015-11-08T09:52:03Z</time>
      </trkpt>
      <trkpt lat="46.062729097902775" lon="9.222661536186934">
        <ele>1314.74</ele>
        <time>2015-11-08T09:52:13Z</time>
      </trkpt>
      <trkpt lat="46.062735384330153" lon="9.222607305273414">
        <ele>1315.22</ele>
        <time>2015-11-08T09:52:17Z</time>
      </trkpt>
      <trkpt lat="46.062715770676732" lon="9.222530024126172">
        <ele>1314.74</ele>
        <time>2015-11-08T09:52:22Z</time>
      </trkpt>
      <trkpt lat="46.062654415145516" lon="9.22243757173419">
        <ele>1317.1400000000001</ele>
        <time>2015-11-08T09:52:34Z</time>
      </trkpt>
      <trkpt lat="46.062606973573565" lon="9.222373785451055">
        <ele>1318.0999999999999</ele>
        <time>2015-11-08T09:52:41Z</time>
      </trkpt>
      <trkpt lat="46.062529776245356" lon="9.222302874550223">
        <ele>1317.1400000000001</ele>
        <time>2015-11-08T09:52:52Z</time>
      </trkpt>
      <trkpt lat="46.062463391572237" lon="9.222085364162922">
        <ele>1317.1400000000001</ele>
        <time>2015-11-08T09:53:06Z</time>
      </trkpt>
      <trkpt lat="46.062445621937513" lon="9.221892077475786">
        <ele>1318.0999999999999</ele>
        <time>2015-11-08T09:53:19Z</time>
      </trkpt>
      <trkpt lat="46.062461547553539" lon="9.22172854654491">
        <ele>1318.5899999999999</ele>
        <time>2015-11-08T09:53:30Z</time>
      </trkpt>
      <trkpt lat="46.062477389350533" lon="9.221590496599674">
        <ele>1319.55</ele>
        <time>2015-11-08T09:53:39Z</time>
      </trkpt>
      <trkpt lat="46.062479903921485" lon="9.22138262540102">
        <ele>1320.51</ele>
        <time>2015-11-08T09:53:53Z</time>
      </trkpt>
      <trkpt lat="46.062496416270733" lon="9.221222782507539">
        <ele>1321.95</ele>
        <time>2015-11-08T09:54:05Z</time>
      </trkpt>
      <trkpt lat="46.062507815659046" lon="9.221065538004041">
        <ele>1321.95</ele>
        <time>2015-11-08T09:54:16Z</time>
      </trkpt>
      <trkpt lat="46.06254075653851" lon="9.220951041206718">
        <ele>1322.9100000000001</ele>
        <time>2015-11-08T09:54:27Z</time>
      </trkpt>
      <trkpt lat="46.062555592507124" lon="9.220817098394036">
        <ele>1324.3499999999999</ele>
        <time>2015-11-08T09:54:40Z</time>
      </trkpt>
      <trkpt lat="46.062505887821317" lon="9.220803184434772">
        <ele>1324.3499999999999</ele>
        <time>2015-11-08T09:54:53Z</time>
      </trkpt>
      <trkpt lat="46.062470097094774" lon="9.220801927149296">
        <ele>1324.8299999999999</ele>
        <time>2015-11-08T09:55:04Z</time>
      </trkpt>
      <trkpt lat="46.06244788505137" lon="9.22080553136766">
        <ele>1324.8299999999999</ele>
        <time>2015-11-08T09:55:06Z</time>
      </trkpt>
      <trkpt lat="46.062376471236348" lon="9.220747528597713">
        <ele>1324.3499999999999</ele>
        <time>2015-11-08T09:55:17Z</time>
      </trkpt>
      <trkpt lat="46.062312014400959" lon="9.220669828355312">
        <ele>1325.3099999999999</ele>
        <time>2015-11-08T09:55:26Z</time>
      </trkpt>
      <trkpt lat="46.062265830114484" lon="9.220633115619421">
        <ele>1325.8</ele>
        <time>2015-11-08T09:55:31Z</time>
      </trkpt>
      <trkpt lat="46.062218975275755" lon="9.220512416213751">
        <ele>1328.2</ele>
        <time>2015-11-08T09:55:43Z</time>
      </trkpt>
      <trkpt lat="46.062157284468412" lon="9.220558097586036">
        <ele>1329.1600000000001</ele>
        <time>2015-11-08T09:55:53Z</time>
      </trkpt>
      <trkpt lat="46.062077404931188" lon="9.220603108406067">
        <ele>1331.5599999999999</ele>
        <time>2015-11-08T09:56:04Z</time>
      </trkpt>
      <trkpt lat="46.062003979459405" lon="9.220574526116252">
        <ele>1333.01</ele>
        <time>2015-11-08T09:56:16Z</time>
      </trkpt>
      <trkpt lat="46.061953855678439" lon="9.220555666834116">
        <ele>1334.45</ele>
        <time>2015-11-08T09:56:26Z</time>
      </trkpt>
      <trkpt lat="46.061946395784616" lon="9.220556672662497">
        <ele>1334.9300000000001</ele>
        <time>2015-11-08T09:56:36Z</time>
      </trkpt>
      <trkpt lat="46.06190892867744" lon="9.220545524731278">
        <ele>1335.8900000000001</ele>
        <time>2015-11-08T09:56:49Z</time>
      </trkpt>
      <trkpt lat="46.061940779909492" lon="9.220514427870512">
        <ele>1335.8900000000001</ele>
        <time>2015-11-08T09:57:06Z</time>
      </trkpt>
      <trkpt lat="46.061926446855068" lon="9.220505375415087">
        <ele>1335.8900000000001</ele>
        <time>2015-11-08T09:57:22Z</time>
      </trkpt>
      <trkpt lat="46.06188403442502" lon="9.220447037369013">
        <ele>1336.3699999999999</ele>
        <time>2015-11-08T09:57:32Z</time>
      </trkpt>
      <trkpt lat="46.061897026374936" lon="9.220463298261166">
        <ele>1336.8499999999999</ele>
        <time>2015-11-08T09:57:46Z</time>
      </trkpt>
      <trkpt lat="46.061907168477774" lon="9.220460867509246">
        <ele>1336.8499999999999</ele>
        <time>2015-11-08T09:58:01Z</time>
      </trkpt>
      <trkpt lat="46.061902139335871" lon="9.220469081774354">
        <ele>1336.8499999999999</ele>
        <time>2015-11-08T09:58:13Z</time>
      </trkpt>
      <trkpt lat="46.061876323074102" lon="9.220389034599066">
        <ele>1336.8499999999999</ele>
        <time>2015-11-08T09:58:31Z</time>
      </trkpt>
      <trkpt lat="46.061845142394304" lon="9.220305969938636">
        <ele>1337.8099999999999</ele>
        <time>2015-11-08T09:58:42Z</time>
      </trkpt>
      <trkpt lat="46.061844974756241" lon="9.220246458426118">
        <ele>1338.77</ele>
        <time>2015-11-08T09:58:53Z</time>
      </trkpt>
      <trkpt lat="46.061840867623687" lon="9.220151072368026">
        <ele>1339.73</ele>
        <time>2015-11-08T09:59:02Z</time>
      </trkpt>
      <trkpt lat="46.061845142394304" lon="9.220075970515609">
        <ele>1342.1400000000001</ele>
        <time>2015-11-08T09:59:14Z</time>
      </trkpt>
      <trkpt lat="46.061834245920181" lon="9.219967341050506">
        <ele>1343.0999999999999</ele>
        <time>2015-11-08T09:59:24Z</time>
      </trkpt>
      <trkpt lat="46.061818320304155" lon="9.219858711585403">
        <ele>1345.98</ele>
        <time>2015-11-08T09:59:36Z</time>
      </trkpt>
      <trkpt lat="46.061768280342221" lon="9.219759972766042">
        <ele>1347.9100000000001</ele>
        <time>2015-11-08T09:59:47Z</time>
      </trkpt>
      <trkpt lat="46.061727711930871" lon="9.21965042129159">
        <ele>1348.8699999999999</ele>
        <time>2015-11-08T09:59:58Z</time>
      </trkpt>
      <trkpt lat="46.061702650040388" lon="9.219560148194432">
        <ele>1349.8299999999999</ele>
        <time>2015-11-08T10:00:06Z</time>
      </trkpt>
      <trkpt lat="46.061686556786299" lon="9.219502899795771">
        <ele>1350.3099999999999</ele>
        <time>2015-11-08T10:00:17Z</time>
      </trkpt>
      <trkpt lat="46.06168613769114" lon="9.21941882930696">
        <ele>1350.79</ele>
        <time>2015-11-08T10:00:30Z</time>
      </trkpt>
      <trkpt lat="46.061689993366599" lon="9.219386391341686">
        <ele>1350.79</ele>
        <time>2015-11-08T10:00:32Z</time>
      </trkpt>
      <trkpt lat="46.061657723039389" lon="9.219254711642861">
        <ele>1352.23</ele>
        <time>2015-11-08T10:00:43Z</time>
      </trkpt>
      <trkpt lat="46.061620842665434" lon="9.219210958108306">
        <ele>1353.6700000000001</ele>
        <time>2015-11-08T10:00:51Z</time>
      </trkpt>
      <trkpt lat="46.061569796875119" lon="9.219110459089279">
        <ele>1355.5999999999999</ele>
        <time>2015-11-08T10:01:02Z</time>
      </trkpt>
      <trkpt lat="46.06157029978931" lon="9.21905480325222">
        <ele>1356.0799999999999</ele>
        <time>2015-11-08T10:01:12Z</time>
      </trkpt>
      <trkpt lat="46.061560912057757" lon="9.218978192657232">
        <ele>1357.04</ele>
        <time>2015-11-08T10:01:26Z</time>
      </trkpt>
      <trkpt lat="46.061552027240396" lon="9.218859169632196">
        <ele>1358.48</ele>
        <time>2015-11-08T10:01:37Z</time>
      </trkpt>
      <trkpt lat="46.061578178778291" lon="9.218758419156075">
        <ele>1360.8800000000001</ele>
        <time>2015-11-08T10:01:48Z</time>
      </trkpt>
      <trkpt lat="46.061563929542899" lon="9.218695722520351">
        <ele>1363.29</ele>
        <time>2015-11-08T10:02:00Z</time>
      </trkpt>
      <trkpt lat="46.061561498790979" lon="9.218671666458249">
        <ele>1363.77</ele>
        <time>2015-11-08T10:02:09Z</time>
      </trkpt>
      <trkpt lat="46.061552111059427" lon="9.21869077719748">
        <ele>1364.25</ele>
        <time>2015-11-08T10:02:21Z</time>
      </trkpt>
      <trkpt lat="46.061546159908175" lon="9.218713659793139">
        <ele>1364.25</ele>
        <time>2015-11-08T10:02:41Z</time>
      </trkpt>
      <trkpt lat="46.061533838510513" lon="9.218746265396476">
        <ele>1364.25</ele>
        <time>2015-11-08T10:02:56Z</time>
      </trkpt>
      <trkpt lat="46.061512045562267" lon="9.218724807724357">
        <ele>1364.73</ele>
        <time>2015-11-08T10:03:09Z</time>
      </trkpt>
      <trkpt lat="46.061452114954591" lon="9.218706786632538">
        <ele>1366.6500000000001</ele>
        <time>2015-11-08T10:03:19Z</time>
      </trkpt>
      <trkpt lat="46.061420515179634" lon="9.218696225434542">
        <ele>1367.6099999999999</ele>
        <time>2015-11-08T10:03:29Z</time>
      </trkpt>
      <trkpt lat="46.061400566250086" lon="9.218689100816846">
        <ele>1369.05</ele>
        <time>2015-11-08T10:03:37Z</time>
      </trkpt>
      <trkpt lat="46.061394279822707" lon="9.218685328960419">
        <ele>1369.05</ele>
        <time>2015-11-08T10:03:38Z</time>
      </trkpt>
      <trkpt lat="46.061348514631391" lon="9.218648448586464">
        <ele>1370.5</ele>
        <time>2015-11-08T10:03:46Z</time>
      </trkpt>
      <trkpt lat="46.061323285102844" lon="9.218586757779121">
        <ele>1371.9400000000001</ele>
        <time>2015-11-08T10:03:57Z</time>
      </trkpt>
      <trkpt lat="46.061311466619372" lon="9.21858181245625">
        <ele>1373.8599999999999</ele>
        <time>2015-11-08T10:04:06Z</time>
      </trkpt>
      <trkpt lat="46.061299983412027" lon="9.218571335077286">
        <ele>1374.3399999999999</ele>
        <time>2015-11-08T10:04:17Z</time>
      </trkpt>
      <trkpt lat="46.061258325353265" lon="9.218526156619191">
        <ele>1375.78</ele>
        <time>2015-11-08T10:04:27Z</time>
      </trkpt>
      <trkpt lat="46.061226474121213" lon="9.218538058921695">
        <ele>1377.71</ele>
        <time>2015-11-08T10:04:36Z</time>
      </trkpt>
      <trkpt lat="46.061204178258777" lon="9.21852900646627">
        <ele>1377.23</ele>
        <time>2015-11-08T10:04:46Z</time>
      </trkpt>
      <trkpt lat="46.06112714856863" lon="9.21853244304657">
        <ele>1378.6700000000001</ele>
        <time>2015-11-08T10:04:58Z</time>
      </trkpt>
      <trkpt lat="46.061105187982321" lon="9.218541998416185">
        <ele>1378.6700000000001</ele>
        <time>2015-11-08T10:05:17Z</time>
      </trkpt>
      <trkpt lat="46.060984069481492" lon="9.218515511602163">
        <ele>1377.23</ele>
        <time>2015-11-08T10:05:29Z</time>
      </trkpt>
      <trkpt lat="46.060848198831081" lon="9.218562953174114">
        <ele>1374.8199999999999</ele>
        <time>2015-11-08T10:05:40Z</time>
      </trkpt>
      <trkpt lat="46.06073034927249" lon="9.218590361997485">
        <ele>1374.8199999999999</ele>
        <time>2015-11-08T10:05:52Z</time>
      </trkpt>
      <trkpt lat="46.060739737004042" lon="9.218555158004165">
        <ele>1374.8199999999999</ele>
        <time>2015-11-08T10:06:04Z</time>
      </trkpt>
      <trkpt lat="46.060574613511562" lon="9.21866437420249">
        <ele>1372.9000000000001</ele>
        <time>2015-11-08T10:06:16Z</time>
      </trkpt>
      <trkpt lat="46.060437485575676" lon="9.218740817159414">
        <ele>1371.9400000000001</ele>
        <time>2015-11-08T10:06:29Z</time>
      </trkpt>
      <trkpt lat="46.060385853052139" lon="9.218776943162084">
        <ele>1372.4200000000001</ele>
        <time>2015-11-08T10:06:38Z</time>
      </trkpt>
      <trkpt lat="46.060357186943293" lon="9.218818852677941">
        <ele>1370.02</ele>
        <time>2015-11-08T10:06:47Z</time>
      </trkpt>
      <trkpt lat="46.060352493077517" lon="9.218817092478275">
        <ele>1370.02</ele>
        <time>2015-11-08T10:06:59Z</time>
      </trkpt>
      <trkpt lat="46.060323743149638" lon="9.218834275379777">
        <ele>1369.54</ele>
        <time>2015-11-08T10:07:28Z</time>
      </trkpt>
      <trkpt lat="46.060352493077517" lon="9.218759257346392">
        <ele>1370.02</ele>
        <time>2015-11-08T10:07:50Z</time>
      </trkpt>
      <trkpt lat="46.060358947142959" lon="9.218770572915673">
        <ele>1370.02</ele>
        <time>2015-11-08T10:08:14Z</time>
      </trkpt>
      <trkpt lat="46.060355845838785" lon="9.218813991174102">
        <ele>1370.5</ele>
        <time>2015-11-08T10:08:40Z</time>
      </trkpt>
      <trkpt lat="46.06033505871892" lon="9.218801837414503">
        <ele>1370.02</ele>
        <time>2015-11-08T10:09:01Z</time>
      </trkpt>
      <trkpt lat="46.06037269346416" lon="9.218773925676942">
        <ele>1370.5</ele>
        <time>2015-11-08T10:09:32Z</time>
      </trkpt>
      <trkpt lat="46.060358779504895" lon="9.218782559037209">
        <ele>1370.5</ele>
        <time>2015-11-08T10:10:01Z</time>
      </trkpt>
      <trkpt lat="46.060346625745296" lon="9.218816254287958">
        <ele>1370.5</ele>
        <time>2015-11-08T10:10:23Z</time>
      </trkpt>
      <trkpt lat="46.060349559411407" lon="9.218819187954068">
        <ele>1370.5</ele>
        <time>2015-11-08T10:10:43Z</time>
      </trkpt>
      <trkpt lat="46.060344027355313" lon="9.21881290152669">
        <ele>1370.5</ele>
        <time>2015-11-08T10:11:01Z</time>
      </trkpt>
      <trkpt lat="46.060344614088535" lon="9.218773506581783">
        <ele>1370.5</ele>
        <time>2015-11-08T10:11:22Z</time>
      </trkpt>
      <trkpt lat="46.060317121446133" lon="9.218796389177442">
        <ele>1370.5</ele>
        <time>2015-11-08T10:11:49Z</time>
      </trkpt>
      <trkpt lat="46.060324665158987" lon="9.218810889869928">
        <ele>1370.5</ele>
        <time>2015-11-08T10:12:15Z</time>
      </trkpt>
      <trkpt lat="46.060299184173346" lon="9.218794880434871">
        <ele>1370.98</ele>
        <time>2015-11-08T10:12:39Z</time>
      </trkpt>
      <trkpt lat="46.060317624360323" lon="9.218763196840882">
        <ele>1370.98</ele>
        <time>2015-11-08T10:13:08Z</time>
      </trkpt>
      <trkpt lat="46.06030035763979" lon="9.218769064173102">
        <ele>1371.46</ele>
        <time>2015-11-08T10:13:34Z</time>
      </trkpt>
      <trkpt lat="46.060336735099554" lon="9.218768812716007">
        <ele>1371.46</ele>
        <time>2015-11-08T10:13:55Z</time>
      </trkpt>
      <trkpt lat="46.060354085639119" lon="9.218810638412833">
        <ele>1371.46</ele>
        <time>2015-11-08T10:14:20Z</time>
      </trkpt>
      <trkpt lat="46.06036489829421" lon="9.218819690868259">
        <ele>1372.9000000000001</ele>
        <time>2015-11-08T10:14:42Z</time>
      </trkpt>
      <trkpt lat="46.060339584946632" lon="9.218781385570765">
        <ele>1371.9400000000001</ele>
        <time>2015-11-08T10:15:06Z</time>
      </trkpt>
      <trkpt lat="46.060348218306899" lon="9.21878457069397">
        <ele>1371.9400000000001</ele>
        <time>2015-11-08T10:15:23Z</time>
      </trkpt>
      <trkpt lat="46.060363976284862" lon="9.21877970919013">
        <ele>1372.4200000000001</ele>
        <time>2015-11-08T10:15:47Z</time>
      </trkpt>
      <trkpt lat="46.06033556163311" lon="9.218806866556406">
        <ele>1372.4200000000001</ele>
        <time>2015-11-08T10:16:14Z</time>
      </trkpt>
      <trkpt lat="46.060297591611743" lon="9.218773422762752">
        <ele>1372.4200000000001</ele>
        <time>2015-11-08T10:16:37Z</time>
      </trkpt>
      <trkpt lat="46.06033899821341" lon="9.218778032809496">
        <ele>1372.9000000000001</ele>
        <time>2015-11-08T10:17:03Z</time>
      </trkpt>
      <trkpt lat="46.060339668765664" lon="9.218834610655904">
        <ele>1372.9000000000001</ele>
        <time>2015-11-08T10:17:16Z</time>
      </trkpt>
      <trkpt lat="46.060326592996716" lon="9.218801418319345">
        <ele>1373.3800000000001</ele>
        <time>2015-11-08T10:17:28Z</time>
      </trkpt>
      <trkpt lat="46.06034193187952" lon="9.218800831586123">
        <ele>1373.8599999999999</ele>
        <time>2015-11-08T10:17:39Z</time>
      </trkpt>
      <trkpt lat="46.060377554967999" lon="9.218794042244554">
        <ele>1373.8599999999999</ele>
        <time>2015-11-08T10:17:52Z</time>
      </trkpt>
      <trkpt lat="46.060414351522923" lon="9.218809045851231">
        <ele>1373.8599999999999</ele>
        <time>2015-11-08T10:18:09Z</time>
      </trkpt>
      <trkpt lat="46.060376549139619" lon="9.218805693089962">
        <ele>1373.8599999999999</ele>
        <time>2015-11-08T10:18:19Z</time>
      </trkpt>
      <trkpt lat="46.060384344309568" lon="9.218838382512331">
        <ele>1373.8599999999999</ele>
        <time>2015-11-08T10:18:31Z</time>
      </trkpt>
      <trkpt lat="46.060395492240787" lon="9.218801921233535">
        <ele>1373.8599999999999</ele>
        <time>2015-11-08T10:18:42Z</time>
      </trkpt>
      <trkpt lat="46.060386020690203" lon="9.218802843242884">
        <ele>1373.8599999999999</ele>
        <time>2015-11-08T10:18:59Z</time>
      </trkpt>
      <trkpt lat="46.060373950749636" lon="9.21879387460649">
        <ele>1373.8599999999999</ele>
        <time>2015-11-08T10:19:13Z</time>
      </trkpt>
      <trkpt lat="46.060373280197382" lon="9.218799993395805">
        <ele>1373.8599999999999</ele>
        <time>2015-11-08T10:19:25Z</time>
      </trkpt>
      <trkpt lat="46.060371771454811" lon="9.218819355592132">
        <ele>1373.8599999999999</ele>
        <time>2015-11-08T10:19:40Z</time>
      </trkpt>
      <trkpt lat="46.060367496684194" lon="9.218788174912334">
        <ele>1373.8599999999999</ele>
        <time>2015-11-08T10:19:56Z</time>
      </trkpt>
      <trkpt lat="46.06035903096199" lon="9.21883343718946">
        <ele>1373.8599999999999</ele>
        <time>2015-11-08T10:20:12Z</time>
      </trkpt>
      <trkpt lat="46.060349810868502" lon="9.218806279823184">
        <ele>1373.8599999999999</ele>
        <time>2015-11-08T10:20:28Z</time>
      </trkpt>
      <trkpt lat="46.060357606038451" lon="9.21882756985724">
        <ele>1374.3399999999999</ele>
        <time>2015-11-08T10:20:40Z</time>
      </trkpt>
      <trkpt lat="46.060344781726599" lon="9.218809800222516">
        <ele>1374.8199999999999</ele>
        <time>2015-11-08T10:20:55Z</time>
      </trkpt>
      <trkpt lat="46.060361713171005" lon="9.218797143548727">
        <ele>1374.3399999999999</ele>
        <time>2015-11-08T10:21:11Z</time>
      </trkpt>
      <trkpt lat="46.060372358188033" lon="9.218802005052567">
        <ele>1374.3399999999999</ele>
        <time>2015-11-08T10:21:28Z</time>
      </trkpt>
      <trkpt lat="46.06034972704947" lon="9.218809045851231">
        <ele>1374.3399999999999</ele>
        <time>2015-11-08T10:21:41Z</time>
      </trkpt>
      <trkpt lat="46.060381662100554" lon="9.218860426917672">
        <ele>1374.3399999999999</ele>
        <time>2015-11-08T10:21:59Z</time>
      </trkpt>
      <trkpt lat="46.060369424521923" lon="9.218848273158073">
        <ele>1374.3399999999999</ele>
        <time>2015-11-08T10:22:09Z</time>
      </trkpt>
      <trkpt lat="46.060363138094544" lon="9.218827486038208">
        <ele>1374.3399999999999</ele>
        <time>2015-11-08T10:22:21Z</time>
      </trkpt>
      <trkpt lat="46.060389121994376" lon="9.218760933727026">
        <ele>1374.8199999999999</ele>
        <time>2015-11-08T10:22:33Z</time>
      </trkpt>
      <trkpt lat="46.060400856658816" lon="9.218774428591132">
        <ele>1375.3</ele>
        <time>2015-11-08T10:22:44Z</time>
      </trkpt>
      <trkpt lat="46.060424745082855" lon="9.218769483268261">
        <ele>1375.3</ele>
        <time>2015-11-08T10:23:00Z</time>
      </trkpt>
      <trkpt lat="46.06041518971324" lon="9.218741068616509">
        <ele>1375.3</ele>
        <time>2015-11-08T10:23:19Z</time>
      </trkpt>
      <trkpt lat="46.0604103282094" lon="9.218729753047228">
        <ele>1375.3</ele>
        <time>2015-11-08T10:23:37Z</time>
      </trkpt>
      <trkpt lat="46.060382584109902" lon="9.218725226819515">
        <ele>1375.3</ele>
        <time>2015-11-08T10:23:57Z</time>
      </trkpt>
      <trkpt lat="46.060419883579016" lon="9.218732183799148">
        <ele>1376.26</ele>
        <time>2015-11-08T10:24:06Z</time>
      </trkpt>
      <trkpt lat="46.060458859428763" lon="9.218702176585794">
        <ele>1377.23</ele>
        <time>2015-11-08T10:24:14Z</time>
      </trkpt>
      <trkpt lat="46.060441005975008" lon="9.21868683770299">
        <ele>1378.6700000000001</ele>
        <time>2015-11-08T10:24:24Z</time>
      </trkpt>
      <trkpt lat="46.060401946306229" lon="9.218622213229537">
        <ele>1380.5899999999999</ele>
        <time>2015-11-08T10:24:34Z</time>
      </trkpt>
      <trkpt lat="46.060377638787031" lon="9.218517187982798">
        <ele>1382.99</ele>
        <time>2015-11-08T10:24:46Z</time>
      </trkpt>
      <trkpt lat="46.060380572453141" lon="9.218496149405837">
        <ele>1383.96</ele>
        <time>2015-11-08T10:24:49Z</time>
      </trkpt>
      <trkpt lat="46.060392977669835" lon="9.218445271253586">
        <ele>1385.4000000000001</ele>
        <time>2015-11-08T10:24:59Z</time>
      </trkpt>
      <trkpt lat="46.060379818081856" lon="9.218370085582137">
        <ele>1387.8</ele>
        <time>2015-11-08T10:25:10Z</time>
      </trkpt>
      <trkpt lat="46.060361126437783" lon="9.218353405594826">
        <ele>1388.76</ele>
        <time>2015-11-08T10:25:19Z</time>
      </trkpt>
      <trkpt lat="46.06036632321775" lon="9.218339743092656">
        <ele>1388.76</ele>
        <time>2015-11-08T10:25:35Z</time>
      </trkpt>
      <trkpt lat="46.060351571068168" lon="9.218240836635232">
        <ele>1388.28</ele>
        <time>2015-11-08T10:25:41Z</time>
      </trkpt>
      <trkpt lat="46.060312930494547" lon="9.218198424205184">
        <ele>1387.3199999999999</ele>
        <time>2015-11-08T10:25:45Z</time>
      </trkpt>
      <trkpt lat="46.060279486700892" lon="9.218127513304353">
        <ele>1386.3599999999999</ele>
        <time>2015-11-08T10:25:50Z</time>
      </trkpt>
      <trkpt lat="46.060243947431445" lon="9.218048052862287">
        <ele>1385.8800000000001</ele>
        <time>2015-11-08T10:25:56Z</time>
      </trkpt>
      <trkpt lat="46.060237409546971" lon="9.21792215667665">
        <ele>1386.8399999999999</ele>
        <time>2015-11-08T10:26:06Z</time>
      </trkpt>
      <trkpt lat="46.06022609397769" lon="9.21782442368567">
        <ele>1388.28</ele>
        <time>2015-11-08T10:26:17Z</time>
      </trkpt>
      <trkpt lat="46.060213353484869" lon="9.217805312946439">
        <ele>1388.76</ele>
        <time>2015-11-08T10:26:20Z</time>
      </trkpt>
      <trkpt lat="46.060212766751647" lon="9.217717470601201">
        <ele>1389.24</ele>
        <time>2015-11-08T10:26:26Z</time>
      </trkpt>
      <trkpt lat="46.060204217210412" lon="9.217583108693361">
        <ele>1391.6500000000001</ele>
        <time>2015-11-08T10:26:37Z</time>
      </trkpt>
      <trkpt lat="46.06016993522644" lon="9.217545976862311">
        <ele>1392.1300000000001</ele>
        <time>2015-11-08T10:26:44Z</time>
      </trkpt>
      <trkpt lat="46.060139592736959" lon="9.217492835596204">
        <ele>1391.1700000000001</ele>
        <time>2015-11-08T10:26:54Z</time>
      </trkpt>
      <trkpt lat="46.060145208612084" lon="9.217461319640279">
        <ele>1393.5699999999999</ele>
        <time>2015-11-08T10:27:03Z</time>
      </trkpt>
      <trkpt lat="46.060094749554992" lon="9.217426450923085">
        <ele>1393.0899999999999</ele>
        <time>2015-11-08T10:27:12Z</time>
      </trkpt>
      <trkpt lat="46.060033394023776" lon="9.217359144240618">
        <ele>1395.01</ele>
        <time>2015-11-08T10:27:21Z</time>
      </trkpt>
      <trkpt lat="46.059941612184048" lon="9.217249760404229">
        <ele>1395.97</ele>
        <time>2015-11-08T10:27:31Z</time>
      </trkpt>
      <trkpt lat="46.059909844771028" lon="9.217130234465003">
        <ele>1395.49</ele>
        <time>2015-11-08T10:27:40Z</time>
      </trkpt>
      <trkpt lat="46.059812111780047" lon="9.216985311359167">
        <ele>1395.01</ele>
        <time>2015-11-08T10:27:53Z</time>
      </trkpt>
      <trkpt lat="46.059713456779718" lon="9.216873999685049">
        <ele>1394.53</ele>
        <time>2015-11-08T10:28:05Z</time>
      </trkpt>
      <trkpt lat="46.059651682153344" lon="9.21680660918355">
        <ele>1395.49</ele>
        <time>2015-11-08T10:28:13Z</time>
      </trkpt>
      <trkpt lat="46.059626704081893" lon="9.216704182326794">
        <ele>1395.97</ele>
        <time>2015-11-08T10:28:22Z</time>
      </trkpt>
      <trkpt lat="46.059603402391076" lon="9.216672582551837">
        <ele>1395.97</ele>
        <time>2015-11-08T10:28:30Z</time>
      </trkpt>
      <trkpt lat="46.059587057679892" lon="9.216622626408935">
        <ele>1395.49</ele>
        <time>2015-11-08T10:28:34Z</time>
      </trkpt>
      <trkpt lat="46.059563001617789" lon="9.216549200937152">
        <ele>1395.49</ele>
        <time>2015-11-08T10:28:39Z</time>
      </trkpt>
      <trkpt lat="46.059561660513282" lon="9.216467812657356">
        <ele>1395.01</ele>
        <time>2015-11-08T10:28:44Z</time>
      </trkpt>
      <trkpt lat="46.059532994404435" lon="9.216427663341165">
        <ele>1395.01</ele>
        <time>2015-11-08T10:28:50Z</time>
      </trkpt>
      <trkpt lat="46.059433165937662" lon="9.216358261182904">
        <ele>1396.9300000000001</ele>
        <time>2015-11-08T10:29:03Z</time>
      </trkpt>
      <trkpt lat="46.059330822899938" lon="9.216275615617633">
        <ele>1396.9300000000001</ele>
        <time>2015-11-08T10:29:14Z</time>
      </trkpt>
      <trkpt lat="46.05922244489193" lon="9.216182408854365">
        <ele>1399.3399999999999</ele>
        <time>2015-11-08T10:29:26Z</time>
      </trkpt>
      <trkpt lat="46.059193024411798" lon="9.216105714440346">
        <ele>1400.78</ele>
        <time>2015-11-08T10:29:33Z</time>
      </trkpt>
      <trkpt lat="46.059177182614803" lon="9.216053327545524">
        <ele>1401.74</ele>
        <time>2015-11-08T10:29:45Z</time>
      </trkpt>
      <trkpt lat="46.05915941298008" lon="9.216017285361886">
        <ele>1402.22</ele>
        <time>2015-11-08T10:29:54Z</time>
      </trkpt>
      <trkpt lat="46.059087244793773" lon="9.215907733887434">
        <ele>1403.1800000000001</ele>
        <time>2015-11-08T10:30:05Z</time>
      </trkpt>
      <trkpt lat="46.059060338884592" lon="9.21587579883635">
        <ele>1404.1400000000001</ele>
        <time>2015-11-08T10:30:15Z</time>
      </trkpt>
      <trkpt lat="46.05903628282249" lon="9.215904045850039">
        <ele>1405.0999999999999</ele>
        <time>2015-11-08T10:30:26Z</time>
      </trkpt>
      <trkpt lat="46.059001917019486" lon="9.215828524902463">
        <ele>1406.0699999999999</ele>
        <time>2015-11-08T10:30:34Z</time>
      </trkpt>
      <trkpt lat="46.058937544003129" lon="9.215774210169911">
        <ele>1405.5799999999999</ele>
        <time>2015-11-08T10:30:42Z</time>
      </trkpt>
      <trkpt lat="46.058852467685938" lon="9.215794242918491">
        <ele>1406.0699999999999</ele>
        <time>2015-11-08T10:30:52Z</time>
      </trkpt>
      <trkpt lat="46.058836206793785" lon="9.215785609558225">
        <ele>1405.5799999999999</ele>
        <time>2015-11-08T10:30:54Z</time>
      </trkpt>
      <trkpt lat="46.058784574270248" lon="9.215734396129847">
        <ele>1406.55</ele>
        <time>2015-11-08T10:31:00Z</time>
      </trkpt>
      <trkpt lat="46.058704275637865" lon="9.215714950114489">
        <ele>1407.51</ele>
        <time>2015-11-08T10:31:11Z</time>
      </trkpt>
      <trkpt lat="46.058684075251222" lon="9.215727355331183">
        <ele>1408.47</ele>
        <time>2015-11-08T10:31:15Z</time>
      </trkpt>
      <trkpt lat="46.058605704456568" lon="9.215701371431351">
        <ele>1410.8699999999999</ele>
        <time>2015-11-08T10:31:27Z</time>
      </trkpt>
      <trkpt lat="46.058568740263581" lon="9.215725343674421">
        <ele>1412.79</ele>
        <time>2015-11-08T10:31:36Z</time>
      </trkpt>
      <trkpt lat="46.058545522391796" lon="9.215713189914823">
        <ele>1414.24</ele>
        <time>2015-11-08T10:31:45Z</time>
      </trkpt>
      <trkpt lat="46.05852272361517" lon="9.215668430551887">
        <ele>1416.1600000000001</ele>
        <time>2015-11-08T10:31:53Z</time>
      </trkpt>
      <trkpt lat="46.058488190174103" lon="9.215656276792288">
        <ele>1417.5999999999999</ele>
        <time>2015-11-08T10:32:04Z</time>
      </trkpt>
      <trkpt lat="46.058460529893637" lon="9.215578744187951">
        <ele>1418.5599999999999</ele>
        <time>2015-11-08T10:32:15Z</time>
      </trkpt>
      <trkpt lat="46.058454075828195" lon="9.21557086519897">
        <ele>1418.0799999999999</ele>
        <time>2015-11-08T10:32:25Z</time>
      </trkpt>
      <trkpt lat="46.058447370305657" lon="9.215569691732526">
        <ele>1418.5599999999999</ele>
        <time>2015-11-08T10:32:41Z</time>
      </trkpt>
      <trkpt lat="46.058490034192801" lon="9.215527446940541">
        <ele>1419.52</ele>
        <time>2015-11-08T10:32:55Z</time>
      </trkpt>
      <trkpt lat="46.058507552370429" lon="9.215549407526851">
        <ele>1420</ele>
        <time>2015-11-08T10:33:06Z</time>
      </trkpt>
      <trkpt lat="46.058485927060246" lon="9.215549156069756">
        <ele>1419.52</ele>
        <time>2015-11-08T10:33:20Z</time>
      </trkpt>
      <trkpt lat="46.058493554592133" lon="9.215537505224347">
        <ele>1419.52</ele>
        <time>2015-11-08T10:33:32Z</time>
      </trkpt>
      <trkpt lat="46.058480814099312" lon="9.215520573779941">
        <ele>1419.52</ele>
        <time>2015-11-08T10:33:49Z</time>
      </trkpt>
      <trkpt lat="46.058487519621849" lon="9.215530548244715">
        <ele>1419.52</ele>
        <time>2015-11-08T10:34:06Z</time>
      </trkpt>
      <trkpt lat="46.058483244851232" lon="9.215537589043379">
        <ele>1419.52</ele>
        <time>2015-11-08T10:34:20Z</time>
      </trkpt>
      <trkpt lat="46.058477126061916" lon="9.215535996481776">
        <ele>1419.52</ele>
        <time>2015-11-08T10:34:32Z</time>
      </trkpt>
      <trkpt lat="46.058463044464588" lon="9.21556600369513">
        <ele>1419.04</ele>
        <time>2015-11-08T10:34:43Z</time>
      </trkpt>
      <trkpt lat="46.058469582349062" lon="9.215556280687451">
        <ele>1419.04</ele>
        <time>2015-11-08T10:34:58Z</time>
      </trkpt>
      <trkpt lat="46.058487016707659" lon="9.21555913053453">
        <ele>1419.52</ele>
        <time>2015-11-08T10:35:09Z</time>
      </trkpt>
      <trkpt lat="46.058491794392467" lon="9.21555426903069">
        <ele>1419.52</ele>
        <time>2015-11-08T10:35:20Z</time>
      </trkpt>
      <trkpt lat="46.058520879596472" lon="9.215497775003314">
        <ele>1420.49</ele>
        <time>2015-11-08T10:35:32Z</time>
      </trkpt>
      <trkpt lat="46.058547114953399" lon="9.21546433120966">
        <ele>1421.45</ele>
        <time>2015-11-08T10:35:41Z</time>
      </trkpt>
      <trkpt lat="46.058554574847221" lon="9.215454524382949">
        <ele>1420.97</ele>
        <time>2015-11-08T10:35:51Z</time>
      </trkpt>
      <trkpt lat="46.058567063882947" lon="9.215369112789631">
        <ele>1420.49</ele>
        <time>2015-11-08T10:35:59Z</time>
      </trkpt>
      <trkpt lat="46.058627832680941" lon="9.21511497348547">
        <ele>1420.49</ele>
        <time>2015-11-08T10:36:14Z</time>
      </trkpt>
      <trkpt lat="46.058651469647884" lon="9.215096198022366">
        <ele>1420.97</ele>
        <time>2015-11-08T10:36:17Z</time>
      </trkpt>
      <trkpt lat="46.058738389983773" lon="9.215015061199665">
        <ele>1422.8900000000001</ele>
        <time>2015-11-08T10:36:29Z</time>
      </trkpt>
      <trkpt lat="46.058762613683939" lon="9.214964099228382">
        <ele>1424.3299999999999</ele>
        <time>2015-11-08T10:36:36Z</time>
      </trkpt>
      <trkpt lat="46.058791782706976" lon="9.214869467541575">
        <ele>1426.25</ele>
        <time>2015-11-08T10:36:46Z</time>
      </trkpt>
      <trkpt lat="46.058824472129345" lon="9.214772656559944">
        <ele>1427.7</ele>
        <time>2015-11-08T10:36:56Z</time>
      </trkpt>
      <trkpt lat="46.058891527354717" lon="9.214690010994673">
        <ele>1429.1400000000001</ele>
        <time>2015-11-08T10:37:08Z</time>
      </trkpt>
      <trkpt lat="46.058896807953715" lon="9.214613735675812">
        <ele>1431.54</ele>
        <time>2015-11-08T10:37:18Z</time>
      </trkpt>
      <trkpt lat="46.058883899822831" lon="9.214530838653445">
        <ele>1432.02</ele>
        <time>2015-11-08T10:37:28Z</time>
      </trkpt>
      <trkpt lat="46.058878116309643" lon="9.214476440101862">
        <ele>1430.5799999999999</ele>
        <time>2015-11-08T10:37:38Z</time>
      </trkpt>
      <trkpt lat="46.058882977813482" lon="9.214466968551278">
        <ele>1430.0999999999999</ele>
        <time>2015-11-08T10:37:39Z</time>
      </trkpt>
      <trkpt lat="46.058914242312312" lon="9.21440988779068">
        <ele>1429.1400000000001</ele>
        <time>2015-11-08T10:37:49Z</time>
      </trkpt>
      <trkpt lat="46.058913487941027" lon="9.214384825900197">
        <ele>1429.1400000000001</ele>
        <time>2015-11-08T10:38:05Z</time>
      </trkpt>
      <trkpt lat="46.058930167928338" lon="9.214346604421735">
        <ele>1427.21</ele>
        <time>2015-11-08T10:38:15Z</time>
      </trkpt>
      <trkpt lat="46.058986242860556" lon="9.214314501732588">
        <ele>1425.29</ele>
        <time>2015-11-08T10:38:26Z</time>
      </trkpt>
      <trkpt lat="46.059025218710303" lon="9.214271251112223">
        <ele>1424.3299999999999</ele>
        <time>2015-11-08T10:38:32Z</time>
      </trkpt>
      <trkpt lat="46.059037623926997" lon="9.214248284697533">
        <ele>1423.8499999999999</ele>
        <time>2015-11-08T10:38:34Z</time>
      </trkpt>
      <trkpt lat="46.059074085205793" lon="9.214207967743278">
        <ele>1422.8900000000001</ele>
        <time>2015-11-08T10:38:40Z</time>
      </trkpt>
      <trkpt lat="46.059153964743018" lon="9.214181145653129">
        <ele>1419.52</ele>
        <time>2015-11-08T10:38:51Z</time>
      </trkpt>
      <trkpt lat="46.059174751862884" lon="9.214156502857804">
        <ele>1419.52</ele>
        <time>2015-11-08T10:38:54Z</time>
      </trkpt>
      <trkpt lat="46.059158826246858" lon="9.214110737666488">
        <ele>1417.1199999999999</ele>
        <time>2015-11-08T10:39:02Z</time>
      </trkpt>
      <trkpt lat="46.059117252007127" lon="9.214088190346956">
        <ele>1415.2</ele>
        <time>2015-11-08T10:39:12Z</time>
      </trkpt>
      <trkpt lat="46.059118928387761" lon="9.214053489267826">
        <ele>1414.24</ele>
        <time>2015-11-08T10:39:16Z</time>
      </trkpt>
      <trkpt lat="46.05917357839644" lon="9.214004622772336">
        <ele>1411.8299999999999</ele>
        <time>2015-11-08T10:39:22Z</time>
      </trkpt>
      <trkpt lat="46.059210710227489" lon="9.213968329131603">
        <ele>1410.3900000000001</ele>
        <time>2015-11-08T10:39:27Z</time>
      </trkpt>
      <trkpt lat="46.059206686913967" lon="9.213885264471173">
        <ele>1409.9100000000001</ele>
        <time>2015-11-08T10:39:36Z</time>
      </trkpt>
      <trkpt lat="46.059214901179075" lon="9.2138113360852">
        <ele>1408.47</ele>
        <time>2015-11-08T10:39:45Z</time>
      </trkpt>
      <trkpt lat="46.05921808630228" lon="9.213800691068173">
        <ele>1408.47</ele>
        <time>2015-11-08T10:39:46Z</time>
      </trkpt>
      <trkpt lat="46.059226803481579" lon="9.213724248111248">
        <ele>1407.51</ele>
        <time>2015-11-08T10:39:51Z</time>
      </trkpt>
      <trkpt lat="46.059227054938674" lon="9.213652918115258">
        <ele>1406.55</ele>
        <time>2015-11-08T10:40:00Z</time>
      </trkpt>
      <trkpt lat="46.059228228405118" lon="9.213645793497562">
        <ele>1406.55</ele>
        <time>2015-11-08T10:40:05Z</time>
      </trkpt>
      <trkpt lat="46.059200149029493" lon="9.213608158752322">
        <ele>1406.0699999999999</ele>
        <time>2015-11-08T10:40:15Z</time>
      </trkpt>
      <trkpt lat="46.059183552861214" lon="9.213603464886546">
        <ele>1405.0999999999999</ele>
        <time>2015-11-08T10:40:23Z</time>
      </trkpt>
      <trkpt lat="46.059193443506956" lon="9.213596004992724">
        <ele>1405.0999999999999</ele>
        <time>2015-11-08T10:40:36Z</time>
      </trkpt>
      <trkpt lat="46.059153629466891" lon="9.213571194559336">
        <ele>1403.1800000000001</ele>
        <time>2015-11-08T10:40:45Z</time>
      </trkpt>
      <trkpt lat="46.059157233685255" lon="9.213530709967017">
        <ele>1404.1400000000001</ele>
        <time>2015-11-08T10:40:51Z</time>
      </trkpt>
      <trkpt lat="46.059162095189095" lon="9.213517047464848">
        <ele>1404.1400000000001</ele>
        <time>2015-11-08T10:41:07Z</time>
      </trkpt>
      <trkpt lat="46.05914918705821" lon="9.2134815081954">
        <ele>1406.0699999999999</ele>
        <time>2015-11-08T10:41:15Z</time>
      </trkpt>
      <trkpt lat="46.059155138209462" lon="9.213425852358341">
        <ele>1407.51</ele>
        <time>2015-11-08T10:41:28Z</time>
      </trkpt>
      <trkpt lat="46.059162430465221" lon="9.213465666398406">
        <ele>1407.03</ele>
        <time>2015-11-08T10:41:43Z</time>
      </trkpt>
      <trkpt lat="46.059174500405788" lon="9.21350883319974">
        <ele>1406.0699999999999</ele>
        <time>2015-11-08T10:41:53Z</time>
      </trkpt>
      <trkpt lat="46.059151953086257" lon="9.213419482111931">
        <ele>1407.03</ele>
        <time>2015-11-08T10:42:03Z</time>
      </trkpt>
      <trkpt lat="46.059168465435505" lon="9.213344883173704">
        <ele>1408.47</ele>
        <time>2015-11-08T10:42:12Z</time>
      </trkpt>
      <trkpt lat="46.059195036068559" lon="9.213287131860852">
        <ele>1409.4300000000001</ele>
        <time>2015-11-08T10:42:20Z</time>
      </trkpt>
      <trkpt lat="46.059187240898609" lon="9.213177328929305">
        <ele>1410.8699999999999</ele>
        <time>2015-11-08T10:42:30Z</time>
      </trkpt>
      <trkpt lat="46.059185983613133" lon="9.213072638958693">
        <ele>1411.3499999999999</ele>
        <time>2015-11-08T10:42:38Z</time>
      </trkpt>
      <trkpt lat="46.059185061603785" lon="9.212983120232821">
        <ele>1412.79</ele>
        <time>2015-11-08T10:42:48Z</time>
      </trkpt>
      <trkpt lat="46.059192102402449" lon="9.212923273444176">
        <ele>1416.6400000000001</ele>
        <time>2015-11-08T10:42:58Z</time>
      </trkpt>
      <trkpt lat="46.059200819581747" lon="9.212851943448186">
        <ele>1417.5999999999999</ele>
        <time>2015-11-08T10:43:07Z</time>
      </trkpt>
      <trkpt lat="46.059207189828157" lon="9.212836436927319">
        <ele>1419.04</ele>
        <time>2015-11-08T10:43:15Z</time>
      </trkpt>
      <trkpt lat="46.05921414680779" lon="9.212742308154702">
        <ele>1418.5599999999999</ele>
        <time>2015-11-08T10:43:35Z</time>
      </trkpt>
      <trkpt lat="46.059215990826488" lon="9.212780110538006">
        <ele>1418.5599999999999</ele>
        <time>2015-11-08T10:43:51Z</time>
      </trkpt>
      <trkpt lat="46.059217415750027" lon="9.212783966213465">
        <ele>1418.0799999999999</ele>
        <time>2015-11-08T10:44:12Z</time>
      </trkpt>
      <trkpt lat="46.059221606701612" lon="9.212788240984082">
        <ele>1418.5599999999999</ele>
        <time>2015-11-08T10:44:28Z</time>
      </trkpt>
      <trkpt lat="46.059208950027823" lon="9.21278958208859">
        <ele>1418.5599999999999</ele>
        <time>2015-11-08T10:44:44Z</time>
      </trkpt>
      <trkpt lat="46.059203753247857" lon="9.212767286226153">
        <ele>1418.5599999999999</ele>
        <time>2015-11-08T10:44:51Z</time>
      </trkpt>
      <trkpt lat="46.059211967512965" lon="9.212754294276238">
        <ele>1419.04</ele>
        <time>2015-11-08T10:45:02Z</time>
      </trkpt>
      <trkpt lat="46.059214901179075" lon="9.212748007848859">
        <ele>1419.04</ele>
        <time>2015-11-08T10:45:21Z</time>
      </trkpt>
      <trkpt lat="46.059227809309959" lon="9.212631331756711">
        <ele>1419.52</ele>
        <time>2015-11-08T10:45:31Z</time>
      </trkpt>
      <trkpt lat="46.05921808630228" lon="9.21250862069428">
        <ele>1421.9300000000001</ele>
        <time>2015-11-08T10:45:41Z</time>
      </trkpt>
      <trkpt lat="46.059213224798441" lon="9.212493700906634">
        <ele>1422.4100000000001</ele>
        <time>2015-11-08T10:45:43Z</time>
      </trkpt>
      <trkpt lat="46.05919411405921" lon="9.212325727567077">
        <ele>1422.4100000000001</ele>
        <time>2015-11-08T10:45:55Z</time>
      </trkpt>
      <trkpt lat="46.059194197878242" lon="9.21231172978878">
        <ele>1422.8900000000001</ele>
        <time>2015-11-08T10:45:56Z</time>
      </trkpt>
      <trkpt lat="46.059205932542682" lon="9.212249284610152">
        <ele>1422.8900000000001</ele>
        <time>2015-11-08T10:46:00Z</time>
      </trkpt>
      <trkpt lat="46.059206016361713" lon="9.21214752830565">
        <ele>1424.3299999999999</ele>
        <time>2015-11-08T10:46:10Z</time>
      </trkpt>
      <trkpt lat="46.059206519275904" lon="9.212069744244218">
        <ele>1426.25</ele>
        <time>2015-11-08T10:46:19Z</time>
      </trkpt>
      <trkpt lat="46.059239208698273" lon="9.211979135870934">
        <ele>1426.73</ele>
        <time>2015-11-08T10:46:26Z</time>
      </trkpt>
      <trkpt lat="46.05927960947156" lon="9.211951978504658">
        <ele>1427.7</ele>
        <time>2015-11-08T10:46:38Z</time>
      </trkpt>
      <trkpt lat="46.059312550351024" lon="9.211949966847897">
        <ele>1427.7</ele>
        <time>2015-11-08T10:46:52Z</time>
      </trkpt>
      <trkpt lat="46.059346832334995" lon="9.21192180365324">
        <ele>1428.6600000000001</ele>
        <time>2015-11-08T10:46:57Z</time>
      </trkpt>
      <trkpt lat="46.059371810406446" lon="9.211903950199485">
        <ele>1429.1400000000001</ele>
        <time>2015-11-08T10:47:00Z</time>
      </trkpt>
      <trkpt lat="46.059409361332655" lon="9.211817448958755">
        <ele>1430.5799999999999</ele>
        <time>2015-11-08T10:47:10Z</time>
      </trkpt>
      <trkpt lat="46.059431405737996" lon="9.211798338219523">
        <ele>1431.54</ele>
        <time>2015-11-08T10:47:19Z</time>
      </trkpt>
      <trkpt lat="46.059470968320966" lon="9.211763720959425">
        <ele>1434.4200000000001</ele>
        <time>2015-11-08T10:47:29Z</time>
      </trkpt>
      <trkpt lat="46.059499215334654" lon="9.211720302700996">
        <ele>1435.8699999999999</ele>
        <time>2015-11-08T10:47:37Z</time>
      </trkpt>
      <trkpt lat="46.059486893936992" lon="9.211744107306004">
        <ele>1436.3499999999999</ele>
        <time>2015-11-08T10:47:47Z</time>
      </trkpt>
      <trkpt lat="46.059532994404435" lon="9.211719296872616">
        <ele>1436.3499999999999</ele>
        <time>2015-11-08T10:47:57Z</time>
      </trkpt>
      <trkpt lat="46.059568282216787" lon="9.211631203070283">
        <ele>1436.3499999999999</ele>
        <time>2015-11-08T10:48:08Z</time>
      </trkpt>
      <trkpt lat="46.059590242803097" lon="9.211568338796496">
        <ele>1434.9100000000001</ele>
        <time>2015-11-08T10:48:14Z</time>
      </trkpt>
      <trkpt lat="46.059579765424132" lon="9.211461553350091">
        <ele>1432.5</ele>
        <time>2015-11-08T10:48:25Z</time>
      </trkpt>
      <trkpt lat="46.059574568644166" lon="9.211421739310026">
        <ele>1431.54</ele>
        <time>2015-11-08T10:48:29Z</time>
      </trkpt>
      <trkpt lat="46.059555038809776" lon="9.211320653557777">
        <ele>1430.0999999999999</ele>
        <time>2015-11-08T10:48:39Z</time>
      </trkpt>
      <trkpt lat="46.05955277569592" lon="9.211314534768462">
        <ele>1430.0999999999999</ele>
        <time>2015-11-08T10:48:40Z</time>
      </trkpt>
      <trkpt lat="46.059538945555687" lon="9.211263321340084">
        <ele>1430.5799999999999</ele>
        <time>2015-11-08T10:48:45Z</time>
      </trkpt>
      <trkpt lat="46.059517990797758" lon="9.211177574470639">
        <ele>1429.6199999999999</ele>
        <time>2015-11-08T10:48:54Z</time>
      </trkpt>
      <trkpt lat="46.059506423771381" lon="9.211180005222559">
        <ele>1430.0999999999999</ele>
        <time>2015-11-08T10:49:01Z</time>
      </trkpt>
      <trkpt lat="46.059500807896256" lon="9.211154943332076">
        <ele>1430.0999999999999</ele>
        <time>2015-11-08T10:49:12Z</time>
      </trkpt>
      <trkpt lat="46.059512123465538" lon="9.211174640804529">
        <ele>1430.0999999999999</ele>
        <time>2015-11-08T10:49:25Z</time>
      </trkpt>
      <trkpt lat="46.059493012726307" lon="9.211168857291341">
        <ele>1430.0999999999999</ele>
        <time>2015-11-08T10:49:44Z</time>
      </trkpt>
      <trkpt lat="46.059476332738996" lon="9.211187129840255">
        <ele>1430.0999999999999</ele>
        <time>2015-11-08T10:50:01Z</time>
      </trkpt>
      <trkpt lat="46.059487648308277" lon="9.211192242801189">
        <ele>1430.0999999999999</ele>
        <time>2015-11-08T10:50:18Z</time>
      </trkpt>
      <trkpt lat="46.059461077675223" lon="9.211066262796521">
        <ele>1432.02</ele>
        <time>2015-11-08T10:50:29Z</time>
      </trkpt>
      <trkpt lat="46.05944724753499" lon="9.211013456806541">
        <ele>1434.4200000000001</ele>
        <time>2015-11-08T10:50:38Z</time>
      </trkpt>
      <trkpt lat="46.059468453750014" lon="9.210926620289683">
        <ele>1437.3099999999999</ele>
        <time>2015-11-08T10:50:48Z</time>
      </trkpt>
      <trkpt lat="46.059455629438162" lon="9.21089518815279">
        <ele>1439.23</ele>
        <time>2015-11-08T10:50:53Z</time>
      </trkpt>
      <trkpt lat="46.05945898219943" lon="9.210842633619905">
        <ele>1440.1900000000001</ele>
        <time>2015-11-08T10:51:02Z</time>
      </trkpt>
      <trkpt lat="46.059478260576725" lon="9.210827462375164">
        <ele>1440.1900000000001</ele>
        <time>2015-11-08T10:51:16Z</time>
      </trkpt>
      <trkpt lat="46.0595244448632" lon="9.210764598101378">
        <ele>1441.1500000000001</ele>
        <time>2015-11-08T10:51:24Z</time>
      </trkpt>
      <trkpt lat="46.05954154394567" lon="9.210690502077341">
        <ele>1442.5999999999999</ele>
        <time>2015-11-08T10:51:31Z</time>
      </trkpt>
      <trkpt lat="46.059565767645836" lon="9.210605844855309">
        <ele>1444.52</ele>
        <time>2015-11-08T10:51:41Z</time>
      </trkpt>
      <trkpt lat="46.059574736282229" lon="9.210562845692039">
        <ele>1445.48</ele>
        <time>2015-11-08T10:51:46Z</time>
      </trkpt>
      <trkpt lat="46.059610024094582" lon="9.210458490997553">
        <ele>1446.4400000000001</ele>
        <time>2015-11-08T10:51:57Z</time>
      </trkpt>
      <trkpt lat="46.059648916125298" lon="9.210373666137457">
        <ele>1448.3599999999999</ele>
        <time>2015-11-08T10:52:08Z</time>
      </trkpt>
      <trkpt lat="46.059674313291907" lon="9.210257325321436">
        <ele>1449.8099999999999</ele>
        <time>2015-11-08T10:52:21Z</time>
      </trkpt>
      <trkpt lat="46.059679929167032" lon="9.210183480754495">
        <ele>1452.21</ele>
        <time>2015-11-08T10:52:35Z</time>
      </trkpt>
      <trkpt lat="46.059693256393075" lon="9.210111983120441">
        <ele>1454.6099999999999</ele>
        <time>2015-11-08T10:52:46Z</time>
      </trkpt>
      <trkpt lat="46.05968713760376" lon="9.210083903744817">
        <ele>1456.05</ele>
        <time>2015-11-08T10:52:56Z</time>
      </trkpt>
      <trkpt lat="46.059677749872208" lon="9.210020117461681">
        <ele>1457.98</ele>
        <time>2015-11-08T10:53:09Z</time>
      </trkpt>
      <trkpt lat="46.05966811068356" lon="9.209964880719781">
        <ele>1460.8599999999999</ele>
        <time>2015-11-08T10:53:18Z</time>
      </trkpt>
      <trkpt lat="46.059663668274879" lon="9.209890784695745">
        <ele>1462.78</ele>
        <time>2015-11-08T10:53:27Z</time>
      </trkpt>
      <trkpt lat="46.059681689366698" lon="9.20992087572813">
        <ele>1462.78</ele>
        <time>2015-11-08T10:53:37Z</time>
      </trkpt>
      <trkpt lat="46.059685293585062" lon="9.209923641756177">
        <ele>1463.26</ele>
        <time>2015-11-08T10:53:51Z</time>
      </trkpt>
      <trkpt lat="46.059669367969036" lon="9.209887012839317">
        <ele>1462.78</ele>
        <time>2015-11-08T10:54:00Z</time>
      </trkpt>
      <trkpt lat="46.059690741822124" lon="9.20987393707037">
        <ele>1463.74</ele>
        <time>2015-11-08T10:54:11Z</time>
      </trkpt>
      <trkpt lat="46.059708092361689" lon="9.209910817444325">
        <ele>1463.74</ele>
        <time>2015-11-08T10:54:28Z</time>
      </trkpt>
      <trkpt lat="46.05969057418406" lon="9.209909224882722">
        <ele>1463.26</ele>
        <time>2015-11-08T10:54:40Z</time>
      </trkpt>
      <trkpt lat="46.059697028249502" lon="9.209904111921787">
        <ele>1463.26</ele>
        <time>2015-11-08T10:54:54Z</time>
      </trkpt>
      <trkpt lat="46.059706415981054" lon="9.209895813837647">
        <ele>1463.26</ele>
        <time>2015-11-08T10:55:16Z</time>
      </trkpt>
      <trkpt lat="46.05967691168189" lon="9.209885420277715">
        <ele>1463.26</ele>
        <time>2015-11-08T10:55:31Z</time>
      </trkpt>
      <trkpt lat="46.05968956835568" lon="9.20986614190042">
        <ele>1463.74</ele>
        <time>2015-11-08T10:55:41Z</time>
      </trkpt>
      <trkpt lat="46.059697614982724" lon="9.209892712533474">
        <ele>1463.74</ele>
        <time>2015-11-08T10:55:53Z</time>
      </trkpt>
      <trkpt lat="46.059694765135646" lon="9.209881983697414">
        <ele>1463.74</ele>
        <time>2015-11-08T10:56:05Z</time>
      </trkpt>
      <trkpt lat="46.059697112068534" lon="9.209857005625963">
        <ele>1463.74</ele>
        <time>2015-11-08T10:56:21Z</time>
      </trkpt>
      <trkpt lat="46.059703482314944" lon="9.209836218506098">
        <ele>1464.23</ele>
        <time>2015-11-08T10:56:30Z</time>
      </trkpt>
      <trkpt lat="46.059742961078882" lon="9.209798667579889">
        <ele>1467.1099999999999</ele>
        <time>2015-11-08T10:56:42Z</time>
      </trkpt>
      <trkpt lat="46.059758886694908" lon="9.209747789427638">
        <ele>1469.51</ele>
        <time>2015-11-08T10:56:51Z</time>
      </trkpt>
      <trkpt lat="46.059770956635475" lon="9.209667909890413">
        <ele>1472.8800000000001</ele>
        <time>2015-11-08T10:57:02Z</time>
      </trkpt>
      <trkpt lat="46.059802891686559" lon="9.209624156355858">
        <ele>1473.3599999999999</ele>
        <time>2015-11-08T10:57:12Z</time>
      </trkpt>
      <trkpt lat="46.059820242226124" lon="9.209602111950517">
        <ele>1474.8</ele>
        <time>2015-11-08T10:57:22Z</time>
      </trkpt>
      <trkpt lat="46.059836419299245" lon="9.209551401436329">
        <ele>1476.72</ele>
        <time>2015-11-08T10:57:32Z</time>
      </trkpt>
      <trkpt lat="46.059839688241482" lon="9.209478562697768">
        <ele>1478.6500000000001</ele>
        <time>2015-11-08T10:57:42Z</time>
      </trkpt>
      <trkpt lat="46.059836251661181" lon="9.209490716457367">
        <ele>1479.6099999999999</ele>
        <time>2015-11-08T10:57:54Z</time>
      </trkpt>
      <trkpt lat="46.059842118993402" lon="9.209497421979904">
        <ele>1479.1300000000001</ele>
        <time>2015-11-08T10:58:15Z</time>
      </trkpt>
      <trkpt lat="46.059898445382714" lon="9.209458697587252">
        <ele>1481.05</ele>
        <time>2015-11-08T10:58:26Z</time>
      </trkpt>
      <trkpt lat="46.059935409575701" lon="9.209540002048016">
        <ele>1482.97</ele>
        <time>2015-11-08T10:58:35Z</time>
      </trkpt>
      <trkpt lat="46.059961561113596" lon="9.209562297910452">
        <ele>1485.3699999999999</ele>
        <time>2015-11-08T10:58:44Z</time>
      </trkpt>
      <trkpt lat="46.059995172545314" lon="9.209506893530488">
        <ele>1487.3</ele>
        <time>2015-11-08T10:58:53Z</time>
      </trkpt>
      <trkpt lat="46.060033058747649" lon="9.209593646228313">
        <ele>1491.1400000000001</ele>
        <time>2015-11-08T10:59:03Z</time>
      </trkpt>
      <trkpt lat="46.060058791190386" lon="9.20963941141963">
        <ele>1492.0999999999999</ele>
        <time>2015-11-08T10:59:13Z</time>
      </trkpt>
      <trkpt lat="46.06007413007319" lon="9.209669250994921">
        <ele>1493.55</ele>
        <time>2015-11-08T10:59:21Z</time>
      </trkpt>
      <trkpt lat="46.060098269954324" lon="9.20971711166203">
        <ele>1495.47</ele>
        <time>2015-11-08T10:59:31Z</time>
      </trkpt>
      <trkpt lat="46.060113608837128" lon="9.209766061976552">
        <ele>1497.3900000000001</ele>
        <time>2015-11-08T10:59:41Z</time>
      </trkpt>
      <trkpt lat="46.060132887214422" lon="9.209778802469373">
        <ele>1498.8299999999999</ele>
        <time>2015-11-08T10:59:51Z</time>
      </trkpt>
      <trkpt lat="46.060123667120934" lon="9.209794392809272">
        <ele>1499.3099999999999</ele>
        <time>2015-11-08T11:00:06Z</time>
      </trkpt>
      <trkpt lat="46.060109585523605" lon="9.209815850481391">
        <ele>1500.27</ele>
        <time>2015-11-08T11:00:15Z</time>
      </trkpt>
      <trkpt lat="46.060125511139631" lon="9.209819957613945">
        <ele>1501.24</ele>
        <time>2015-11-08T11:00:25Z</time>
      </trkpt>
      <trkpt lat="46.060139676555991" lon="9.209864968433976">
        <ele>1503.1600000000001</ele>
        <time>2015-11-08T11:00:34Z</time>
      </trkpt>
      <trkpt lat="46.060140933841467" lon="9.209872428327799">
        <ele>1504.5999999999999</ele>
        <time>2015-11-08T11:00:42Z</time>
      </trkpt>
      <trkpt lat="46.060132803395391" lon="9.209899418056011">
        <ele>1504.5999999999999</ele>
        <time>2015-11-08T11:00:54Z</time>
      </trkpt>
      <trkpt lat="46.060125008225441" lon="9.209910063073039">
        <ele>1504.1199999999999</ele>
        <time>2015-11-08T11:01:11Z</time>
      </trkpt>
      <trkpt lat="46.060115117579699" lon="9.20990377664566">
        <ele>1504.1199999999999</ele>
        <time>2015-11-08T11:01:23Z</time>
      </trkpt>
      <trkpt lat="46.060148309916258" lon="9.209905033931136">
        <ele>1504.5999999999999</ele>
        <time>2015-11-08T11:01:40Z</time>
      </trkpt>
      <trkpt lat="46.060159876942635" lon="9.209905872121453">
        <ele>1504.5999999999999</ele>
        <time>2015-11-08T11:01:56Z</time>
      </trkpt>
      <trkpt lat="46.060153087601066" lon="9.209891790524125">
        <ele>1504.1199999999999</ele>
        <time>2015-11-08T11:02:13Z</time>
      </trkpt>
      <trkpt lat="46.060128612443805" lon="9.209866812452674">
        <ele>1504.1199999999999</ele>
        <time>2015-11-08T11:02:34Z</time>
      </trkpt>
      <trkpt lat="46.060156105086207" lon="9.209886342287064">
        <ele>1504.5999999999999</ele>
        <time>2015-11-08T11:02:49Z</time>
      </trkpt>
      <trkpt lat="46.060185944661498" lon="9.209942752495408">
        <ele>1505.0799999999999</ele>
        <time>2015-11-08T11:02:58Z</time>
      </trkpt>
      <trkpt lat="46.060210922732949" lon="9.209958175197244">
        <ele>1507.48</ele>
        <time>2015-11-08T11:03:10Z</time>
      </trkpt>
      <trkpt lat="46.060207402333617" lon="9.209986506029964">
        <ele>1508.9300000000001</ele>
        <time>2015-11-08T11:03:21Z</time>
      </trkpt>
      <trkpt lat="46.060210335999727" lon="9.209958845749497">
        <ele>1510.3699999999999</ele>
        <time>2015-11-08T11:03:32Z</time>
      </trkpt>
      <trkpt lat="46.060223830863833" lon="9.210017686709762">
        <ele>1512.29</ele>
        <time>2015-11-08T11:03:42Z</time>
      </trkpt>
      <trkpt lat="46.060227937996387" lon="9.21007527038455">
        <ele>1513.73</ele>
        <time>2015-11-08T11:03:51Z</time>
      </trkpt>
      <trkpt lat="46.060253586620092" lon="9.210069486871362">
        <ele>1515.6600000000001</ele>
        <time>2015-11-08T11:04:03Z</time>
      </trkpt>
      <trkpt lat="46.060243360698223" lon="9.210133692249656">
        <ele>1517.0999999999999</ele>
        <time>2015-11-08T11:04:14Z</time>
      </trkpt>
      <trkpt lat="46.060236152261496" lon="9.210156910121441">
        <ele>1518.54</ele>
        <time>2015-11-08T11:04:22Z</time>
      </trkpt>
      <trkpt lat="46.060238666832447" lon="9.210156071931124">
        <ele>1518.54</ele>
        <time>2015-11-08T11:04:36Z</time>
      </trkpt>
      <trkpt lat="46.060263896360993" lon="9.210164872929454">
        <ele>1520.46</ele>
        <time>2015-11-08T11:04:46Z</time>
      </trkpt>
      <trkpt lat="46.0602583643049" lon="9.210199741646648">
        <ele>1521.4200000000001</ele>
        <time>2015-11-08T11:05:02Z</time>
      </trkpt>
      <trkpt lat="46.060224836692214" lon="9.210244752466679">
        <ele>1523.8299999999999</ele>
        <time>2015-11-08T11:05:12Z</time>
      </trkpt>
      <trkpt lat="46.06025006622076" lon="9.210257744416595">
        <ele>1524.3099999999999</ele>
        <time>2015-11-08T11:05:21Z</time>
      </trkpt>
      <trkpt lat="46.060268925502896" lon="9.210310131311417">
        <ele>1526.23</ele>
        <time>2015-11-08T11:05:34Z</time>
      </trkpt>
      <trkpt lat="46.060291389003396" lon="9.210314322263002">
        <ele>1527.1900000000001</ele>
        <time>2015-11-08T11:05:44Z</time>
      </trkpt>
      <trkpt lat="46.06032089330256" lon="9.210354974493384">
        <ele>1528.6300000000001</ele>
        <time>2015-11-08T11:05:57Z</time>
      </trkpt>
      <trkpt lat="46.060329778119922" lon="9.210332846269012">
        <ele>1529.1099999999999</ele>
        <time>2015-11-08T11:06:07Z</time>
      </trkpt>
      <trkpt lat="46.060349391773343" lon="9.210351537913084">
        <ele>1530.5599999999999</ele>
        <time>2015-11-08T11:06:15Z</time>
      </trkpt>
      <trkpt lat="46.060332627967" lon="9.210309628397226">
        <ele>1532</ele>
        <time>2015-11-08T11:06:24Z</time>
      </trkpt>
      <trkpt lat="46.060350397601724" lon="9.210295043885708">
        <ele>1533.4400000000001</ele>
        <time>2015-11-08T11:06:33Z</time>
      </trkpt>
      <trkpt lat="46.060371184721589" lon="9.210267467424274">
        <ele>1535.3599999999999</ele>
        <time>2015-11-08T11:06:48Z</time>
      </trkpt>
      <trkpt lat="46.060384092852473" lon="9.210290936753154">
        <ele>1536.3199999999999</ele>
        <time>2015-11-08T11:06:58Z</time>
      </trkpt>
      <trkpt lat="46.06038199737668" lon="9.210301665589213">
        <ele>1536.8</ele>
        <time>2015-11-08T11:07:13Z</time>
      </trkpt>
      <trkpt lat="46.06039565987885" lon="9.210288254544139">
        <ele>1537.77</ele>
        <time>2015-11-08T11:07:23Z</time>
      </trkpt>
      <trkpt lat="46.06043086387217" lon="9.210315914824605">
        <ele>1539.6900000000001</ele>
        <time>2015-11-08T11:07:33Z</time>
      </trkpt>
      <trkpt lat="46.060456763952971" lon="9.210349442437291">
        <ele>1541.6099999999999</ele>
        <time>2015-11-08T11:07:43Z</time>
      </trkpt>
      <trkpt lat="46.060474868863821" lon="9.210330583155155">
        <ele>1543.05</ele>
        <time>2015-11-08T11:07:54Z</time>
      </trkpt>
      <trkpt lat="46.060492973774672" lon="9.210321279242635">
        <ele>1544.5</ele>
        <time>2015-11-08T11:08:04Z</time>
      </trkpt>
      <trkpt lat="46.060487609356642" lon="9.210312310606241">
        <ele>1544.98</ele>
        <time>2015-11-08T11:08:14Z</time>
      </trkpt>
      <trkpt lat="46.060481490567327" lon="9.210306275635958">
        <ele>1544.98</ele>
        <time>2015-11-08T11:08:30Z</time>
      </trkpt>
      <trkpt lat="46.060489621013403" lon="9.210300156846643">
        <ele>1545.46</ele>
        <time>2015-11-08T11:08:45Z</time>
      </trkpt>
      <trkpt lat="46.060498086735606" lon="9.210274592041969">
        <ele>1546.4200000000001</ele>
        <time>2015-11-08T11:08:56Z</time>
      </trkpt>
      <trkpt lat="46.060532368719578" lon="9.210280543193221">
        <ele>1548.3399999999999</ele>
        <time>2015-11-08T11:09:05Z</time>
      </trkpt>
      <trkpt lat="46.060560112819076" lon="9.21028976328671">
        <ele>1549.78</ele>
        <time>2015-11-08T11:09:15Z</time>
      </trkpt>
      <trkpt lat="46.060560783371329" lon="9.210297139361501">
        <ele>1550.74</ele>
        <time>2015-11-08T11:09:26Z</time>
      </trkpt>
      <trkpt lat="46.060573859140277" lon="9.210284315049648">
        <ele>1551.22</ele>
        <time>2015-11-08T11:09:38Z</time>
      </trkpt>
      <trkpt lat="46.060586934909225" lon="9.21028196811676">
        <ele>1552.6700000000001</ele>
        <time>2015-11-08T11:09:50Z</time>
      </trkpt>
      <trkpt lat="46.060596238821745" lon="9.210289092734456">
        <ele>1554.1099999999999</ele>
        <time>2015-11-08T11:10:02Z</time>
      </trkpt>
      <trkpt lat="46.060592634603381" lon="9.210292529314756">
        <ele>1554.5899999999999</ele>
        <time>2015-11-08T11:10:16Z</time>
      </trkpt>
      <trkpt lat="46.060612667351961" lon="9.210301162675023">
        <ele>1556.51</ele>
        <time>2015-11-08T11:10:28Z</time>
      </trkpt>
      <trkpt lat="46.060620546340942" lon="9.210308790206909">
        <ele>1557.95</ele>
        <time>2015-11-08T11:10:36Z</time>
      </trkpt>
      <trkpt lat="46.060591712594032" lon="9.21024676412344">
        <ele>1557.95</ele>
        <time>2015-11-08T11:10:51Z</time>
      </trkpt>
      <trkpt lat="46.060631023719907" lon="9.210212482139468">
        <ele>1559.8800000000001</ele>
        <time>2015-11-08T11:11:02Z</time>
      </trkpt>
      <trkpt lat="46.060630772262812" lon="9.210202340036631">
        <ele>1561.3199999999999</ele>
        <time>2015-11-08T11:11:10Z</time>
      </trkpt>
      <trkpt lat="46.060626832768321" lon="9.210189767181873">
        <ele>1561.3199999999999</ele>
        <time>2015-11-08T11:11:19Z</time>
      </trkpt>
      <trkpt lat="46.060624653473496" lon="9.21016319654882">
        <ele>1562.28</ele>
        <time>2015-11-08T11:11:28Z</time>
      </trkpt>
      <trkpt lat="46.060627168044448" lon="9.21011726371944">
        <ele>1563.72</ele>
        <time>2015-11-08T11:11:36Z</time>
      </trkpt>
      <trkpt lat="46.060645105317235" lon="9.210114413872361">
        <ele>1563.72</ele>
        <time>2015-11-08T11:11:52Z</time>
      </trkpt>
      <trkpt lat="46.060628173872828" lon="9.210086418315768">
        <ele>1564.2</ele>
        <time>2015-11-08T11:12:04Z</time>
      </trkpt>
      <trkpt lat="46.060625407844782" lon="9.210056997835636">
        <ele>1565.1600000000001</ele>
        <time>2015-11-08T11:12:13Z</time>
      </trkpt>
      <trkpt lat="46.060631023719907" lon="9.210060518234968">
        <ele>1564.6800000000001</ele>
        <time>2015-11-08T11:12:28Z</time>
      </trkpt>
      <trkpt lat="46.060657594352961" lon="9.210048448294401">
        <ele>1566.6099999999999</ele>
        <time>2015-11-08T11:12:37Z</time>
      </trkpt>
      <trkpt lat="46.060663629323244" lon="9.210034953430295">
        <ele>1566.6099999999999</ele>
        <time>2015-11-08T11:12:55Z</time>
      </trkpt>
      <trkpt lat="46.060694307088852" lon="9.210023386403918">
        <ele>1567.5699999999999</ele>
        <time>2015-11-08T11:13:05Z</time>
      </trkpt>
      <trkpt lat="46.060708556324244" lon="9.209996061399579">
        <ele>1568.53</ele>
        <time>2015-11-08T11:13:14Z</time>
      </trkpt>
      <trkpt lat="46.06075482442975" lon="9.209985081106424">
        <ele>1570.9300000000001</ele>
        <time>2015-11-08T11:13:24Z</time>
      </trkpt>
      <trkpt lat="46.06077041476965" lon="9.210050208494067">
        <ele>1572.3699999999999</ele>
        <time>2015-11-08T11:13:34Z</time>
      </trkpt>
      <trkpt lat="46.060787262395024" lon="9.21007820405066">
        <ele>1573.3299999999999</ele>
        <time>2015-11-08T11:13:43Z</time>
      </trkpt>
      <trkpt lat="46.060806289315224" lon="9.210114665329456">
        <ele>1573.8199999999999</ele>
        <time>2015-11-08T11:13:54Z</time>
      </trkpt>
      <trkpt lat="46.06079681776464" lon="9.210149869322777">
        <ele>1574.78</ele>
        <time>2015-11-08T11:14:05Z</time>
      </trkpt>
      <trkpt lat="46.060787010937929" lon="9.210120029747486">
        <ele>1574.78</ele>
        <time>2015-11-08T11:14:18Z</time>
      </trkpt>
      <trkpt lat="46.060770750045776" lon="9.210107624530792">
        <ele>1574.78</ele>
        <time>2015-11-08T11:14:31Z</time>
      </trkpt>
      <trkpt lat="46.060767313465476" lon="9.21011290512979">
        <ele>1574.78</ele>
        <time>2015-11-08T11:14:49Z</time>
      </trkpt>
      <trkpt lat="46.060775192454457" lon="9.210079712793231">
        <ele>1574.78</ele>
        <time>2015-11-08T11:15:06Z</time>
      </trkpt>
      <trkpt lat="46.060768235474825" lon="9.210089016705751">
        <ele>1574.78</ele>
        <time>2015-11-08T11:15:19Z</time>
      </trkpt>
      <trkpt lat="46.06077921576798" lon="9.2101089656353">
        <ele>1575.26</ele>
        <time>2015-11-08T11:15:31Z</time>
      </trkpt>
      <trkpt lat="46.060787513852119" lon="9.210116006433964">
        <ele>1575.26</ele>
        <time>2015-11-08T11:15:49Z</time>
      </trkpt>
      <trkpt lat="46.060795057564974" lon="9.210133021697402">
        <ele>1575.74</ele>
        <time>2015-11-08T11:16:04Z</time>
      </trkpt>
      <trkpt lat="46.060821376740932" lon="9.210116509348154">
        <ele>1576.7</ele>
        <time>2015-11-08T11:16:19Z</time>
      </trkpt>
      <trkpt lat="46.060854233801365" lon="9.210103265941143">
        <ele>1578.6199999999999</ele>
        <time>2015-11-08T11:16:29Z</time>
      </trkpt>
      <trkpt lat="46.06086521409452" lon="9.210021123290062">
        <ele>1580.54</ele>
        <time>2015-11-08T11:16:43Z</time>
      </trkpt>
      <trkpt lat="46.060878625139594" lon="9.209977453574538">
        <ele>1582.47</ele>
        <time>2015-11-08T11:16:55Z</time>
      </trkpt>
      <trkpt lat="46.060890695080161" lon="9.209930934011936">
        <ele>1583.4300000000001</ele>
        <time>2015-11-08T11:17:04Z</time>
      </trkpt>
      <trkpt lat="46.060924138873816" lon="9.209910817444325">
        <ele>1584.8699999999999</ele>
        <time>2015-11-08T11:17:13Z</time>
      </trkpt>
      <trkpt lat="46.060939226299524" lon="9.209912829101086">
        <ele>1585.8299999999999</ele>
        <time>2015-11-08T11:17:24Z</time>
      </trkpt>
      <trkpt lat="46.060955068096519" lon="9.209888856858015">
        <ele>1586.79</ele>
        <time>2015-11-08T11:17:37Z</time>
      </trkpt>
      <trkpt lat="46.060987757518888" lon="9.209902100265026">
        <ele>1586.3099999999999</ele>
        <time>2015-11-08T11:17:46Z</time>
      </trkpt>
      <trkpt lat="46.060994295403361" lon="9.209920205175877">
        <ele>1587.27</ele>
        <time>2015-11-08T11:17:59Z</time>
      </trkpt>
      <trkpt lat="46.061027990654111" lon="9.209930766373873">
        <ele>1588.24</ele>
        <time>2015-11-08T11:18:08Z</time>
      </trkpt>
      <trkpt lat="46.061034612357616" lon="9.209970328956842">
        <ele>1588.24</ele>
        <time>2015-11-08T11:18:25Z</time>
      </trkpt>
      <trkpt lat="46.061027823016047" lon="9.209943758323789">
        <ele>1588.24</ele>
        <time>2015-11-08T11:18:36Z</time>
      </trkpt>
      <trkpt lat="46.061026314273477" lon="9.209913332015276">
        <ele>1588.72</ele>
        <time>2015-11-08T11:18:51Z</time>
      </trkpt>
      <trkpt lat="46.061049029231071" lon="9.209861364215612">
        <ele>1589.2</ele>
        <time>2015-11-08T11:18:58Z</time>
      </trkpt>
      <trkpt lat="46.061090771108866" lon="9.209832362830639">
        <ele>1590.6400000000001</ele>
        <time>2015-11-08T11:19:07Z</time>
      </trkpt>
      <trkpt lat="46.06112471781671" lon="9.209837978705764">
        <ele>1592.0799999999999</ele>
        <time>2015-11-08T11:19:16Z</time>
      </trkpt>
      <trkpt lat="46.06115254573524" lon="9.209826411679387">
        <ele>1593.04</ele>
        <time>2015-11-08T11:19:25Z</time>
      </trkpt>
      <trkpt lat="46.061160508543253" lon="9.209802020341158">
        <ele>1594.48</ele>
        <time>2015-11-08T11:19:34Z</time>
      </trkpt>
      <trkpt lat="46.061196466907859" lon="9.209795314818621">
        <ele>1595.9300000000001</ele>
        <time>2015-11-08T11:19:42Z</time>
      </trkpt>
      <trkpt lat="46.06122731231153" lon="9.209754997864366">
        <ele>1597.3699999999999</ele>
        <time>2015-11-08T11:19:52Z</time>
      </trkpt>
      <trkpt lat="46.061248183250427" lon="9.209757428616285">
        <ele>1598.8099999999999</ele>
        <time>2015-11-08T11:20:00Z</time>
      </trkpt>
      <trkpt lat="46.061268635094166" lon="9.209761703386903">
        <ele>1600.25</ele>
        <time>2015-11-08T11:20:12Z</time>
      </trkpt>
      <trkpt lat="46.061291936784983" lon="9.209734881296754">
        <ele>1602.1700000000001</ele>
        <time>2015-11-08T11:20:23Z</time>
      </trkpt>
      <trkpt lat="46.061307694762945" lon="9.209707221016288">
        <ele>1603.1400000000001</ele>
        <time>2015-11-08T11:20:34Z</time>
      </trkpt>
      <trkpt lat="46.061340635642409" lon="9.209694061428309">
        <ele>1604.0999999999999</ele>
        <time>2015-11-08T11:20:42Z</time>
      </trkpt>
      <trkpt lat="46.061367709189653" lon="9.209681991487742">
        <ele>1605.54</ele>
        <time>2015-11-08T11:20:50Z</time>
      </trkpt>
      <trkpt lat="46.061370559036732" lon="9.209665143862367">
        <ele>1606.5</ele>
        <time>2015-11-08T11:20:59Z</time>
      </trkpt>
      <trkpt lat="46.061395620927215" lon="9.209665227681398">
        <ele>1607.9400000000001</ele>
        <time>2015-11-08T11:21:08Z</time>
      </trkpt>
      <trkpt lat="46.061402074992657" lon="9.209658605977893">
        <ele>1608.9000000000001</ele>
        <time>2015-11-08T11:21:17Z</time>
      </trkpt>
      <trkpt lat="46.061411295086145" lon="9.209640752524138">
        <ele>1610.3499999999999</ele>
        <time>2015-11-08T11:21:26Z</time>
      </trkpt>
      <trkpt lat="46.06142177246511" lon="9.20962424017489">
        <ele>1611.3099999999999</ele>
        <time>2015-11-08T11:21:37Z</time>
      </trkpt>
      <trkpt lat="46.061460664495826" lon="9.209610829129815">
        <ele>1612.27</ele>
        <time>2015-11-08T11:21:46Z</time>
      </trkpt>
      <trkpt lat="46.061491006985307" lon="9.209613176062703">
        <ele>1613.23</ele>
        <time>2015-11-08T11:21:57Z</time>
      </trkpt>
      <trkpt lat="46.061497628688812" lon="9.209600770846009">
        <ele>1614.1900000000001</ele>
        <time>2015-11-08T11:22:12Z</time>
      </trkpt>
      <trkpt lat="46.061490001156926" lon="9.209591634571552">
        <ele>1614.6700000000001</ele>
        <time>2015-11-08T11:22:23Z</time>
      </trkpt>
      <trkpt lat="46.061492012813687" lon="9.20961837284267">
        <ele>1614.6700000000001</ele>
        <time>2015-11-08T11:22:39Z</time>
      </trkpt>
      <trkpt lat="46.061495365574956" lon="9.209639579057694">
        <ele>1614.1900000000001</ele>
        <time>2015-11-08T11:22:58Z</time>
      </trkpt>
      <trkpt lat="46.06148530729115" lon="9.209596244618297">
        <ele>1614.6700000000001</ele>
        <time>2015-11-08T11:23:20Z</time>
      </trkpt>
      <trkpt lat="46.061503998935223" lon="9.209562884643674">
        <ele>1615.6300000000001</ele>
        <time>2015-11-08T11:23:33Z</time>
      </trkpt>
      <trkpt lat="46.06153174303472" lon="9.209544444456697">
        <ele>1616.5899999999999</ele>
        <time>2015-11-08T11:23:41Z</time>
      </trkpt>
      <trkpt lat="46.061548758298159" lon="9.209509491920471">
        <ele>1618.04</ele>
        <time>2015-11-08T11:23:50Z</time>
      </trkpt>
      <trkpt lat="46.061561331152916" lon="9.209482837468386">
        <ele>1618.52</ele>
        <time>2015-11-08T11:23:58Z</time>
      </trkpt>
      <trkpt lat="46.061559235677123" lon="9.209473114460707">
        <ele>1618.52</ele>
        <time>2015-11-08T11:24:10Z</time>
      </trkpt>
      <trkpt lat="46.061584465205669" lon="9.209523573517799">
        <ele>1619.48</ele>
        <time>2015-11-08T11:24:22Z</time>
      </trkpt>
      <trkpt lat="46.061597373336554" lon="9.209610661491752">
        <ele>1620.9200000000001</ele>
        <time>2015-11-08T11:24:32Z</time>
      </trkpt>
      <trkpt lat="46.061616400256753" lon="9.209681320935488">
        <ele>1620.9200000000001</ele>
        <time>2015-11-08T11:24:48Z</time>
      </trkpt>
      <trkpt lat="46.061616484075785" lon="9.20965114608407">
        <ele>1620.9200000000001</ele>
        <time>2015-11-08T11:25:07Z</time>
      </trkpt>
      <trkpt lat="46.061621848493814" lon="9.209706215187907">
        <ele>1622.3599999999999</ele>
        <time>2015-11-08T11:25:18Z</time>
      </trkpt>
      <trkpt lat="46.061639534309506" lon="9.209818113595247">
        <ele>1623.8</ele>
        <time>2015-11-08T11:25:27Z</time>
      </trkpt>
      <trkpt lat="46.061626709997654" lon="9.209818029776216">
        <ele>1625.25</ele>
        <time>2015-11-08T11:25:37Z</time>
      </trkpt>
      <trkpt lat="46.061608521267772" lon="9.209849461913109">
        <ele>1626.6900000000001</ele>
        <time>2015-11-08T11:25:48Z</time>
      </trkpt>
      <trkpt lat="46.061601480469108" lon="9.209804534912109">
        <ele>1627.1700000000001</ele>
        <time>2015-11-08T11:26:02Z</time>
      </trkpt>
      <trkpt lat="46.061595696955919" lon="9.209827585145831">
        <ele>1628.1300000000001</ele>
        <time>2015-11-08T11:26:13Z</time>
      </trkpt>
      <trkpt lat="46.061589494347572" lon="9.20981920324266">
        <ele>1630.05</ele>
        <time>2015-11-08T11:26:27Z</time>
      </trkpt>
      <trkpt lat="46.06157373636961" lon="9.20979967340827">
        <ele>1630.53</ele>
        <time>2015-11-08T11:26:41Z</time>
      </trkpt>
      <trkpt lat="46.061593182384968" lon="9.209762373939157">
        <ele>1631.49</ele>
        <time>2015-11-08T11:26:55Z</time>
      </trkpt>
      <trkpt lat="46.061599720269442" lon="9.209737731143832">
        <ele>1632.9400000000001</ele>
        <time>2015-11-08T11:27:07Z</time>
      </trkpt>
      <trkpt lat="46.061615981161594" lon="9.209769163280726">
        <ele>1633.9000000000001</ele>
        <time>2015-11-08T11:27:15Z</time>
      </trkpt>
      <trkpt lat="46.061629140749574" lon="9.209772851318121">
        <ele>1635.3399999999999</ele>
        <time>2015-11-08T11:27:28Z</time>
      </trkpt>
      <trkpt lat="46.061669457703829" lon="9.209831692278385">
        <ele>1635.8199999999999</ele>
        <time>2015-11-08T11:27:42Z</time>
      </trkpt>
      <trkpt lat="46.061705080792308" lon="9.209838230162859">
        <ele>1637.26</ele>
        <time>2015-11-08T11:27:52Z</time>
      </trkpt>
      <trkpt lat="46.061700470745564" lon="9.209792548790574">
        <ele>1639.1900000000001</ele>
        <time>2015-11-08T11:28:01Z</time>
      </trkpt>
      <trkpt lat="46.061708685010672" lon="9.209784585982561">
        <ele>1640.6300000000001</ele>
        <time>2015-11-08T11:28:11Z</time>
      </trkpt>
      <trkpt lat="46.061761993914843" lon="9.209807049483061">
        <ele>1641.5899999999999</ele>
        <time>2015-11-08T11:28:20Z</time>
      </trkpt>
      <trkpt lat="46.061783032491803" lon="9.209850216284394">
        <ele>1641.5899999999999</ele>
        <time>2015-11-08T11:28:36Z</time>
      </trkpt>
      <trkpt lat="46.061752522364259" lon="9.209783663973212">
        <ele>1641.5899999999999</ele>
        <time>2015-11-08T11:28:54Z</time>
      </trkpt>
      <trkpt lat="46.061780182644725" lon="9.209819287061691">
        <ele>1641.5899999999999</ele>
        <time>2015-11-08T11:29:14Z</time>
      </trkpt>
      <trkpt lat="46.061736848205328" lon="9.209763212129474">
        <ele>1642.0699999999999</ele>
        <time>2015-11-08T11:29:35Z</time>
      </trkpt>
      <trkpt lat="46.061719916760921" lon="9.209727589040995">
        <ele>1641.5899999999999</ele>
        <time>2015-11-08T11:29:46Z</time>
      </trkpt>
      <trkpt lat="46.061795353889465" lon="9.209798080846667">
        <ele>1642.0699999999999</ele>
        <time>2015-11-08T11:30:06Z</time>
      </trkpt>
      <trkpt lat="46.061813123524189" lon="9.209839655086398">
        <ele>1642.0699999999999</ele>
        <time>2015-11-08T11:30:18Z</time>
      </trkpt>
      <trkpt lat="46.061816979199648" lon="9.209804451093078">
        <ele>1642.55</ele>
        <time>2015-11-08T11:30:25Z</time>
      </trkpt>
      <trkpt lat="46.06183759868145" lon="9.209778718650341">
        <ele>1643.99</ele>
        <time>2015-11-08T11:30:34Z</time>
      </trkpt>
      <trkpt lat="46.061866767704487" lon="9.209779808297753">
        <ele>1645.4300000000001</ele>
        <time>2015-11-08T11:30:43Z</time>
      </trkpt>
      <trkpt lat="46.061895517632365" lon="9.209783328697085">
        <ele>1645.9100000000001</ele>
        <time>2015-11-08T11:30:51Z</time>
      </trkpt>
      <trkpt lat="46.061930051073432" lon="9.209797829389572">
        <ele>1647.3599999999999</ele>
        <time>2015-11-08T11:31:00Z</time>
      </trkpt>
      <trkpt lat="46.061953520402312" lon="9.209809815511107">
        <ele>1648.8</ele>
        <time>2015-11-08T11:31:08Z</time>
      </trkpt>
      <trkpt lat="46.061989143490791" lon="9.209788693115115">
        <ele>1649.28</ele>
        <time>2015-11-08T11:31:17Z</time>
      </trkpt>
      <trkpt lat="46.062024096027017" lon="9.209770672023296">
        <ele>1650.72</ele>
        <time>2015-11-08T11:31:26Z</time>
      </trkpt>
      <trkpt lat="46.062043709680438" lon="9.209768157452345">
        <ele>1652.1600000000001</ele>
        <time>2015-11-08T11:31:36Z</time>
      </trkpt>
      <trkpt lat="46.062046643346548" lon="9.209831776097417">
        <ele>1653.5999999999999</ele>
        <time>2015-11-08T11:31:45Z</time>
      </trkpt>
      <trkpt lat="46.062026275321841" lon="9.209880391135812">
        <ele>1655.05</ele>
        <time>2015-11-08T11:31:57Z</time>
      </trkpt>
      <trkpt lat="46.062019821256399" lon="9.209910733625293">
        <ele>1656.49</ele>
        <time>2015-11-08T11:32:07Z</time>
      </trkpt>
      <trkpt lat="46.061988472938538" lon="9.209935711696744">
        <ele>1658.8900000000001</ele>
        <time>2015-11-08T11:32:19Z</time>
      </trkpt>
      <trkpt lat="46.061972044408321" lon="9.209983823820949">
        <ele>1660.3299999999999</ele>
        <time>2015-11-08T11:32:29Z</time>
      </trkpt>
      <trkpt lat="46.062006494030356" lon="9.210040988400579">
        <ele>1661.78</ele>
        <time>2015-11-08T11:32:37Z</time>
      </trkpt>
      <trkpt lat="46.062019318342209" lon="9.210052974522114">
        <ele>1663.22</ele>
        <time>2015-11-08T11:32:47Z</time>
      </trkpt>
      <trkpt lat="46.062033651396632" lon="9.210073677822948">
        <ele>1664.1800000000001</ele>
        <time>2015-11-08T11:32:56Z</time>
      </trkpt>
      <trkpt lat="46.062023425474763" lon="9.210125813260675">
        <ele>1665.6199999999999</ele>
        <time>2015-11-08T11:33:05Z</time>
      </trkpt>
      <trkpt lat="46.061978163197637" lon="9.210179708898068">
        <ele>1667.54</ele>
        <time>2015-11-08T11:33:17Z</time>
      </trkpt>
      <trkpt lat="46.061959052458405" lon="9.210243076086044">
        <ele>1668.99</ele>
        <time>2015-11-08T11:33:26Z</time>
      </trkpt>
      <trkpt lat="46.061928626149893" lon="9.21022773720324">
        <ele>1669.95</ele>
        <time>2015-11-08T11:33:38Z</time>
      </trkpt>
      <trkpt lat="46.061912616714835" lon="9.210222121328116">
        <ele>1670.9100000000001</ele>
        <time>2015-11-08T11:33:49Z</time>
      </trkpt>
      <trkpt lat="46.0619040671736" lon="9.210210302844644">
        <ele>1670.9100000000001</ele>
        <time>2015-11-08T11:34:08Z</time>
      </trkpt>
      <trkpt lat="46.061889482662082" lon="9.210195383056998">
        <ele>1670.9100000000001</ele>
        <time>2015-11-08T11:34:30Z</time>
      </trkpt>
      <trkpt lat="46.061892500147223" lon="9.210231676697731">
        <ele>1670.9100000000001</ele>
        <time>2015-11-08T11:34:47Z</time>
      </trkpt>
      <trkpt lat="46.061877999454737" lon="9.210250033065677">
        <ele>1671.3900000000001</ele>
        <time>2015-11-08T11:35:04Z</time>
      </trkpt>
      <trkpt lat="46.061852686107159" lon="9.210259085521102">
        <ele>1672.8299999999999</ele>
        <time>2015-11-08T11:35:17Z</time>
      </trkpt>
      <trkpt lat="46.061827875673771" lon="9.210249949246645">
        <ele>1673.79</ele>
        <time>2015-11-08T11:35:26Z</time>
      </trkpt>
      <trkpt lat="46.061828713864088" lon="9.210257828235626">
        <ele>1674.75</ele>
        <time>2015-11-08T11:35:35Z</time>
      </trkpt>
      <trkpt lat="46.061801556497812" lon="9.210245423018932">
        <ele>1675.72</ele>
        <time>2015-11-08T11:35:42Z</time>
      </trkpt>
      <trkpt lat="46.061755707487464" lon="9.2102678027004">
        <ele>1677.1600000000001</ele>
        <time>2015-11-08T11:35:53Z</time>
      </trkpt>
      <trkpt lat="46.061751265078783" lon="9.210287500172854">
        <ele>1678.5999999999999</ele>
        <time>2015-11-08T11:36:06Z</time>
      </trkpt>
      <trkpt lat="46.061752690002322" lon="9.21028146520257">
        <ele>1678.1199999999999</ele>
        <time>2015-11-08T11:36:22Z</time>
      </trkpt>
      <trkpt lat="46.061781272292137" lon="9.210295379161835">
        <ele>1678.5999999999999</ele>
        <time>2015-11-08T11:36:34Z</time>
      </trkpt>
      <trkpt lat="46.061784792691469" lon="9.210356399416924">
        <ele>1680.04</ele>
        <time>2015-11-08T11:36:44Z</time>
      </trkpt>
      <trkpt lat="46.061786552891135" lon="9.210403002798557">
        <ele>1681.48</ele>
        <time>2015-11-08T11:36:56Z</time>
      </trkpt>
      <trkpt lat="46.061790911480784" lon="9.210453797131777">
        <ele>1683.4100000000001</ele>
        <time>2015-11-08T11:37:06Z</time>
      </trkpt>
      <trkpt lat="46.061812872067094" lon="9.210520265623927">
        <ele>1684.3699999999999</ele>
        <time>2015-11-08T11:37:17Z</time>
      </trkpt>
      <trkpt lat="46.061832318082452" lon="9.210584303364158">
        <ele>1685.3299999999999</ele>
        <time>2015-11-08T11:37:25Z</time>
      </trkpt>
      <trkpt lat="46.061817733570933" lon="9.210650520399213">
        <ele>1685.8099999999999</ele>
        <time>2015-11-08T11:37:34Z</time>
      </trkpt>
      <trkpt lat="46.061813542619348" lon="9.210704248398542">
        <ele>1688.21</ele>
        <time>2015-11-08T11:37:45Z</time>
      </trkpt>
      <trkpt lat="46.061794431880116" lon="9.210726795718074">
        <ele>1690.1400000000001</ele>
        <time>2015-11-08T11:37:56Z</time>
      </trkpt>
      <trkpt lat="46.061777919530869" lon="9.210740206763148">
        <ele>1691.0999999999999</ele>
        <time>2015-11-08T11:38:08Z</time>
      </trkpt>
      <trkpt lat="46.061786552891135" lon="9.210759149864316">
        <ele>1692.54</ele>
        <time>2015-11-08T11:38:18Z</time>
      </trkpt>
      <trkpt lat="46.061803651973605" lon="9.210725706070662">
        <ele>1693.98</ele>
        <time>2015-11-08T11:38:28Z</time>
      </trkpt>
      <trkpt lat="46.061827791854739" lon="9.210738027468324">
        <ele>1695.4200000000001</ele>
        <time>2015-11-08T11:38:38Z</time>
      </trkpt>
      <trkpt lat="46.061863750219345" lon="9.210734171792865">
        <ele>1697.3399999999999</ele>
        <time>2015-11-08T11:38:48Z</time>
      </trkpt>
      <trkpt lat="46.061876909807324" lon="9.210705421864986">
        <ele>1698.79</ele>
        <time>2015-11-08T11:38:56Z</time>
      </trkpt>
      <trkpt lat="46.061872886493802" lon="9.210679857060313">
        <ele>1699.75</ele>
        <time>2015-11-08T11:39:04Z</time>
      </trkpt>
      <trkpt lat="46.061901217326522" lon="9.21067482791841">
        <ele>1701.1900000000001</ele>
        <time>2015-11-08T11:39:12Z</time>
      </trkpt>
      <trkpt lat="46.061935583129525" lon="9.210691507905722">
        <ele>1702.6300000000001</ele>
        <time>2015-11-08T11:39:21Z</time>
      </trkpt>
      <trkpt lat="46.061953101307154" lon="9.210698129609227">
        <ele>1703.5899999999999</ele>
        <time>2015-11-08T11:39:33Z</time>
      </trkpt>
      <trkpt lat="46.061951341107488" lon="9.210721766576171">
        <ele>1703.1099999999999</ele>
        <time>2015-11-08T11:39:51Z</time>
      </trkpt>
      <trkpt lat="46.061953268945217" lon="9.210680527612567">
        <ele>1703.5899999999999</ele>
        <time>2015-11-08T11:40:12Z</time>
      </trkpt>
      <trkpt lat="46.061966428533196" lon="9.210754539817572">
        <ele>1705.04</ele>
        <time>2015-11-08T11:40:20Z</time>
      </trkpt>
      <trkpt lat="46.061973301693797" lon="9.210788905620575">
        <ele>1706.96</ele>
        <time>2015-11-08T11:40:31Z</time>
      </trkpt>
      <trkpt lat="46.06201252900064" lon="9.210809357464314">
        <ele>1708.4000000000001</ele>
        <time>2015-11-08T11:40:49Z</time>
      </trkpt>
      <trkpt lat="46.062008924782276" lon="9.210853865370154">
        <ele>1709.8399999999999</ele>
        <time>2015-11-08T11:40:59Z</time>
      </trkpt>
      <trkpt lat="46.062019234523177" lon="9.210923099890351">
        <ele>1711.76</ele>
        <time>2015-11-08T11:41:08Z</time>
      </trkpt>
      <trkpt lat="46.062037423253059" lon="9.210907844826579">
        <ele>1712.73</ele>
        <time>2015-11-08T11:41:18Z</time>
      </trkpt>
      <trkpt lat="46.062079248949885" lon="9.210960986092687">
        <ele>1714.1700000000001</ele>
        <time>2015-11-08T11:41:27Z</time>
      </trkpt>
      <trkpt lat="46.062140353024006" lon="9.210987389087677">
        <ele>1715.6099999999999</ele>
        <time>2015-11-08T11:41:38Z</time>
      </trkpt>
      <trkpt lat="46.062123589217663" lon="9.21094891615212">
        <ele>1715.6099999999999</ele>
        <time>2015-11-08T11:41:47Z</time>
      </trkpt>
      <trkpt lat="46.062138006091118" lon="9.210949838161469">
        <ele>1716.0899999999999</ele>
        <time>2015-11-08T11:41:49Z</time>
      </trkpt>
      <trkpt lat="46.06219969689846" lon="9.211054276674986">
        <ele>1717.05</ele>
        <time>2015-11-08T11:41:59Z</time>
      </trkpt>
      <trkpt lat="46.062189219519496" lon="9.211041703820229">
        <ele>1717.53</ele>
        <time>2015-11-08T11:42:11Z</time>
      </trkpt>
      <trkpt lat="46.062203887850046" lon="9.21102904714644">
        <ele>1717.53</ele>
        <time>2015-11-08T11:42:22Z</time>
      </trkpt>
      <trkpt lat="46.062215287238359" lon="9.211034243926406">
        <ele>1718.01</ele>
        <time>2015-11-08T11:42:35Z</time>
      </trkpt>
      <trkpt lat="46.062213610857725" lon="9.211036423221231">
        <ele>1717.53</ele>
        <time>2015-11-08T11:42:47Z</time>
      </trkpt>
      <trkpt lat="46.062227440997958" lon="9.211021587252617">
        <ele>1718.01</ele>
        <time>2015-11-08T11:43:03Z</time>
      </trkpt>
      <trkpt lat="46.062234817072749" lon="9.21100364997983">
        <ele>1718.97</ele>
        <time>2015-11-08T11:43:14Z</time>
      </trkpt>
      <trkpt lat="46.062250910326838" lon="9.210976408794522">
        <ele>1720.4200000000001</ele>
        <time>2015-11-08T11:43:25Z</time>
      </trkpt>
      <trkpt lat="46.062293741852045" lon="9.210990909487009">
        <ele>1723.3</ele>
        <time>2015-11-08T11:43:32Z</time>
      </trkpt>
      <trkpt lat="46.062282426282763" lon="9.211015552282333">
        <ele>1722.3399999999999</ele>
        <time>2015-11-08T11:43:46Z</time>
      </trkpt>
      <trkpt lat="46.062272032722831" lon="9.210989400744438">
        <ele>1722.3399999999999</ele>
        <time>2015-11-08T11:43:54Z</time>
      </trkpt>
      <trkpt lat="46.062284940853715" lon="9.210918070748448">
        <ele>1722.8199999999999</ele>
        <time>2015-11-08T11:44:08Z</time>
      </trkpt>
      <trkpt lat="46.062312265858054" lon="9.210839029401541">
        <ele>1722.3399999999999</ele>
        <time>2015-11-08T11:44:18Z</time>
      </trkpt>
      <trkpt lat="46.062314361333847" lon="9.210856631398201">
        <ele>1722.3399999999999</ele>
        <time>2015-11-08T11:44:40Z</time>
      </trkpt>
      <trkpt lat="46.062317378818989" lon="9.21086048707366">
        <ele>1722.3399999999999</ele>
        <time>2015-11-08T11:45:03Z</time>
      </trkpt>
      <trkpt lat="46.062313858419657" lon="9.21086635440588">
        <ele>1722.3399999999999</ele>
        <time>2015-11-08T11:45:21Z</time>
      </trkpt>
      <trkpt lat="46.06231402605772" lon="9.210854033008218">
        <ele>1722.3399999999999</ele>
        <time>2015-11-08T11:45:51Z</time>
      </trkpt>
      <trkpt lat="46.062309918925166" lon="9.210852356627584">
        <ele>1722.3399999999999</ele>
        <time>2015-11-08T11:46:17Z</time>
      </trkpt>
      <trkpt lat="46.062310254201293" lon="9.210850680246949">
        <ele>1722.3399999999999</ele>
        <time>2015-11-08T11:46:50Z</time>
      </trkpt>
      <trkpt lat="46.062310421839356" lon="9.210858391597867">
        <ele>1722.3399999999999</ele>
        <time>2015-11-08T11:47:18Z</time>
      </trkpt>
      <trkpt lat="46.062309080734849" lon="9.210863085463643">
        <ele>1722.8199999999999</ele>
        <time>2015-11-08T11:47:41Z</time>
      </trkpt>
      <trkpt lat="46.062310924753547" lon="9.210864761844277">
        <ele>1722.8199999999999</ele>
        <time>2015-11-08T11:48:14Z</time>
      </trkpt>
      <trkpt lat="46.062317127361894" lon="9.210858978331089">
        <ele>1722.8199999999999</ele>
        <time>2015-11-08T11:48:39Z</time>
      </trkpt>
      <trkpt lat="46.062308913096786" lon="9.21088001690805">
        <ele>1722.8199999999999</ele>
        <time>2015-11-08T11:49:06Z</time>
      </trkpt>
      <trkpt lat="46.062316121533513" lon="9.210874987766147">
        <ele>1722.8199999999999</ele>
        <time>2015-11-08T11:49:41Z</time>
      </trkpt>
      <trkpt lat="46.062319139018655" lon="9.210872305557132">
        <ele>1722.8199999999999</ele>
        <time>2015-11-08T11:50:06Z</time>
      </trkpt>
      <trkpt lat="46.062312098219991" lon="9.210893511772156">
        <ele>1722.8199999999999</ele>
        <time>2015-11-08T11:50:34Z</time>
      </trkpt>
      <trkpt lat="46.062316205352545" lon="9.210876161232591">
        <ele>1723.3</ele>
        <time>2015-11-08T11:51:06Z</time>
      </trkpt>
      <trkpt lat="46.06231595389545" lon="9.210873479023576">
        <ele>1723.3</ele>
        <time>2015-11-08T11:51:34Z</time>
      </trkpt>
      <trkpt lat="46.062313187867403" lon="9.210879094898701">
        <ele>1722.8199999999999</ele>
        <time>2015-11-08T11:51:59Z</time>
      </trkpt>
      <trkpt lat="46.062313858419657" lon="9.210882028564811">
        <ele>1722.8199999999999</ele>
        <time>2015-11-08T11:52:26Z</time>
      </trkpt>
      <trkpt lat="46.062315702438354" lon="9.210888147354126">
        <ele>1723.3</ele>
        <time>2015-11-08T11:52:48Z</time>
      </trkpt>
      <trkpt lat="46.06231402605772" lon="9.210881525650621">
        <ele>1723.3</ele>
        <time>2015-11-08T11:53:23Z</time>
      </trkpt>
      <trkpt lat="46.062315618619323" lon="9.210878508165479">
        <ele>1723.3</ele>
        <time>2015-11-08T11:53:53Z</time>
      </trkpt>
      <trkpt lat="46.06231352314353" lon="9.210880184546113">
        <ele>1723.3</ele>
        <time>2015-11-08T11:54:23Z</time>
      </trkpt>
      <trkpt lat="46.062310421839356" lon="9.210890829563141">
        <ele>1723.3</ele>
        <time>2015-11-08T11:54:45Z</time>
      </trkpt>
      <trkpt lat="46.062309918925166" lon="9.210898289456964">
        <ele>1723.3</ele>
        <time>2015-11-08T11:55:14Z</time>
      </trkpt>
      <trkpt lat="46.0623115953058" lon="9.210894517600536">
        <ele>1723.78</ele>
        <time>2015-11-08T11:55:45Z</time>
      </trkpt>
      <trkpt lat="46.062311427667737" lon="9.210890829563141">
        <ele>1723.78</ele>
        <time>2015-11-08T11:56:19Z</time>
      </trkpt>
      <trkpt lat="46.062310002744198" lon="9.210882699117065">
        <ele>1723.78</ele>
        <time>2015-11-08T11:56:46Z</time>
      </trkpt>
      <trkpt lat="46.062312517315149" lon="9.210892170667648">
        <ele>1723.78</ele>
        <time>2015-11-08T11:57:09Z</time>
      </trkpt>
      <trkpt lat="46.062304303050041" lon="9.210892170667648">
        <ele>1723.78</ele>
        <time>2015-11-08T11:57:37Z</time>
      </trkpt>
      <trkpt lat="46.062305392697453" lon="9.210896696895361">
        <ele>1723.78</ele>
        <time>2015-11-08T11:57:59Z</time>
      </trkpt>
      <trkpt lat="46.062309918925166" lon="9.210892505943775">
        <ele>1724.26</ele>
        <time>2015-11-08T11:58:22Z</time>
      </trkpt>
      <trkpt lat="46.062312433496118" lon="9.210883202031255">
        <ele>1723.78</ele>
        <time>2015-11-08T11:58:47Z</time>
      </trkpt>
      <trkpt lat="46.062311762943864" lon="9.210880938917399">
        <ele>1724.26</ele>
        <time>2015-11-08T11:59:12Z</time>
      </trkpt>
      <trkpt lat="46.062314696609974" lon="9.210862582549453">
        <ele>1724.26</ele>
        <time>2015-11-08T11:59:36Z</time>
      </trkpt>
      <trkpt lat="46.062313271686435" lon="9.210868198424578">
        <ele>1724.26</ele>
        <time>2015-11-08T11:59:56Z</time>
      </trkpt>
      <trkpt lat="46.062311930581927" lon="9.210866186767817">
        <ele>1724.26</ele>
        <time>2015-11-08T12:00:22Z</time>
      </trkpt>
      <trkpt lat="46.062308242544532" lon="9.210873059928417">
        <ele>1724.26</ele>
        <time>2015-11-08T12:00:47Z</time>
      </trkpt>
      <trkpt lat="46.062308829277754" lon="9.210879430174828">
        <ele>1724.26</ele>
        <time>2015-11-08T12:01:17Z</time>
      </trkpt>
      <trkpt lat="46.062302961945534" lon="9.210889991372824">
        <ele>1724.74</ele>
        <time>2015-11-08T12:01:41Z</time>
      </trkpt>
      <trkpt lat="46.062304303050041" lon="9.21088395640254">
        <ele>1724.74</ele>
        <time>2015-11-08T12:01:47Z</time>
      </trkpt>
      <trkpt lat="46.062306649982929" lon="9.210875909775496">
        <ele>1725.22</ele>
        <time>2015-11-08T12:01:54Z</time>
      </trkpt>
      <trkpt lat="46.062286533415318" lon="9.210879513993859">
        <ele>1725.22</ele>
        <time>2015-11-08T12:02:11Z</time>
      </trkpt>
      <trkpt lat="46.062284940853715" lon="9.210856212303042">
        <ele>1725.22</ele>
        <time>2015-11-08T12:02:21Z</time>
      </trkpt>
      <trkpt lat="46.062303883954883" lon="9.210868868976831">
        <ele>1725.22</ele>
        <time>2015-11-08T12:02:35Z</time>
      </trkpt>
      <trkpt lat="46.062295418232679" lon="9.210941707715392">
        <ele>1726.1800000000001</ele>
        <time>2015-11-08T12:02:45Z</time>
      </trkpt>
      <trkpt lat="46.062272116541862" lon="9.211008511483669">
        <ele>1723.78</ele>
        <time>2015-11-08T12:02:55Z</time>
      </trkpt>
      <trkpt lat="46.062249653041363" lon="9.211015803739429">
        <ele>1722.8199999999999</ele>
        <time>2015-11-08T12:03:07Z</time>
      </trkpt>
      <trkpt lat="46.062257867306471" lon="9.211018653586507">
        <ele>1722.8199999999999</ele>
        <time>2015-11-08T12:03:19Z</time>
      </trkpt>
      <trkpt lat="46.062273373827338" lon="9.211014378815889">
        <ele>1723.78</ele>
        <time>2015-11-08T12:03:40Z</time>
      </trkpt>
      <trkpt lat="46.062257112935185" lon="9.211035249754787">
        <ele>1722.8199999999999</ele>
        <time>2015-11-08T12:04:01Z</time>
      </trkpt>
      <trkpt lat="46.062220316380262" lon="9.211076321080327">
        <ele>1721.3800000000001</ele>
        <time>2015-11-08T12:04:11Z</time>
      </trkpt>
      <trkpt lat="46.062194500118494" lon="9.211088055744767">
        <ele>1720.4200000000001</ele>
        <time>2015-11-08T12:04:21Z</time>
      </trkpt>
      <trkpt lat="46.062171952798963" lon="9.211102724075317">
        <ele>1720.9000000000001</ele>
        <time>2015-11-08T12:04:32Z</time>
      </trkpt>
      <trkpt lat="46.0621302947402" lon="9.211104568094015">
        <ele>1721.8599999999999</ele>
        <time>2015-11-08T12:04:43Z</time>
      </trkpt>
      <trkpt lat="46.062121409922838" lon="9.211077494546771">
        <ele>1722.3399999999999</ele>
        <time>2015-11-08T12:04:54Z</time>
      </trkpt>
      <trkpt lat="46.062111267820001" lon="9.211107166483998">
        <ele>1722.3399999999999</ele>
        <time>2015-11-08T12:05:07Z</time>
      </trkpt>
      <trkpt lat="46.062115039676428" lon="9.211100125685334">
        <ele>1723.3</ele>
        <time>2015-11-08T12:05:21Z</time>
      </trkpt>
      <trkpt lat="46.0621043946594" lon="9.211089815944433">
        <ele>1724.26</ele>
        <time>2015-11-08T12:05:35Z</time>
      </trkpt>
      <trkpt lat="46.06211218982935" lon="9.211116721853614">
        <ele>1726.1800000000001</ele>
        <time>2015-11-08T12:05:48Z</time>
      </trkpt>
      <trkpt lat="46.062107747420669" lon="9.211171204224229">
        <ele>1727.6300000000001</ele>
        <time>2015-11-08T12:06:02Z</time>
      </trkpt>
      <trkpt lat="46.062107747420669" lon="9.211170198395848">
        <ele>1728.5899999999999</ele>
        <time>2015-11-08T12:06:12Z</time>
      </trkpt>
      <trkpt lat="46.062091821804643" lon="9.211193583905697">
        <ele>1730.03</ele>
        <time>2015-11-08T12:06:22Z</time>
      </trkpt>
      <trkpt lat="46.062068939208984" lon="9.211191991344094">
        <ele>1730.51</ele>
        <time>2015-11-08T12:06:32Z</time>
      </trkpt>
      <trkpt lat="46.062031975015998" lon="9.21116441488266">
        <ele>1731.95</ele>
        <time>2015-11-08T12:06:43Z</time>
      </trkpt>
      <trkpt lat="46.062025940045714" lon="9.211191991344094">
        <ele>1731.47</ele>
        <time>2015-11-08T12:06:55Z</time>
      </trkpt>
      <trkpt lat="46.062005069106817" lon="9.211190985515714">
        <ele>1732.4300000000001</ele>
        <time>2015-11-08T12:07:00Z</time>
      </trkpt>
      <trkpt lat="46.061975145712495" lon="9.211199367418885">
        <ele>1731.95</ele>
        <time>2015-11-08T12:07:04Z</time>
      </trkpt>
      <trkpt lat="46.061900295317173" lon="9.211146477609873">
        <ele>1732.9100000000001</ele>
        <time>2015-11-08T12:07:15Z</time>
      </trkpt>
      <trkpt lat="46.061929631978273" lon="9.211141197010875">
        <ele>1732.9100000000001</ele>
        <time>2015-11-08T12:07:26Z</time>
      </trkpt>
      <trkpt lat="46.061902139335871" lon="9.211163660511375">
        <ele>1732.9100000000001</ele>
        <time>2015-11-08T12:07:35Z</time>
      </trkpt>
      <trkpt lat="46.061871461570263" lon="9.211203306913376">
        <ele>1732.9100000000001</ele>
        <time>2015-11-08T12:07:45Z</time>
      </trkpt>
      <trkpt lat="46.061871126294136" lon="9.211233062669635">
        <ele>1731.95</ele>
        <time>2015-11-08T12:07:57Z</time>
      </trkpt>
      <trkpt lat="46.06186299584806" lon="9.211235577240586">
        <ele>1731.95</ele>
        <time>2015-11-08T12:07:58Z</time>
      </trkpt>
      <trkpt lat="46.061850171536207" lon="9.211264159530401">
        <ele>1732.9100000000001</ele>
        <time>2015-11-08T12:08:09Z</time>
      </trkpt>
      <trkpt lat="46.061832150444388" lon="9.211246808990836">
        <ele>1732.9100000000001</ele>
        <time>2015-11-08T12:08:27Z</time>
      </trkpt>
      <trkpt lat="46.061841621994972" lon="9.211208336055279">
        <ele>1732.4300000000001</ele>
        <time>2015-11-08T12:08:32Z</time>
      </trkpt>
      <trkpt lat="46.061885291710496" lon="9.211173467338085">
        <ele>1732.9100000000001</ele>
        <time>2015-11-08T12:08:42Z</time>
      </trkpt>
      <trkpt lat="46.061880262568593" lon="9.211201881989837">
        <ele>1732.4300000000001</ele>
        <time>2015-11-08T12:08:54Z</time>
      </trkpt>
      <trkpt lat="46.061834245920181" lon="9.211232392117381">
        <ele>1732.4300000000001</ele>
        <time>2015-11-08T12:09:08Z</time>
      </trkpt>
      <trkpt lat="46.061835503205657" lon="9.211240941658616">
        <ele>1732.4300000000001</ele>
        <time>2015-11-08T12:09:11Z</time>
      </trkpt>
      <trkpt lat="46.061808597296476" lon="9.211294837296009">
        <ele>1730.99</ele>
        <time>2015-11-08T12:09:20Z</time>
      </trkpt>
      <trkpt lat="46.06181563809514" lon="9.211321491748095">
        <ele>1731.95</ele>
        <time>2015-11-08T12:09:29Z</time>
      </trkpt>
      <trkpt lat="46.061815302819014" lon="9.211273211985827">
        <ele>1731.95</ele>
        <time>2015-11-08T12:09:47Z</time>
      </trkpt>
      <trkpt lat="46.061831060796976" lon="9.211255945265293">
        <ele>1731.95</ele>
        <time>2015-11-08T12:10:07Z</time>
      </trkpt>
      <trkpt lat="46.061817230656743" lon="9.211266338825226">
        <ele>1731.95</ele>
        <time>2015-11-08T12:10:20Z</time>
      </trkpt>
      <trkpt lat="46.061839610338211" lon="9.211274217814207">
        <ele>1731.47</ele>
        <time>2015-11-08T12:10:30Z</time>
      </trkpt>
      <trkpt lat="46.061840280890465" lon="9.211261225864291">
        <ele>1730.99</ele>
        <time>2015-11-08T12:10:36Z</time>
      </trkpt>
      <trkpt lat="46.061865091323853" lon="9.211220154538751">
        <ele>1731.95</ele>
        <time>2015-11-08T12:10:42Z</time>
      </trkpt>
      <trkpt lat="46.061891326680779" lon="9.211207581683993">
        <ele>1732.9100000000001</ele>
        <time>2015-11-08T12:10:53Z</time>
      </trkpt>
      <trkpt lat="46.061880681663752" lon="9.211218478158116">
        <ele>1732.9100000000001</ele>
        <time>2015-11-08T12:11:07Z</time>
      </trkpt>
      <trkpt lat="46.061882274225354" lon="9.211239768192172">
        <ele>1732.9100000000001</ele>
        <time>2015-11-08T12:11:22Z</time>
      </trkpt>
      <trkpt lat="46.061888393014669" lon="9.211242198944092">
        <ele>1732.9100000000001</ele>
        <time>2015-11-08T12:11:37Z</time>
      </trkpt>
      <trkpt lat="46.061883112415671" lon="9.211244210600853">
        <ele>1732.9100000000001</ele>
        <time>2015-11-08T12:11:59Z</time>
      </trkpt>
      <trkpt lat="46.061874646693468" lon="9.211243623867631">
        <ele>1732.9100000000001</ele>
        <time>2015-11-08T12:12:15Z</time>
      </trkpt>
      <trkpt lat="46.061856290325522" lon="9.211279414594173">
        <ele>1731.95</ele>
        <time>2015-11-08T12:12:24Z</time>
      </trkpt>
      <trkpt lat="46.061851512640715" lon="9.211280001327395">
        <ele>1733.3900000000001</ele>
        <time>2015-11-08T12:12:37Z</time>
      </trkpt>
      <trkpt lat="46.061854027211666" lon="9.211247060447931">
        <ele>1732.9100000000001</ele>
        <time>2015-11-08T12:12:50Z</time>
      </trkpt>
      <trkpt lat="46.061861822381616" lon="9.21123675070703">
        <ele>1733.3900000000001</ele>
        <time>2015-11-08T12:13:09Z</time>
      </trkpt>
      <trkpt lat="46.061834497377276" lon="9.211280755698681">
        <ele>1732.9100000000001</ele>
        <time>2015-11-08T12:13:22Z</time>
      </trkpt>
      <trkpt lat="46.061853775754571" lon="9.211265668272972">
        <ele>1733.3900000000001</ele>
        <time>2015-11-08T12:13:35Z</time>
      </trkpt>
      <trkpt lat="46.061854278668761" lon="9.211243037134409">
        <ele>1733.3900000000001</ele>
        <time>2015-11-08T12:13:50Z</time>
      </trkpt>
      <trkpt lat="46.061858553439379" lon="9.211241193115711">
        <ele>1733.3900000000001</ele>
        <time>2015-11-08T12:14:16Z</time>
      </trkpt>
      <trkpt lat="46.061847656965256" lon="9.211236163973808">
        <ele>1733.3900000000001</ele>
        <time>2015-11-08T12:14:32Z</time>
      </trkpt>
      <trkpt lat="46.061865342780948" lon="9.211260471493006">
        <ele>1733.3900000000001</ele>
        <time>2015-11-08T12:14:50Z</time>
      </trkpt>
      <trkpt lat="46.06186886318028" lon="9.211216969415546">
        <ele>1732.4300000000001</ele>
        <time>2015-11-08T12:14:58Z</time>
      </trkpt>
      <trkpt lat="46.06187867000699" lon="9.211205989122391">
        <ele>1733.3900000000001</ele>
        <time>2015-11-08T12:15:11Z</time>
      </trkpt>
      <trkpt lat="46.061880765482783" lon="9.211190650239587">
        <ele>1733.3900000000001</ele>
        <time>2015-11-08T12:15:25Z</time>
      </trkpt>
      <trkpt lat="46.061909347772598" lon="9.211175059899688">
        <ele>1733.3900000000001</ele>
        <time>2015-11-08T12:15:35Z</time>
      </trkpt>
      <trkpt lat="46.061906162649393" lon="9.21116198413074">
        <ele>1733.8800000000001</ele>
        <time>2015-11-08T12:15:48Z</time>
      </trkpt>
      <trkpt lat="46.061998112127185" lon="9.21118788421154">
        <ele>1732.9100000000001</ele>
        <time>2015-11-08T12:15:58Z</time>
      </trkpt>
      <trkpt lat="46.062047984451056" lon="9.211176317185164">
        <ele>1732.4300000000001</ele>
        <time>2015-11-08T12:16:09Z</time>
      </trkpt>
      <trkpt lat="46.062083020806313" lon="9.211200457066298">
        <ele>1730.99</ele>
        <time>2015-11-08T12:16:19Z</time>
      </trkpt>
      <trkpt lat="46.062089810147882" lon="9.211180843412876">
        <ele>1730.99</ele>
        <time>2015-11-08T12:16:30Z</time>
      </trkpt>
      <trkpt lat="46.062110597267747" lon="9.21114974655211">
        <ele>1730.51</ele>
        <time>2015-11-08T12:16:42Z</time>
      </trkpt>
      <trkpt lat="46.062106406316161" lon="9.211142789572477">
        <ele>1729.55</ele>
        <time>2015-11-08T12:16:52Z</time>
      </trkpt>
      <trkpt lat="46.062128366902471" lon="9.211149243637919">
        <ele>1729.0699999999999</ele>
        <time>2015-11-08T12:17:07Z</time>
      </trkpt>
      <trkpt lat="46.062119649723172" lon="9.21112141571939">
        <ele>1728.1099999999999</ele>
        <time>2015-11-08T12:17:20Z</time>
      </trkpt>
      <trkpt lat="46.062114117667079" lon="9.211123595014215">
        <ele>1728.1099999999999</ele>
        <time>2015-11-08T12:17:33Z</time>
      </trkpt>
      <trkpt lat="46.0621078312397" lon="9.211102472618222">
        <ele>1727.6300000000001</ele>
        <time>2015-11-08T12:17:45Z</time>
      </trkpt>
      <trkpt lat="46.062115542590618" lon="9.211081434041262">
        <ele>1727.1500000000001</ele>
        <time>2015-11-08T12:17:55Z</time>
      </trkpt>
      <trkpt lat="46.062114117667079" lon="9.211051594465971">
        <ele>1726.1800000000001</ele>
        <time>2015-11-08T12:18:05Z</time>
      </trkpt>
      <trkpt lat="46.062129875645041" lon="9.211034411564469">
        <ele>1724.74</ele>
        <time>2015-11-08T12:18:18Z</time>
      </trkpt>
      <trkpt lat="46.062151249498129" lon="9.211082691326737">
        <ele>1723.3</ele>
        <time>2015-11-08T12:18:29Z</time>
      </trkpt>
      <trkpt lat="46.062161391600966" lon="9.211067520081997">
        <ele>1722.8199999999999</ele>
        <time>2015-11-08T12:18:31Z</time>
      </trkpt>
      <trkpt lat="46.062223082408309" lon="9.211111022159457">
        <ele>1719.46</ele>
        <time>2015-11-08T12:18:38Z</time>
      </trkpt>
      <trkpt lat="46.062317546457052" lon="9.211159721016884">
        <ele>1717.53</ele>
        <time>2015-11-08T12:18:52Z</time>
      </trkpt>
      <trkpt lat="46.062372112646699" lon="9.211209509521723">
        <ele>1716.5699999999999</ele>
        <time>2015-11-08T12:19:00Z</time>
      </trkpt>
      <trkpt lat="46.062435731291771" lon="9.211316546425223">
        <ele>1715.1300000000001</ele>
        <time>2015-11-08T12:19:10Z</time>
      </trkpt>
      <trkpt lat="46.062467666342854" lon="9.211404304951429">
        <ele>1715.6099999999999</ele>
        <time>2015-11-08T12:19:21Z</time>
      </trkpt>
      <trkpt lat="46.062483508139849" lon="9.211464151740074">
        <ele>1715.1300000000001</ele>
        <time>2015-11-08T12:19:36Z</time>
      </trkpt>
      <trkpt lat="46.062484597787261" lon="9.211578648537397">
        <ele>1718.49</ele>
        <time>2015-11-08T12:19:49Z</time>
      </trkpt>
      <trkpt lat="46.062483927235007" lon="9.211615361273289">
        <ele>1718.49</ele>
        <time>2015-11-08T12:20:00Z</time>
      </trkpt>
      <trkpt lat="46.062475461512804" lon="9.211690546944737">
        <ele>1720.9000000000001</ele>
        <time>2015-11-08T12:20:11Z</time>
      </trkpt>
      <trkpt lat="46.06246205046773" lon="9.211749723181129">
        <ele>1720.9000000000001</ele>
        <time>2015-11-08T12:20:22Z</time>
      </trkpt>
      <trkpt lat="46.06246305629611" lon="9.211809150874615">
        <ele>1721.3800000000001</ele>
        <time>2015-11-08T12:20:32Z</time>
      </trkpt>
      <trkpt lat="46.062455009669065" lon="9.211831446737051">
        <ele>1721.3800000000001</ele>
        <time>2015-11-08T12:20:35Z</time>
      </trkpt>
      <trkpt lat="46.062441933900118" lon="9.211848126724362">
        <ele>1721.8599999999999</ele>
        <time>2015-11-08T12:20:46Z</time>
      </trkpt>
      <trkpt lat="46.062443610280752" lon="9.211834045127034">
        <ele>1721.8599999999999</ele>
        <time>2015-11-08T12:20:55Z</time>
      </trkpt>
      <trkpt lat="46.062455344945192" lon="9.211871847510338">
        <ele>1721.8599999999999</ele>
        <time>2015-11-08T12:21:06Z</time>
      </trkpt>
      <trkpt lat="46.062456518411636" lon="9.211903363466263">
        <ele>1723.3</ele>
        <time>2015-11-08T12:21:12Z</time>
      </trkpt>
      <trkpt lat="46.062469426542521" lon="9.211982069537044">
        <ele>1723.3</ele>
        <time>2015-11-08T12:21:23Z</time>
      </trkpt>
      <trkpt lat="46.062453333288431" lon="9.21195650473237">
        <ele>1723.3</ele>
        <time>2015-11-08T12:21:40Z</time>
      </trkpt>
      <trkpt lat="46.062435396015644" lon="9.211947368457913">
        <ele>1723.78</ele>
        <time>2015-11-08T12:21:56Z</time>
      </trkpt>
      <trkpt lat="46.062443358823657" lon="9.211999839171767">
        <ele>1723.78</ele>
        <time>2015-11-08T12:22:27Z</time>
      </trkpt>
      <trkpt lat="46.062441514804959" lon="9.211944602429867">
        <ele>1723.3</ele>
        <time>2015-11-08T12:22:44Z</time>
      </trkpt>
      <trkpt lat="46.062441011890769" lon="9.211945608258247">
        <ele>1723.78</ele>
        <time>2015-11-08T12:23:00Z</time>
      </trkpt>
      <trkpt lat="46.062434893101454" lon="9.211911493912339">
        <ele>1722.3399999999999</ele>
        <time>2015-11-08T12:23:08Z</time>
      </trkpt>
      <trkpt lat="46.062451489269733" lon="9.21189540065825">
        <ele>1722.3399999999999</ele>
        <time>2015-11-08T12:23:18Z</time>
      </trkpt>
      <trkpt lat="46.062430869787931" lon="9.21187193132937">
        <ele>1721.8599999999999</ele>
        <time>2015-11-08T12:23:27Z</time>
      </trkpt>
      <trkpt lat="46.06243715621531" lon="9.211869668215513">
        <ele>1721.8599999999999</ele>
        <time>2015-11-08T12:23:30Z</time>
      </trkpt>
      <trkpt lat="46.062434474006295" lon="9.211877631023526">
        <ele>1721.8599999999999</ele>
        <time>2015-11-08T12:23:42Z</time>
      </trkpt>
      <trkpt lat="46.062430534511805" lon="9.211874613538384">
        <ele>1721.8599999999999</ele>
        <time>2015-11-08T12:24:07Z</time>
      </trkpt>
      <trkpt lat="46.062424164265394" lon="9.211862878873944">
        <ele>1721.8599999999999</ele>
        <time>2015-11-08T12:24:36Z</time>
      </trkpt>
      <trkpt lat="46.06242349371314" lon="9.211851563304663">
        <ele>1721.8599999999999</ele>
        <time>2015-11-08T12:25:04Z</time>
      </trkpt>
      <trkpt lat="46.062431205064058" lon="9.211872015148401">
        <ele>1721.8599999999999</ele>
        <time>2015-11-08T12:25:34Z</time>
      </trkpt>
      <trkpt lat="46.062428187578917" lon="9.211878217756748">
        <ele>1721.8599999999999</ele>
        <time>2015-11-08T12:25:57Z</time>
      </trkpt>
      <trkpt lat="46.062439838424325" lon="9.211892299354076">
        <ele>1721.8599999999999</ele>
        <time>2015-11-08T12:26:25Z</time>
      </trkpt>
      <trkpt lat="46.062432294711471" lon="9.211882073432207">
        <ele>1721.3800000000001</ele>
        <time>2015-11-08T12:26:53Z</time>
      </trkpt>
      <trkpt lat="46.062426008284092" lon="9.211880983784795">
        <ele>1721.8599999999999</ele>
        <time>2015-11-08T12:27:29Z</time>
      </trkpt>
      <trkpt lat="46.062428187578917" lon="9.211880313232541">
        <ele>1721.3800000000001</ele>
        <time>2015-11-08T12:27:57Z</time>
      </trkpt>
      <trkpt lat="46.062425253912807" lon="9.211871260777116">
        <ele>1721.3800000000001</ele>
        <time>2015-11-08T12:28:32Z</time>
      </trkpt>
      <trkpt lat="46.062438664957881" lon="9.211873607710004">
        <ele>1721.3800000000001</ele>
        <time>2015-11-08T12:29:02Z</time>
      </trkpt>
      <trkpt lat="46.062439167872071" lon="9.211858855560422">
        <ele>1721.3800000000001</ele>
        <time>2015-11-08T12:29:28Z</time>
      </trkpt>
      <trkpt lat="46.062431540340185" lon="9.211853742599487">
        <ele>1721.8599999999999</ele>
        <time>2015-11-08T12:29:56Z</time>
      </trkpt>
      <trkpt lat="46.062429444864392" lon="9.211856760084629">
        <ele>1721.3800000000001</ele>
        <time>2015-11-08T12:30:28Z</time>
      </trkpt>
      <trkpt lat="46.062424080446362" lon="9.211884336546063">
        <ele>1721.3800000000001</ele>
        <time>2015-11-08T12:31:02Z</time>
      </trkpt>
      <trkpt lat="46.062420224770904" lon="9.211864974349737">
        <ele>1721.3800000000001</ele>
        <time>2015-11-08T12:31:33Z</time>
      </trkpt>
      <trkpt lat="46.06242005713284" lon="9.211872015148401">
        <ele>1721.3800000000001</ele>
        <time>2015-11-08T12:32:00Z</time>
      </trkpt>
      <trkpt lat="46.062421482056379" lon="9.211887018755078">
        <ele>1721.3800000000001</ele>
        <time>2015-11-08T12:32:32Z</time>
      </trkpt>
      <trkpt lat="46.062418464571238" lon="9.211897579953075">
        <ele>1721.3800000000001</ele>
        <time>2015-11-08T12:33:03Z</time>
      </trkpt>
      <trkpt lat="46.062419386580586" lon="9.211876541376114">
        <ele>1721.3800000000001</ele>
        <time>2015-11-08T12:33:35Z</time>
      </trkpt>
      <trkpt lat="46.062415530905128" lon="9.211877295747399">
        <ele>1721.3800000000001</ele>
        <time>2015-11-08T12:34:05Z</time>
      </trkpt>
      <trkpt lat="46.062424499541521" lon="9.211909649893642">
        <ele>1721.3800000000001</ele>
        <time>2015-11-08T12:34:36Z</time>
      </trkpt>
      <trkpt lat="46.062438245862722" lon="9.21192079782486">
        <ele>1721.3800000000001</ele>
        <time>2015-11-08T12:35:13Z</time>
      </trkpt>
      <trkpt lat="46.06242248788476" lon="9.21190763823688">
        <ele>1721.3800000000001</ele>
        <time>2015-11-08T12:35:43Z</time>
      </trkpt>
      <trkpt lat="46.062427517026663" lon="9.211906800046563">
        <ele>1721.3800000000001</ele>
        <time>2015-11-08T12:36:14Z</time>
      </trkpt>
      <trkpt lat="46.062431205064058" lon="9.211886264383793">
        <ele>1720.9000000000001</ele>
        <time>2015-11-08T12:36:40Z</time>
      </trkpt>
      <trkpt lat="46.062422152608633" lon="9.211870171129704">
        <ele>1720.9000000000001</ele>
        <time>2015-11-08T12:37:03Z</time>
      </trkpt>
      <trkpt lat="46.062419973313808" lon="9.211859777569771">
        <ele>1719.9400000000001</ele>
        <time>2015-11-08T12:37:11Z</time>
      </trkpt>
      <trkpt lat="46.062418883666396" lon="9.211857095360756">
        <ele>1721.8599999999999</ele>
        <time>2015-11-08T12:37:13Z</time>
      </trkpt>
      <trkpt lat="46.062416872009635" lon="9.211855670437217">
        <ele>1719.46</ele>
        <time>2015-11-08T12:37:15Z</time>
      </trkpt>
      <trkpt lat="46.062415782362223" lon="9.211886096745729">
        <ele>1721.3800000000001</ele>
        <time>2015-11-08T12:37:25Z</time>
      </trkpt>
      <trkpt lat="46.062424164265394" lon="9.211872685700655">
        <ele>1720.9000000000001</ele>
        <time>2015-11-08T12:37:39Z</time>
      </trkpt>
      <trkpt lat="46.06240295805037" lon="9.211861370131373">
        <ele>1721.3800000000001</ele>
        <time>2015-11-08T12:38:17Z</time>
      </trkpt>
      <trkpt lat="46.062411591410637" lon="9.211892634630203">
        <ele>1721.3800000000001</ele>
        <time>2015-11-08T12:38:47Z</time>
      </trkpt>
      <trkpt lat="46.062431037425995" lon="9.21189053915441">
        <ele>1721.3800000000001</ele>
        <time>2015-11-08T12:39:25Z</time>
      </trkpt>
      <trkpt lat="46.062425086274743" lon="9.211907722055912">
        <ele>1721.3800000000001</ele>
        <time>2015-11-08T12:39:58Z</time>
      </trkpt>
      <trkpt lat="46.062435228377581" lon="9.21190126799047">
        <ele>1721.8599999999999</ele>
        <time>2015-11-08T12:40:06Z</time>
      </trkpt>
      <trkpt lat="46.062411842867732" lon="9.211917696520686">
        <ele>1722.3399999999999</ele>
        <time>2015-11-08T12:40:20Z</time>
      </trkpt>
      <trkpt lat="46.062423074617982" lon="9.21188903041184">
        <ele>1722.3399999999999</ele>
        <time>2015-11-08T12:40:33Z</time>
      </trkpt>
      <trkpt lat="46.062430115416646" lon="9.21187293715775">
        <ele>1722.3399999999999</ele>
        <time>2015-11-08T12:40:46Z</time>
      </trkpt>
      <trkpt lat="46.062434557825327" lon="9.211883246898651">
        <ele>1722.3399999999999</ele>
        <time>2015-11-08T12:41:03Z</time>
      </trkpt>
      <trkpt lat="46.062419302761555" lon="9.211917445063591">
        <ele>1722.8199999999999</ele>
        <time>2015-11-08T12:41:15Z</time>
      </trkpt>
      <trkpt lat="46.062418129295111" lon="9.211927754804492">
        <ele>1722.8199999999999</ele>
        <time>2015-11-08T12:41:38Z</time>
      </trkpt>
      <trkpt lat="46.062413519248366" lon="9.211946530267596">
        <ele>1722.8199999999999</ele>
        <time>2015-11-08T12:41:51Z</time>
      </trkpt>
      <trkpt lat="46.062417542561889" lon="9.211949380114675">
        <ele>1722.8199999999999</ele>
        <time>2015-11-08T12:42:13Z</time>
      </trkpt>
      <trkpt lat="46.062422320246696" lon="9.211931442841888">
        <ele>1722.8199999999999</ele>
        <time>2015-11-08T12:42:42Z</time>
      </trkpt>
      <trkpt lat="46.062420643866062" lon="9.211940411478281">
        <ele>1722.8199999999999</ele>
        <time>2015-11-08T12:43:01Z</time>
      </trkpt>
      <trkpt lat="46.062426343560219" lon="9.211918618530035">
        <ele>1722.8199999999999</ele>
        <time>2015-11-08T12:43:15Z</time>
      </trkpt>
      <trkpt lat="46.06245475821197" lon="9.211860364302993">
        <ele>1722.3399999999999</ele>
        <time>2015-11-08T12:43:25Z</time>
      </trkpt>
      <trkpt lat="46.062454506754875" lon="9.21179523691535">
        <ele>1721.8599999999999</ele>
        <time>2015-11-08T12:43:36Z</time>
      </trkpt>
      <trkpt lat="46.062449393793941" lon="9.211796829476953">
        <ele>1721.3800000000001</ele>
        <time>2015-11-08T12:43:40Z</time>
      </trkpt>
      <trkpt lat="46.062452746555209" lon="9.211665568873286">
        <ele>1720.9000000000001</ele>
        <time>2015-11-08T12:43:51Z</time>
      </trkpt>
      <trkpt lat="46.062465235590935" lon="9.21162324026227">
        <ele>1720.4200000000001</ele>
        <time>2015-11-08T12:43:58Z</time>
      </trkpt>
      <trkpt lat="46.062456769868731" lon="9.211623910814524">
        <ele>1719.46</ele>
        <time>2015-11-08T12:44:13Z</time>
      </trkpt>
      <trkpt lat="46.062463223934174" lon="9.211574960500002">
        <ele>1718.01</ele>
        <time>2015-11-08T12:44:23Z</time>
      </trkpt>
      <trkpt lat="46.062460457906127" lon="9.211554005742073">
        <ele>1717.53</ele>
        <time>2015-11-08T12:44:26Z</time>
      </trkpt>
      <trkpt lat="46.062457440420985" lon="9.211400952190161">
        <ele>1715.6099999999999</ele>
        <time>2015-11-08T12:44:36Z</time>
      </trkpt>
      <trkpt lat="46.062392815947533" lon="9.211241025477648">
        <ele>1715.6099999999999</ele>
        <time>2015-11-08T12:44:48Z</time>
      </trkpt>
      <trkpt lat="46.062387032434344" lon="9.211225351318717">
        <ele>1716.0899999999999</ele>
        <time>2015-11-08T12:45:00Z</time>
      </trkpt>
      <trkpt lat="46.062372699379921" lon="9.211270362138748">
        <ele>1716.0899999999999</ele>
        <time>2015-11-08T12:45:09Z</time>
      </trkpt>
      <trkpt lat="46.062382338568568" lon="9.211286874487996">
        <ele>1715.1300000000001</ele>
        <time>2015-11-08T12:45:12Z</time>
      </trkpt>
      <trkpt lat="46.062360461801291" lon="9.211352420970798">
        <ele>1713.21</ele>
        <time>2015-11-08T12:45:22Z</time>
      </trkpt>
      <trkpt lat="46.062350235879421" lon="9.211449231952429">
        <ele>1710.3199999999999</ele>
        <time>2015-11-08T12:45:32Z</time>
      </trkpt>
      <trkpt lat="46.06231302022934" lon="9.21154503710568">
        <ele>1706.96</ele>
        <time>2015-11-08T12:45:44Z</time>
      </trkpt>
      <trkpt lat="46.062289383262396" lon="9.211591808125377">
        <ele>1705.04</ele>
        <time>2015-11-08T12:45:53Z</time>
      </trkpt>
      <trkpt lat="46.062263231724501" lon="9.211635896936059">
        <ele>1703.1099999999999</ele>
        <time>2015-11-08T12:46:03Z</time>
      </trkpt>
      <trkpt lat="46.062239930033684" lon="9.211662719026208">
        <ele>1701.1900000000001</ele>
        <time>2015-11-08T12:46:14Z</time>
      </trkpt>
      <trkpt lat="46.062230207026005" lon="9.211704879999161">
        <ele>1699.75</ele>
        <time>2015-11-08T12:46:25Z</time>
      </trkpt>
      <trkpt lat="46.062203217297792" lon="9.211691804230213">
        <ele>1698.79</ele>
        <time>2015-11-08T12:46:36Z</time>
      </trkpt>
      <trkpt lat="46.062189051881433" lon="9.211729438975453">
        <ele>1697.8299999999999</ele>
        <time>2015-11-08T12:46:44Z</time>
      </trkpt>
      <trkpt lat="46.062169522047043" lon="9.211782664060593">
        <ele>1696.3800000000001</ele>
        <time>2015-11-08T12:46:53Z</time>
      </trkpt>
      <trkpt lat="46.062172623351216" lon="9.211778808385134">
        <ele>1695.9000000000001</ele>
        <time>2015-11-08T12:47:07Z</time>
      </trkpt>
      <trkpt lat="46.062161643058062" lon="9.211798505857587">
        <ele>1694.9400000000001</ele>
        <time>2015-11-08T12:47:18Z</time>
      </trkpt>
      <trkpt lat="46.062147561460733" lon="9.211782831698656">
        <ele>1694.46</ele>
        <time>2015-11-08T12:47:30Z</time>
      </trkpt>
      <trkpt lat="46.062133396044374" lon="9.211806636303663">
        <ele>1693.5</ele>
        <time>2015-11-08T12:47:46Z</time>
      </trkpt>
      <trkpt lat="46.062125265598297" lon="9.211805546656251">
        <ele>1692.54</ele>
        <time>2015-11-08T12:47:59Z</time>
      </trkpt>
      <trkpt lat="46.062114788219333" lon="9.211846869438887">
        <ele>1692.54</ele>
        <time>2015-11-08T12:48:13Z</time>
      </trkpt>
      <trkpt lat="46.062129875645041" lon="9.211835386231542">
        <ele>1692.0599999999999</ele>
        <time>2015-11-08T12:48:26Z</time>
      </trkpt>
      <trkpt lat="46.062134988605976" lon="9.211841505020857">
        <ele>1692.0599999999999</ele>
        <time>2015-11-08T12:48:38Z</time>
      </trkpt>
      <trkpt lat="46.062133815139532" lon="9.211859442293644">
        <ele>1692.0599999999999</ele>
        <time>2015-11-08T12:48:47Z</time>
      </trkpt>
      <trkpt lat="46.062111519277096" lon="9.211884420365095">
        <ele>1693.02</ele>
        <time>2015-11-08T12:48:55Z</time>
      </trkpt>
      <trkpt lat="46.062093414366245" lon="9.211934125050902">
        <ele>1691.5799999999999</ele>
        <time>2015-11-08T12:49:04Z</time>
      </trkpt>
      <trkpt lat="46.062089893966913" lon="9.211968826130033">
        <ele>1690.6199999999999</ele>
        <time>2015-11-08T12:49:08Z</time>
      </trkpt>
      <trkpt lat="46.062104981392622" lon="9.21200386248529">
        <ele>1689.6500000000001</ele>
        <time>2015-11-08T12:49:16Z</time>
      </trkpt>
      <trkpt lat="46.062094420194626" lon="9.212031774222851">
        <ele>1689.1700000000001</ele>
        <time>2015-11-08T12:49:24Z</time>
      </trkpt>
      <trkpt lat="46.062060473486781" lon="9.212103439494968">
        <ele>1687.25</ele>
        <time>2015-11-08T12:49:36Z</time>
      </trkpt>
      <trkpt lat="46.062062317505479" lon="9.212144846096635">
        <ele>1685.3299999999999</ele>
        <time>2015-11-08T12:49:43Z</time>
      </trkpt>
      <trkpt lat="46.062066508457065" lon="9.212153730913997">
        <ele>1684.8499999999999</ele>
        <time>2015-11-08T12:49:44Z</time>
      </trkpt>
      <trkpt lat="46.062041111290455" lon="9.212213326245546">
        <ele>1682.9300000000001</ele>
        <time>2015-11-08T12:49:55Z</time>
      </trkpt>
      <trkpt lat="46.062038093805313" lon="9.21223352663219">
        <ele>1682.9300000000001</ele>
        <time>2015-11-08T12:50:13Z</time>
      </trkpt>
      <trkpt lat="46.062058629468083" lon="9.212254816666246">
        <ele>1681</ele>
        <time>2015-11-08T12:50:22Z</time>
      </trkpt>
      <trkpt lat="46.062065754085779" lon="9.212249619886279">
        <ele>1680.52</ele>
        <time>2015-11-08T12:50:28Z</time>
      </trkpt>
      <trkpt lat="46.062051672488451" lon="9.212305527180433">
        <ele>1678.5999999999999</ele>
        <time>2015-11-08T12:50:38Z</time>
      </trkpt>
      <trkpt lat="46.062006074935198" lon="9.212282728403807">
        <ele>1676.6800000000001</ele>
        <time>2015-11-08T12:50:46Z</time>
      </trkpt>
      <trkpt lat="46.062003057450056" lon="9.212296055629849">
        <ele>1676.2</ele>
        <time>2015-11-08T12:50:49Z</time>
      </trkpt>
      <trkpt lat="46.061996351927519" lon="9.212357075884938">
        <ele>1673.3099999999999</ele>
        <time>2015-11-08T12:50:58Z</time>
      </trkpt>
      <trkpt lat="46.061980342492461" lon="9.212371408939362">
        <ele>1672.3499999999999</ele>
        <time>2015-11-08T12:51:06Z</time>
      </trkpt>
      <trkpt lat="46.061975983902812" lon="9.2123693972826">
        <ele>1671.8699999999999</ele>
        <time>2015-11-08T12:51:12Z</time>
      </trkpt>
      <trkpt lat="46.061940444633365" lon="9.212398985400796">
        <ele>1669.95</ele>
        <time>2015-11-08T12:51:23Z</time>
      </trkpt>
      <trkpt lat="46.061954358592629" lon="9.212408205494285">
        <ele>1669.95</ele>
        <time>2015-11-08T12:51:39Z</time>
      </trkpt>
      <trkpt lat="46.061956202611327" lon="9.212406361475587">
        <ele>1670.4300000000001</ele>
        <time>2015-11-08T12:51:56Z</time>
      </trkpt>
      <trkpt lat="46.06192460283637" lon="9.212444163858891">
        <ele>1669.47</ele>
        <time>2015-11-08T12:52:11Z</time>
      </trkpt>
      <trkpt lat="46.061910940334201" lon="9.212411725893617">
        <ele>1668.99</ele>
        <time>2015-11-08T12:52:21Z</time>
      </trkpt>
      <trkpt lat="46.061862157657743" lon="9.212327487766743">
        <ele>1665.6199999999999</ele>
        <time>2015-11-08T12:52:32Z</time>
      </trkpt>
      <trkpt lat="46.061830474063754" lon="9.212292535230517">
        <ele>1663.22</ele>
        <time>2015-11-08T12:52:43Z</time>
      </trkpt>
      <trkpt lat="46.061805244535208" lon="9.212261270731688">
        <ele>1661.3</ele>
        <time>2015-11-08T12:52:52Z</time>
      </trkpt>
      <trkpt lat="46.06181169860065" lon="9.212218690663576">
        <ele>1660.3299999999999</ele>
        <time>2015-11-08T12:53:02Z</time>
      </trkpt>
      <trkpt lat="46.061787810176611" lon="9.21221349388361">
        <ele>1659.3699999999999</ele>
        <time>2015-11-08T12:53:09Z</time>
      </trkpt>
      <trkpt lat="46.06176970526576" lon="9.212223803624511">
        <ele>1657.9300000000001</ele>
        <time>2015-11-08T12:53:16Z</time>
      </trkpt>
      <trkpt lat="46.061754869297147" lon="9.212288009002805">
        <ele>1655.53</ele>
        <time>2015-11-08T12:53:26Z</time>
      </trkpt>
      <trkpt lat="46.061757802963257" lon="9.212247440591455">
        <ele>1655.05</ele>
        <time>2015-11-08T12:53:37Z</time>
      </trkpt>
      <trkpt lat="46.061740955337882" lon="9.212274346500635">
        <ele>1655.05</ele>
        <time>2015-11-08T12:53:48Z</time>
      </trkpt>
      <trkpt lat="46.061722431331873" lon="9.212311143055558">
        <ele>1652.6400000000001</ele>
        <time>2015-11-08T12:54:00Z</time>
      </trkpt>
      <trkpt lat="46.061707427725196" lon="9.21229999512434">
        <ele>1652.6400000000001</ele>
        <time>2015-11-08T12:54:11Z</time>
      </trkpt>
      <trkpt lat="46.061705416068435" lon="9.21230292879045">
        <ele>1652.1600000000001</ele>
        <time>2015-11-08T12:54:21Z</time>
      </trkpt>
      <trkpt lat="46.061692843213677" lon="9.212242662906647">
        <ele>1650.72</ele>
        <time>2015-11-08T12:54:34Z</time>
      </trkpt>
      <trkpt lat="46.061683287844062" lon="9.212267976254225">
        <ele>1650.24</ele>
        <time>2015-11-08T12:54:40Z</time>
      </trkpt>
      <trkpt lat="46.061670631170273" lon="9.212277615442872">
        <ele>1649.76</ele>
        <time>2015-11-08T12:54:42Z</time>
      </trkpt>
      <trkpt lat="46.061659064143896" lon="9.212242495268583">
        <ele>1647.3599999999999</ele>
        <time>2015-11-08T12:54:52Z</time>
      </trkpt>
      <trkpt lat="46.061653532087803" lon="9.212240064516664">
        <ele>1647.3599999999999</ele>
        <time>2015-11-08T12:54:54Z</time>
      </trkpt>
      <trkpt lat="46.061652442440391" lon="9.212222630158067">
        <ele>1646.4000000000001</ele>
        <time>2015-11-08T12:55:03Z</time>
      </trkpt>
      <trkpt lat="46.061668619513512" lon="9.212218271568418">
        <ele>1646.4000000000001</ele>
        <time>2015-11-08T12:55:19Z</time>
      </trkpt>
      <trkpt lat="46.061652610078454" lon="9.212223635986447">
        <ele>1645.9100000000001</ele>
        <time>2015-11-08T12:55:30Z</time>
      </trkpt>
      <trkpt lat="46.061658980324864" lon="9.212318519130349">
        <ele>1644.95</ele>
        <time>2015-11-08T12:55:42Z</time>
      </trkpt>
      <trkpt lat="46.06164607219398" lon="9.212362440302968">
        <ele>1642.55</ele>
        <time>2015-11-08T12:55:52Z</time>
      </trkpt>
      <trkpt lat="46.061641126871109" lon="9.212385909631848">
        <ele>1642.0699999999999</ele>
        <time>2015-11-08T12:56:05Z</time>
      </trkpt>
      <trkpt lat="46.061621848493814" lon="9.212414156645536">
        <ele>1642.0699999999999</ele>
        <time>2015-11-08T12:56:11Z</time>
      </trkpt>
      <trkpt lat="46.061605084687471" lon="9.212408792227507">
        <ele>1638.7</ele>
        <time>2015-11-08T12:56:20Z</time>
      </trkpt>
      <trkpt lat="46.061580944806337" lon="9.212328493595123">
        <ele>1637.26</ele>
        <time>2015-11-08T12:56:30Z</time>
      </trkpt>
      <trkpt lat="46.06154884211719" lon="9.212288428097963">
        <ele>1635.3399999999999</ele>
        <time>2015-11-08T12:56:39Z</time>
      </trkpt>
      <trkpt lat="46.061508189886808" lon="9.212266299873591">
        <ele>1632.9400000000001</ele>
        <time>2015-11-08T12:56:47Z</time>
      </trkpt>
      <trkpt lat="46.061518918722868" lon="9.212257247418165">
        <ele>1631.98</ele>
        <time>2015-11-08T12:56:57Z</time>
      </trkpt>
      <trkpt lat="46.06151313520968" lon="9.212288847193122">
        <ele>1631.49</ele>
        <time>2015-11-08T12:57:08Z</time>
      </trkpt>
      <trkpt lat="46.06153316795826" lon="9.212287422269583">
        <ele>1631.49</ele>
        <time>2015-11-08T12:57:19Z</time>
      </trkpt>
      <trkpt lat="46.06151464395225" lon="9.212285745888948">
        <ele>1631.01</ele>
        <time>2015-11-08T12:57:30Z</time>
      </trkpt>
      <trkpt lat="46.061497125774622" lon="9.212314831092954">
        <ele>1631.01</ele>
        <time>2015-11-08T12:57:51Z</time>
      </trkpt>
      <trkpt lat="46.061507686972618" lon="9.212328996509314">
        <ele>1630.05</ele>
        <time>2015-11-08T12:58:02Z</time>
      </trkpt>
      <trkpt lat="46.061490587890148" lon="9.212362691760063">
        <ele>1630.05</ele>
        <time>2015-11-08T12:58:12Z</time>
      </trkpt>
      <trkpt lat="46.061466196551919" lon="9.212384903803468">
        <ele>1628.1300000000001</ele>
        <time>2015-11-08T12:58:24Z</time>
      </trkpt>
      <trkpt lat="46.061445409432054" lon="9.212390352040529">
        <ele>1627.1700000000001</ele>
        <time>2015-11-08T12:58:32Z</time>
      </trkpt>
      <trkpt lat="46.061416156589985" lon="9.212415078654885">
        <ele>1625.73</ele>
        <time>2015-11-08T12:58:39Z</time>
      </trkpt>
      <trkpt lat="46.061423700302839" lon="9.212426142767072">
        <ele>1625.25</ele>
        <time>2015-11-08T12:58:51Z</time>
      </trkpt>
      <trkpt lat="46.061412468552589" lon="9.212428405880928">
        <ele>1624.77</ele>
        <time>2015-11-08T12:59:02Z</time>
      </trkpt>
      <trkpt lat="46.061426047235727" lon="9.21238012611866">
        <ele>1624.77</ele>
        <time>2015-11-08T12:59:17Z</time>
      </trkpt>
      <trkpt lat="46.061392771080136" lon="9.212402505800128">
        <ele>1623.3199999999999</ele>
        <time>2015-11-08T12:59:26Z</time>
      </trkpt>
      <trkpt lat="46.061418084427714" lon="9.212472662329674">
        <ele>1622.3599999999999</ele>
        <time>2015-11-08T12:59:36Z</time>
      </trkpt>
      <trkpt lat="46.061413306742907" lon="9.212501998990774">
        <ele>1621.4000000000001</ele>
        <time>2015-11-08T12:59:42Z</time>
      </trkpt>
      <trkpt lat="46.061397297307849" lon="9.212509542703629">
        <ele>1620.4400000000001</ele>
        <time>2015-11-08T12:59:50Z</time>
      </trkpt>
      <trkpt lat="46.061405846849084" lon="9.212468722835183">
        <ele>1619.96</ele>
        <time>2015-11-08T13:00:06Z</time>
      </trkpt>
      <trkpt lat="46.061418084427714" lon="9.212503004819155">
        <ele>1619.48</ele>
        <time>2015-11-08T13:00:18Z</time>
      </trkpt>
      <trkpt lat="46.061406433582306" lon="9.212507866322994">
        <ele>1619.96</ele>
        <time>2015-11-08T13:00:31Z</time>
      </trkpt>
      <trkpt lat="46.061389669775963" lon="9.212500490248203">
        <ele>1619.96</ele>
        <time>2015-11-08T13:00:47Z</time>
      </trkpt>
      <trkpt lat="46.061354130506516" lon="9.212475847452879">
        <ele>1618.52</ele>
        <time>2015-11-08T13:01:01Z</time>
      </trkpt>
      <trkpt lat="46.061322698369622" lon="9.212449276819825">
        <ele>1617.0699999999999</ele>
        <time>2015-11-08T13:01:06Z</time>
      </trkpt>
      <trkpt lat="46.061264779418707" lon="9.212394962087274">
        <ele>1615.1500000000001</ele>
        <time>2015-11-08T13:01:17Z</time>
      </trkpt>
      <trkpt lat="46.061276011168957" lon="9.212429160252214">
        <ele>1614.6700000000001</ele>
        <time>2015-11-08T13:01:20Z</time>
      </trkpt>
      <trkpt lat="46.061302162706852" lon="9.212548183277249">
        <ele>1612.27</ele>
        <time>2015-11-08T13:01:31Z</time>
      </trkpt>
      <trkpt lat="46.061265114694834" lon="9.212591852992773">
        <ele>1609.3800000000001</ele>
        <time>2015-11-08T13:01:40Z</time>
      </trkpt>
      <trkpt lat="46.061252122744918" lon="9.212659830227494">
        <ele>1606.98</ele>
        <time>2015-11-08T13:01:51Z</time>
      </trkpt>
      <trkpt lat="46.061243154108524" lon="9.212686317041516">
        <ele>1605.54</ele>
        <time>2015-11-08T13:02:00Z</time>
      </trkpt>
      <trkpt lat="46.061262600123882" lon="9.21271238476038">
        <ele>1605.0599999999999</ele>
        <time>2015-11-08T13:02:12Z</time>
      </trkpt>
      <trkpt lat="46.061238460242748" lon="9.212737027555704">
        <ele>1603.1400000000001</ele>
        <time>2015-11-08T13:02:16Z</time>
      </trkpt>
      <trkpt lat="46.061230665072799" lon="9.212770806625485">
        <ele>1601.6900000000001</ele>
        <time>2015-11-08T13:02:24Z</time>
      </trkpt>
      <trkpt lat="46.061214404180646" lon="9.212814560160041">
        <ele>1599.77</ele>
        <time>2015-11-08T13:02:35Z</time>
      </trkpt>
      <trkpt lat="46.061175931245089" lon="9.212840544059873">
        <ele>1597.8499999999999</ele>
        <time>2015-11-08T13:02:45Z</time>
      </trkpt>
      <trkpt lat="46.06112421490252" lon="9.21289904974401">
        <ele>1595.45</ele>
        <time>2015-11-08T13:02:56Z</time>
      </trkpt>
      <trkpt lat="46.061127819120884" lon="9.212922099977732">
        <ele>1593.52</ele>
        <time>2015-11-08T13:03:05Z</time>
      </trkpt>
      <trkpt lat="46.061122622340918" lon="9.212941462174058">
        <ele>1592.0799999999999</ele>
        <time>2015-11-08T13:03:16Z</time>
      </trkpt>
      <trkpt lat="46.061103595420718" lon="9.212967194616795">
        <ele>1591.5999999999999</ele>
        <time>2015-11-08T13:03:26Z</time>
      </trkpt>
      <trkpt lat="46.061082053929567" lon="9.212987227365375">
        <ele>1590.1600000000001</ele>
        <time>2015-11-08T13:03:33Z</time>
      </trkpt>
      <trkpt lat="46.06104995124042" lon="9.213007092475891">
        <ele>1588.72</ele>
        <time>2015-11-08T13:03:42Z</time>
      </trkpt>
      <trkpt lat="46.061036791652441" lon="9.212972894310951">
        <ele>1586.79</ele>
        <time>2015-11-08T13:03:51Z</time>
      </trkpt>
      <trkpt lat="46.060999659821391" lon="9.213040620088577">
        <ele>1584.8699999999999</ele>
        <time>2015-11-08T13:04:03Z</time>
      </trkpt>
      <trkpt lat="46.060925228521228" lon="9.21311060898006">
        <ele>1583.4300000000001</ele>
        <time>2015-11-08T13:04:15Z</time>
      </trkpt>
      <trkpt lat="46.060877367854118" lon="9.213165510445833">
        <ele>1581.51</ele>
        <time>2015-11-08T13:04:26Z</time>
      </trkpt>
      <trkpt lat="46.060872925445437" lon="9.213172299787402">
        <ele>1581.03</ele>
        <time>2015-11-08T13:04:27Z</time>
      </trkpt>
      <trkpt lat="46.060836464166641" lon="9.213227536529303">
        <ele>1579.0999999999999</ele>
        <time>2015-11-08T13:04:38Z</time>
      </trkpt>
      <trkpt lat="46.060806373134255" lon="9.213247988373041">
        <ele>1577.6600000000001</ele>
        <time>2015-11-08T13:04:46Z</time>
      </trkpt>
      <trkpt lat="46.060778712853789" lon="9.213307164609432">
        <ele>1574.78</ele>
        <time>2015-11-08T13:04:57Z</time>
      </trkpt>
      <trkpt lat="46.060754908248782" lon="9.213318061083555">
        <ele>1572.8499999999999</ele>
        <time>2015-11-08T13:05:08Z</time>
      </trkpt>
      <trkpt lat="46.060722637921572" lon="9.213365418836474">
        <ele>1569.97</ele>
        <time>2015-11-08T13:05:19Z</time>
      </trkpt>
      <trkpt lat="46.060717273503542" lon="9.213361227884889">
        <ele>1569.01</ele>
        <time>2015-11-08T13:05:30Z</time>
      </trkpt>
      <trkpt lat="46.060707299038768" lon="9.213432054966688">
        <ele>1566.6099999999999</ele>
        <time>2015-11-08T13:05:41Z</time>
      </trkpt>
      <trkpt lat="46.06067611835897" lon="9.213502798229456">
        <ele>1563.72</ele>
        <time>2015-11-08T13:05:52Z</time>
      </trkpt>
      <trkpt lat="46.060661533847451" lon="9.213562058284879">
        <ele>1562.28</ele>
        <time>2015-11-08T13:06:01Z</time>
      </trkpt>
      <trkpt lat="46.060629263520241" lon="9.213647050783038">
        <ele>1560.3599999999999</ele>
        <time>2015-11-08T13:06:11Z</time>
      </trkpt>
      <trkpt lat="46.060629347339272" lon="9.213716620579362">
        <ele>1559.4000000000001</ele>
        <time>2015-11-08T13:06:22Z</time>
      </trkpt>
      <trkpt lat="46.060601519420743" lon="9.213755093514919">
        <ele>1556.99</ele>
        <time>2015-11-08T13:06:35Z</time>
      </trkpt>
      <trkpt lat="46.060575284063816" lon="9.213784262537956">
        <ele>1554.5899999999999</ele>
        <time>2015-11-08T13:06:46Z</time>
      </trkpt>
      <trkpt lat="46.060537062585354" lon="9.213786525651813">
        <ele>1552.6700000000001</ele>
        <time>2015-11-08T13:06:54Z</time>
      </trkpt>
      <trkpt lat="46.060527926310897" lon="9.213858107104898">
        <ele>1551.22</ele>
        <time>2015-11-08T13:07:04Z</time>
      </trkpt>
      <trkpt lat="46.060516778379679" lon="9.213846540078521">
        <ele>1550.26</ele>
        <time>2015-11-08T13:07:12Z</time>
      </trkpt>
      <trkpt lat="46.060502864420414" lon="9.213879397138953">
        <ele>1548.8199999999999</ele>
        <time>2015-11-08T13:07:24Z</time>
      </trkpt>
      <trkpt lat="46.060443101450801" lon="9.213960617780685">
        <ele>1545.9400000000001</ele>
        <time>2015-11-08T13:07:37Z</time>
      </trkpt>
      <trkpt lat="46.060427594929934" lon="9.213999761268497">
        <ele>1545.46</ele>
        <time>2015-11-08T13:07:50Z</time>
      </trkpt>
      <trkpt lat="46.060398006811738" lon="9.214026667177677">
        <ele>1544.01</ele>
        <time>2015-11-08T13:07:54Z</time>
      </trkpt>
      <trkpt lat="46.060306476429105" lon="9.214121634140611">
        <ele>1542.5699999999999</ele>
        <time>2015-11-08T13:08:06Z</time>
      </trkpt>
      <trkpt lat="46.060270182788372" lon="9.214145606383681">
        <ele>1540.6500000000001</ele>
        <time>2015-11-08T13:08:15Z</time>
      </trkpt>
      <trkpt lat="46.060262890532613" lon="9.214168321341276">
        <ele>1539.6900000000001</ele>
        <time>2015-11-08T13:08:21Z</time>
      </trkpt>
      <trkpt lat="46.060232296586037" lon="9.214204363524914">
        <ele>1537.29</ele>
        <time>2015-11-08T13:08:31Z</time>
      </trkpt>
      <trkpt lat="46.060194075107574" lon="9.214274352416396">
        <ele>1535.8399999999999</ele>
        <time>2015-11-08T13:08:45Z</time>
      </trkpt>
      <trkpt lat="46.06018653139472" lon="9.214335875585675">
        <ele>1537.77</ele>
        <time>2015-11-08T13:08:50Z</time>
      </trkpt>
      <trkpt lat="46.060186279937625" lon="9.214328248053789">
        <ele>1538.25</ele>
        <time>2015-11-08T13:08:58Z</time>
      </trkpt>
      <trkpt lat="46.060142274945974" lon="9.2143898550421">
        <ele>1536.3199999999999</ele>
        <time>2015-11-08T13:09:08Z</time>
      </trkpt>
      <trkpt lat="46.060138922184706" lon="9.214398236945272">
        <ele>1536.8</ele>
        <time>2015-11-08T13:09:23Z</time>
      </trkpt>
      <trkpt lat="46.060140850022435" lon="9.214399494230747">
        <ele>1536.3199999999999</ele>
        <time>2015-11-08T13:09:24Z</time>
      </trkpt>
      <trkpt lat="46.060140933841467" lon="9.214457413181663">
        <ele>1534.8800000000001</ele>
        <time>2015-11-08T13:09:33Z</time>
      </trkpt>
      <trkpt lat="46.060142442584038" lon="9.214467722922564">
        <ele>1534.8800000000001</ele>
        <time>2015-11-08T13:09:35Z</time>
      </trkpt>
      <trkpt lat="46.060123080387712" lon="9.214498903602362">
        <ele>1532.96</ele>
        <time>2015-11-08T13:09:40Z</time>
      </trkpt>
      <trkpt lat="46.060112435370684" lon="9.214483061805368">
        <ele>1532.48</ele>
        <time>2015-11-08T13:09:42Z</time>
      </trkpt>
      <trkpt lat="46.060100616887212" lon="9.214413156732917">
        <ele>1531.52</ele>
        <time>2015-11-08T13:09:50Z</time>
      </trkpt>
      <trkpt lat="46.060094833374023" lon="9.214407540857792">
        <ele>1530.5599999999999</ele>
        <time>2015-11-08T13:10:00Z</time>
      </trkpt>
      <trkpt lat="46.060064909979701" lon="9.214368313550949">
        <ele>1528.6300000000001</ele>
        <time>2015-11-08T13:10:08Z</time>
      </trkpt>
      <trkpt lat="46.060058288276196" lon="9.214373845607042">
        <ele>1528.6300000000001</ele>
        <time>2015-11-08T13:10:10Z</time>
      </trkpt>
      <trkpt lat="46.060030376538634" lon="9.214366720989347">
        <ele>1527.1900000000001</ele>
        <time>2015-11-08T13:10:18Z</time>
      </trkpt>
      <trkpt lat="46.060011265799403" lon="9.214340569451451">
        <ele>1525.27</ele>
        <time>2015-11-08T13:10:26Z</time>
      </trkpt>
      <trkpt lat="46.060009002685547" lon="9.214331014081836">
        <ele>1524.79</ele>
        <time>2015-11-08T13:10:42Z</time>
      </trkpt>
      <trkpt lat="46.060025934129953" lon="9.214311232790351">
        <ele>1524.79</ele>
        <time>2015-11-08T13:10:57Z</time>
      </trkpt>
      <trkpt lat="46.060036579146981" lon="9.214311484247446">
        <ele>1524.79</ele>
        <time>2015-11-08T13:11:14Z</time>
      </trkpt>
      <trkpt lat="46.060040267184377" lon="9.214299498125911">
        <ele>1524.79</ele>
        <time>2015-11-08T13:11:30Z</time>
      </trkpt>
      <trkpt lat="46.060036327689886" lon="9.21430679038167">
        <ele>1524.79</ele>
        <time>2015-11-08T13:11:49Z</time>
      </trkpt>
      <trkpt lat="46.060024593025446" lon="9.214311987161636">
        <ele>1524.79</ele>
        <time>2015-11-08T13:12:05Z</time>
      </trkpt>
      <trkpt lat="46.060010595247149" lon="9.214400332421064">
        <ele>1523.8299999999999</ele>
        <time>2015-11-08T13:12:20Z</time>
      </trkpt>
      <trkpt lat="46.059997100383043" lon="9.214428327977657">
        <ele>1521.9000000000001</ele>
        <time>2015-11-08T13:12:28Z</time>
      </trkpt>
      <trkpt lat="46.059990646317601" lon="9.214409468695521">
        <ele>1521.9000000000001</ele>
        <time>2015-11-08T13:12:45Z</time>
      </trkpt>
      <trkpt lat="46.059978241100907" lon="9.214411647990346">
        <ele>1521.9000000000001</ele>
        <time>2015-11-08T13:13:04Z</time>
      </trkpt>
      <trkpt lat="46.059982348233461" lon="9.214403433725238">
        <ele>1521.9000000000001</ele>
        <time>2015-11-08T13:13:18Z</time>
      </trkpt>
      <trkpt lat="46.059983354061842" lon="9.214407959952951">
        <ele>1521.9000000000001</ele>
        <time>2015-11-08T13:13:30Z</time>
      </trkpt>
      <trkpt lat="46.059970865026116" lon="9.214435117319226">
        <ele>1521.4200000000001</ele>
        <time>2015-11-08T13:13:46Z</time>
      </trkpt>
      <trkpt lat="46.059991316869855" lon="9.214457999914885">
        <ele>1520.46</ele>
        <time>2015-11-08T13:13:55Z</time>
      </trkpt>
      <trkpt lat="46.059949742630124" lon="9.214569479227066">
        <ele>1518.54</ele>
        <time>2015-11-08T13:14:07Z</time>
      </trkpt>
      <trkpt lat="46.059948904439807" lon="9.214629493653774">
        <ele>1517.0999999999999</ele>
        <time>2015-11-08T13:14:18Z</time>
      </trkpt>
      <trkpt lat="46.059927111491561" lon="9.214633349329233">
        <ele>1516.6199999999999</ele>
        <time>2015-11-08T13:14:28Z</time>
      </trkpt>
      <trkpt lat="46.059882435947657" lon="9.214641647413373">
        <ele>1515.1800000000001</ele>
        <time>2015-11-08T13:14:38Z</time>
      </trkpt>
      <trkpt lat="46.059890566393733" lon="9.214715408161283">
        <ele>1513.25</ele>
        <time>2015-11-08T13:14:47Z</time>
      </trkpt>
      <trkpt lat="46.05989333242178" lon="9.214734854176641">
        <ele>1513.25</ele>
        <time>2015-11-08T13:14:49Z</time>
      </trkpt>
      <trkpt lat="46.059905234724283" lon="9.214765280485153">
        <ele>1511.8099999999999</ele>
        <time>2015-11-08T13:14:59Z</time>
      </trkpt>
      <trkpt lat="46.059867683798075" lon="9.214760167524219">
        <ele>1510.3699999999999</ele>
        <time>2015-11-08T13:15:09Z</time>
      </trkpt>
      <trkpt lat="46.059872796759009" lon="9.214779864996672">
        <ele>1509.8900000000001</ele>
        <time>2015-11-08T13:15:11Z</time>
      </trkpt>
      <trkpt lat="46.059874054044485" lon="9.214831246063113">
        <ele>1507.97</ele>
        <time>2015-11-08T13:15:21Z</time>
      </trkpt>
      <trkpt lat="46.059857876971364" lon="9.214854966849089">
        <ele>1506.52</ele>
        <time>2015-11-08T13:15:32Z</time>
      </trkpt>
      <trkpt lat="46.059826863929629" lon="9.214859660714865">
        <ele>1504.5999999999999</ele>
        <time>2015-11-08T13:15:42Z</time>
      </trkpt>
      <trkpt lat="46.059806244447827" lon="9.214881202206016">
        <ele>1503.1600000000001</ele>
        <time>2015-11-08T13:15:51Z</time>
      </trkpt>
      <trkpt lat="46.059790318831801" lon="9.214901402592659">
        <ele>1501.72</ele>
        <time>2015-11-08T13:15:57Z</time>
      </trkpt>
      <trkpt lat="46.059743799269199" lon="9.214915232732892">
        <ele>1499.79</ele>
        <time>2015-11-08T13:16:06Z</time>
      </trkpt>
      <trkpt lat="46.059735836461186" lon="9.214950604364276">
        <ele>1498.8299999999999</ele>
        <time>2015-11-08T13:16:16Z</time>
      </trkpt>
      <trkpt lat="46.059712115675211" lon="9.214988742023706">
        <ele>1498.8299999999999</ele>
        <time>2015-11-08T13:16:25Z</time>
      </trkpt>
      <trkpt lat="46.059688478708267" lon="9.215022521093488">
        <ele>1496.9100000000001</ele>
        <time>2015-11-08T13:16:35Z</time>
      </trkpt>
      <trkpt lat="46.059684455394745" lon="9.215033166110516">
        <ele>1496.9100000000001</ele>
        <time>2015-11-08T13:16:38Z</time>
      </trkpt>
      <trkpt lat="46.059679929167032" lon="9.21509737148881">
        <ele>1496.9100000000001</ele>
        <time>2015-11-08T13:16:47Z</time>
      </trkpt>
      <trkpt lat="46.059686886146665" lon="9.215073902159929">
        <ele>1496.9100000000001</ele>
        <time>2015-11-08T13:16:58Z</time>
      </trkpt>
      <trkpt lat="46.059702057391405" lon="9.215130982920528">
        <ele>1495.95</ele>
        <time>2015-11-08T13:17:05Z</time>
      </trkpt>
      <trkpt lat="46.059709936380386" lon="9.215142130851746">
        <ele>1495.47</ele>
        <time>2015-11-08T13:17:08Z</time>
      </trkpt>
      <trkpt lat="46.059734914451838" lon="9.215214299038053">
        <ele>1492.5799999999999</ele>
        <time>2015-11-08T13:17:18Z</time>
      </trkpt>
      <trkpt lat="46.059764586389065" lon="9.215297447517514">
        <ele>1490.6600000000001</ele>
        <time>2015-11-08T13:17:28Z</time>
      </trkpt>
      <trkpt lat="46.059787888079882" lon="9.215361988171935">
        <ele>1488.74</ele>
        <time>2015-11-08T13:17:37Z</time>
      </trkpt>
      <trkpt lat="46.059814542531967" lon="9.215413704514504">
        <ele>1486.8199999999999</ele>
        <time>2015-11-08T13:17:48Z</time>
      </trkpt>
      <trkpt lat="46.059836754575372" lon="9.215434575453401">
        <ele>1485.8499999999999</ele>
        <time>2015-11-08T13:17:59Z</time>
      </trkpt>
      <trkpt lat="46.059837592765689" lon="9.215515293180943">
        <ele>1483.45</ele>
        <time>2015-11-08T13:18:10Z</time>
      </trkpt>
      <trkpt lat="46.059842118993402" lon="9.215578911826015">
        <ele>1481.53</ele>
        <time>2015-11-08T13:18:20Z</time>
      </trkpt>
      <trkpt lat="46.0598508361727" lon="9.215605985373259">
        <ele>1480.5699999999999</ele>
        <time>2015-11-08T13:18:32Z</time>
      </trkpt>
      <trkpt lat="46.05983717367053" lon="9.215634483844042">
        <ele>1479.6099999999999</ele>
        <time>2015-11-08T13:18:43Z</time>
      </trkpt>
      <trkpt lat="46.059834072366357" lon="9.215639512985945">
        <ele>1479.1300000000001</ele>
        <time>2015-11-08T13:18:44Z</time>
      </trkpt>
      <trkpt lat="46.059806915000081" lon="9.215646469965577">
        <ele>1477.2</ele>
        <time>2015-11-08T13:18:52Z</time>
      </trkpt>
      <trkpt lat="46.05977363884449" lon="9.215651666745544">
        <ele>1475.76</ele>
        <time>2015-11-08T13:19:02Z</time>
      </trkpt>
      <trkpt lat="46.059770621359348" lon="9.21564856544137">
        <ele>1474.8</ele>
        <time>2015-11-08T13:19:12Z</time>
      </trkpt>
      <trkpt lat="46.059767100960016" lon="9.215673040598631">
        <ele>1473.3599999999999</ele>
        <time>2015-11-08T13:19:21Z</time>
      </trkpt>
      <trkpt lat="46.059771794825792" lon="9.21568812802434">
        <ele>1473.3599999999999</ele>
        <time>2015-11-08T13:19:30Z</time>
      </trkpt>
      <trkpt lat="46.05977556668222" lon="9.215715285390616">
        <ele>1471.9200000000001</ele>
        <time>2015-11-08T13:19:45Z</time>
      </trkpt>
      <trkpt lat="46.059786127880216" lon="9.215741520747542">
        <ele>1470.47</ele>
        <time>2015-11-08T13:19:55Z</time>
      </trkpt>
      <trkpt lat="46.059836335480213" lon="9.21574336476624">
        <ele>1468.0699999999999</ele>
        <time>2015-11-08T13:20:05Z</time>
      </trkpt>
      <trkpt lat="46.059873551130295" lon="9.215778149664402">
        <ele>1466.1500000000001</ele>
        <time>2015-11-08T13:20:14Z</time>
      </trkpt>
      <trkpt lat="46.059900876134634" lon="9.21577949076891">
        <ele>1464.71</ele>
        <time>2015-11-08T13:20:19Z</time>
      </trkpt>
      <trkpt lat="46.059948904439807" lon="9.215830536559224">
        <ele>1462.78</ele>
        <time>2015-11-08T13:20:27Z</time>
      </trkpt>
      <trkpt lat="46.059971954673529" lon="9.215898346155882">
        <ele>1461.3399999999999</ele>
        <time>2015-11-08T13:20:38Z</time>
      </trkpt>
      <trkpt lat="46.05998913757503" lon="9.215915445238352">
        <ele>1460.8599999999999</ele>
        <time>2015-11-08T13:20:50Z</time>
      </trkpt>
      <trkpt lat="46.05999793857336" lon="9.21594126150012">
        <ele>1460.8599999999999</ele>
        <time>2015-11-08T13:20:53Z</time>
      </trkpt>
      <trkpt lat="46.060031047090888" lon="9.215971268713474">
        <ele>1460.3800000000001</ele>
        <time>2015-11-08T13:21:02Z</time>
      </trkpt>
      <trkpt lat="46.060050241649151" lon="9.215949894860387">
        <ele>1460.3800000000001</ele>
        <time>2015-11-08T13:21:12Z</time>
      </trkpt>
      <trkpt lat="46.060099443420768" lon="9.215995408594608">
        <ele>1458.9400000000001</ele>
        <time>2015-11-08T13:21:24Z</time>
      </trkpt>
      <trkpt lat="46.060110758990049" lon="9.216049136593938">
        <ele>1457.98</ele>
        <time>2015-11-08T13:21:34Z</time>
      </trkpt>
      <trkpt lat="46.060095252469182" lon="9.216109151020646">
        <ele>1456.53</ele>
        <time>2015-11-08T13:21:45Z</time>
      </trkpt>
      <trkpt lat="46.060088463127613" lon="9.216122226789594">
        <ele>1456.05</ele>
        <time>2015-11-08T13:21:47Z</time>
      </trkpt>
      <trkpt lat="46.060078321024776" lon="9.216300006955862">
        <ele>1455.0899999999999</ele>
        <time>2015-11-08T13:21:58Z</time>
      </trkpt>
      <trkpt lat="46.06008879840374" lon="9.21638835221529">
        <ele>1454.1300000000001</ele>
        <time>2015-11-08T13:22:05Z</time>
      </trkpt>
      <trkpt lat="46.060142023488879" lon="9.216513577848673">
        <ele>1451.73</ele>
        <time>2015-11-08T13:22:17Z</time>
      </trkpt>
      <trkpt lat="46.060191811993718" lon="9.216605694964528">
        <ele>1450.29</ele>
        <time>2015-11-08T13:22:28Z</time>
      </trkpt>
      <trkpt lat="46.060199104249477" lon="9.216673253104091">
        <ele>1449.3199999999999</ele>
        <time>2015-11-08T13:22:33Z</time>
      </trkpt>
      <trkpt lat="46.060211341828108" lon="9.216697979718447">
        <ele>1448.3599999999999</ele>
        <time>2015-11-08T13:22:35Z</time>
      </trkpt>
      <trkpt lat="46.060259789228439" lon="9.216853464022279">
        <ele>1447.8800000000001</ele>
        <time>2015-11-08T13:22:47Z</time>
      </trkpt>
      <trkpt lat="46.060319300740957" lon="9.216958405449987">
        <ele>1445.96</ele>
        <time>2015-11-08T13:22:58Z</time>
      </trkpt>
      <trkpt lat="46.06035609729588" lon="9.216976258903742">
        <ele>1445</ele>
        <time>2015-11-08T13:23:03Z</time>
      </trkpt>
      <trkpt lat="46.060410412028432" lon="9.217044403776527">
        <ele>1445</ele>
        <time>2015-11-08T13:23:14Z</time>
      </trkpt>
      <trkpt lat="46.060429438948631" lon="9.217090923339129">
        <ele>1443.0799999999999</ele>
        <time>2015-11-08T13:23:24Z</time>
      </trkpt>
      <trkpt lat="46.060436982661486" lon="9.217116236686707">
        <ele>1442.5999999999999</ele>
        <time>2015-11-08T13:23:35Z</time>
      </trkpt>
      <trkpt lat="46.060438826680183" lon="9.217149596661329">
        <ele>1441.6300000000001</ele>
        <time>2015-11-08T13:23:40Z</time>
      </trkpt>
      <trkpt lat="46.060465816408396" lon="9.217241462320089">
        <ele>1439.23</ele>
        <time>2015-11-08T13:23:49Z</time>
      </trkpt>
      <trkpt lat="46.060485681518912" lon="9.217272642999888">
        <ele>1437.79</ele>
        <time>2015-11-08T13:23:59Z</time>
      </trkpt>
      <trkpt lat="46.060510827228427" lon="9.217379009351134">
        <ele>1435.3900000000001</ele>
        <time>2015-11-08T13:24:09Z</time>
      </trkpt>
      <trkpt lat="46.060553155839443" lon="9.217463415116072">
        <ele>1433.46</ele>
        <time>2015-11-08T13:24:19Z</time>
      </trkpt>
      <trkpt lat="46.06057008728385" lon="9.217466432601214">
        <ele>1432.5</ele>
        <time>2015-11-08T13:24:23Z</time>
      </trkpt>
      <trkpt lat="46.060591461136937" lon="9.217527201399207">
        <ele>1430.0999999999999</ele>
        <time>2015-11-08T13:24:32Z</time>
      </trkpt>
      <trkpt lat="46.060580983757973" lon="9.217555280774832">
        <ele>1427.7</ele>
        <time>2015-11-08T13:24:41Z</time>
      </trkpt>
      <trkpt lat="46.060546031221747" lon="9.217553101480007">
        <ele>1426.25</ele>
        <time>2015-11-08T13:24:52Z</time>
      </trkpt>
      <trkpt lat="46.060587437823415" lon="9.217665251344442">
        <ele>1423.3699999999999</ele>
        <time>2015-11-08T13:25:02Z</time>
      </trkpt>
      <trkpt lat="46.060582492500544" lon="9.21770615503192">
        <ele>1422.4100000000001</ele>
        <time>2015-11-08T13:25:06Z</time>
      </trkpt>
      <trkpt lat="46.060563633218408" lon="9.217775976285338">
        <ele>1420</ele>
        <time>2015-11-08T13:25:15Z</time>
      </trkpt>
      <trkpt lat="46.060621803626418" lon="9.217847557738423">
        <ele>1418.0799999999999</ele>
        <time>2015-11-08T13:25:26Z</time>
      </trkpt>
      <trkpt lat="46.060638651251793" lon="9.217885360121727">
        <ele>1415.2</ele>
        <time>2015-11-08T13:25:31Z</time>
      </trkpt>
      <trkpt lat="46.060640662908554" lon="9.217894161120057">
        <ele>1419.04</ele>
        <time>2015-11-08T13:25:32Z</time>
      </trkpt>
      <trkpt lat="46.060648206621408" lon="9.217954929918051">
        <ele>1415.6800000000001</ele>
        <time>2015-11-08T13:25:38Z</time>
      </trkpt>
      <trkpt lat="46.060639657080173" lon="9.218009328469634">
        <ele>1414.24</ele>
        <time>2015-11-08T13:25:47Z</time>
      </trkpt>
      <trkpt lat="46.060621468350291" lon="9.218092979863286">
        <ele>1411.3499999999999</ele>
        <time>2015-11-08T13:25:59Z</time>
      </trkpt>
      <trkpt lat="46.060621719807386" lon="9.218175960704684">
        <ele>1409.4300000000001</ele>
        <time>2015-11-08T13:26:10Z</time>
      </trkpt>
      <trkpt lat="46.060602525249124" lon="9.21818065457046">
        <ele>1408.47</ele>
        <time>2015-11-08T13:26:17Z</time>
      </trkpt>
      <trkpt lat="46.060540415346622" lon="9.21821091324091">
        <ele>1406.55</ele>
        <time>2015-11-08T13:26:27Z</time>
      </trkpt>
      <trkpt lat="46.060537900775671" lon="9.218226000666618">
        <ele>1406.0699999999999</ele>
        <time>2015-11-08T13:26:42Z</time>
      </trkpt>
      <trkpt lat="46.060536811128259" lon="9.218241926282644">
        <ele>1406.0699999999999</ele>
        <time>2015-11-08T13:26:59Z</time>
      </trkpt>
      <trkpt lat="46.060517951846123" lon="9.218256343156099">
        <ele>1405.5799999999999</ele>
        <time>2015-11-08T13:27:04Z</time>
      </trkpt>
      <trkpt lat="46.060497248545289" lon="9.218310406431556">
        <ele>1405.0999999999999</ele>
        <time>2015-11-08T13:27:14Z</time>
      </trkpt>
      <trkpt lat="46.060512671247125" lon="9.218316022306681">
        <ele>1404.1400000000001</ele>
        <time>2015-11-08T13:27:23Z</time>
      </trkpt>
      <trkpt lat="46.060451567173004" lon="9.218345358967781">
        <ele>1402.7</ele>
        <time>2015-11-08T13:27:34Z</time>
      </trkpt>
      <trkpt lat="46.060406137257814" lon="9.21832331456244">
        <ele>1401.26</ele>
        <time>2015-11-08T13:27:43Z</time>
      </trkpt>
      <trkpt lat="46.060410747304559" lon="9.218341335654259">
        <ele>1400.78</ele>
        <time>2015-11-08T13:27:55Z</time>
      </trkpt>
      <trkpt lat="46.060360791161656" lon="9.218378802761436">
        <ele>1398.8599999999999</ele>
        <time>2015-11-08T13:28:04Z</time>
      </trkpt>
      <trkpt lat="46.060363808646798" lon="9.218439487740398">
        <ele>1396.9300000000001</ele>
        <time>2015-11-08T13:28:13Z</time>
      </trkpt>
      <trkpt lat="46.06037562713027" lon="9.218517187982798">
        <ele>1395.01</ele>
        <time>2015-11-08T13:28:24Z</time>
      </trkpt>
      <trkpt lat="46.060379566624761" lon="9.218569993972778">
        <ele>1392.6099999999999</ele>
        <time>2015-11-08T13:28:35Z</time>
      </trkpt>
      <trkpt lat="46.060394234955311" lon="9.218629254028201">
        <ele>1390.6800000000001</ele>
        <time>2015-11-08T13:28:45Z</time>
      </trkpt>
      <trkpt lat="46.060419715940952" lon="9.21870150603354">
        <ele>1388.76</ele>
        <time>2015-11-08T13:28:55Z</time>
      </trkpt>
      <trkpt lat="46.060450561344624" lon="9.218712318688631">
        <ele>1387.8</ele>
        <time>2015-11-08T13:29:05Z</time>
      </trkpt>
      <trkpt lat="46.060429103672504" lon="9.218765124678612">
        <ele>1386.8399999999999</ele>
        <time>2015-11-08T13:29:15Z</time>
      </trkpt>
      <trkpt lat="46.060369592159986" lon="9.21880510635674">
        <ele>1385.4000000000001</ele>
        <time>2015-11-08T13:29:24Z</time>
      </trkpt>
      <trkpt lat="46.060310415923595" lon="9.218834275379777">
        <ele>1384.9200000000001</ele>
        <time>2015-11-08T13:29:37Z</time>
      </trkpt>
      <trkpt lat="46.060277475044131" lon="9.218847351148725">
        <ele>1385.4000000000001</ele>
        <time>2015-11-08T13:29:49Z</time>
      </trkpt>
      <trkpt lat="46.060268674045801" lon="9.218858750537038">
        <ele>1384.4400000000001</ele>
        <time>2015-11-08T13:30:00Z</time>
      </trkpt>
      <trkpt lat="46.060265237465501" lon="9.21885346993804">
        <ele>1384.9200000000001</ele>
        <time>2015-11-08T13:30:09Z</time>
      </trkpt>
      <trkpt lat="46.060212682932615" lon="9.218852715566754">
        <ele>1384.4400000000001</ele>
        <time>2015-11-08T13:30:20Z</time>
      </trkpt>
      <trkpt lat="46.060247551649809" lon="9.218865791335702">
        <ele>1384.4400000000001</ele>
        <time>2015-11-08T13:30:33Z</time>
      </trkpt>
      <trkpt lat="46.060235733166337" lon="9.218863109126687">
        <ele>1383.96</ele>
        <time>2015-11-08T13:30:41Z</time>
      </trkpt>
      <trkpt lat="46.060241181403399" lon="9.218863025307655">
        <ele>1383.96</ele>
        <time>2015-11-08T13:30:50Z</time>
      </trkpt>
      <trkpt lat="46.060254089534283" lon="9.218821115791798">
        <ele>1384.4400000000001</ele>
        <time>2015-11-08T13:31:01Z</time>
      </trkpt>
      <trkpt lat="46.060242941603065" lon="9.218799406662583">
        <ele>1385.4000000000001</ele>
        <time>2015-11-08T13:31:09Z</time>
      </trkpt>
      <trkpt lat="46.060194997116923" lon="9.218757832422853">
        <ele>1385.4000000000001</ele>
        <time>2015-11-08T13:31:18Z</time>
      </trkpt>
      <trkpt lat="46.060170019045472" lon="9.218673510476947">
        <ele>1384.9200000000001</ele>
        <time>2015-11-08T13:31:28Z</time>
      </trkpt>
      <trkpt lat="46.060155602172017" lon="9.218666134402156">
        <ele>1385.4000000000001</ele>
        <time>2015-11-08T13:31:37Z</time>
      </trkpt>
      <trkpt lat="46.06017186306417" lon="9.21864777803421">
        <ele>1385.4000000000001</ele>
        <time>2015-11-08T13:31:49Z</time>
      </trkpt>
      <trkpt lat="46.060174880549312" lon="9.218645850196481">
        <ele>1385.4000000000001</ele>
        <time>2015-11-08T13:31:58Z</time>
      </trkpt>
      <trkpt lat="46.060186447575688" lon="9.218613915145397">
        <ele>1385.4000000000001</ele>
        <time>2015-11-08T13:32:17Z</time>
      </trkpt>
      <trkpt lat="46.060189800336957" lon="9.218644425272942">
        <ele>1385.4000000000001</ele>
        <time>2015-11-08T13:32:26Z</time>
      </trkpt>
      <trkpt lat="46.06021586805582" lon="9.218744253739715">
        <ele>1385.4000000000001</ele>
        <time>2015-11-08T13:32:36Z</time>
      </trkpt>
      <trkpt lat="46.060207905247808" lon="9.21875330619514">
        <ele>1384.4400000000001</ele>
        <time>2015-11-08T13:32:47Z</time>
      </trkpt>
      <trkpt lat="46.060197176411748" lon="9.218745008111">
        <ele>1384.4400000000001</ele>
        <time>2015-11-08T13:33:00Z</time>
      </trkpt>
      <trkpt lat="46.060197930783033" lon="9.218761688098311">
        <ele>1383.96</ele>
        <time>2015-11-08T13:33:21Z</time>
      </trkpt>
      <trkpt lat="46.060188123956323" lon="9.218755820766091">
        <ele>1383.96</ele>
        <time>2015-11-08T13:33:36Z</time>
      </trkpt>
      <trkpt lat="46.060172701254487" lon="9.218750959262252">
        <ele>1383.47</ele>
        <time>2015-11-08T13:33:46Z</time>
      </trkpt>
      <trkpt lat="46.060167672112584" lon="9.218719862401485">
        <ele>1383.96</ele>
        <time>2015-11-08T13:33:59Z</time>
      </trkpt>
      <trkpt lat="46.060187872499228" lon="9.218729501590133">
        <ele>1383.96</ele>
        <time>2015-11-08T13:34:15Z</time>
      </trkpt>
      <trkpt lat="46.060200445353985" lon="9.218734363093972">
        <ele>1383.96</ele>
        <time>2015-11-08T13:34:32Z</time>
      </trkpt>
      <trkpt lat="46.060194075107574" lon="9.218714833259583">
        <ele>1383.96</ele>
        <time>2015-11-08T13:34:48Z</time>
      </trkpt>
      <trkpt lat="46.060201283544302" lon="9.218737045302987">
        <ele>1383.96</ele>
        <time>2015-11-08T13:35:05Z</time>
      </trkpt>
      <trkpt lat="46.060216957703233" lon="9.218717683106661">
        <ele>1383.96</ele>
        <time>2015-11-08T13:35:25Z</time>
      </trkpt>
      <trkpt lat="46.060219388455153" lon="9.218727070838213">
        <ele>1383.47</ele>
        <time>2015-11-08T13:35:48Z</time>
      </trkpt>
      <trkpt lat="46.060220561921597" lon="9.218726651743054">
        <ele>1383.47</ele>
        <time>2015-11-08T13:36:11Z</time>
      </trkpt>
      <trkpt lat="46.060236738994718" lon="9.218722712248564">
        <ele>1383.47</ele>
        <time>2015-11-08T13:36:31Z</time>
      </trkpt>
      <trkpt lat="46.06023439206183" lon="9.218729417771101">
        <ele>1383.96</ele>
        <time>2015-11-08T13:36:42Z</time>
      </trkpt>
      <trkpt lat="46.060230536386371" lon="9.218773925676942">
        <ele>1384.4400000000001</ele>
        <time>2015-11-08T13:36:50Z</time>
      </trkpt>
      <trkpt lat="46.060251826420426" lon="9.21877576969564">
        <ele>1382.99</ele>
        <time>2015-11-08T13:37:00Z</time>
      </trkpt>
      <trkpt lat="46.060220310464501" lon="9.218821618705988">
        <ele>1381.0699999999999</ele>
        <time>2015-11-08T13:37:09Z</time>
      </trkpt>
      <trkpt lat="46.06016599573195" lon="9.218807620927692">
        <ele>1379.1500000000001</ele>
        <time>2015-11-08T13:37:19Z</time>
      </trkpt>
      <trkpt lat="46.060163984075189" lon="9.218823378905654">
        <ele>1378.6700000000001</ele>
        <time>2015-11-08T13:37:27Z</time>
      </trkpt>
      <trkpt lat="46.060196338221431" lon="9.21883980743587">
        <ele>1378.6700000000001</ele>
        <time>2015-11-08T13:37:50Z</time>
      </trkpt>
      <trkpt lat="46.060217376798391" lon="9.21887937001884">
        <ele>1378.6700000000001</ele>
        <time>2015-11-08T13:38:17Z</time>
      </trkpt>
      <trkpt lat="46.060196086764336" lon="9.218914741650224">
        <ele>1378.6700000000001</ele>
        <time>2015-11-08T13:38:39Z</time>
      </trkpt>
      <trkpt lat="46.060182843357325" lon="9.218900995329022">
        <ele>1378.6700000000001</ele>
        <time>2015-11-08T13:39:02Z</time>
      </trkpt>
      <trkpt lat="46.060202037915587" lon="9.218856990337372">
        <ele>1378.6700000000001</ele>
        <time>2015-11-08T13:39:33Z</time>
      </trkpt>
      <trkpt lat="46.060196841135621" lon="9.218864031136036">
        <ele>1378.6700000000001</ele>
        <time>2015-11-08T13:39:53Z</time>
      </trkpt>
      <trkpt lat="46.060204217210412" lon="9.218865120783448">
        <ele>1378.6700000000001</ele>
        <time>2015-11-08T13:40:23Z</time>
      </trkpt>
      <trkpt lat="46.06020119972527" lon="9.218875011429191">
        <ele>1378.1900000000001</ele>
        <time>2015-11-08T13:40:53Z</time>
      </trkpt>
      <trkpt lat="46.060209078714252" lon="9.218857912346721">
        <ele>1378.1900000000001</ele>
        <time>2015-11-08T13:41:13Z</time>
      </trkpt>
      <trkpt lat="46.060199774801731" lon="9.21887693926692">
        <ele>1378.1900000000001</ele>
        <time>2015-11-08T13:41:39Z</time>
      </trkpt>
      <trkpt lat="46.060209162533283" lon="9.218839555978775">
        <ele>1378.1900000000001</ele>
        <time>2015-11-08T13:42:08Z</time>
      </trkpt>
      <trkpt lat="46.060222489759326" lon="9.218802424147725">
        <ele>1377.71</ele>
        <time>2015-11-08T13:42:37Z</time>
      </trkpt>
      <trkpt lat="46.060178652405739" lon="9.218858079984784">
        <ele>1377.71</ele>
        <time>2015-11-08T13:43:01Z</time>
      </trkpt>
      <trkpt lat="46.060176892206073" lon="9.218874340876937">
        <ele>1377.71</ele>
        <time>2015-11-08T13:43:31Z</time>
      </trkpt>
      <trkpt lat="46.060186363756657" lon="9.218862522393465">
        <ele>1377.71</ele>
        <time>2015-11-08T13:43:54Z</time>
      </trkpt>
      <trkpt lat="46.060182675719261" lon="9.218880711123347">
        <ele>1377.71</ele>
        <time>2015-11-08T13:44:23Z</time>
      </trkpt>
      <trkpt lat="46.060161469504237" lon="9.218868976458907">
        <ele>1377.71</ele>
        <time>2015-11-08T13:44:49Z</time>
      </trkpt>
      <trkpt lat="46.060179322957993" lon="9.218889847397804">
        <ele>1377.71</ele>
        <time>2015-11-08T13:45:17Z</time>
      </trkpt>
      <trkpt lat="46.060202708467841" lon="9.21883880160749">
        <ele>1377.71</ele>
        <time>2015-11-08T13:45:46Z</time>
      </trkpt>
      <trkpt lat="46.060205223038793" lon="9.218849111348391">
        <ele>1377.23</ele>
        <time>2015-11-08T13:46:13Z</time>
      </trkpt>
      <trkpt lat="46.060210252180696" lon="9.218822037801147">
        <ele>1377.23</ele>
        <time>2015-11-08T13:46:43Z</time>
      </trkpt>
      <trkpt lat="46.060188626870513" lon="9.218806279823184">
        <ele>1377.23</ele>
        <time>2015-11-08T13:47:07Z</time>
      </trkpt>
      <trkpt lat="46.060212347656488" lon="9.218865120783448">
        <ele>1377.23</ele>
        <time>2015-11-08T13:47:38Z</time>
      </trkpt>
      <trkpt lat="46.060195248574018" lon="9.218846345320344">
        <ele>1377.23</ele>
        <time>2015-11-08T13:48:09Z</time>
      </trkpt>
      <trkpt lat="46.060161888599396" lon="9.21885933727026">
        <ele>1377.23</ele>
        <time>2015-11-08T13:48:36Z</time>
      </trkpt>
      <trkpt lat="46.060188710689545" lon="9.218815583735704">
        <ele>1377.23</ele>
        <time>2015-11-08T13:49:04Z</time>
      </trkpt>
      <trkpt lat="46.060208659619093" lon="9.218815164640546">
        <ele>1377.23</ele>
        <time>2015-11-08T13:49:35Z</time>
      </trkpt>
      <trkpt lat="46.060190470889211" lon="9.218845926225185">
        <ele>1377.23</ele>
        <time>2015-11-08T13:50:06Z</time>
      </trkpt>
      <trkpt lat="46.060179490596056" lon="9.218862187117338">
        <ele>1377.23</ele>
        <time>2015-11-08T13:50:35Z</time>
      </trkpt>
      <trkpt lat="46.060209749266505" lon="9.218816170468926">
        <ele>1377.23</ele>
        <time>2015-11-08T13:51:06Z</time>
      </trkpt>
      <trkpt lat="46.060218969359994" lon="9.218837963417172">
        <ele>1377.23</ele>
        <time>2015-11-08T13:51:42Z</time>
      </trkpt>
      <trkpt lat="46.060189800336957" lon="9.218814913183451">
        <ele>1376.75</ele>
        <time>2015-11-08T13:52:12Z</time>
      </trkpt>
      <trkpt lat="46.060176389291883" lon="9.218818936496973">
        <ele>1376.75</ele>
        <time>2015-11-08T13:52:42Z</time>
      </trkpt>
      <trkpt lat="46.060219723731279" lon="9.218835448846221">
        <ele>1376.75</ele>
        <time>2015-11-08T13:53:23Z</time>
      </trkpt>
      <trkpt lat="46.06020606122911" lon="9.218816086649895">
        <ele>1376.75</ele>
        <time>2015-11-08T13:53:55Z</time>
      </trkpt>
      <trkpt lat="46.060195416212082" lon="9.218817930668593">
        <ele>1376.26</ele>
        <time>2015-11-08T13:54:26Z</time>
      </trkpt>
      <trkpt lat="46.060178484767675" lon="9.218832012265921">
        <ele>1376.26</ele>
        <time>2015-11-08T13:55:00Z</time>
      </trkpt>
      <trkpt lat="46.060208156704903" lon="9.218818936496973">
        <ele>1376.26</ele>
        <time>2015-11-08T13:55:27Z</time>
      </trkpt>
      <trkpt lat="46.060212766751647" lon="9.218834694474936">
        <ele>1376.26</ele>
        <time>2015-11-08T13:55:51Z</time>
      </trkpt>
      <trkpt lat="46.06021829880774" lon="9.218824720010161">
        <ele>1376.26</ele>
        <time>2015-11-08T13:56:15Z</time>
      </trkpt>
      <trkpt lat="46.060230871662498" lon="9.218832096084952">
        <ele>1376.26</ele>
        <time>2015-11-08T13:56:47Z</time>
      </trkpt>
      <trkpt lat="46.060220645740628" lon="9.218835281208158">
        <ele>1376.26</ele>
        <time>2015-11-08T13:57:17Z</time>
      </trkpt>
      <trkpt lat="46.060230704024434" lon="9.218847937881947">
        <ele>1376.26</ele>
        <time>2015-11-08T13:57:43Z</time>
      </trkpt>
      <trkpt lat="46.060225255787373" lon="9.218837292864919">
        <ele>1376.26</ele>
        <time>2015-11-08T13:58:08Z</time>
      </trkpt>
      <trkpt lat="46.060207150876522" lon="9.218831174075604">
        <ele>1376.26</ele>
        <time>2015-11-08T13:58:35Z</time>
      </trkpt>
      <trkpt lat="46.060206647962332" lon="9.218843411654234">
        <ele>1376.26</ele>
        <time>2015-11-08T13:59:08Z</time>
      </trkpt>
      <trkpt lat="46.060227518901229" lon="9.218845507130027">
        <ele>1376.26</ele>
        <time>2015-11-08T13:59:33Z</time>
      </trkpt>
      <trkpt lat="46.06024713255465" lon="9.218836957588792">
        <ele>1375.78</ele>
        <time>2015-11-08T14:00:01Z</time>
      </trkpt>
      <trkpt lat="46.060225507244468" lon="9.218816757202148">
        <ele>1375.78</ele>
        <time>2015-11-08T14:00:32Z</time>
      </trkpt>
      <trkpt lat="46.060224585235119" lon="9.218839639797807">
        <ele>1375.78</ele>
        <time>2015-11-08T14:00:54Z</time>
      </trkpt>
      <trkpt lat="46.060229782015085" lon="9.218828743323684">
        <ele>1375.78</ele>
        <time>2015-11-08T14:01:20Z</time>
      </trkpt>
      <trkpt lat="46.060237661004066" lon="9.218841567635536">
        <ele>1375.78</ele>
        <time>2015-11-08T14:01:54Z</time>
      </trkpt>
      <trkpt lat="46.060223830863833" lon="9.218849111348391">
        <ele>1375.78</ele>
        <time>2015-11-08T14:02:24Z</time>
      </trkpt>
      <trkpt lat="46.060205390676856" lon="9.218846177682281">
        <ele>1375.78</ele>
        <time>2015-11-08T14:02:47Z</time>
      </trkpt>
      <trkpt lat="46.06021243147552" lon="9.218839639797807">
        <ele>1375.78</ele>
        <time>2015-11-08T14:03:14Z</time>
      </trkpt>
      <trkpt lat="46.060247216373682" lon="9.218843327835202">
        <ele>1375.78</ele>
        <time>2015-11-08T14:03:44Z</time>
      </trkpt>
      <trkpt lat="46.06022953055799" lon="9.218810638412833">
        <ele>1375.78</ele>
        <time>2015-11-08T14:04:16Z</time>
      </trkpt>
      <trkpt lat="46.060215616598725" lon="9.218841064721346">
        <ele>1375.78</ele>
        <time>2015-11-08T14:04:41Z</time>
      </trkpt>
      <trkpt lat="46.06023782864213" lon="9.218824468553066">
        <ele>1375.78</ele>
        <time>2015-11-08T14:05:13Z</time>
      </trkpt>
      <trkpt lat="46.060248976573348" lon="9.218826396390796">
        <ele>1375.3</ele>
        <time>2015-11-08T14:05:45Z</time>
      </trkpt>
      <trkpt lat="46.060253586620092" lon="9.218822792172432">
        <ele>1375.3</ele>
        <time>2015-11-08T14:06:19Z</time>
      </trkpt>
      <trkpt lat="46.06021829880774" lon="9.218815416097641">
        <ele>1375.3</ele>
        <time>2015-11-08T14:06:44Z</time>
      </trkpt>
      <trkpt lat="46.060210838913918" lon="9.218809716403484">
        <ele>1375.78</ele>
        <time>2015-11-08T14:07:12Z</time>
      </trkpt>
      <trkpt lat="46.060215616598725" lon="9.218815919011831">
        <ele>1375.78</ele>
        <time>2015-11-08T14:07:41Z</time>
      </trkpt>
      <trkpt lat="46.060194661840796" lon="9.218822875991464">
        <ele>1375.78</ele>
        <time>2015-11-08T14:08:07Z</time>
      </trkpt>
      <trkpt lat="46.060193907469511" lon="9.218826396390796">
        <ele>1375.78</ele>
        <time>2015-11-08T14:08:35Z</time>
      </trkpt>
      <trkpt lat="46.060209833085537" lon="9.218827486038208">
        <ele>1375.78</ele>
        <time>2015-11-08T14:09:00Z</time>
      </trkpt>
      <trkpt lat="46.060210587456822" lon="9.21881734393537">
        <ele>1375.78</ele>
        <time>2015-11-08T14:09:31Z</time>
      </trkpt>
      <trkpt lat="46.060222908854485" lon="9.218827905133367">
        <ele>1375.78</ele>
        <time>2015-11-08T14:09:56Z</time>
      </trkpt>
      <trkpt lat="46.060200110077858" lon="9.218836119398475">
        <ele>1375.3</ele>
        <time>2015-11-08T14:10:23Z</time>
      </trkpt>
      <trkpt lat="46.06019583530724" lon="9.218843579292297">
        <ele>1376.75</ele>
        <time>2015-11-08T14:10:52Z</time>
      </trkpt>
      <trkpt lat="46.060213940218091" lon="9.218828324228525">
        <ele>1375.3</ele>
        <time>2015-11-08T14:11:27Z</time>
      </trkpt>
      <trkpt lat="46.060205642133951" lon="9.218844585120678">
        <ele>1375.3</ele>
        <time>2015-11-08T14:11:55Z</time>
      </trkpt>
      <trkpt lat="46.060208743438125" lon="9.218856571242213">
        <ele>1375.3</ele>
        <time>2015-11-08T14:12:23Z</time>
      </trkpt>
      <trkpt lat="46.06021142564714" lon="9.218840310350061">
        <ele>1375.3</ele>
        <time>2015-11-08T14:12:49Z</time>
      </trkpt>
      <trkpt lat="46.060217376798391" lon="9.218823127448559">
        <ele>1375.3</ele>
        <time>2015-11-08T14:13:23Z</time>
      </trkpt>
      <trkpt lat="46.060225255787373" lon="9.218823127448559">
        <ele>1374.8199999999999</ele>
        <time>2015-11-08T14:13:53Z</time>
      </trkpt>
      <trkpt lat="46.06021142564714" lon="9.218824049457908">
        <ele>1374.8199999999999</ele>
        <time>2015-11-08T14:14:19Z</time>
      </trkpt>
      <trkpt lat="46.060217879712582" lon="9.218818014487624">
        <ele>1374.8199999999999</ele>
        <time>2015-11-08T14:14:47Z</time>
      </trkpt>
      <trkpt lat="46.060203043743968" lon="9.21882564201951">
        <ele>1374.8199999999999</ele>
        <time>2015-11-08T14:15:20Z</time>
      </trkpt>
      <trkpt lat="46.060236068442464" lon="9.218812230974436">
        <ele>1374.8199999999999</ele>
        <time>2015-11-08T14:15:49Z</time>
      </trkpt>
      <trkpt lat="46.060233972966671" lon="9.218826815485954">
        <ele>1374.8199999999999</ele>
        <time>2015-11-08T14:16:21Z</time>
      </trkpt>
      <trkpt lat="46.060226848348975" lon="9.21883343718946">
        <ele>1374.8199999999999</ele>
        <time>2015-11-08T14:16:50Z</time>
      </trkpt>
      <trkpt lat="46.060232296586037" lon="9.218819523230195">
        <ele>1374.8199999999999</ele>
        <time>2015-11-08T14:17:23Z</time>
      </trkpt>
      <trkpt lat="46.060227435082197" lon="9.218824971467257">
        <ele>1374.8199999999999</ele>
        <time>2015-11-08T14:17:58Z</time>
      </trkpt>
      <trkpt lat="46.060244450345635" lon="9.218806950375438">
        <ele>1374.8199999999999</ele>
        <time>2015-11-08T14:18:40Z</time>
      </trkpt>
      <trkpt lat="46.060216454789042" lon="9.218827905133367">
        <ele>1374.8199999999999</ele>
        <time>2015-11-08T14:19:06Z</time>
      </trkpt>
      <trkpt lat="46.06019139289856" lon="9.218818685039878">
        <ele>1374.8199999999999</ele>
        <time>2015-11-08T14:19:36Z</time>
      </trkpt>
      <trkpt lat="46.060204301029444" lon="9.218849865719676">
        <ele>1374.8199999999999</ele>
        <time>2015-11-08T14:20:03Z</time>
      </trkpt>
      <trkpt lat="46.060201535001397" lon="9.218837711960077">
        <ele>1375.3</ele>
        <time>2015-11-08T14:20:18Z</time>
      </trkpt>
      <trkpt lat="46.060209078714252" lon="9.21881977468729">
        <ele>1374.8199999999999</ele>
        <time>2015-11-08T14:20:39Z</time>
      </trkpt>
      <trkpt lat="46.060195919126272" lon="9.218789599835873">
        <ele>1374.8199999999999</ele>
        <time>2015-11-08T14:21:11Z</time>
      </trkpt>
      <trkpt lat="46.060179825872183" lon="9.218806279823184">
        <ele>1374.8199999999999</ele>
        <time>2015-11-08T14:21:36Z</time>
      </trkpt>
      <trkpt lat="46.060166582465172" lon="9.218793623149395">
        <ele>1374.8199999999999</ele>
        <time>2015-11-08T14:22:02Z</time>
      </trkpt>
      <trkpt lat="46.060198182240129" lon="9.21878163702786">
        <ele>1374.8199999999999</ele>
        <time>2015-11-08T14:22:34Z</time>
      </trkpt>
      <trkpt lat="46.060206815600395" lon="9.2187709081918">
        <ele>1374.8199999999999</ele>
        <time>2015-11-08T14:22:57Z</time>
      </trkpt>
      <trkpt lat="46.060218969359994" lon="9.218814242631197">
        <ele>1374.8199999999999</ele>
        <time>2015-11-08T14:23:29Z</time>
      </trkpt>
      <trkpt lat="46.060215448960662" lon="9.218818014487624">
        <ele>1374.8199999999999</ele>
        <time>2015-11-08T14:24:04Z</time>
      </trkpt>
      <trkpt lat="46.060199355706573" lon="9.218834694474936">
        <ele>1374.8199999999999</ele>
        <time>2015-11-08T14:24:32Z</time>
      </trkpt>
      <trkpt lat="46.060234224423766" lon="9.218810638412833">
        <ele>1374.8199999999999</ele>
        <time>2015-11-08T14:25:04Z</time>
      </trkpt>
      <trkpt lat="46.060244953259826" lon="9.218806196004152">
        <ele>1374.3399999999999</ele>
        <time>2015-11-08T14:25:37Z</time>
      </trkpt>
      <trkpt lat="46.060241935774684" lon="9.218832263723016">
        <ele>1374.3399999999999</ele>
        <time>2015-11-08T14:26:09Z</time>
      </trkpt>
      <trkpt lat="46.060225171968341" lon="9.218844585120678">
        <ele>1374.3399999999999</ele>
        <time>2015-11-08T14:26:33Z</time>
      </trkpt>
      <trkpt lat="46.0602290276438" lon="9.218840980902314">
        <ele>1374.3399999999999</ele>
        <time>2015-11-08T14:27:05Z</time>
      </trkpt>
      <trkpt lat="46.060235146433115" lon="9.218822875991464">
        <ele>1374.3399999999999</ele>
        <time>2015-11-08T14:27:33Z</time>
      </trkpt>
      <trkpt lat="46.060234978795052" lon="9.218830252066255">
        <ele>1374.3399999999999</ele>
        <time>2015-11-08T14:28:03Z</time>
      </trkpt>
      <trkpt lat="46.060230536386371" lon="9.21883343718946">
        <ele>1373.8599999999999</ele>
        <time>2015-11-08T14:28:26Z</time>
      </trkpt>
      <trkpt lat="46.060217628255486" lon="9.218820948153734">
        <ele>1373.8599999999999</ele>
        <time>2015-11-08T14:28:51Z</time>
      </trkpt>
      <trkpt lat="46.060204217210412" lon="9.218845590949059">
        <ele>1373.8599999999999</ele>
        <time>2015-11-08T14:29:17Z</time>
      </trkpt>
      <trkpt lat="46.060212766751647" lon="9.218852631747723">
        <ele>1373.8599999999999</ele>
        <time>2015-11-08T14:29:45Z</time>
      </trkpt>
      <trkpt lat="46.060207653790712" lon="9.218856319785118">
        <ele>1373.8599999999999</ele>
        <time>2015-11-08T14:30:11Z</time>
      </trkpt>
      <trkpt lat="46.060157446190715" lon="9.218812566250563">
        <ele>1373.8599999999999</ele>
        <time>2015-11-08T14:30:45Z</time>
      </trkpt>
      <trkpt lat="46.060193069279194" lon="9.218834275379777">
        <ele>1373.8599999999999</ele>
        <time>2015-11-08T14:31:13Z</time>
      </trkpt>
      <trkpt lat="46.060199104249477" lon="9.218844836577773">
        <ele>1373.8599999999999</ele>
        <time>2015-11-08T14:31:38Z</time>
      </trkpt>
      <trkpt lat="46.060229362919927" lon="9.218849027529359">
        <ele>1373.8599999999999</ele>
        <time>2015-11-08T14:32:04Z</time>
      </trkpt>
      <trkpt lat="46.060220645740628" lon="9.218815248459578">
        <ele>1373.3800000000001</ele>
        <time>2015-11-08T14:32:32Z</time>
      </trkpt>
      <trkpt lat="46.06019189581275" lon="9.218846848234534">
        <ele>1373.3800000000001</ele>
        <time>2015-11-08T14:33:06Z</time>
      </trkpt>
      <trkpt lat="46.060192734003067" lon="9.218853218480945">
        <ele>1373.3800000000001</ele>
        <time>2015-11-08T14:33:36Z</time>
      </trkpt>
      <trkpt lat="46.060196924954653" lon="9.218823211267591">
        <ele>1373.3800000000001</ele>
        <time>2015-11-08T14:34:02Z</time>
      </trkpt>
      <trkpt lat="46.060205809772015" lon="9.218821786344051">
        <ele>1373.3800000000001</ele>
        <time>2015-11-08T14:34:33Z</time>
      </trkpt>
      <trkpt lat="46.060209330171347" lon="9.218825474381447">
        <ele>1373.3800000000001</ele>
        <time>2015-11-08T14:34:58Z</time>
      </trkpt>
      <trkpt lat="46.060220142826438" lon="9.218811308965087">
        <ele>1373.8599999999999</ele>
        <time>2015-11-08T14:35:29Z</time>
      </trkpt>
      <trkpt lat="46.060232548043132" lon="9.218812398612499">
        <ele>1373.8599999999999</ele>
        <time>2015-11-08T14:35:53Z</time>
      </trkpt>
      <trkpt lat="46.060219304636121" lon="9.21882170252502">
        <ele>1373.8599999999999</ele>
        <time>2015-11-08T14:36:17Z</time>
      </trkpt>
      <trkpt lat="46.060175215825438" lon="9.218824887648225">
        <ele>1373.8599999999999</ele>
        <time>2015-11-08T14:36:38Z</time>
      </trkpt>
      <trkpt lat="46.060161469504237" lon="9.218829832971096">
        <ele>1373.8599999999999</ele>
        <time>2015-11-08T14:37:09Z</time>
      </trkpt>
      <trkpt lat="46.060204720124602" lon="9.218841148540378">
        <ele>1373.8599999999999</ele>
        <time>2015-11-08T14:37:39Z</time>
      </trkpt>
      <trkpt lat="46.060201954096556" lon="9.218861684203148">
        <ele>1374.3399999999999</ele>
        <time>2015-11-08T14:38:10Z</time>
      </trkpt>
      <trkpt lat="46.060195164754987" lon="9.218846848234534">
        <ele>1374.3399999999999</ele>
        <time>2015-11-08T14:38:45Z</time>
      </trkpt>
      <trkpt lat="46.060237996280193" lon="9.218847770243883">
        <ele>1374.3399999999999</ele>
        <time>2015-11-08T14:39:20Z</time>
      </trkpt>
      <trkpt lat="46.060243779793382" lon="9.218853218480945">
        <ele>1374.3399999999999</ele>
        <time>2015-11-08T14:39:50Z</time>
      </trkpt>
      <trkpt lat="46.060206312686205" lon="9.218868557363749">
        <ele>1374.3399999999999</ele>
        <time>2015-11-08T14:40:16Z</time>
      </trkpt>
      <trkpt lat="46.060205558314919" lon="9.218863779678941">
        <ele>1374.3399999999999</ele>
        <time>2015-11-08T14:40:41Z</time>
      </trkpt>
      <trkpt lat="46.060218717902899" lon="9.218837292864919">
        <ele>1374.3399999999999</ele>
        <time>2015-11-08T14:41:12Z</time>
      </trkpt>
      <trkpt lat="46.060223411768675" lon="9.218859085813165">
        <ele>1374.3399999999999</ele>
        <time>2015-11-08T14:41:38Z</time>
      </trkpt>
      <trkpt lat="46.060209078714252" lon="9.218863025307655">
        <ele>1374.3399999999999</ele>
        <time>2015-11-08T14:42:03Z</time>
      </trkpt>
      <trkpt lat="46.060197930783033" lon="9.218896050006151">
        <ele>1374.3399999999999</ele>
        <time>2015-11-08T14:42:31Z</time>
      </trkpt>
      <trkpt lat="46.060222992673516" lon="9.218849278986454">
        <ele>1374.3399999999999</ele>
        <time>2015-11-08T14:43:00Z</time>
      </trkpt>
      <trkpt lat="46.060217041522264" lon="9.218846177682281">
        <ele>1374.3399999999999</ele>
        <time>2015-11-08T14:43:28Z</time>
      </trkpt>
      <trkpt lat="46.060211090371013" lon="9.218879453837872">
        <ele>1374.3399999999999</ele>
        <time>2015-11-08T14:43:58Z</time>
      </trkpt>
      <trkpt lat="46.060224585235119" lon="9.218844920396805">
        <ele>1374.3399999999999</ele>
        <time>2015-11-08T14:44:22Z</time>
      </trkpt>
      <trkpt lat="46.060234811156988" lon="9.218830168247223">
        <ele>1374.3399999999999</ele>
        <time>2015-11-08T14:44:53Z</time>
      </trkpt>
      <trkpt lat="46.060185693204403" lon="9.218890434131026">
        <ele>1374.3399999999999</ele>
        <time>2015-11-08T14:45:23Z</time>
      </trkpt>
      <trkpt lat="46.060187201946974" lon="9.218866880983114">
        <ele>1373.8599999999999</ele>
        <time>2015-11-08T14:45:48Z</time>
      </trkpt>
      <trkpt lat="46.060206983238459" lon="9.218885991722345">
        <ele>1373.8599999999999</ele>
        <time>2015-11-08T14:46:17Z</time>
      </trkpt>
      <trkpt lat="46.060202624648809" lon="9.218867886811495">
        <ele>1373.8599999999999</ele>
        <time>2015-11-08T14:46:49Z</time>
      </trkpt>
      <trkpt lat="46.060221986845136" lon="9.218848356977105">
        <ele>1373.8599999999999</ele>
        <time>2015-11-08T14:47:19Z</time>
      </trkpt>
      <trkpt lat="46.060196841135621" lon="9.218846680596471">
        <ele>1373.8599999999999</ele>
        <time>2015-11-08T14:47:47Z</time>
      </trkpt>
      <trkpt lat="46.060180915519595" lon="9.218841819092631">
        <ele>1373.3800000000001</ele>
        <time>2015-11-08T14:48:12Z</time>
      </trkpt>
      <trkpt lat="46.060192314907908" lon="9.218816086649895">
        <ele>1374.3399999999999</ele>
        <time>2015-11-08T14:48:38Z</time>
      </trkpt>
      <trkpt lat="46.060201283544302" lon="9.218813152983785">
        <ele>1372.9000000000001</ele>
        <time>2015-11-08T14:48:48Z</time>
      </trkpt>
      <trkpt lat="46.060202876105905" lon="9.218814242631197">
        <ele>1373.3800000000001</ele>
        <time>2015-11-08T14:49:04Z</time>
      </trkpt>
      <trkpt lat="46.060181837528944" lon="9.218835281208158">
        <ele>1374.8199999999999</ele>
        <time>2015-11-08T14:49:11Z</time>
      </trkpt>
      <trkpt lat="46.060168091207743" lon="9.218854978680611">
        <ele>1373.3800000000001</ele>
        <time>2015-11-08T14:49:22Z</time>
      </trkpt>
      <trkpt lat="46.060175970196724" lon="9.218854894861579">
        <ele>1373.8599999999999</ele>
        <time>2015-11-08T14:49:37Z</time>
      </trkpt>
      <trkpt lat="46.060167923569679" lon="9.218856571242213">
        <ele>1373.8599999999999</ele>
        <time>2015-11-08T14:49:51Z</time>
      </trkpt>
      <trkpt lat="46.060149734839797" lon="9.218878448009491">
        <ele>1372.9000000000001</ele>
        <time>2015-11-08T14:50:00Z</time>
      </trkpt>
      <trkpt lat="46.060135401785374" lon="9.218958495184779">
        <ele>1371.9400000000001</ele>
        <time>2015-11-08T14:50:10Z</time>
      </trkpt>
      <trkpt lat="46.060150405392051" lon="9.219084475189447">
        <ele>1369.54</ele>
        <time>2015-11-08T14:50:22Z</time>
      </trkpt>
      <trkpt lat="46.060144621878862" lon="9.21909830532968">
        <ele>1368.0899999999999</ele>
        <time>2015-11-08T14:50:27Z</time>
      </trkpt>
      <trkpt lat="46.060136323794723" lon="9.219138789921999">
        <ele>1367.6099999999999</ele>
        <time>2015-11-08T14:50:30Z</time>
      </trkpt>
      <trkpt lat="46.060196086764336" lon="9.219234427437186">
        <ele>1365.21</ele>
        <time>2015-11-08T14:50:41Z</time>
      </trkpt>
      <trkpt lat="46.06022123247385" lon="9.219284886494279">
        <ele>1362.3299999999999</ele>
        <time>2015-11-08T14:50:50Z</time>
      </trkpt>
      <trkpt lat="46.06023489497602" lon="9.219313720241189">
        <ele>1360.8800000000001</ele>
        <time>2015-11-08T14:50:53Z</time>
      </trkpt>
      <trkpt lat="46.06024713255465" lon="9.219381110742688">
        <ele>1358.96</ele>
        <time>2015-11-08T14:50:59Z</time>
      </trkpt>
      <trkpt lat="46.06021829880774" lon="9.219394437968731">
        <ele>1356.5599999999999</ele>
        <time>2015-11-08T14:51:07Z</time>
      </trkpt>
      <trkpt lat="46.06018359772861" lon="9.219388151541352">
        <ele>1355.1199999999999</ele>
        <time>2015-11-08T14:51:15Z</time>
      </trkpt>
      <trkpt lat="46.060187872499228" lon="9.219472808763385">
        <ele>1353.6700000000001</ele>
        <time>2015-11-08T14:51:23Z</time>
      </trkpt>
      <trkpt lat="46.06019139289856" lon="9.219522094354034">
        <ele>1351.27</ele>
        <time>2015-11-08T14:51:32Z</time>
      </trkpt>
      <trkpt lat="46.060170438140631" lon="9.219556879252195">
        <ele>1349.3499999999999</ele>
        <time>2015-11-08T14:51:40Z</time>
      </trkpt>
      <trkpt lat="46.060122912749648" lon="9.219591412693262">
        <ele>1346.9400000000001</ele>
        <time>2015-11-08T14:51:48Z</time>
      </trkpt>
      <trkpt lat="46.060030711814761" lon="9.219646062701941">
        <ele>1344.0599999999999</ele>
        <time>2015-11-08T14:52:01Z</time>
      </trkpt>
      <trkpt lat="46.059945551678538" lon="9.219632148742676">
        <ele>1341.6600000000001</ele>
        <time>2015-11-08T14:52:11Z</time>
      </trkpt>
      <trkpt lat="46.059896433725953" lon="9.219661904498935">
        <ele>1339.73</ele>
        <time>2015-11-08T14:52:21Z</time>
      </trkpt>
      <trkpt lat="46.059855446219444" lon="9.219706328585744">
        <ele>1336.8499999999999</ele>
        <time>2015-11-08T14:52:30Z</time>
      </trkpt>
      <trkpt lat="46.059816470369697" lon="9.219728708267212">
        <ele>1334.45</ele>
        <time>2015-11-08T14:52:40Z</time>
      </trkpt>
      <trkpt lat="46.059789480641484" lon="9.219788135960698">
        <ele>1332.04</ele>
        <time>2015-11-08T14:52:48Z</time>
      </trkpt>
      <trkpt lat="46.059766095131636" lon="9.219783609732986">
        <ele>1330.5999999999999</ele>
        <time>2015-11-08T14:52:54Z</time>
      </trkpt>
      <trkpt lat="46.059742458164692" lon="9.219916630536318">
        <ele>1328.2</ele>
        <time>2015-11-08T14:53:06Z</time>
      </trkpt>
      <trkpt lat="46.059739356860518" lon="9.219928113743663">
        <ele>1327.72</ele>
        <time>2015-11-08T14:53:07Z</time>
      </trkpt>
      <trkpt lat="46.05975360609591" lon="9.220034060999751">
        <ele>1325.3099999999999</ele>
        <time>2015-11-08T14:53:18Z</time>
      </trkpt>
      <trkpt lat="46.059745559468865" lon="9.220061134546995">
        <ele>1323.8699999999999</ele>
        <time>2015-11-08T14:53:21Z</time>
      </trkpt>
      <trkpt lat="46.059729047119617" lon="9.220143193379045">
        <ele>1321.95</ele>
        <time>2015-11-08T14:53:29Z</time>
      </trkpt>
      <trkpt lat="46.059718318283558" lon="9.220181666314602">
        <ele>1320.03</ele>
        <time>2015-11-08T14:53:35Z</time>
      </trkpt>
      <trkpt lat="46.059721671044827" lon="9.22019524499774">
        <ele>1320.03</ele>
        <time>2015-11-08T14:53:36Z</time>
      </trkpt>
      <trkpt lat="46.059725107625127" lon="9.220233047381043">
        <ele>1317.6199999999999</ele>
        <time>2015-11-08T14:53:44Z</time>
      </trkpt>
      <trkpt lat="46.059692082926631" lon="9.220229694619775">
        <ele>1316.6600000000001</ele>
        <time>2015-11-08T14:53:51Z</time>
      </trkpt>
      <trkpt lat="46.05967397801578" lon="9.220235561951995">
        <ele>1315.7</ele>
        <time>2015-11-08T14:53:53Z</time>
      </trkpt>
      <trkpt lat="46.059639360755682" lon="9.220240591093898">
        <ele>1313.3</ele>
        <time>2015-11-08T14:54:02Z</time>
      </trkpt>
      <trkpt lat="46.059595858678222" lon="9.220216954126954">
        <ele>1310.9000000000001</ele>
        <time>2015-11-08T14:54:12Z</time>
      </trkpt>
      <trkpt lat="46.05954447761178" lon="9.220281327143312">
        <ele>1308.49</ele>
        <time>2015-11-08T14:54:21Z</time>
      </trkpt>
      <trkpt lat="46.059513045474887" lon="9.220402864739299">
        <ele>1305.6099999999999</ele>
        <time>2015-11-08T14:54:31Z</time>
      </trkpt>
      <trkpt lat="46.059506759047508" lon="9.220520965754986">
        <ele>1302.72</ele>
        <time>2015-11-08T14:54:41Z</time>
      </trkpt>
      <trkpt lat="46.059506926685572" lon="9.220596486702561">
        <ele>1301.76</ele>
        <time>2015-11-08T14:54:46Z</time>
      </trkpt>
      <trkpt lat="46.059527629986405" lon="9.220703942701221">
        <ele>1298.4000000000001</ele>
        <time>2015-11-08T14:54:57Z</time>
      </trkpt>
      <trkpt lat="46.059522181749344" lon="9.220752557739615">
        <ele>1296.48</ele>
        <time>2015-11-08T14:55:05Z</time>
      </trkpt>
      <trkpt lat="46.059497455134988" lon="9.220742247998714">
        <ele>1294.0699999999999</ele>
        <time>2015-11-08T14:55:16Z</time>
      </trkpt>
      <trkpt lat="46.059481194242835" lon="9.220728753134608">
        <ele>1293.5899999999999</ele>
        <time>2015-11-08T14:55:19Z</time>
      </trkpt>
      <trkpt lat="46.059412127360702" lon="9.220669995993376">
        <ele>1290.71</ele>
        <time>2015-11-08T14:55:30Z</time>
      </trkpt>
      <trkpt lat="46.059355633333325" lon="9.220621213316917">
        <ele>1287.8199999999999</ele>
        <time>2015-11-08T14:55:40Z</time>
      </trkpt>
      <trkpt lat="46.059332499280572" lon="9.220643592998385">
        <ele>1286.8599999999999</ele>
        <time>2015-11-08T14:55:45Z</time>
      </trkpt>
      <trkpt lat="46.059332499280572" lon="9.220733195543289">
        <ele>1283.98</ele>
        <time>2015-11-08T14:55:57Z</time>
      </trkpt>
      <trkpt lat="46.059325877577066" lon="9.220812991261482">
        <ele>1281.0899999999999</ele>
        <time>2015-11-08T14:56:07Z</time>
      </trkpt>
      <trkpt lat="46.059325877577066" lon="9.220890020951629">
        <ele>1279.1700000000001</ele>
        <time>2015-11-08T14:56:17Z</time>
      </trkpt>
      <trkpt lat="46.059334091842175" lon="9.220982557162643">
        <ele>1277.73</ele>
        <time>2015-11-08T14:56:27Z</time>
      </trkpt>
      <trkpt lat="46.059374995529652" lon="9.22105916775763">
        <ele>1274.8499999999999</ele>
        <time>2015-11-08T14:56:38Z</time>
      </trkpt>
      <trkpt lat="46.059383964166045" lon="9.221112309023738">
        <ele>1273.8800000000001</ele>
        <time>2015-11-08T14:56:49Z</time>
      </trkpt>
      <trkpt lat="46.059421934187412" lon="9.221122115850449">
        <ele>1273.8800000000001</ele>
        <time>2015-11-08T14:57:02Z</time>
      </trkpt>
      <trkpt lat="46.059403158724308" lon="9.221099903807044">
        <ele>1273.4000000000001</ele>
        <time>2015-11-08T14:57:15Z</time>
      </trkpt>
      <trkpt lat="46.059403661638498" lon="9.221087750047445">
        <ele>1269.5599999999999</ele>
        <time>2015-11-08T14:57:18Z</time>
      </trkpt>
      <trkpt lat="46.05940081179142" lon="9.221091940999031">
        <ele>1276.29</ele>
        <time>2015-11-08T14:57:19Z</time>
      </trkpt>
      <trkpt lat="46.059387233108282" lon="9.221104513853788">
        <ele>1273.8800000000001</ele>
        <time>2015-11-08T14:57:29Z</time>
      </trkpt>
      <trkpt lat="46.059358734637499" lon="9.221138879656792">
        <ele>1273.8800000000001</ele>
        <time>2015-11-08T14:57:53Z</time>
      </trkpt>
      <trkpt lat="46.059296960011125" lon="9.221119517460465">
        <ele>1271.96</ele>
        <time>2015-11-08T14:58:03Z</time>
      </trkpt>
      <trkpt lat="46.059257313609123" lon="9.221122367307544">
        <ele>1270.52</ele>
        <time>2015-11-08T14:58:11Z</time>
      </trkpt>
      <trkpt lat="46.059247255325317" lon="9.221176011487842">
        <ele>1268.5999999999999</ele>
        <time>2015-11-08T14:58:21Z</time>
      </trkpt>
      <trkpt lat="46.059230156242847" lon="9.221257315948606">
        <ele>1265.71</ele>
        <time>2015-11-08T14:58:31Z</time>
      </trkpt>
      <trkpt lat="46.05928547680378" lon="9.22135379165411">
        <ele>1263.79</ele>
        <time>2015-11-08T14:58:41Z</time>
      </trkpt>
      <trkpt lat="46.059308191761374" lon="9.221401233226061">
        <ele>1262.3499999999999</ele>
        <time>2015-11-08T14:58:46Z</time>
      </trkpt>
      <trkpt lat="46.059268796816468" lon="9.221481364220381">
        <ele>1259.46</ele>
        <time>2015-11-08T14:58:55Z</time>
      </trkpt>
      <trkpt lat="46.059339037165046" lon="9.221533751115203">
        <ele>1256.5799999999999</ele>
        <time>2015-11-08T14:59:05Z</time>
      </trkpt>
      <trkpt lat="46.059345994144678" lon="9.22155361622572">
        <ele>1256.0999999999999</ele>
        <time>2015-11-08T14:59:09Z</time>
      </trkpt>
      <trkpt lat="46.059319255873561" lon="9.221622683107853">
        <ele>1253.7</ele>
        <time>2015-11-08T14:59:17Z</time>
      </trkpt>
      <trkpt lat="46.059357142075896" lon="9.221651516854763">
        <ele>1251.29</ele>
        <time>2015-11-08T14:59:27Z</time>
      </trkpt>
      <trkpt lat="46.059417994692922" lon="9.221688900142908">
        <ele>1248.8900000000001</ele>
        <time>2015-11-08T14:59:38Z</time>
      </trkpt>
      <trkpt lat="46.059488570317626" lon="9.221741454675794">
        <ele>1246.49</ele>
        <time>2015-11-08T14:59:49Z</time>
      </trkpt>
      <trkpt lat="46.059505501762033" lon="9.221809851005673">
        <ele>1244.0799999999999</ele>
        <time>2015-11-08T14:59:58Z</time>
      </trkpt>
      <trkpt lat="46.059534419327974" lon="9.221868608146906">
        <ele>1241.6800000000001</ele>
        <time>2015-11-08T15:00:07Z</time>
      </trkpt>
      <trkpt lat="46.059576831758022" lon="9.221967095509172">
        <ele>1239.28</ele>
        <time>2015-11-08T15:00:17Z</time>
      </trkpt>
      <trkpt lat="46.059582866728306" lon="9.222017554566264">
        <ele>1237.8299999999999</ele>
        <time>2015-11-08T15:00:21Z</time>
      </trkpt>
      <trkpt lat="46.059539029374719" lon="9.222048735246062">
        <ele>1237.3499999999999</ele>
        <time>2015-11-08T15:00:26Z</time>
      </trkpt>
      <trkpt lat="46.059509944170713" lon="9.222077652812004">
        <ele>1235.9100000000001</ele>
        <time>2015-11-08T15:00:29Z</time>
      </trkpt>
      <trkpt lat="46.059410031884909" lon="9.22217957675457">
        <ele>1233.51</ele>
        <time>2015-11-08T15:00:41Z</time>
      </trkpt>
      <trkpt lat="46.059304755181074" lon="9.222152251750231">
        <ele>1231.5899999999999</ele>
        <time>2015-11-08T15:00:53Z</time>
      </trkpt>
      <trkpt lat="46.059302492067218" lon="9.222150072455406">
        <ele>1231.1099999999999</ele>
        <time>2015-11-08T15:00:54Z</time>
      </trkpt>
      <trkpt lat="46.059246417135" lon="9.222162812948227">
        <ele>1229.6600000000001</ele>
        <time>2015-11-08T15:01:00Z</time>
      </trkpt>
      <trkpt lat="46.059144409373403" lon="9.222145462408662">
        <ele>1228.7</ele>
        <time>2015-11-08T15:01:11Z</time>
      </trkpt>
      <trkpt lat="46.059069307520986" lon="9.222128363326192">
        <ele>1226.78</ele>
        <time>2015-11-08T15:01:19Z</time>
      </trkpt>
      <trkpt lat="46.059021363034844" lon="9.222146635875106">
        <ele>1224.3800000000001</ele>
        <time>2015-11-08T15:01:28Z</time>
      </trkpt>
      <trkpt lat="46.059049610048532" lon="9.222188126295805">
        <ele>1222.9300000000001</ele>
        <time>2015-11-08T15:01:37Z</time>
      </trkpt>
      <trkpt lat="46.058971909806132" lon="9.222206734120846">
        <ele>1220.05</ele>
        <time>2015-11-08T15:01:48Z</time>
      </trkpt>
      <trkpt lat="46.058918936178088" lon="9.222225090488792">
        <ele>1217.6500000000001</ele>
        <time>2015-11-08T15:01:57Z</time>
      </trkpt>
      <trkpt lat="46.058848947286606" lon="9.222205728292465">
        <ele>1213.3199999999999</ele>
        <time>2015-11-08T15:02:07Z</time>
      </trkpt>
      <trkpt lat="46.058851042762399" lon="9.222204890102148">
        <ele>1213.8</ele>
        <time>2015-11-08T15:02:08Z</time>
      </trkpt>
      <trkpt lat="46.058780970051885" lon="9.222176475450397">
        <ele>1212.3599999999999</ele>
        <time>2015-11-08T15:02:18Z</time>
      </trkpt>
      <trkpt lat="46.058733277022839" lon="9.222147474065423">
        <ele>1210.4400000000001</ele>
        <time>2015-11-08T15:02:25Z</time>
      </trkpt>
      <trkpt lat="46.058732606470585" lon="9.222165998071432">
        <ele>1209.96</ele>
        <time>2015-11-08T15:02:27Z</time>
      </trkpt>
      <trkpt lat="46.05879345908761" lon="9.22231150791049">
        <ele>1206.5899999999999</ele>
        <time>2015-11-08T15:02:40Z</time>
      </trkpt>
      <trkpt lat="46.058798655867577" lon="9.222325086593628">
        <ele>1206.5899999999999</ele>
        <time>2015-11-08T15:02:41Z</time>
      </trkpt>
      <trkpt lat="46.058852383866906" lon="9.222407229244709">
        <ele>1204.6700000000001</ele>
        <time>2015-11-08T15:02:53Z</time>
      </trkpt>
      <trkpt lat="46.05891264975071" lon="9.222456179559231">
        <ele>1202.75</ele>
        <time>2015-11-08T15:03:03Z</time>
      </trkpt>
      <trkpt lat="46.058968473225832" lon="9.222523905336857">
        <ele>1199.8599999999999</ele>
        <time>2015-11-08T15:03:14Z</time>
      </trkpt>
      <trkpt lat="46.059010550379753" lon="9.222587523981929">
        <ele>1198.9000000000001</ele>
        <time>2015-11-08T15:03:20Z</time>
      </trkpt>
      <trkpt lat="46.059074001386762" lon="9.222657093778253">
        <ele>1196.5</ele>
        <time>2015-11-08T15:03:31Z</time>
      </trkpt>
      <trkpt lat="46.059114905074239" lon="9.222709564492106">
        <ele>1194.5799999999999</ele>
        <time>2015-11-08T15:03:42Z</time>
      </trkpt>
      <trkpt lat="46.059168130159378" lon="9.222788102924824">
        <ele>1191.6900000000001</ele>
        <time>2015-11-08T15:03:53Z</time>
      </trkpt>
      <trkpt lat="46.059240885078907" lon="9.222857924178243">
        <ele>1189.77</ele>
        <time>2015-11-08T15:04:05Z</time>
      </trkpt>
      <trkpt lat="46.059338869526982" lon="9.222921039909124">
        <ele>1187.3699999999999</ele>
        <time>2015-11-08T15:04:17Z</time>
      </trkpt>
      <trkpt lat="46.059389244765043" lon="9.222979629412293">
        <ele>1185.9200000000001</ele>
        <time>2015-11-08T15:04:29Z</time>
      </trkpt>
      <trkpt lat="46.059406511485577" lon="9.223051210865378">
        <ele>1183.52</ele>
        <time>2015-11-08T15:04:40Z</time>
      </trkpt>
      <trkpt lat="46.059445403516293" lon="9.22312212176621">
        <ele>1181.1199999999999</ele>
        <time>2015-11-08T15:04:51Z</time>
      </trkpt>
      <trkpt lat="46.059486726298928" lon="9.223169898614287">
        <ele>1179.1900000000001</ele>
        <time>2015-11-08T15:05:02Z</time>
      </trkpt>
      <trkpt lat="46.059553362429142" lon="9.223224883899093">
        <ele>1176.79</ele>
        <time>2015-11-08T15:05:14Z</time>
      </trkpt>
      <trkpt lat="46.059595188125968" lon="9.223276348784566">
        <ele>1174.8699999999999</ele>
        <time>2015-11-08T15:05:26Z</time>
      </trkpt>
      <trkpt lat="46.059638606384397" lon="9.223301913589239">
        <ele>1172.47</ele>
        <time>2015-11-08T15:05:36Z</time>
      </trkpt>
      <trkpt lat="46.059704907238483" lon="9.223342146724463">
        <ele>1170.0599999999999</ele>
        <time>2015-11-08T15:05:47Z</time>
      </trkpt>
      <trkpt lat="46.05975117534399" lon="9.223337788134813">
        <ele>1169.5799999999999</ele>
        <time>2015-11-08T15:05:57Z</time>
      </trkpt>
      <trkpt lat="46.059781182557344" lon="9.22335471957922">
        <ele>1168.1400000000001</ele>
        <time>2015-11-08T15:06:10Z</time>
      </trkpt>
      <trkpt lat="46.059788055717945" lon="9.223380954936147">
        <ele>1166.7</ele>
        <time>2015-11-08T15:06:19Z</time>
      </trkpt>
      <trkpt lat="46.059828456491232" lon="9.223394952714443">
        <ele>1164.77</ele>
        <time>2015-11-08T15:06:31Z</time>
      </trkpt>
      <trkpt lat="46.059894505888224" lon="9.223376596346498">
        <ele>1161.8900000000001</ele>
        <time>2015-11-08T15:06:40Z</time>
      </trkpt>
      <trkpt lat="46.05993339791894" lon="9.223359497264028">
        <ele>1160.45</ele>
        <time>2015-11-08T15:06:49Z</time>
      </trkpt>
      <trkpt lat="46.059991484507918" lon="9.223330495879054">
        <ele>1158.53</ele>
        <time>2015-11-08T15:06:58Z</time>
      </trkpt>
      <trkpt lat="46.060037584975362" lon="9.223428145051003">
        <ele>1156.5999999999999</ele>
        <time>2015-11-08T15:07:09Z</time>
      </trkpt>
      <trkpt lat="46.060057114809752" lon="9.223436946049333">
        <ele>1155.1600000000001</ele>
        <time>2015-11-08T15:07:16Z</time>
      </trkpt>
      <trkpt lat="46.060088714584708" lon="9.223335273563862">
        <ele>1153.24</ele>
        <time>2015-11-08T15:07:27Z</time>
      </trkpt>
      <trkpt lat="46.060084523633122" lon="9.223274756222963">
        <ele>1151.3199999999999</ele>
        <time>2015-11-08T15:07:35Z</time>
      </trkpt>
      <trkpt lat="46.06020069681108" lon="9.223256651312113">
        <ele>1150.3499999999999</ele>
        <time>2015-11-08T15:07:46Z</time>
      </trkpt>
      <trkpt lat="46.060203043743968" lon="9.223264195024967">
        <ele>1150.3499999999999</ele>
        <time>2015-11-08T15:07:47Z</time>
      </trkpt>
      <trkpt lat="46.060238415375352" lon="9.223392270505428">
        <ele>1148.9100000000001</ele>
        <time>2015-11-08T15:07:59Z</time>
      </trkpt>
      <trkpt lat="46.060266830027103" lon="9.223445411771536">
        <ele>1149.3900000000001</ele>
        <time>2015-11-08T15:08:06Z</time>
      </trkpt>
      <trkpt lat="46.060297675430775" lon="9.223509281873703">
        <ele>1148.9100000000001</ele>
        <time>2015-11-08T15:08:16Z</time>
      </trkpt>
      <trkpt lat="46.060333382338285" lon="9.22356485389173">
        <ele>1146.51</ele>
        <time>2015-11-08T15:08:26Z</time>
      </trkpt>
      <trkpt lat="46.060365820303559" lon="9.223617073148489">
        <ele>1145.55</ele>
        <time>2015-11-08T15:08:32Z</time>
      </trkpt>
      <trkpt lat="46.060372944921255" lon="9.223673734813929">
        <ele>1146.03</ele>
        <time>2015-11-08T15:08:37Z</time>
      </trkpt>
      <trkpt lat="46.060292311012745" lon="9.223771132528782">
        <ele>1146.51</ele>
        <time>2015-11-08T15:08:49Z</time>
      </trkpt>
      <trkpt lat="46.060280576348305" lon="9.223801055923104">
        <ele>1146.51</ele>
        <time>2015-11-08T15:08:52Z</time>
      </trkpt>
      <trkpt lat="46.060267919674516" lon="9.22382527962327">
        <ele>1146.51</ele>
        <time>2015-11-08T15:08:54Z</time>
      </trkpt>
      <trkpt lat="46.060158284381032" lon="9.223950169980526">
        <ele>1144.5899999999999</ele>
        <time>2015-11-08T15:09:07Z</time>
      </trkpt>
      <trkpt lat="46.060053510591388" lon="9.224075898528099">
        <ele>1145.0699999999999</ele>
        <time>2015-11-08T15:09:20Z</time>
      </trkpt>
      <trkpt lat="46.05998620390892" lon="9.22416583634913">
        <ele>1144.5899999999999</ele>
        <time>2015-11-08T15:09:28Z</time>
      </trkpt>
      <trkpt lat="46.059997687116265" lon="9.224342107772827">
        <ele>1145.55</ele>
        <time>2015-11-08T15:09:40Z</time>
      </trkpt>
      <trkpt lat="46.060008332133293" lon="9.224571269005537">
        <ele>1145.55</ele>
        <time>2015-11-08T15:09:50Z</time>
      </trkpt>
      <trkpt lat="46.060011936351657" lon="9.224591972306371">
        <ele>1145.55</ele>
        <time>2015-11-08T15:09:51Z</time>
      </trkpt>
      <trkpt lat="46.060001039877534" lon="9.22477075830102">
        <ele>1145.55</ele>
        <time>2015-11-08T15:10:02Z</time>
      </trkpt>
      <trkpt lat="46.059971954673529" lon="9.224950131028891">
        <ele>1145.0699999999999</ele>
        <time>2015-11-08T15:10:14Z</time>
      </trkpt>
      <trkpt lat="46.059968182817101" lon="9.225122965872288">
        <ele>1143.1400000000001</ele>
        <time>2015-11-08T15:10:26Z</time>
      </trkpt>
      <trkpt lat="46.059943456202745" lon="9.225296471267939">
        <ele>1143.1400000000001</ele>
        <time>2015-11-08T15:10:37Z</time>
      </trkpt>
      <trkpt lat="46.05991093441844" lon="9.225491434335709">
        <ele>1143.1400000000001</ele>
        <time>2015-11-08T15:10:49Z</time>
      </trkpt>
      <trkpt lat="46.059857122600079" lon="9.225712297484279">
        <ele>1142.1800000000001</ele>
        <time>2015-11-08T15:11:00Z</time>
      </trkpt>
      <trkpt lat="46.059789648279548" lon="9.225917989388108">
        <ele>1142.6600000000001</ele>
        <time>2015-11-08T15:11:11Z</time>
      </trkpt>
      <trkpt lat="46.059731729328632" lon="9.226116724312306">
        <ele>1142.6600000000001</ele>
        <time>2015-11-08T15:11:23Z</time>
      </trkpt>
      <trkpt lat="46.059697950258851" lon="9.226249661296606">
        <ele>1142.6600000000001</ele>
        <time>2015-11-08T15:11:32Z</time>
      </trkpt>
      <trkpt lat="46.059657465666533" lon="9.226387459784746">
        <ele>1142.1800000000001</ele>
        <time>2015-11-08T15:11:40Z</time>
      </trkpt>
      <trkpt lat="46.059644054621458" lon="9.226459795609117">
        <ele>1141.7</ele>
        <time>2015-11-08T15:11:44Z</time>
      </trkpt>
      <trkpt lat="46.059587728232145" lon="9.226701613515616">
        <ele>1142.1800000000001</ele>
        <time>2015-11-08T15:11:59Z</time>
      </trkpt>
      <trkpt lat="46.059542549774051" lon="9.226892301812768">
        <ele>1142.1800000000001</ele>
        <time>2015-11-08T15:12:10Z</time>
      </trkpt>
      <trkpt lat="46.059534000232816" lon="9.227084163576365">
        <ele>1141.22</ele>
        <time>2015-11-08T15:12:22Z</time>
      </trkpt>
      <trkpt lat="46.059528635814786" lon="9.227184746414423">
        <ele>1141.22</ele>
        <time>2015-11-08T15:12:28Z</time>
      </trkpt>
      <trkpt lat="46.059514386579394" lon="9.227258171886206">
        <ele>1140.74</ele>
        <time>2015-11-08T15:12:32Z</time>
      </trkpt>
      <trkpt lat="46.059482619166374" lon="9.227526392787695">
        <ele>1138.3399999999999</ele>
        <time>2015-11-08T15:12:46Z</time>
      </trkpt>
      <trkpt lat="46.059499131515622" lon="9.227610882371664">
        <ele>1137.8599999999999</ele>
        <time>2015-11-08T15:12:51Z</time>
      </trkpt>
      <trkpt lat="46.05950633995235" lon="9.227787153795362">
        <ele>1137.3800000000001</ele>
        <time>2015-11-08T15:13:01Z</time>
      </trkpt>
      <trkpt lat="46.059515979140997" lon="9.227845994755626">
        <ele>1137.3800000000001</ele>
        <time>2015-11-08T15:13:04Z</time>
      </trkpt>
      <trkpt lat="46.059567611664534" lon="9.22801623120904">
        <ele>1135.45</ele>
        <time>2015-11-08T15:13:14Z</time>
      </trkpt>
      <trkpt lat="46.059578005224466" lon="9.228070378303528">
        <ele>1134.97</ele>
        <time>2015-11-08T15:13:17Z</time>
      </trkpt>
      <trkpt lat="46.059661153703928" lon="9.228210942819715">
        <ele>1134.01</ele>
        <time>2015-11-08T15:13:27Z</time>
      </trkpt>
      <trkpt lat="46.05976483784616" lon="9.228397943079472">
        <ele>1133.05</ele>
        <time>2015-11-08T15:13:40Z</time>
      </trkpt>
      <trkpt lat="46.059847483411431" lon="9.228585194796324">
        <ele>1132.5699999999999</ele>
        <time>2015-11-08T15:13:52Z</time>
      </trkpt>
      <trkpt lat="46.059904145076871" lon="9.228776888921857">
        <ele>1130.6500000000001</ele>
        <time>2015-11-08T15:14:03Z</time>
      </trkpt>
      <trkpt lat="46.059984443709254" lon="9.228959949687123">
        <ele>1128.24</ele>
        <time>2015-11-08T15:14:15Z</time>
      </trkpt>
      <trkpt lat="46.060060132294893" lon="9.229092467576265">
        <ele>1125.3599999999999</ele>
        <time>2015-11-08T15:14:26Z</time>
      </trkpt>
      <trkpt lat="46.060092151165009" lon="9.229169161990285">
        <ele>1123.9200000000001</ele>
        <time>2015-11-08T15:14:34Z</time>
      </trkpt>
      <trkpt lat="46.060117883607745" lon="9.229223811998963">
        <ele>1121.52</ele>
        <time>2015-11-08T15:14:41Z</time>
      </trkpt>
      <trkpt lat="46.060176137834787" lon="9.229343254119158">
        <ele>1118.1500000000001</ele>
        <time>2015-11-08T15:14:51Z</time>
      </trkpt>
      <trkpt lat="46.060194494202733" lon="9.229412572458386">
        <ele>1117.1900000000001</ele>
        <time>2015-11-08T15:14:56Z</time>
      </trkpt>
      <trkpt lat="46.060207569971681" lon="9.229550287127495">
        <ele>1114.3099999999999</ele>
        <time>2015-11-08T15:15:07Z</time>
      </trkpt>
      <trkpt lat="46.060217544436455" lon="9.229633184149861">
        <ele>1112.3800000000001</ele>
        <time>2015-11-08T15:15:16Z</time>
      </trkpt>
      <trkpt lat="46.060229865834117" lon="9.229709124192596">
        <ele>1110.9400000000001</ele>
        <time>2015-11-08T15:15:24Z</time>
      </trkpt>
      <trkpt lat="46.060290466994047" lon="9.229828985407949">
        <ele>1107.5799999999999</ele>
        <time>2015-11-08T15:15:36Z</time>
      </trkpt>
      <trkpt lat="46.060307985171676" lon="9.229916073381901">
        <ele>1105.1700000000001</ele>
        <time>2015-11-08T15:15:48Z</time>
      </trkpt>
      <trkpt lat="46.06029893271625" lon="9.229973489418626">
        <ele>1104.21</ele>
        <time>2015-11-08T15:15:58Z</time>
      </trkpt>
      <trkpt lat="46.060232296586037" lon="9.229999724775553">
        <ele>1102.29</ele>
        <time>2015-11-08T15:16:07Z</time>
      </trkpt>
      <trkpt lat="46.06015283614397" lon="9.230025876313448">
        <ele>1099.8900000000001</ele>
        <time>2015-11-08T15:16:19Z</time>
      </trkpt>
      <trkpt lat="46.060076309368014" lon="9.229994779452682">
        <ele>1097.48</ele>
        <time>2015-11-08T15:16:30Z</time>
      </trkpt>
      <trkpt lat="46.060044206678867" lon="9.230012046173215">
        <ele>1096.04</ele>
        <time>2015-11-08T15:16:40Z</time>
      </trkpt>
      <trkpt lat="46.060083350166678" lon="9.230091255158186">
        <ele>1094.1199999999999</ele>
        <time>2015-11-08T15:16:52Z</time>
      </trkpt>
      <trkpt lat="46.060056611895561" lon="9.230087986215949">
        <ele>1093.6400000000001</ele>
        <time>2015-11-08T15:16:55Z</time>
      </trkpt>
      <trkpt lat="46.059975558891892" lon="9.230003915727139">
        <ele>1091.23</ele>
        <time>2015-11-08T15:17:05Z</time>
      </trkpt>
      <trkpt lat="46.059917891398072" lon="9.229952115565538">
        <ele>1090.75</ele>
        <time>2015-11-08T15:17:10Z</time>
      </trkpt>
      <trkpt lat="46.059870030730963" lon="9.229885982349515">
        <ele>1090.75</ele>
        <time>2015-11-08T15:17:16Z</time>
      </trkpt>
      <trkpt lat="46.059761568903923" lon="9.229762014001608">
        <ele>1090.27</ele>
        <time>2015-11-08T15:17:27Z</time>
      </trkpt>
      <trkpt lat="46.059697531163692" lon="9.22968833707273">
        <ele>1090.27</ele>
        <time>2015-11-08T15:17:34Z</time>
      </trkpt>
      <trkpt lat="46.059588314965367" lon="9.229560848325491">
        <ele>1089.3099999999999</ele>
        <time>2015-11-08T15:17:46Z</time>
      </trkpt>
    </trkseg>
  </trk>

</gpx>